GFSSGP_con_3kmehi_000.txt.gz
EHI
1.5 1.7 1.1 1.8 0.7 0.0 0.0 0.1 -0.0 -0.0 -0.0 -0.0 0.0 0.0 0.0 0.0 0.0 -0.1 -0.2 -0.2 -0.2 -0.2 -0.1 -0.1 0.2 0.2 0.1 0.1 0.2 -0.1 -0.3 -0.4 0.4 0.6 0.6 0.5 0.7 0.7 0.4 0.3 0.1 0.1 0.0 0.1 -0.2 -0.2 -0.2 -0.1 -0.1
1.2 1.0 1.1 0.9 0.0 -0.0 0.0 0.0 0.0 0.0 -0.0 -0.0 -0.0 -0.0 -0.0 -0.0 0.0 -0.0 -0.1 -0.2 -0.1 -0.1 -0.1 -0.0 0.3 0.3 0.1 0.1 0.1 -0.4 -0.5 -0.4 0.3 0.3 0.4 0.5 0.5 0.4 0.3 0.2 0.1 -0.2 -0.2 -0.2 -0.2 -0.1 -0.1 -0.1 -0.0
0.6 0.8 0.8 0.0 0.0 0.0 0.0 -0.0 -0.0 -0.0 -0.0 -0.0 0.0 0.0 -0.0 -0.1 -0.0 -0.1 -0.1 -0.1 -0.1 -0.1 0.1 -0.0 0.2 0.1 0.0 0.0 -0.2 -0.7 -0.6 -0.0 0.2 0.2 0.2 0.3 0.3 0.2 0.2 0.2 0.0 -0.1 -0.2 -0.1 -0.1 -0.1 -0.1 -0.0 0.1
0.4 0.6 0.7 0.0 0.0 0.0 -0.0 -0.0 0.0 -0.0 -0.0 0.0 0.0 -0.0 0.0 -0.1 0.0 -0.0 -0.1 -0.1 -0.2 -0.2 0.0 -0.0 0.2 0.0 -0.2 -0.2 -0.4 -0.5 -0.5 -0.4 -0.5 -0.4 -0.5 -0.3 0.0 0.1 0.1 0.1 -0.1 -0.2 -0.2 -0.2 -0.2 -0.2 -0.0 0.0 0.1
0.3 0.1 0.0 -0.0 -0.0 0.0 -0.0 0.0 -0.0 0.0 0.0 0.0 -0.0 -0.0 0.0 -0.1 0.0 -0.1 -0.2 -0.1 -0.2 -0.1 -0.1 -0.1 0.0 -0.1 -0.2 -0.3 -0.2 -0.3 -0.2 -0.3 -0.3 -0.2 -0.2 -0.2 -0.1 0.2 0.1 0.1 -0.1 -0.2 -0.1 -0.1 -0.1 -0.0 0.0 0.1 0.1
0.2 0.0 -0.0 -0.0 -0.0 -0.0 -0.0 -0.0 -0.1 -0.0 0.0 0.0 -0.0 0.1 0.0 -0.2 -0.2 -0.3 -0.3 -0.2 -0.1 -0.2 -0.2 -0.2 -0.2 -0.3 -0.2 -0.2 -0.2 -0.2 -0.1 -0.2 -0.2 -0.1 -0.1 -0.1 0.0 0.1 0.0 -0.1 -0.2 -0.1 -0.0 0.0 0.1 0.1 0.1 0.1 0.0
0.1 0.0 0.0 -0.0 -0.0 -0.0 -0.0 -0.0 -0.1 -0.0 -0.0 -0.0 0.1 0.1 0.0 -0.1 -0.3 -0.4 -0.3 -0.2 -0.2 -0.3 -0.3 -0.3 -0.1 -0.3 -0.3 -0.3 -0.2 -0.2 -0.1 -0.1 -0.1 -0.1 -0.1 -0.1 0.0 0.0 -0.0 0.1 -0.0 0.0 0.0 0.1 0.1 -0.0 0.0 0.1 -0.1
0.1 0.0 0.0 0.0 -0.0 0.0 0.0 0.0 -0.0 -0.0 0.0 0.0 -0.0 0.0 0.1 0.1 -0.1 -0.2 -0.2 -0.2 -0.3 -0.3 -0.4 -0.4 -0.4 -0.1 -0.1 -0.2 -0.3 -0.3 -0.2 -0.1 -0.2 -0.2 -0.2 -0.0 0.0 -0.0 0.1 0.3 0.1 -0.0 -0.0 -0.0 -0.0 0.1 0.1 0.0 -0.0
0.0 0.1 -0.0 0.0 0.0 0.0 0.1 -0.0 -0.0 -0.0 0.0 0.1 -0.0 0.0 0.2 0.1 0.1 0.0 -0.0 -0.2 -0.3 -0.4 -0.4 -0.3 -0.2 -0.1 -0.0 -0.2 -0.2 -0.2 -0.2 -0.2 -0.2 -0.1 -0.1 0.1 0.0 -0.0 0.0 -0.5 -0.1 0.0 -0.0 -0.1 0.1 0.2 0.0 0.2 0.3
0.0 0.1 0.0 0.0 0.0 0.1 0.1 0.0 0.2 0.1 0.2 0.1 0.0 0.1 0.2 0.2 0.2 0.2 0.2 0.0 -0.1 -0.2 -0.3 -0.1 -0.1 -0.1 -0.2 -0.1 -0.3 -0.2 -0.1 -0.1 -0.0 -0.0 -0.1 0.0 -0.1 -0.1 0.0 -0.0 -0.1 0.0 0.0 0.0 0.0 0.0 0.1 0.3 -0.1
-0.0 0.0 0.0 -0.0 -0.0 0.1 0.1 0.1 0.1 -0.0 0.2 0.2 0.3 0.1 0.3 0.3 0.2 0.2 0.1 0.1 0.1 -0.0 -0.1 -0.1 -0.1 -0.2 -0.2 -0.3 -0.2 -0.3 -0.2 -0.1 -0.1 -0.1 -0.0 -0.1 -0.1 -0.1 -0.1 -0.1 -0.0 -0.0 0.1 0.1 0.2 0.1 -0.0 -0.2 -0.2
0.0 0.0 0.0 0.0 -0.0 0.0 0.2 0.2 0.1 0.0 0.0 0.1 0.2 0.3 0.5 0.4 0.2 0.1 0.1 0.0 0.0 0.0 0.0 -0.0 -0.1 -0.2 -0.2 -0.7 -0.2 -0.2 -0.1 -0.1 -0.1 -0.0 -0.0 -0.0 0.0 -0.1 -0.1 -0.1 -0.2 -0.1 -0.2 -0.1 -0.1 -0.1 -0.2 -0.3 -0.2
0.0 0.0 0.0 0.0 -0.0 -0.0 0.1 0.1 0.1 -0.0 -0.0 0.0 0.2 0.4 0.5 0.4 0.2 0.1 0.1 0.1 0.0 0.0 0.0 0.0 -0.0 -0.1 -0.1 -0.1 -0.2 -0.1 -0.1 -0.1 -0.1 -0.1 -0.0 -0.0 -0.0 -0.1 -0.1 -0.2 -0.1 -0.1 -0.1 -0.1 -0.2 -0.2 -0.3 -0.3 -0.2
0.0 0.0 0.0 -0.0 -0.0 0.0 0.1 0.1 -0.0 -0.0 -0.0 -0.1 0.3 0.5 0.4 0.4 0.3 0.2 0.1 0.1 0.1 0.0 0.0 0.0 0.0 -0.0 0.0 -0.0 0.0 -0.1 -0.1 -0.1 -0.1 -0.1 -0.0 0.0 -0.0 -0.3 -0.2 -0.2 -0.1 -0.1 -0.1 -0.1 -0.1 -0.2 -0.2 -0.2 -0.2
0.0 0.0 0.0 0.0 0.0 0.0 0.0 0.2 0.2 -0.1 -0.1 -0.3 0.1 0.3 0.4 0.4 0.4 0.4 0.3 0.2 0.1 0.0 0.0 0.1 0.0 0.1 0.1 0.1 -0.1 -0.1 -0.1 -0.1 -0.1 -0.1 -0.1 -0.1 -0.1 -0.2 -0.1 -0.1 -0.0 0.0 0.1 0.1 0.1 -0.0 -0.0 -0.2 -0.1
-0.0 0.0 0.0 0.0 0.1 0.1 0.1 0.1 0.3 0.3 0.0 -0.3 -0.2 0.0 0.1 0.2 0.3 0.3 0.3 0.2 0.1 0.1 0.1 0.0 -0.0 0.2 0.1 0.1 -0.0 -0.1 -0.1 -0.0 -0.0 -0.1 -0.2 -0.2 -0.1 -0.1 -0.1 -0.1 -0.0 0.0 0.1 0.1 0.2 0.1 0.1 0.0 0.0
-0.0 0.0 0.0 0.1 0.0 0.0 0.1 0.0 0.3 0.3 0.2 -0.1 -0.3 -0.2 -0.0 -0.0 0.2 0.3 0.2 0.2 0.1 0.1 0.1 0.1 0.1 0.1 0.2 0.1 0.1 0.0 0.0 -0.2 -0.4 -0.3 -0.1 0.1 0.0 -0.0 -0.0 0.0 0.1 0.3 0.1 0.1 -0.1 0.1 0.2 0.0 0.0
-0.0 0.0 0.0 -0.0 -0.1 -0.0 0.1 0.0 0.1 0.3 0.4 0.2 -0.0 -0.2 -0.2 -0.1 0.1 0.2 0.2 0.2 0.2 0.2 0.1 0.1 0.1 0.1 0.2 0.1 0.1 -0.1 -0.1 -0.1 -0.2 -0.2 -0.1 -0.0 0.1 0.2 0.2 0.1 0.0 0.1 0.2 -0.1 0.1 0.3 0.1 0.1 0.0
0.0 -0.0 0.0 0.0 0.0 0.0 0.1 0.1 0.0 -0.0 0.2 0.3 0.3 0.2 0.0 -0.1 0.0 0.1 0.1 0.2 0.3 0.3 0.5 0.4 0.4 0.3 0.2 0.1 0.1 0.1 0.0 -0.1 -0.3 -0.2 -0.2 -0.1 -0.0 0.1 0.1 0.1 0.2 0.3 -0.1 0.2 0.2 0.1 0.0 0.0 0.0
0.0 -0.0 -0.0 0.0 0.0 0.0 0.0 0.1 0.0 0.0 0.4 0.3 0.4 0.5 0.3 -0.1 -0.1 0.0 0.1 0.1 0.3 0.5 0.6 0.5 0.2 0.3 0.3 -0.0 -0.1 -0.4 -0.4 -0.2 0.1 -0.0 -0.1 0.0 0.2 0.3 0.2 0.1 0.1 0.3 0.1 0.1 0.1 0.0 0.0 0.0 0.0
-0.0 -0.0 -0.0 0.0 0.0 0.0 0.0 0.0 0.0 0.0 0.1 0.2 0.2 0.3 0.3 0.2 0.3 0.3 0.2 0.2 0.3 0.6 0.7 0.5 0.4 0.1 0.0 -0.3 -0.3 -0.5 -0.6 -0.3 -0.2 -0.1 -0.2 -0.2 -0.2 -0.1 -0.1 0.0 0.0 0.3 0.0 0.0 0.0 0.0 0.0 0.0 0.1
-0.0 -0.0 0.0 0.0 0.0 0.0 0.0 0.0 0.0 0.0 0.1 0.3 0.5 0.4 0.3 0.6 0.7 0.2 0.2 0.4 0.5 0.6 0.5 0.6 0.0 -0.4 -0.4 -0.3 -0.6 -0.4 -0.5 -0.4 -0.3 -0.5 -0.5 -1.1 -1.1 -0.7 -0.3 0.1 0.2 0.0 0.0 0.0 0.0 0.0 0.0 0.0 0.0
-0.0 0.0 0.0 0.0 0.0 0.0 0.1 0.0 0.0 0.0 -0.0 0.1 0.5 0.7 0.4 0.3 0.5 0.8 0.6 0.5 0.4 0.4 0.5 0.3 -0.3 -0.8 -1.0 -0.6 -1.4 -0.9 -1.0 -0.6 -0.6 -0.6 -0.9 -1.3 -0.7 -0.3 0.2 0.5 0.2 0.1 0.0 0.1 0.0 0.0 0.0 0.0 0.0
0.0 0.0 0.0 0.0 0.0 -0.0 -0.0 0.0 0.0 0.0 -0.0 0.0 0.1 0.4 0.5 0.3 0.3 0.4 0.5 0.4 0.3 0.2 0.3 -0.1 -0.4 -1.1 -1.4 -1.5 -1.2 -1.4 -1.2 -1.1 -0.6 -0.6 -0.4 -0.3 -0.1 0.2 0.3 0.6 0.3 0.1 0.0 0.1 0.0 0.0 0.0 0.0 0.0
0.0 0.0 0.0 0.0 0.0 0.0 0.0 -0.0 0.0 0.0 0.0 0.0 0.0 0.1 0.3 0.3 0.3 0.4 0.4 0.4 0.3 0.3 0.1 -0.0 -0.2 -0.9 -1.3 -1.6 -1.6 -1.6 -1.4 -1.3 -1.2 -1.0 -0.4 -0.2 -0.0 0.1 0.5 0.7 0.4 0.1 0.1 0.1 0.0 0.0 0.0 0.0 0.0
0.0 0.0 0.0 0.0 0.0 0.0 0.0 0.0 -0.0 0.0 0.0 0.0 0.0 0.0 0.2 0.2 0.3 0.4 0.5 0.6 0.6 0.4 0.1 0.0 -0.1 -0.6 -0.6 -1.3 -2.0 -2.5 -2.1 -1.7 -1.2 -0.9 -0.5 -0.1 0.0 0.1 0.1 0.6 0.3 0.1 0.1 0.1 0.0 0.0 0.0 0.0 0.0
0.0 0.0 0.0 0.0 0.0 0.0 0.0 0.0 -0.0 0.0 0.0 0.0 0.0 0.0 0.0 0.2 0.2 0.3 0.5 0.6 0.8 0.5 0.3 0.3 -0.2 -0.0 0.2 -0.5 -1.6 -2.1 -2.1 -1.3 -0.8 -0.6 -0.1 0.1 0.2 0.1 0.4 0.5 0.3 0.1 0.1 0.0 0.0 0.0 0.0 0.0 0.0
0.0 0.0 0.0 0.0 0.0 0.0 0.0 0.0 0.0 0.0 0.0 0.0 0.0 0.0 0.0 0.2 0.2 0.2 0.4 0.8 1.0 0.8 0.4 0.3 0.3 0.4 0.4 0.2 -0.5 -1.0 -0.8 -0.8 -0.5 -0.1 0.9 0.7 0.7 0.4 0.5 0.3 0.2 0.2 0.1 0.0 0.1 0.0 0.0 0.0 0.0
0.0 0.0 0.0 0.0 0.0 0.0 0.0 0.0 0.0 0.0 0.0 0.0 0.0 0.0 0.0 0.1 0.4 0.2 0.2 0.5 1.2 0.8 0.5 0.5 0.4 0.4 0.5 0.6 0.6 0.2 0.4 0.6 0.5 0.7 1.0 0.9 1.6 1.0 0.4 0.3 0.1 0.1 0.1 0.1 0.1 0.0 0.0 0.0 0.0
0.0 0.0 0.0 0.0 0.0 0.0 0.0 0.0 0.0 0.0 0.0 -0.0 0.0 0.0 0.0 0.1 0.4 0.4 0.3 0.3 0.9 1.1 0.7 0.5 0.5 0.4 0.5 1.4 1.8 1.2 1.4 1.6 2.0 2.0 1.3 1.7 0.9 1.0 0.8 0.3 0.1 0.1 0.1 0.1 0.1 0.1 0.0 0.0 0.0

GFSSGP_con_3kmehi_003.txt.gz
EHI
1.8 2.0 0.5 0.1 0.1 -0.0 0.0 -0.0 -0.0 -0.1 0.0 0.0 -0.0 0.1 0.0 0.0 0.1 -0.1 -0.1 0.0 -0.1 -0.1 -0.1 -0.1 0.0 -0.0 -0.2 -0.3 -0.2 -0.2 -0.3 -0.4 0.6 0.7 0.9 0.8 0.7 0.5 0.5 0.2 0.2 0.1 0.1 -0.0 -0.1 -0.1 -0.1 -0.1 -0.0
1.8 1.2 3.1 0.9 -0.2 -0.0 0.0 -0.0 0.0 0.0 0.0 -0.0 -0.0 0.0 0.0 -0.0 -0.1 -0.0 -0.1 -0.1 -0.0 -0.0 -0.0 -0.1 0.1 -0.1 -0.2 -0.3 -0.3 -0.3 -0.3 -0.3 0.1 0.3 0.3 0.4 0.4 0.4 0.3 0.2 0.1 0.1 0.0 -0.1 -0.1 -0.1 -0.1 -0.0 -0.1
1.8 1.4 2.3 0.7 0.0 -0.0 0.0 0.0 0.1 0.0 -0.0 -0.0 -0.0 0.1 0.0 -0.0 -0.0 -0.0 -0.1 -0.1 -0.0 -0.1 -0.2 -0.2 -0.1 -0.2 -0.2 -0.3 -0.3 -0.4 -0.5 -0.4 -0.2 0.0 0.1 0.2 0.2 0.2 0.2 0.1 0.1 0.1 0.0 -0.1 -0.1 -0.1 -0.1 -0.1 -0.1
0.8 0.9 0.9 0.0 0.0 0.0 0.0 0.1 0.0 -0.0 0.0 0.0 0.1 0.1 -0.0 -0.0 0.0 0.0 -0.1 -0.1 -0.1 -0.2 -0.3 -0.3 -0.2 -0.2 -0.2 -0.3 -0.4 -0.4 -0.5 -0.5 -0.3 -0.2 0.0 0.1 0.2 0.2 0.1 0.1 0.1 0.1 0.0 0.0 -0.0 -0.0 0.0 -0.1 -0.2
0.7 0.5 0.7 -0.0 0.0 0.0 0.0 0.0 -0.0 -0.0 0.0 -0.0 0.1 0.1 0.1 -0.0 0.2 0.0 -0.1 -0.1 -0.1 -0.1 -0.1 -0.1 -0.3 -0.3 -0.3 -0.3 -0.3 -0.4 -0.3 -0.3 -0.3 -0.4 -0.2 -0.0 0.2 0.2 0.2 0.2 0.1 -0.1 -0.0 0.1 0.3 0.3 0.2 0.0 -0.1
0.2 0.1 0.0 0.0 0.0 0.0 0.0 -0.0 -0.0 0.1 0.1 0.0 0.3 0.1 -0.0 -0.1 0.1 -0.0 0.0 -0.2 -0.1 -0.2 -0.1 -0.1 -0.2 -0.3 -0.4 -0.3 -0.4 -0.2 -0.2 -0.4 -0.5 -0.4 -0.4 -0.1 0.1 0.1 0.2 0.3 0.1 -0.1 0.1 0.3 0.4 0.2 0.1 0.1 -0.1
0.4 0.2 0.0 0.0 0.0 0.0 0.0 -0.0 -0.0 0.0 0.0 0.0 0.1 0.2 0.1 0.0 -0.0 -0.0 0.0 -0.2 -0.1 -0.2 -0.2 -0.1 -0.1 -0.2 -0.4 -0.4 -0.3 -0.3 -0.3 -0.3 -0.2 -0.2 -0.0 -0.0 0.0 -0.1 0.1 0.2 0.1 -0.0 0.1 0.1 0.1 -0.0 -0.1 -0.1 -0.2
0.1 0.0 0.0 0.1 0.0 0.0 0.0 -0.0 0.0 0.0 0.1 0.1 -0.0 0.1 0.2 0.2 -0.0 0.1 -0.2 -0.1 -0.1 0.0 -0.2 -0.1 -0.1 -0.2 -0.2 -0.2 -0.2 -0.3 -0.2 -0.2 -0.1 -0.1 -0.0 0.1 0.1 -0.0 0.1 0.1 0.2 0.2 0.0 -0.0 0.2 0.3 0.2 0.3 0.3
0.0 0.0 0.0 0.0 0.1 0.0 0.0 0.0 -0.0 0.0 0.0 -0.0 0.1 0.2 0.3 0.3 0.0 0.2 0.2 -0.1 -0.2 -0.2 -0.1 -0.2 -0.2 -0.3 -0.2 -0.3 -0.4 -0.3 -0.2 -0.1 -0.1 -0.0 -0.0 0.2 0.1 0.2 0.1 0.5 0.3 0.2 0.3 0.2 0.3 0.3 0.3 0.2 0.2
0.0 0.0 0.0 0.0 0.0 0.0 0.0 0.0 0.0 0.0 0.0 0.0 0.1 0.4 0.5 0.3 0.2 0.4 0.3 0.0 -0.0 -0.1 0.1 -0.1 -0.1 -0.1 -0.0 -0.1 -0.3 -0.2 -0.1 -0.0 0.0 -0.0 -0.0 0.2 -0.3 -0.3 0.1 0.1 0.1 0.1 0.2 0.2 0.1 0.2 0.2 0.6 0.6
0.0 0.1 0.1 0.0 0.0 0.0 0.0 0.0 0.0 0.0 0.0 0.1 0.1 0.2 0.3 0.4 0.2 0.3 0.2 0.1 0.0 -0.0 -0.1 0.4 -0.2 -0.2 0.1 0.4 -0.3 -0.3 -0.2 -0.1 -0.1 -0.1 -0.1 -0.0 -0.2 0.1 0.4 0.6 0.8 0.6 0.4 0.8 -0.1 0.6 -0.0 -0.1 -0.2
0.0 0.0 0.0 0.0 0.0 -0.0 0.0 0.0 0.0 -0.0 0.0 0.0 0.1 0.1 0.2 0.3 0.2 0.2 0.1 0.0 -0.0 -0.0 -0.1 -0.2 -0.1 -0.3 -0.2 -0.4 -0.3 -0.1 -0.1 -0.0 -0.1 -0.1 -0.0 0.0 -0.1 0.1 -0.0 -0.6 -0.1 -0.2 -0.1 -0.4 -0.2 -0.3 -0.2 -0.2 -0.2
0.0 0.0 0.0 0.0 0.0 0.0 0.0 0.0 0.0 0.0 0.0 0.0 0.2 0.1 0.1 0.2 0.2 0.1 0.0 -0.0 -0.0 0.0 0.0 -0.0 -0.1 -0.2 -0.2 -0.2 -0.2 -0.1 -0.1 -0.1 -0.1 -0.2 -0.1 -0.0 0.0 -0.6 -0.6 -0.1 -0.1 -0.2 -0.4 -0.4 -0.1 -0.1 -0.2 -0.2 -0.2
-0.0 -0.0 0.0 0.0 0.0 0.0 -0.0 0.0 0.0 0.0 0.0 0.1 0.2 0.1 0.1 0.1 0.2 0.1 0.0 0.0 0.0 0.1 0.1 0.1 0.1 -0.1 -0.2 -0.3 0.1 -0.2 -0.2 -0.2 -0.1 -0.1 -0.1 -0.1 -0.1 -0.1 -0.2 -0.4 -0.3 -0.1 0.1 -0.3 -0.1 0.3 -0.1 -0.3 -0.1
0.0 0.0 0.0 0.0 0.0 0.0 -0.0 0.0 0.0 0.0 0.0 0.1 0.1 0.1 0.1 0.1 0.1 0.2 0.2 0.1 0.1 0.0 0.0 0.0 0.0 0.1 0.1 -0.0 -0.1 -0.2 -0.1 -0.0 -0.1 -0.1 -0.2 -0.1 -0.1 -0.1 -0.1 -0.3 -0.1 -0.2 0.4 0.3 0.2 0.4 0.7 0.1 -0.0
-0.0 0.0 0.0 0.0 0.0 0.0 -0.0 0.0 0.1 0.0 0.0 0.0 -0.0 -0.0 0.0 0.1 0.1 0.1 0.1 0.1 0.2 0.1 0.1 0.0 -0.0 0.2 0.2 -0.0 -0.1 -0.1 -0.1 -0.4 -0.1 -0.2 -0.1 0.3 -0.0 -0.1 -0.1 -0.1 0.0 0.6 0.1 0.3 0.2 0.1 -0.0 0.0 0.0
-0.0 0.0 0.0 0.0 0.0 0.0 0.0 -0.0 0.1 0.1 0.0 0.0 -0.0 -0.1 -0.1 0.0 0.1 0.2 0.2 0.1 0.1 0.1 0.2 0.2 0.1 0.1 0.4 0.4 -0.1 -0.0 -0.2 -0.4 -0.6 -0.4 -0.6 -0.5 0.0 -0.0 -0.1 -0.1 -0.3 1.0 0.1 0.4 0.3 0.3 0.2 0.0 0.0
-0.0 0.0 0.0 0.1 0.0 0.0 0.0 0.0 0.1 0.1 0.0 0.0 0.0 -0.0 -0.2 -0.1 0.1 0.1 0.1 0.1 0.1 0.2 0.2 0.3 0.3 0.2 0.2 0.4 -0.0 -0.4 -0.1 -0.2 -0.3 -0.4 -0.3 -0.2 -0.2 -0.1 0.1 -0.1 0.3 0.2 0.4 0.3 0.3 0.3 0.0 0.0 0.0
0.0 0.0 0.0 0.0 0.0 0.0 0.0 0.0 0.1 0.1 0.0 0.0 0.0 -0.0 0.0 -0.1 -0.0 0.1 0.1 0.1 0.2 0.3 0.5 0.6 0.7 1.3 0.5 0.7 0.6 -0.0 -0.0 -0.2 -0.1 -0.1 1.2 -0.0 0.1 0.4 0.6 0.1 1.0 0.4 0.3 0.6 0.2 0.0 0.0 0.0 0.0
0.0 -0.0 -0.0 0.0 0.0 0.0 0.0 0.0 0.0 0.4 0.0 0.0 0.0 0.0 0.0 0.0 -0.1 -0.0 0.2 0.1 0.3 0.5 1.0 1.6 1.7 2.2 1.3 0.9 0.2 -0.4 0.2 0.2 0.0 0.1 0.3 0.4 0.5 0.7 0.6 0.4 0.4 0.5 0.3 0.3 0.1 0.0 0.0 0.0 0.1
-0.0 -0.0 -0.0 -0.0 0.1 -0.0 0.0 0.0 0.0 0.1 0.3 0.0 0.0 0.0 0.0 0.0 0.0 0.3 0.1 0.2 0.4 0.7 1.1 2.3 2.9 2.9 2.2 0.5 0.5 0.2 0.3 0.1 0.3 0.4 0.6 0.3 0.2 0.1 0.3 0.3 0.1 0.6 0.1 0.0 0.1 0.0 0.0 0.0 0.1
-0.0 -0.0 0.0 -0.0 0.0 0.0 0.0 -0.0 0.1 0.0 0.1 0.3 0.2 0.2 0.1 0.2 0.1 0.3 0.6 0.4 0.4 0.8 1.1 1.7 3.1 2.5 2.3 1.5 -0.0 1.5 0.5 0.1 0.0 0.1 0.2 0.6 0.0 0.1 -0.0 -0.1 0.1 0.4 0.0 0.2 0.0 0.0 0.0 0.0 0.0
-0.0 -0.0 -0.0 0.0 0.0 0.1 0.0 -0.0 0.0 -0.0 0.1 0.1 0.2 0.2 0.2 0.1 0.2 0.4 1.1 0.9 0.5 0.7 1.0 1.6 3.2 2.9 1.6 2.2 0.0 0.8 -0.1 0.0 -0.1 -0.1 0.3 -0.6 -0.5 -0.3 -0.1 0.1 0.4 0.1 0.0 0.1 0.0 0.0 0.0 0.0 0.0
-0.0 0.0 0.0 0.0 0.0 0.0 0.0 0.0 -0.0 0.1 -0.0 0.1 0.1 0.3 0.3 0.2 0.2 0.6 0.5 0.9 0.8 0.6 0.9 1.5 3.8 3.4 2.0 1.9 0.7 -0.3 1.1 -0.8 -0.1 -0.4 -0.4 -0.2 -0.1 0.0 0.1 0.2 0.6 0.2 0.0 0.0 0.0 0.0 0.0 0.0 0.0
0.0 0.0 0.0 0.0 0.0 -0.0 0.0 0.1 0.1 0.0 0.0 0.0 0.0 0.0 0.3 0.6 0.3 0.5 0.9 1.0 1.4 1.1 1.6 1.8 3.7 3.2 1.9 1.4 1.0 0.6 -0.2 -0.3 -1.1 -0.9 -0.3 -0.1 -0.0 0.1 1.1 0.4 0.8 0.4 0.1 0.1 0.0 0.0 0.0 0.0 0.0
0.0 0.0 0.0 0.0 0.0 0.0 0.0 0.0 -0.0 -0.0 0.0 0.0 0.0 0.0 0.1 0.4 0.4 0.3 0.6 0.9 2.3 2.1 2.4 2.3 2.9 2.9 2.1 1.3 1.2 0.8 -0.0 -0.7 -0.6 -0.5 -0.4 -0.2 -0.0 0.1 0.9 0.6 0.5 0.3 0.1 0.1 0.1 0.0 0.0 0.1 0.0
0.0 0.0 0.0 0.0 0.0 0.0 0.0 0.0 0.0 0.0 0.0 0.0 0.0 0.0 0.0 0.2 0.4 0.4 0.3 0.6 1.3 1.6 2.8 2.8 2.8 2.6 1.8 1.2 1.9 1.1 -0.0 -1.4 -0.5 -0.5 -0.1 -0.1 0.2 0.2 0.2 0.6 0.7 0.6 0.3 0.2 0.2 0.0 0.3 0.0 0.0
-0.0 0.0 0.0 0.0 0.0 0.0 0.0 0.0 0.0 0.0 0.0 0.0 0.0 0.0 0.0 0.0 0.3 0.4 0.3 0.5 0.8 1.1 1.7 1.9 2.1 2.4 1.7 1.7 1.8 1.0 -0.1 -0.8 -0.9 0.6 0.4 0.6 0.9 0.5 1.2 0.7 0.8 1.0 1.2 1.0 0.7 0.2 0.2 0.1 0.0
0.0 0.0 0.0 0.0 0.0 0.0 0.0 0.0 0.0 0.0 0.0 0.0 0.0 0.0 0.0 0.0 0.2 0.4 0.5 0.4 0.7 0.7 1.3 1.3 1.3 1.6 2.0 2.6 2.5 2.1 1.3 1.2 0.7 1.0 1.5 2.2 1.2 2.0 2.1 2.1 1.7 1.4 0.7 0.5 0.5 0.1 0.0 0.4 0.3
0.0 0.0 0.0 0.0 0.0 0.0 0.0 0.0 0.0 0.0 0.0 0.0 0.0 0.0 0.0 0.0 0.1 0.3 0.4 0.3 0.5 1.0 1.1 1.1 1.0 0.8 1.5 3.3 4.2 4.1 3.5 3.0 3.3 3.8 4.9 4.6 2.9 3.7 3.0 2.9 2.2 1.2 0.9 0.8 1.2 0.1 0.1 0.1 0.0

GFSSGP_con_3kmehi_006.txt.gz
EHI
1.1 0.6 -0.1 0.3 0.0 0.0 0.0 0.0 0.1 0.0 0.0 0.1 0.0 0.0 0.0 0.0 -0.1 -0.0 -0.1 -0.1 -0.1 -0.1 -0.1 -0.1 -0.3 -0.2 -0.3 -0.4 -0.3 -0.2 -0.1 0.1 0.2 0.4 0.5 0.4 0.2 0.4 0.2 0.2 0.1 0.2 0.2 0.1 0.1 -0.1 -0.1 -0.1 -0.1
0.6 0.5 0.1 0.1 -0.1 0.1 -0.0 0.0 -0.1 -0.0 0.0 0.3 0.1 -0.0 -0.0 0.0 0.0 -0.0 -0.1 -0.0 -0.0 -0.0 -0.0 -0.0 -0.2 -0.3 -0.3 -0.3 -0.3 -0.2 -0.3 -0.2 -0.1 0.2 0.3 0.2 0.3 0.2 0.2 0.2 0.1 0.1 0.1 0.1 0.1 -0.0 -0.1 -0.1 -0.1
0.7 1.9 1.1 0.2 0.0 0.0 -0.0 0.0 -0.1 0.0 0.1 0.0 -0.0 -0.0 -0.0 0.0 0.1 0.0 -0.0 -0.1 -0.0 -0.1 -0.1 -0.1 -0.2 -0.2 -0.3 -0.3 -0.3 -0.3 -0.4 -0.4 -0.3 -0.1 0.0 0.1 0.2 0.2 0.2 0.2 0.1 0.2 0.2 0.1 0.1 -0.1 -0.1 -0.1 -0.1
-0.4 0.7 0.7 1.1 0.1 -0.0 0.1 -0.0 0.0 0.0 0.1 0.0 0.2 0.0 -0.0 0.0 0.0 -0.0 -0.0 -0.0 -0.0 -0.2 -0.1 -0.1 -0.0 -0.1 -0.2 -0.3 -0.4 -0.4 -0.5 -0.5 -0.4 -0.2 -0.1 0.0 0.1 0.1 0.2 0.2 0.2 0.2 0.1 0.1 0.0 -0.1 -0.1 -0.1 -0.0
0.9 0.8 0.5 -0.1 0.0 0.1 -0.0 0.1 0.1 0.0 0.2 0.2 0.1 0.1 0.1 0.1 0.0 0.0 0.0 -0.0 -0.1 -0.1 -0.1 -0.0 -0.0 -0.2 -0.2 -0.3 -0.4 -0.4 -0.3 -0.4 -0.4 -0.2 -0.1 0.0 0.1 0.1 0.3 0.3 0.2 0.2 0.2 0.2 0.1 0.1 -0.1 -0.2 -0.4
0.0 0.2 0.4 0.0 0.0 0.0 0.0 0.1 0.0 -0.0 0.1 0.1 0.2 0.2 0.0 0.1 0.0 0.1 -0.0 -0.1 -0.1 -0.0 -0.0 -0.0 -0.1 -0.2 -0.2 -0.2 -0.4 -0.3 -0.4 -0.3 -0.3 -0.3 -0.1 0.1 0.1 0.2 0.4 0.3 0.2 0.2 0.1 -0.1 0.1 0.2 -0.0 -0.2 -0.3
0.0 0.6 0.1 0.0 0.0 0.0 0.0 0.0 0.0 0.1 0.1 0.1 0.5 0.1 -0.1 0.1 0.3 0.1 0.0 -0.1 -0.0 -0.1 -0.0 -0.1 -0.1 -0.2 -0.2 -0.3 -0.3 -0.3 -0.3 -0.3 -0.3 -0.2 -0.0 0.1 0.1 0.3 0.4 0.4 0.2 0.1 0.1 0.0 0.2 -0.0 0.0 0.2 0.4
0.4 0.3 0.0 0.0 0.0 0.0 0.0 0.0 -0.0 0.0 0.3 0.1 0.4 0.2 0.4 0.1 0.5 0.0 0.1 -0.1 -0.1 -0.0 -0.0 -0.1 -0.1 -0.1 -0.2 -0.2 -0.2 -0.3 -0.3 -0.2 -0.1 -0.0 0.1 0.1 0.1 0.2 0.3 0.4 0.5 0.4 0.3 0.3 0.4 0.4 0.2 0.1 0.1
0.0 -0.0 0.0 0.0 0.0 0.0 -0.0 0.0 0.0 0.1 0.0 0.5 -0.1 0.4 0.3 0.6 0.3 0.2 0.2 -0.0 -0.3 -0.0 -0.0 -0.2 -0.0 -0.2 -0.3 -0.2 -0.2 -0.2 -0.1 -0.1 -0.0 0.0 0.1 0.0 0.1 0.3 0.7 0.6 1.1 0.6 0.6 0.3 0.3 0.2 0.1 0.1 0.2
-0.0 0.0 0.0 0.0 0.0 0.0 -0.0 0.0 0.0 0.0 -0.0 0.0 0.2 0.5 0.3 0.5 0.4 0.3 0.3 0.0 -0.1 0.1 0.1 -0.2 -0.1 0.1 -0.3 -0.1 -0.1 -0.2 -0.1 -0.0 0.0 0.1 0.3 0.1 0.2 0.1 0.6 0.5 0.2 0.5 -0.0 0.1 0.1 0.2 0.1 1.0 0.5
-0.0 0.0 0.0 0.0 0.0 -0.0 0.0 0.0 0.0 0.0 -0.0 0.0 0.8 0.7 0.3 0.1 1.1 0.1 0.2 0.0 0.0 -0.0 -0.1 0.5 0.5 -0.2 -0.2 0.6 -0.3 -0.2 -0.1 -0.1 -0.3 -0.0 0.2 -0.1 -0.2 -0.1 0.1 0.3 0.1 0.2 -0.1 0.3 0.1 0.3 0.0 -0.3 -0.2
-0.0 0.0 0.0 0.0 0.0 0.0 0.0 0.0 0.0 0.0 0.0 0.0 0.3 0.7 0.2 0.1 0.2 0.5 0.2 -0.0 0.2 0.2 0.8 0.6 0.2 -0.3 -0.6 -0.4 -0.5 -0.4 -0.1 -0.1 -0.1 0.2 -0.0 -0.6 0.0 -0.3 0.3 0.2 0.1 0.0 0.1 0.3 0.3 -0.3 0.1 0.0 -0.2
0.0 0.0 0.0 0.0 0.0 0.0 0.0 0.0 0.0 0.0 0.0 0.0 0.1 0.4 0.2 0.1 -0.0 0.5 0.1 0.2 0.1 0.1 0.7 0.5 0.4 0.0 0.0 -0.4 -0.1 -0.3 -0.1 -0.3 0.3 0.7 0.2 -0.4 -0.6 -0.4 -0.1 0.1 -0.1 0.1 0.0 0.3 -0.1 0.5 0.5 -0.0 -0.1
0.0 -0.0 0.0 0.0 0.0 0.0 0.0 0.0 0.0 0.0 0.0 0.0 0.1 0.2 0.2 0.1 0.0 0.2 0.1 0.0 0.4 0.3 0.2 1.0 0.6 0.5 0.0 -0.3 0.1 -0.4 -0.3 -0.3 -0.0 -0.1 1.2 -0.1 -0.4 -0.1 -0.1 -0.4 -0.3 -0.2 0.1 0.7 -0.0 0.7 0.0 -0.1 0.4
0.0 0.0 0.0 0.0 0.0 0.0 -0.0 0.0 0.0 0.0 0.0 0.0 0.1 0.1 0.1 0.1 0.2 0.2 -0.0 0.1 -0.1 0.3 0.4 1.2 1.5 0.7 0.5 -0.4 0.1 -0.3 -0.4 -0.1 -0.3 -0.2 0.2 0.3 0.2 0.6 -0.5 -0.3 -0.1 0.5 0.5 0.7 0.6 0.3 0.2 -0.0 0.1
0.0 0.0 0.0 0.0 0.0 0.0 -0.0 0.0 0.0 0.0 0.0 0.0 0.1 0.0 0.1 0.1 0.2 0.2 0.2 0.1 0.1 0.4 0.7 1.0 0.1 1.0 0.5 0.2 -0.1 -0.2 -0.1 -0.6 -0.6 -0.6 -0.1 1.0 0.9 0.7 -0.2 -0.2 0.4 -0.1 0.8 1.4 0.4 0.7 0.6 0.1 0.2
0.0 -0.0 0.0 0.0 0.0 0.0 0.0 0.1 0.0 0.0 0.0 0.0 0.0 0.1 0.0 0.1 0.1 0.3 0.2 0.1 0.2 0.3 1.4 0.9 0.1 1.1 1.8 1.1 0.2 0.0 -0.8 -0.1 -0.5 -0.9 -0.1 1.0 1.2 0.4 0.4 -0.3 0.6 0.5 1.2 1.0 0.6 0.1 0.5 0.1 0.3
-0.0 -0.0 -0.0 0.0 0.0 0.0 0.0 0.1 0.1 0.0 0.0 0.0 0.0 0.0 0.0 0.0 0.1 0.3 0.1 0.2 0.1 0.8 1.4 1.4 0.1 0.6 2.8 2.1 1.1 -0.1 -0.1 0.5 -0.3 -0.6 -0.4 0.4 0.5 1.0 1.0 -0.2 0.8 1.0 1.6 0.8 0.8 0.4 0.4 0.2 0.1
0.0 -0.0 0.0 0.0 0.0 0.0 0.1 0.2 -0.0 -0.0 -0.0 0.0 0.0 0.0 0.1 0.1 0.1 0.2 0.2 0.3 0.3 1.1 1.8 1.8 1.3 1.2 2.7 2.9 1.2 0.6 0.1 0.4 0.0 -0.1 -0.4 0.7 1.9 0.9 1.1 0.4 0.7 0.8 0.6 0.5 0.6 0.5 0.2 0.1 0.1
0.0 0.0 -0.0 0.0 0.0 0.0 0.0 0.3 0.0 -0.2 -0.0 0.0 0.0 0.0 0.0 0.0 0.1 0.1 0.5 0.2 0.5 1.0 1.9 2.7 2.4 2.3 2.3 2.3 1.7 1.1 0.4 -0.4 -0.1 -0.4 3.0 2.1 0.5 1.2 1.0 0.6 0.3 0.9 0.8 0.5 1.0 0.2 0.1 0.1 0.4
-0.0 -0.0 -0.0 0.0 0.0 0.0 0.0 0.0 0.2 0.0 0.1 0.0 0.0 0.0 0.0 0.0 0.0 0.6 0.4 0.4 0.6 1.4 2.5 3.1 3.2 2.9 3.2 2.2 2.1 0.0 -0.5 -0.4 0.3 0.1 1.7 1.6 2.1 1.8 0.8 0.7 0.4 0.7 0.7 0.8 0.7 0.2 0.1 0.0 0.1
-0.0 -0.0 0.0 0.0 0.0 -0.0 0.0 -0.0 0.0 -0.0 0.3 0.1 0.1 0.0 0.0 0.0 0.1 0.3 1.6 1.7 0.7 1.4 2.4 3.5 4.2 3.7 3.7 1.7 2.2 1.4 1.1 0.6 0.9 1.1 0.7 1.6 1.7 1.2 1.4 0.5 0.4 1.1 0.6 0.9 0.5 0.2 0.1 0.1 0.0
-0.0 -0.0 -0.0 0.0 0.0 0.0 0.1 -0.0 0.0 0.1 0.2 0.6 0.2 0.1 0.0 0.1 0.1 0.2 1.7 2.4 1.6 1.4 3.0 3.8 4.9 4.1 3.7 2.6 2.3 1.8 1.3 0.4 -0.1 -0.4 0.8 3.4 1.1 -0.1 0.3 0.6 1.3 1.1 0.3 0.9 0.5 0.4 0.1 0.1 0.1
-0.0 0.0 0.0 0.0 0.0 -0.0 0.0 0.0 0.0 0.1 0.1 0.0 0.3 0.2 0.1 0.1 0.2 0.4 1.1 2.1 2.6 1.7 3.6 3.4 5.3 4.8 3.7 3.5 2.1 1.8 1.5 0.0 0.1 0.4 2.0 0.9 0.1 0.7 0.9 1.1 1.5 1.1 0.4 0.7 0.4 0.4 0.3 0.2 0.2
-0.0 0.0 0.0 0.0 0.0 0.0 0.0 0.1 0.1 -0.0 0.1 0.0 0.0 0.1 0.4 0.3 0.5 0.7 1.2 2.4 3.2 2.8 3.5 5.3 5.6 5.5 4.2 3.8 2.6 1.8 1.8 -0.1 -0.6 -0.4 0.7 0.2 0.1 0.6 0.7 1.1 1.8 1.2 0.5 1.0 0.7 0.7 0.3 0.2 0.2
0.0 -0.0 0.0 0.0 0.0 0.0 0.0 0.0 0.1 0.2 0.0 0.1 0.0 0.0 0.4 0.7 0.6 0.8 1.5 2.3 3.2 3.1 3.1 5.0 7.8 6.6 5.3 3.9 3.3 2.1 1.9 0.4 -0.0 -0.0 0.1 0.5 0.2 0.0 1.9 1.6 2.2 1.8 0.9 0.8 0.9 0.6 0.3 0.3 0.3
0.0 0.0 -0.0 0.0 0.0 0.0 0.0 0.0 0.0 0.0 0.2 0.0 0.0 0.0 0.0 0.9 0.5 0.6 1.8 2.5 3.4 3.1 3.4 4.6 7.6 7.9 5.9 4.3 3.9 2.7 2.2 1.2 0.4 0.2 -0.2 0.5 0.3 1.4 2.4 1.6 2.2 1.5 1.5 0.9 1.1 0.3 0.6 0.6 0.5
-0.0 0.0 0.0 0.0 0.0 0.0 0.0 0.0 0.1 0.0 0.2 0.1 0.0 0.0 0.0 0.0 0.8 0.7 1.2 2.8 3.4 3.6 3.4 4.3 5.2 7.4 6.2 4.2 3.9 2.9 2.2 1.6 0.5 0.4 0.7 1.2 1.2 1.3 1.9 1.8 1.6 2.3 1.2 1.5 1.2 0.4 0.7 1.0 0.3
0.0 -0.0 -0.0 0.0 0.0 0.0 0.0 0.0 0.0 0.2 0.4 0.3 0.1 0.0 0.0 0.0 0.5 0.3 1.1 1.7 3.2 3.5 3.3 3.6 3.8 5.5 5.3 3.8 3.1 3.1 2.7 2.2 1.2 1.3 2.8 2.2 2.5 3.1 3.0 2.1 2.6 2.4 1.8 1.9 1.3 0.4 0.6 0.5 0.8
0.0 0.0 -0.0 0.0 0.0 0.0 0.0 0.0 0.0 0.0 0.2 0.0 0.0 0.0 0.0 0.0 0.1 0.5 1.0 1.5 2.8 3.1 2.6 3.4 3.3 4.0 4.7 4.4 3.6 3.2 3.0 2.8 2.7 2.7 4.4 4.5 5.3 4.5 3.0 3.7 3.4 3.1 1.7 2.1 1.3 0.5 0.2 0.9 0.6

GFSSGP_con_3kmehi_009.txt.gz
EHI
0.4 0.1 -0.0 -0.2 -0.1 -0.0 -0.0 -0.0 -0.0 0.0 -0.0 0.0 0.0 -0.0 -0.0 0.0 -0.0 -0.0 -0.0 -0.0 -0.0 -0.0 0.0 -0.0 0.0 -0.3 -0.4 -0.3 -0.2 -0.2 -0.3 -0.1 0.0 -0.0 0.1 0.2 0.2 0.2 0.2 0.3 0.3 0.3 0.2 0.2 0.0 -0.1 -0.1 -0.1 0.1
0.2 0.1 0.0 0.0 -0.0 -0.0 0.0 -0.0 0.0 0.1 0.0 0.0 0.0 0.0 0.0 0.0 0.0 -0.0 -0.0 -0.0 -0.0 -0.0 -0.0 -0.1 -0.3 -0.3 -0.3 -0.3 -0.3 -0.3 -0.3 -0.0 0.1 0.1 0.2 0.1 0.1 0.1 0.3 0.3 0.3 0.3 0.3 0.3 0.1 -0.2 -0.2 -0.1 -0.0
0.6 0.5 0.2 -0.0 -0.0 -0.0 -0.0 -0.1 0.0 0.2 0.1 0.1 0.0 -0.0 0.0 0.0 0.0 -0.0 -0.0 -0.0 -0.0 -0.0 -0.0 -0.2 -0.3 -0.2 -0.3 -0.2 -0.3 -0.3 -0.3 -0.1 -0.1 -0.1 0.1 0.1 0.2 0.2 0.3 0.3 0.3 0.3 0.3 0.3 0.3 0.2 -0.0 -0.2 -0.0
0.1 0.2 0.2 0.1 0.0 -0.1 -0.0 -0.0 0.0 0.1 -0.0 0.0 0.1 0.1 0.0 -0.0 0.0 -0.0 -0.0 -0.0 -0.0 -0.0 -0.1 -0.2 -0.1 -0.1 -0.1 -0.2 -0.3 -0.3 -0.3 -0.2 -0.3 -0.2 -0.0 0.1 0.2 0.2 0.3 0.2 0.2 0.3 0.3 0.3 0.3 0.3 0.1 -0.0 0.0
0.0 0.5 0.9 0.1 -0.2 0.0 -0.0 0.1 -0.0 0.2 0.2 0.2 0.2 0.1 0.0 0.0 0.0 -0.0 -0.0 0.0 0.0 -0.0 -0.0 -0.0 0.1 -0.0 -0.0 -0.2 -0.3 -0.4 -0.3 -0.3 -0.3 -0.2 -0.1 0.1 0.1 0.3 0.3 0.1 0.2 0.4 0.5 0.5 0.4 0.3 0.3 0.3 0.1
0.0 0.1 0.2 0.1 -0.1 -0.0 -0.0 0.1 0.4 0.2 0.2 0.3 0.3 0.1 0.0 0.0 0.0 -0.0 0.0 0.0 0.0 0.0 -0.0 -0.0 -0.1 -0.0 -0.1 -0.1 -0.2 -0.3 -0.2 -0.1 -0.2 -0.1 0.0 0.1 0.2 0.3 0.4 0.3 0.4 0.4 0.3 0.3 0.3 0.2 0.3 0.4 0.2
0.0 0.0 0.2 0.0 0.0 0.0 0.1 0.1 0.2 0.2 0.4 0.1 0.3 0.2 0.0 0.0 -0.0 -0.0 0.0 -0.1 0.0 0.1 0.0 -0.1 -0.2 -0.2 -0.1 -0.2 -0.2 -0.2 -0.2 -0.0 0.0 0.2 0.2 0.1 0.2 0.3 0.3 0.4 0.4 0.4 0.3 0.3 0.3 0.2 0.2 0.1 0.2
0.0 0.1 0.0 0.0 0.0 0.0 -0.0 0.0 0.1 0.1 0.5 0.3 0.4 0.1 0.1 0.1 0.1 0.0 0.0 0.0 0.1 0.1 0.0 -0.1 -0.2 -0.3 -0.3 -0.3 -0.2 -0.1 -0.0 0.0 0.1 0.2 0.2 0.1 0.1 0.2 0.3 0.6 0.6 0.3 0.3 0.2 0.3 0.2 0.2 0.2 0.4
0.1 0.1 0.0 0.0 0.0 0.0 0.0 0.2 0.2 0.3 0.6 0.3 0.1 0.4 0.8 0.2 0.2 0.1 0.0 -0.0 -0.0 -0.1 -0.1 -0.1 -0.1 -0.2 -0.3 -0.2 -0.2 -0.1 0.0 0.0 0.1 0.1 0.1 0.1 0.1 0.1 0.3 0.2 0.4 0.2 0.3 0.1 0.1 0.3 0.5 0.7 0.8
0.0 0.0 0.0 0.0 0.0 0.0 0.0 0.1 0.0 0.4 0.6 0.3 0.6 0.7 0.7 0.5 0.4 0.2 0.2 0.1 -0.1 0.0 -0.0 -0.2 -0.1 -0.1 -0.1 -0.1 -0.2 -0.1 -0.1 -0.1 -0.1 -0.0 -0.0 0.0 0.1 -0.1 0.2 0.0 0.0 0.1 0.2 0.2 -0.0 0.2 0.7 0.3 0.3
0.0 0.0 0.0 0.0 0.0 -0.0 0.0 0.0 0.0 0.2 0.4 0.3 1.0 1.2 0.5 0.8 0.5 0.4 0.2 0.0 -0.0 0.1 -0.0 0.0 -0.2 -0.1 -0.1 -0.1 -0.0 -0.1 -0.1 -0.1 -0.1 0.1 0.1 0.1 0.1 0.1 0.0 -0.0 0.0 0.0 0.1 0.1 -0.0 -0.1 -0.1 0.1 -0.0
0.0 0.0 -0.0 0.0 -0.0 -0.0 0.0 0.0 0.0 0.0 0.4 0.6 1.1 1.4 0.7 0.6 0.4 0.4 0.2 0.1 -0.0 0.0 -0.0 0.1 0.0 0.0 -0.1 0.2 -0.1 -0.2 -0.2 -0.2 -0.2 -0.3 -0.0 0.0 0.2 0.1 0.1 0.0 0.0 -0.1 -0.0 0.1 0.0 -0.1 -0.0 0.1 -0.0
0.0 0.0 0.0 0.0 0.0 0.0 0.0 0.0 0.0 0.0 1.0 0.8 0.8 0.9 0.9 0.8 0.5 0.3 0.1 0.0 0.0 0.2 0.5 0.3 0.3 0.8 0.4 0.2 -0.1 -0.1 -0.1 -0.1 -0.0 0.1 0.1 -0.2 0.2 0.1 0.0 0.1 0.0 -0.1 0.1 0.0 0.1 0.2 0.1 0.1 0.0
0.0 0.0 0.0 0.0 0.0 0.1 0.0 0.0 0.0 0.1 0.9 1.0 1.1 0.5 0.5 1.1 0.8 0.2 -0.0 -0.1 0.1 1.1 1.1 1.0 0.8 0.6 0.3 -0.1 -0.2 -0.2 0.0 0.0 0.2 0.5 0.4 0.2 0.3 0.2 0.2 0.1 0.0 0.1 0.4 0.4 0.5 0.3 0.1 0.1 -0.0
0.0 0.0 0.0 0.0 0.0 0.0 0.1 0.0 0.0 0.0 0.2 1.5 1.2 0.6 0.0 0.3 0.6 0.4 0.2 -0.0 0.8 1.3 1.6 1.2 0.9 0.6 0.4 0.3 -0.2 -0.4 0.0 -0.1 -0.0 0.1 0.4 0.4 0.4 0.3 0.7 0.2 0.2 0.3 0.2 0.5 0.3 0.3 0.0 0.0 0.0
0.0 -0.0 -0.0 0.0 0.0 -0.0 0.0 0.0 -0.0 0.0 0.1 0.6 0.9 0.6 0.3 -0.1 0.1 0.2 0.1 0.3 0.3 0.6 1.7 1.4 1.2 0.9 0.5 0.7 0.2 -0.2 -0.1 0.1 -0.1 0.6 0.2 0.1 0.1 0.4 0.3 0.2 0.1 0.1 0.2 0.5 0.4 0.3 0.1 0.1 0.0
-0.0 -0.0 0.0 0.0 -0.0 0.0 0.0 0.0 0.0 0.0 0.1 0.1 0.4 0.3 0.3 0.1 -0.0 0.1 0.1 0.2 0.6 0.9 2.0 2.0 1.4 0.9 0.8 0.6 0.3 -0.2 -0.1 -0.2 -0.1 -0.0 0.5 1.1 1.3 0.6 0.3 0.3 0.2 0.1 0.3 0.4 0.2 0.1 0.1 0.0 0.0
-0.0 -0.0 -0.0 -0.0 0.0 0.0 0.0 0.0 0.0 0.0 0.0 0.1 0.1 0.0 0.1 0.1 0.1 0.4 0.3 0.2 0.6 1.2 1.7 1.0 1.4 1.4 0.6 0.5 0.7 0.2 -0.2 -0.3 0.1 0.7 0.2 0.2 0.4 0.4 0.4 0.3 0.3 0.4 0.5 0.2 0.1 0.1 0.0 0.0 0.0
-0.0 -0.0 -0.0 0.0 0.0 0.0 0.0 0.0 0.0 0.0 0.0 0.0 0.2 0.0 0.1 0.1 0.0 0.4 0.4 0.3 0.5 1.5 1.7 1.5 1.3 1.9 1.5 1.0 1.3 0.7 0.4 0.0 0.0 0.1 0.5 0.5 0.6 0.7 0.6 0.4 0.6 0.5 0.5 0.2 0.1 0.0 0.0 0.0 0.0
-0.0 -0.0 -0.0 -0.0 0.0 0.0 0.1 0.1 0.0 0.0 0.0 0.0 0.0 0.1 0.0 0.1 0.0 0.2 0.3 0.4 0.6 1.2 1.7 1.6 1.1 2.9 2.3 2.1 1.3 0.6 0.4 -0.1 -0.2 -0.1 -0.0 0.5 0.9 0.7 0.7 0.5 0.3 0.3 0.3 0.2 0.0 0.0 0.0 0.0 0.0
-0.0 -0.0 -0.0 -0.0 0.0 0.0 0.1 0.1 0.0 -0.0 0.0 0.0 -0.0 0.0 0.1 0.1 0.1 0.2 0.2 0.3 0.4 1.1 2.2 2.1 1.5 2.0 3.1 2.6 1.6 1.0 0.6 0.0 0.0 -0.0 -0.0 0.6 1.3 1.0 0.5 0.5 0.3 0.2 0.2 0.2 0.0 0.0 0.0 0.0 -0.0
-0.0 -0.0 0.0 0.0 0.0 -0.0 0.0 0.0 0.0 0.0 0.2 0.0 0.0 0.0 0.0 0.1 0.2 0.3 0.6 0.5 0.6 1.4 1.8 2.3 2.4 2.5 2.4 3.0 2.4 1.7 1.0 0.4 -0.2 0.2 0.8 0.9 1.1 1.1 0.6 0.6 0.5 0.4 0.1 0.1 0.0 0.0 0.0 0.0 0.0
-0.0 0.0 0.0 0.0 0.0 0.0 0.0 -0.0 0.0 0.1 0.1 0.0 -0.0 0.0 0.0 0.0 0.0 0.3 1.0 1.0 1.1 1.6 2.3 3.7 3.1 2.5 2.8 2.4 2.3 1.5 0.8 0.4 0.0 0.1 0.7 1.1 1.2 1.2 1.2 0.7 0.7 0.3 0.0 0.0 0.1 0.0 0.0 0.0 0.0
-0.0 0.0 0.0 0.0 0.0 0.0 0.0 0.0 0.0 0.0 0.0 0.0 -0.0 0.0 0.0 0.0 0.0 0.3 0.8 1.2 1.1 2.5 3.7 4.0 4.4 3.5 3.6 2.1 2.6 1.8 1.1 0.4 0.1 0.0 0.7 1.0 1.4 0.7 0.6 0.7 0.6 0.3 0.1 0.0 0.0 0.0 0.0 0.0 0.0
0.0 0.0 0.0 0.0 0.0 0.0 0.0 0.0 0.0 0.0 0.0 0.1 0.1 0.0 0.0 0.0 0.0 0.0 0.7 1.4 1.4 2.5 3.5 6.2 5.2 4.2 4.2 2.9 1.7 2.1 1.1 0.1 0.2 -0.0 0.6 1.3 1.0 0.7 0.6 1.1 0.8 0.2 0.1 0.1 0.0 0.0 0.0 0.0 0.0
-0.0 -0.0 0.0 0.0 0.0 0.0 0.0 0.0 -0.0 0.0 0.1 0.1 0.2 0.1 0.1 0.1 0.0 0.0 0.8 1.3 2.0 2.1 3.9 5.6 6.6 4.7 4.5 3.7 2.3 1.3 1.5 0.2 -0.1 0.3 0.7 1.3 1.0 0.8 0.9 1.1 0.9 0.3 0.1 0.2 0.2 0.0 0.0 0.0 0.0
-0.0 0.0 -0.0 0.0 0.0 0.0 0.0 0.0 0.0 -0.0 0.0 0.1 0.1 0.1 0.0 0.0 0.0 0.0 0.3 1.1 2.2 2.4 4.5 4.8 7.6 6.3 4.7 4.7 3.0 1.7 1.3 0.8 0.2 -0.2 0.5 0.7 0.4 0.6 0.7 1.2 1.2 0.6 0.1 0.2 0.2 0.1 0.0 0.1 0.0
0.0 0.0 0.0 -0.0 0.0 0.0 0.0 0.0 0.0 0.0 0.0 0.0 0.0 0.0 0.0 0.0 0.0 0.0 0.2 1.0 2.4 3.0 4.3 4.7 6.9 8.0 6.1 4.0 4.0 2.4 1.6 0.9 0.3 0.1 0.1 1.0 0.7 1.2 0.9 1.7 1.9 1.3 0.3 0.2 0.2 0.0 0.1 0.0 0.0
0.0 0.0 -0.0 0.0 0.0 0.0 0.0 0.0 -0.0 0.0 0.0 0.2 0.0 0.0 0.0 0.0 0.0 0.1 0.3 0.8 2.6 3.2 3.9 4.5 6.3 7.4 6.5 5.2 4.3 2.5 1.5 1.1 0.7 0.3 0.4 1.1 1.2 1.6 1.9 1.7 2.3 1.5 0.5 0.5 0.4 0.0 0.0 0.1 0.0
0.0 0.0 0.0 0.0 0.0 0.0 0.0 0.0 -0.0 -0.0 -0.0 0.2 0.1 0.0 0.0 0.0 0.0 0.1 0.4 0.9 2.8 3.3 3.2 4.5 7.7 7.4 7.2 5.9 4.6 3.0 1.6 1.3 1.1 0.8 0.7 1.3 1.9 1.8 2.5 2.6 1.6 1.9 1.0 0.7 0.8 0.1 0.2 0.0 0.1

GFSSGP_con_3kmehi_012.txt.gz
EHI
0.2 0.3 0.0 0.0 -0.0 -0.0 -0.0 0.0 0.0 -0.0 0.0 0.0 -0.0 -0.0 -0.0 0.0 -0.0 -0.0 -0.0 -0.0 -0.0 -0.0 -0.0 -0.1 -0.4 -0.7 -0.8 -0.8 -0.5 -0.1 0.0 -0.1 -0.2 -0.0 0.0 0.1 0.2 0.3 0.3 0.4 0.4 0.3 0.1 0.0 -0.1 -0.2 -0.2 -0.0 0.0
0.3 0.0 0.0 -0.0 -0.1 0.0 0.0 0.0 -0.0 -0.0 0.0 0.1 0.0 0.0 0.0 0.0 0.0 -0.0 -0.0 -0.0 -0.0 -0.0 -0.0 -0.1 -0.4 -0.6 -0.6 -0.5 -0.4 -0.1 -0.1 -0.2 -0.0 -0.1 0.0 0.1 0.2 0.2 0.3 0.4 0.3 0.2 0.1 -0.1 -0.2 -0.2 -0.2 -0.1 -0.0
0.0 0.0 -0.0 -0.1 -0.0 -0.0 -0.0 0.0 -0.1 0.0 0.1 0.0 -0.0 0.0 -0.0 -0.0 -0.0 -0.0 -0.0 -0.0 -0.1 -0.1 -0.1 -0.2 -0.3 -0.4 -0.4 -0.3 -0.3 -0.1 -0.1 0.0 -0.1 -0.1 0.0 0.1 0.2 0.3 0.4 0.3 0.3 0.2 0.2 0.2 0.1 0.3 0.3 0.3 0.0
-0.0 -0.0 0.0 0.2 0.0 -0.0 0.0 0.1 0.0 0.0 0.0 -0.1 0.0 0.0 0.0 -0.0 -0.0 -0.0 -0.0 -0.0 -0.0 -0.1 -0.2 -0.3 -0.2 -0.2 -0.2 -0.3 -0.3 -0.1 -0.1 -0.1 -0.1 -0.1 0.1 0.2 0.3 0.3 0.3 0.3 0.3 0.4 0.3 0.4 0.5 0.5 0.5 0.5 0.4
-0.0 0.1 0.1 0.2 -0.0 -0.0 0.1 0.0 0.1 0.1 0.1 0.1 0.0 0.0 0.0 -0.0 0.0 -0.0 -0.0 -0.0 -0.0 -0.1 -0.2 -0.3 -0.1 -0.1 -0.1 -0.3 -0.2 -0.2 -0.1 -0.1 -0.1 -0.0 0.1 0.2 0.3 0.4 0.2 0.2 0.3 0.4 0.4 0.5 0.5 0.4 0.4 0.4 0.4
0.0 0.3 0.3 0.0 0.0 -0.0 0.2 0.1 -0.0 0.2 0.3 0.2 0.2 0.1 0.0 0.0 0.0 -0.0 -0.0 -0.0 -0.0 -0.0 -0.1 -0.2 -0.1 -0.1 -0.2 -0.2 -0.1 -0.1 -0.1 -0.1 -0.1 0.0 0.1 0.2 0.4 0.4 0.3 0.2 0.3 0.4 0.4 0.4 0.3 0.2 0.3 0.3 0.2
0.0 0.0 0.1 0.0 0.0 0.1 0.1 0.1 0.2 0.3 0.2 0.1 0.2 0.1 0.0 -0.0 -0.0 0.0 0.0 0.0 0.0 0.1 0.0 -0.1 -0.1 -0.1 -0.1 -0.2 -0.1 -0.0 0.0 0.0 0.1 0.2 0.2 0.3 0.4 0.3 0.2 0.1 0.2 0.4 0.4 0.3 0.2 0.1 0.2 0.2 0.2
0.0 0.0 0.0 0.0 0.0 -0.0 0.0 0.1 0.3 0.2 0.0 0.1 0.1 0.0 0.1 -0.0 -0.0 0.1 0.1 0.0 0.0 0.1 0.0 -0.1 -0.2 -0.2 -0.3 -0.3 -0.0 0.1 0.1 0.2 0.2 0.2 0.2 0.3 0.2 0.2 0.2 0.2 0.2 0.3 0.2 0.1 0.2 0.2 0.3 0.4 0.2
0.0 0.0 0.0 0.0 0.0 0.0 0.1 0.3 0.1 0.3 0.3 0.0 0.0 0.1 0.0 -0.0 0.0 0.1 0.1 0.0 -0.0 -0.0 0.0 -0.1 -0.1 -0.2 -0.3 -0.3 -0.1 0.0 0.2 0.3 0.2 0.2 0.3 0.2 0.0 0.0 0.1 0.2 0.3 0.2 0.2 0.1 0.2 0.3 0.3 0.5 0.2
0.1 0.0 0.0 0.0 0.0 0.0 0.2 0.2 0.7 0.6 0.3 0.2 0.2 0.2 0.1 0.1 0.1 0.3 0.2 0.2 0.0 -0.0 -0.0 -0.0 -0.1 -0.2 -0.2 -0.1 -0.1 -0.1 -0.1 -0.1 -0.1 -0.1 -0.0 -0.0 0.1 0.1 0.1 0.2 0.0 -0.0 0.1 0.1 0.2 0.2 0.0 -0.2 -0.0
0.0 0.0 0.0 0.0 0.0 0.2 0.3 0.5 0.6 0.7 0.5 0.6 0.7 0.3 0.2 0.2 0.1 0.3 0.2 0.2 0.1 -0.1 -0.1 -0.1 -0.1 -0.1 -0.1 -0.2 -0.2 -0.2 -0.2 -0.1 -0.1 -0.1 -0.1 0.0 0.0 0.0 0.0 0.0 0.0 -0.0 -0.1 -0.0 -0.0 -0.1 -0.1 -0.1 0.0
0.0 0.0 0.0 -0.0 -0.0 0.0 0.2 0.4 0.8 0.8 0.6 0.8 0.8 0.6 0.3 0.4 0.2 0.3 0.3 0.1 0.1 0.0 -0.1 -0.1 -0.1 -0.0 -0.1 -0.2 -0.2 -0.2 -0.2 -0.1 -0.1 -0.2 -0.1 0.0 0.1 0.0 0.0 0.0 0.0 -0.0 -0.0 -0.0 0.0 0.0 0.0 0.1 0.1
0.0 0.0 0.0 0.0 -0.0 0.0 0.0 0.4 0.8 0.4 1.0 0.9 0.8 0.8 0.5 0.3 0.2 0.3 0.3 0.2 0.2 0.1 0.0 -0.1 -0.1 -0.0 -0.1 -0.2 -0.1 -0.2 -0.2 -0.1 -0.1 -0.2 -0.2 -0.0 0.1 0.0 0.0 0.0 0.0 0.0 -0.0 -0.0 0.0 0.1 0.2 0.3 0.2
0.0 0.0 0.0 0.0 0.0 -0.0 0.0 0.0 0.2 0.6 1.2 1.4 1.3 0.7 0.6 0.5 0.2 0.1 0.3 0.2 0.2 0.2 0.1 -0.0 0.0 -0.0 0.1 -0.1 -0.1 -0.2 -0.2 -0.1 -0.1 -0.1 -0.1 0.1 0.1 0.0 -0.0 -0.0 -0.0 0.0 0.0 -0.0 0.2 0.2 0.1 0.0 0.0
0.0 0.0 0.0 0.0 -0.0 0.0 0.0 0.0 1.1 1.5 1.7 1.5 1.3 0.7 0.5 0.4 0.2 0.2 0.3 0.2 0.4 0.1 0.2 0.4 0.4 0.3 0.2 0.2 0.0 -0.0 -0.1 0.0 0.1 0.0 0.1 0.3 0.3 0.1 0.0 0.0 0.1 0.1 0.1 0.2 0.1 0.1 0.0 0.0 0.0
-0.0 -0.0 -0.0 0.0 -0.0 0.0 0.0 0.1 1.1 1.3 1.5 1.7 1.4 1.0 0.7 0.6 0.4 0.1 0.1 0.1 0.2 0.2 0.5 0.5 0.6 0.8 0.4 0.4 0.2 0.0 -0.0 0.0 0.0 0.1 0.2 0.5 0.3 0.2 0.1 0.2 0.2 0.1 0.1 0.1 0.2 0.1 0.0 0.0 0.0
0.0 -0.0 -0.0 -0.0 -0.0 0.0 0.0 0.0 0.1 1.1 1.1 1.0 0.9 1.2 0.8 0.7 0.4 0.2 0.2 0.1 0.3 0.6 0.9 0.9 0.7 0.8 0.4 0.3 0.3 0.1 0.0 0.1 0.2 0.3 0.4 0.5 0.4 0.4 0.2 0.2 0.1 0.1 0.3 0.2 0.0 0.0 0.0 0.0 0.0
-0.0 0.0 -0.0 -0.0 0.0 0.0 0.0 0.0 0.0 1.1 1.1 1.4 1.0 0.6 0.6 0.9 0.8 0.2 0.2 0.1 0.7 1.3 1.4 1.5 1.1 0.5 0.4 0.4 0.2 0.1 0.0 -0.0 0.1 0.3 0.3 0.7 0.5 0.6 0.2 0.3 0.2 0.1 0.3 0.1 0.0 0.0 0.0 0.0 0.0
-0.0 -0.0 -0.0 -0.0 -0.0 0.0 0.0 0.0 0.0 0.5 0.9 1.1 1.5 1.0 0.6 0.3 0.4 0.2 0.1 0.1 0.3 1.0 1.5 1.6 1.4 0.5 0.5 0.6 0.6 0.4 0.3 0.0 0.1 0.3 0.1 0.3 0.4 0.4 0.3 0.4 0.5 0.3 0.3 0.0 0.0 0.0 0.0 0.0 0.0
-0.0 -0.0 -0.0 -0.0 -0.0 -0.0 0.0 0.0 0.0 0.0 0.1 0.7 0.7 0.8 0.8 0.3 0.0 0.2 0.2 0.4 0.5 1.4 1.7 1.7 1.4 0.9 0.7 0.6 0.5 0.3 0.3 0.0 -0.2 0.0 -0.0 0.1 0.2 0.3 0.3 0.3 0.3 0.4 0.4 0.1 0.0 0.0 0.0 0.0 0.0
-0.0 -0.0 -0.0 -0.0 -0.0 -0.0 0.0 0.1 0.0 0.0 0.0 0.0 0.1 0.2 0.4 0.3 0.2 0.1 0.2 0.4 0.7 1.3 1.5 1.5 2.0 1.5 1.2 1.0 0.8 0.3 0.0 -0.1 -0.1 -0.1 -0.0 0.1 0.1 0.3 0.5 0.4 0.3 0.2 0.2 0.1 0.0 0.0 0.0 0.0 0.0
-0.0 -0.0 -0.0 -0.0 0.0 0.0 0.0 0.0 0.0 0.0 0.0 0.0 0.0 0.0 0.2 0.1 0.1 0.2 0.4 0.3 0.7 1.1 1.3 1.4 1.7 2.5 2.0 2.0 1.5 1.0 0.8 0.5 0.1 0.0 -0.0 0.1 0.2 0.8 0.6 0.5 0.2 0.1 0.0 0.0 0.0 0.0 0.0 0.0 0.0
-0.0 -0.0 -0.0 -0.0 0.0 0.0 0.0 0.0 0.0 0.0 0.0 0.0 0.0 0.0 0.1 0.1 0.1 0.0 0.5 0.6 0.6 1.0 1.5 1.4 1.1 3.4 3.0 2.3 1.8 1.6 1.0 0.6 0.2 0.1 -0.1 0.0 0.4 0.8 0.5 0.5 0.3 0.1 0.0 0.0 0.0 0.0 0.0 0.0 0.0
-0.0 0.0 0.0 0.0 0.0 0.0 0.0 0.0 0.0 0.0 0.0 0.0 0.0 0.0 0.0 0.1 0.0 0.0 0.2 0.4 0.6 0.9 1.6 1.7 1.4 1.8 3.2 2.9 2.1 2.0 1.4 0.7 0.3 0.2 0.1 0.1 0.4 0.4 0.5 0.6 0.6 0.1 0.0 0.0 0.0 0.0 0.0 0.0 0.0
-0.0 -0.0 0.0 0.0 0.0 -0.0 -0.0 0.0 -0.0 0.0 0.0 0.0 0.0 0.0 0.0 0.0 0.1 0.0 0.0 0.2 0.2 0.6 1.6 2.4 2.1 1.6 2.3 3.2 2.6 2.1 1.6 0.8 0.3 0.1 0.2 0.4 0.4 0.2 0.5 0.7 0.5 0.1 0.0 0.0 0.0 0.0 0.0 0.0 0.0
-0.0 0.0 0.0 0.0 0.0 0.0 0.0 0.0 0.0 0.0 0.0 0.0 0.0 0.0 0.0 0.0 0.0 0.0 0.0 0.2 0.2 0.5 1.9 3.1 3.2 2.3 2.6 2.2 2.3 2.0 1.6 0.8 0.3 0.1 0.4 0.4 0.5 0.9 0.8 0.8 0.4 0.0 0.0 0.0 0.0 0.0 0.0 0.0 0.0
-0.0 0.0 -0.0 -0.0 0.0 0.0 0.0 0.0 0.0 0.0 0.0 0.0 0.0 0.0 0.0 0.0 0.0 0.0 0.1 0.2 0.3 0.7 1.9 3.3 4.5 3.3 3.4 2.8 1.7 1.8 1.5 0.8 0.4 0.2 0.2 0.1 0.2 0.5 0.7 0.8 0.4 0.1 0.0 0.0 0.0 0.0 0.0 0.0 0.0
0.0 0.0 0.0 0.0 -0.0 0.0 0.0 0.0 0.0 0.0 -0.0 0.0 0.0 0.0 0.0 0.0 0.0 0.0 0.0 0.3 0.6 0.7 2.1 3.9 5.1 4.9 4.5 3.8 2.5 1.9 1.4 1.2 0.5 0.2 0.4 0.2 0.1 0.5 0.6 0.6 0.4 0.1 0.0 0.1 0.0 0.0 0.0 0.0 0.0
0.0 -0.0 0.0 0.0 0.0 -0.0 -0.0 -0.0 0.0 0.0 -0.0 0.0 0.0 0.1 0.0 0.0 0.0 0.0 0.0 0.3 0.7 1.1 2.9 4.3 4.9 4.2 3.9 3.7 2.6 2.4 1.4 1.1 0.9 0.2 0.2 0.4 0.2 0.2 0.6 0.7 0.6 0.3 0.1 0.0 0.0 0.0 0.0 0.0 0.0
0.0 0.0 0.0 0.0 0.0 0.0 -0.0 0.0 0.0 0.0 0.0 0.0 0.0 0.0 0.2 0.2 0.0 0.0 0.0 0.1 0.5 1.5 3.1 3.9 5.4 4.7 4.4 4.0 2.9 2.2 1.8 1.5 1.1 0.4 0.0 0.1 0.6 0.4 0.8 0.9 1.1 0.8 0.3 0.0 0.1 0.0 0.0 0.0 0.0

GFSSGP_con_3kmehi_015.txt.gz
EHI
0.8 0.3 0.1 0.0 0.0 0.0 0.0 0.0 0.0 0.0 0.0 0.0 0.0 -0.0 0.0 0.0 0.0 -0.0 -0.0 -0.0 -0.0 -0.0 -0.0 -0.1 -0.5 -0.7 -0.8 -0.7 -0.7 -0.4 -0.2 0.1 0.2 0.1 0.1 0.1 0.1 0.2 0.2 0.1 0.1 0.0 -0.2 -0.3 -0.2 -0.2 -0.2 -0.1 -0.1
0.3 0.0 0.0 -0.0 0.0 -0.0 0.0 0.0 0.0 0.0 0.1 0.0 0.0 0.0 0.0 0.0 -0.0 0.0 -0.0 -0.0 -0.0 -0.0 -0.0 -0.3 -0.6 -0.8 -0.7 -0.7 -0.6 -0.4 -0.1 -0.0 -0.0 0.1 0.1 0.2 0.2 0.2 0.1 0.1 0.1 0.1 0.0 -0.2 -0.3 -0.3 -0.3 -0.2 -0.1
-0.0 0.0 -0.0 -0.0 0.0 0.0 -0.0 -0.0 -0.0 0.1 0.1 0.0 -0.0 0.0 -0.0 -0.0 0.0 -0.0 -0.0 -0.0 -0.0 -0.1 -0.2 -0.5 -0.6 -0.8 -0.6 -0.5 -0.4 -0.3 -0.2 -0.1 -0.0 0.0 0.1 0.2 0.2 0.2 0.2 0.2 0.3 0.3 0.4 0.3 0.3 0.2 -0.1 -0.2 -0.1
-0.0 0.0 -0.0 -0.1 -0.0 -0.0 -0.0 0.1 0.1 0.1 0.0 0.0 0.0 0.0 0.0 -0.0 -0.0 0.0 -0.0 -0.0 -0.1 -0.1 -0.3 -0.5 -0.4 -0.4 -0.4 -0.4 -0.4 -0.3 -0.1 -0.1 -0.0 0.0 0.2 0.2 0.3 0.2 0.3 0.4 0.4 0.4 0.4 0.4 0.4 0.3 0.3 -0.1 -0.2
0.0 0.1 0.0 0.1 -0.0 -0.0 0.0 0.0 0.4 0.2 0.0 0.0 0.0 0.0 0.0 -0.0 -0.0 -0.0 -0.0 -0.1 -0.1 -0.2 -0.4 -0.5 -0.4 -0.4 -0.3 -0.3 -0.3 -0.2 -0.2 -0.1 -0.0 0.2 0.2 0.3 0.3 0.3 0.3 0.4 0.4 0.4 0.4 0.3 0.2 0.2 0.1 -0.2 -0.2
0.0 0.1 0.1 0.0 -0.0 0.0 -0.0 0.0 0.1 -0.1 0.1 0.0 0.0 0.1 -0.0 -0.0 0.0 -0.0 -0.0 -0.1 -0.1 -0.2 -0.3 -0.4 -0.3 -0.2 -0.2 -0.2 -0.2 -0.2 -0.1 -0.1 0.1 0.2 0.2 0.3 0.3 0.2 0.2 0.3 0.3 0.3 0.3 0.3 0.2 0.1 0.0 0.1 0.2
0.0 0.0 0.0 0.0 -0.0 -0.1 -0.0 -0.0 0.2 0.2 0.1 0.0 0.1 0.1 0.0 -0.0 -0.0 -0.0 -0.0 -0.1 -0.1 -0.1 -0.3 -0.3 -0.3 -0.2 -0.1 -0.2 -0.1 -0.0 0.0 0.0 0.1 0.1 0.2 0.1 0.2 0.3 0.2 0.2 0.2 0.2 0.2 0.2 0.2 0.2 0.1 0.1 0.3
0.0 0.0 0.0 0.0 0.0 -0.1 -0.1 0.0 0.1 0.2 0.0 0.1 0.1 0.1 0.1 -0.0 -0.0 -0.0 -0.0 -0.1 -0.0 -0.1 -0.1 -0.2 -0.2 -0.2 -0.2 -0.2 0.1 0.1 0.0 0.1 0.2 0.2 0.2 0.2 0.3 0.3 0.2 0.2 0.2 0.1 0.1 0.1 0.2 0.2 0.0 0.0 0.0
0.0 0.0 0.0 0.0 0.0 0.0 0.1 0.1 0.2 0.1 0.2 -0.0 -0.0 0.0 0.0 0.0 0.1 0.1 0.0 -0.0 -0.1 -0.1 -0.1 -0.1 -0.1 -0.1 -0.2 -0.2 -0.1 0.1 0.2 0.2 0.2 0.2 0.2 0.3 0.1 0.1 0.2 0.2 0.2 0.2 0.1 0.1 0.2 0.2 0.1 -0.1 -0.1
-0.0 0.0 0.0 0.0 0.0 0.2 0.4 0.3 0.2 0.1 0.3 -0.0 0.0 0.2 0.2 0.1 0.2 0.2 0.2 0.1 0.0 -0.1 -0.1 -0.1 -0.1 -0.1 -0.1 -0.1 -0.1 -0.1 -0.1 -0.1 -0.1 -0.1 0.0 0.0 0.1 0.1 0.1 0.1 0.0 0.0 0.1 -0.0 0.0 0.1 -0.1 -0.3 -0.1
0.0 0.1 0.0 0.0 0.0 0.3 0.7 0.3 0.2 0.4 0.2 0.1 0.3 0.3 0.2 0.3 0.2 0.2 0.2 0.1 0.0 -0.0 -0.1 -0.1 -0.1 -0.1 -0.1 -0.1 -0.2 -0.1 -0.1 -0.2 -0.2 -0.1 -0.0 -0.0 -0.0 0.0 -0.1 0.0 0.0 -0.0 -0.0 -0.1 -0.1 -0.1 0.0 0.0 0.0
0.0 0.0 0.0 0.0 0.0 0.6 0.9 0.4 0.3 0.4 0.1 0.4 0.4 0.3 0.3 0.3 0.2 0.2 0.2 0.1 0.0 0.0 -0.0 -0.1 -0.1 -0.1 -0.1 -0.1 -0.1 -0.1 -0.1 -0.1 -0.2 -0.2 -0.1 -0.0 0.0 0.0 0.0 0.0 -0.0 -0.0 -0.0 -0.0 -0.0 -0.0 0.0 0.1 0.1
0.0 0.0 0.0 0.0 0.0 0.2 0.6 1.1 0.8 0.2 0.2 0.6 0.5 0.3 0.3 0.3 0.2 0.1 0.2 0.1 0.0 0.0 -0.0 -0.0 -0.0 -0.1 -0.2 -0.1 -0.2 -0.2 -0.1 -0.1 -0.1 -0.1 -0.1 -0.0 0.0 0.0 -0.0 -0.0 -0.0 0.0 0.0 -0.0 -0.0 0.0 0.0 0.1 0.1
-0.0 -0.0 -0.0 0.0 0.0 0.3 0.7 0.5 0.3 0.1 0.6 0.9 0.6 0.6 0.3 0.2 0.2 0.1 0.1 0.2 0.1 0.0 -0.0 -0.0 -0.0 -0.1 -0.1 -0.1 -0.1 -0.1 -0.2 -0.1 -0.1 -0.1 -0.1 -0.0 -0.0 0.0 0.0 0.0 0.0 0.0 0.1 0.0 0.1 0.1 0.0 0.0 0.0
0.0 -0.0 -0.0 -0.0 0.0 0.0 0.3 0.5 1.1 0.6 1.1 1.2 0.8 0.7 0.3 0.1 0.2 0.3 0.2 0.2 0.3 0.1 -0.0 0.0 -0.0 -0.1 -0.0 0.0 -0.1 -0.1 -0.1 -0.1 -0.1 -0.0 0.0 0.0 0.1 0.0 0.0 0.0 0.0 0.1 0.1 0.2 0.1 0.1 0.0 0.0 0.0
-0.0 -0.0 -0.0 0.0 0.0 0.0 0.0 0.0 0.3 1.0 1.6 1.2 1.0 0.8 0.4 0.1 0.2 0.1 0.3 0.2 0.2 0.1 0.1 -0.0 -0.1 -0.0 -0.1 -0.1 -0.1 -0.0 -0.1 -0.1 -0.1 -0.0 -0.0 0.2 0.2 0.1 0.0 0.1 0.1 0.1 0.1 0.3 0.1 0.1 0.0 0.0 0.0
-0.0 -0.0 -0.0 -0.0 0.0 0.0 0.0 0.0 0.9 1.2 1.5 1.4 1.1 0.9 0.5 0.1 0.0 0.1 0.2 0.3 0.3 0.1 0.1 0.0 0.0 0.0 0.0 -0.1 -0.1 -0.0 -0.0 -0.0 0.0 -0.0 0.0 0.2 0.3 0.2 0.1 0.1 0.1 0.1 0.2 0.1 0.1 0.0 0.0 0.0 0.0
0.0 -0.0 -0.0 -0.0 0.0 0.0 0.0 0.0 1.2 1.1 1.8 1.9 1.2 0.8 0.5 0.3 0.1 0.1 0.1 0.2 0.2 0.1 0.1 0.1 0.2 0.2 0.1 -0.0 -0.1 -0.1 -0.0 -0.0 -0.0 0.0 0.1 0.1 0.4 0.4 0.2 0.1 0.1 0.1 0.2 0.1 0.0 0.0 0.0 0.0 0.0
0.0 0.0 -0.0 -0.0 0.0 0.0 -0.0 0.0 0.9 1.0 0.8 1.3 1.8 1.4 0.8 0.4 0.2 0.1 0.1 0.1 0.1 0.1 0.2 0.4 0.3 0.3 0.3 0.1 0.1 0.1 0.4 0.1 0.1 0.2 0.2 0.2 0.2 0.2 0.2 0.2 0.2 0.1 0.2 0.0 0.0 0.0 0.0 0.0 0.0
0.0 0.0 -0.0 -0.0 -0.0 0.0 -0.0 -0.0 0.7 1.0 0.9 1.4 1.9 1.5 1.2 0.2 0.2 0.1 0.1 0.1 0.1 0.3 0.5 0.6 0.6 0.5 0.5 0.4 0.3 0.3 0.2 0.1 0.1 0.1 0.1 0.1 0.2 0.3 0.3 0.2 0.3 0.2 0.1 0.0 0.0 0.0 0.0 0.0 0.0
0.0 -0.0 -0.0 -0.0 -0.0 -0.0 0.0 0.0 0.0 0.5 0.1 0.4 0.7 1.0 0.9 0.5 0.6 0.1 0.1 0.1 0.1 0.3 0.7 0.9 1.1 0.9 0.6 0.4 0.3 0.2 0.1 -0.0 0.1 0.1 0.1 0.2 0.1 0.0 0.3 0.2 0.2 0.1 0.1 0.1 0.0 0.0 0.0 0.0 0.0
-0.0 -0.0 -0.0 -0.0 -0.0 -0.0 0.0 0.0 0.0 0.0 0.1 0.3 0.4 0.6 0.8 0.5 0.4 0.3 0.2 0.1 0.2 0.3 0.7 0.9 1.2 1.1 0.6 0.5 0.5 0.6 0.5 0.4 0.1 0.2 0.2 0.3 0.1 0.0 0.2 0.3 0.2 0.1 0.1 0.0 0.0 0.0 0.0 0.0 0.0
-0.0 0.0 -0.0 -0.0 -0.0 -0.0 0.0 0.0 0.0 0.0 0.0 0.0 0.1 0.2 0.4 0.6 0.5 0.4 0.4 0.3 0.2 0.3 0.7 1.1 1.3 1.3 0.9 0.7 0.7 0.6 0.4 0.4 0.2 0.1 0.1 0.2 0.1 0.0 0.2 0.2 0.2 0.1 0.0 0.0 0.0 0.0 0.0 0.0 0.0
0.0 0.0 0.0 -0.0 -0.0 -0.0 -0.0 0.0 -0.0 -0.0 0.0 0.0 0.0 0.0 0.0 0.2 0.4 0.4 0.4 0.5 0.4 0.5 0.9 1.0 1.2 1.4 1.3 1.1 0.9 0.9 0.7 0.6 0.3 0.1 0.1 0.0 0.0 -0.1 -0.0 0.2 0.2 0.1 0.0 0.0 0.0 0.0 0.0 0.0 0.0
0.0 -0.0 0.0 0.0 0.0 -0.0 -0.0 0.0 -0.0 -0.0 0.0 0.0 0.0 0.0 0.0 0.0 0.1 0.1 0.1 0.3 0.5 0.7 1.2 1.2 1.0 1.5 1.7 1.6 1.4 1.2 1.0 0.7 0.5 0.2 0.2 0.1 0.0 -0.2 -0.2 0.1 0.2 0.1 0.0 0.0 0.0 0.0 0.0 0.0 0.0
0.0 0.0 0.0 0.0 0.0 0.0 0.0 0.0 -0.0 -0.0 -0.0 0.0 0.0 0.0 0.0 0.0 0.0 0.0 0.0 0.1 0.4 0.5 1.3 1.4 1.2 1.4 2.2 2.4 1.8 1.5 1.2 1.1 0.7 0.2 0.2 0.1 0.1 -0.1 -0.1 0.2 0.2 0.2 0.0 0.0 0.0 0.0 0.0 0.0 0.0
0.0 0.0 -0.0 0.0 0.0 0.0 0.0 0.0 -0.0 0.0 0.0 0.0 0.0 0.0 0.0 0.0 0.0 0.0 0.0 0.0 0.2 0.3 0.5 1.8 1.6 1.2 2.2 2.9 2.7 1.9 1.5 1.3 0.9 0.3 0.2 0.2 -0.0 -0.4 -0.2 0.2 0.4 0.1 0.0 0.0 0.0 0.0 0.0 0.0 0.0
0.0 0.0 0.0 0.0 0.0 0.0 0.0 0.0 0.0 0.0 0.0 -0.0 0.0 0.0 0.0 0.0 0.0 0.0 0.0 0.0 0.0 0.2 0.3 1.5 2.2 1.8 1.6 2.6 2.9 2.7 1.9 1.4 1.1 0.5 0.2 0.2 -0.0 -0.3 -0.1 0.1 0.3 0.1 0.0 0.0 0.0 0.0 0.0 0.0 0.0
0.0 0.0 0.0 0.0 0.0 -0.0 -0.0 -0.0 0.0 0.0 0.0 0.0 0.0 0.0 0.0 0.0 0.0 0.0 0.0 0.0 0.0 0.1 0.1 1.0 1.9 2.1 1.5 1.7 2.0 2.0 1.9 1.4 1.2 0.6 0.4 0.3 0.0 -0.1 0.0 0.2 0.4 0.2 0.0 0.0 0.0 0.0 0.0 0.0 0.0
0.0 0.0 0.0 0.0 0.0 0.0 -0.0 -0.0 0.0 0.0 0.0 0.0 0.0 0.0 0.0 0.0 0.0 0.0 0.0 0.0 0.1 0.1 0.1 1.0 1.9 2.3 2.0 2.2 2.3 2.1 1.8 1.6 1.4 0.7 0.4 0.4 0.2 0.1 0.1 0.2 0.3 0.3 0.1 0.0 0.0 0.0 0.0 0.0 0.0

GFSSGP_con_3kmehi_018.txt.gz
EHI
0.1 0.1 0.0 0.0 -0.0 -0.0 -0.0 -0.0 0.0 -0.0 -0.0 0.0 0.0 -0.0 -0.0 0.0 -0.0 0.0 -0.0 0.0 -0.0 -0.0 -0.0 -0.2 -0.2 -0.3 -0.4 -0.7 -0.7 -0.4 -0.1 0.1 0.1 0.2 0.2 0.2 0.2 0.2 0.2 0.2 0.0 -0.0 -0.0 -0.1 -0.2 -0.1 0.1 0.1 0.2
0.4 0.1 -0.0 0.0 -0.0 -0.0 -0.0 -0.0 -0.0 -0.0 0.0 0.0 0.0 0.0 0.0 -0.0 -0.0 0.0 0.0 -0.0 -0.0 -0.0 -0.1 -0.2 -0.3 -0.6 -0.5 -0.6 -0.6 -0.4 -0.1 0.0 0.1 0.1 0.2 0.2 0.3 0.2 0.2 0.1 0.1 0.0 0.0 -0.2 -0.2 0.1 0.1 0.2 0.3
0.1 0.0 -0.0 0.0 0.0 -0.0 -0.0 -0.0 -0.0 0.1 0.0 0.0 0.0 0.0 0.0 -0.0 0.0 -0.0 -0.0 -0.0 -0.0 -0.1 -0.1 -0.3 -0.4 -0.7 -0.6 -0.6 -0.5 -0.4 -0.2 0.0 0.1 0.1 0.2 0.2 0.2 0.2 0.2 0.2 0.2 0.2 0.2 0.2 0.2 0.2 0.2 0.2 0.3
0.1 0.0 0.0 0.1 0.0 0.0 -0.0 -0.0 0.0 0.1 0.0 0.0 0.0 0.0 0.0 -0.0 -0.0 0.0 -0.0 -0.0 -0.0 -0.1 -0.3 -0.5 -0.5 -0.5 -0.6 -0.4 -0.5 -0.3 -0.2 -0.0 0.1 0.1 0.1 0.2 0.2 0.1 0.2 0.3 0.3 0.3 0.3 0.2 0.2 0.2 0.2 0.2 0.2
-0.0 0.1 0.1 0.1 0.0 0.0 -0.0 -0.0 0.1 0.0 0.0 0.0 0.0 0.0 0.0 -0.0 -0.0 -0.0 -0.0 -0.0 -0.0 -0.2 -0.4 -0.5 -0.6 -0.6 -0.6 -0.4 -0.4 -0.2 -0.1 -0.1 0.1 0.1 0.1 0.2 0.2 0.2 0.3 0.3 0.3 0.3 0.2 0.1 0.1 0.2 0.2 0.2 0.2
0.0 0.0 0.0 0.0 -0.0 -0.0 -0.0 -0.0 -0.0 0.0 0.0 0.0 0.0 0.0 -0.0 -0.0 -0.0 -0.0 -0.0 -0.0 -0.1 -0.2 -0.5 -0.5 -0.6 -0.4 -0.4 -0.3 -0.2 -0.2 -0.2 -0.0 0.1 0.1 0.2 0.3 0.2 0.2 0.2 0.3 0.3 0.3 0.1 0.1 0.1 0.1 0.1 0.1 0.2
0.0 0.0 0.0 0.0 0.0 -0.1 -0.1 -0.0 -0.1 0.0 0.0 0.0 0.0 0.0 0.0 -0.0 -0.0 -0.0 -0.0 -0.0 -0.1 -0.2 -0.4 -0.4 -0.5 -0.3 -0.3 -0.3 -0.2 -0.1 -0.1 0.1 0.1 0.1 0.2 0.3 0.2 0.2 0.2 0.2 0.2 0.2 0.2 0.1 0.0 -0.0 0.0 0.0 0.2
0.0 0.0 0.0 0.0 0.0 -0.0 -0.1 -0.1 -0.0 0.0 -0.0 0.0 0.0 0.0 0.0 -0.0 -0.0 -0.0 -0.0 -0.1 -0.1 -0.3 -0.3 -0.3 -0.3 -0.3 -0.4 -0.3 -0.1 -0.0 0.1 0.1 0.1 0.2 0.2 0.2 0.2 0.2 0.2 0.2 0.2 0.2 0.1 0.1 -0.0 -0.1 0.0 0.0 0.1
0.0 0.0 0.0 0.0 0.0 -0.0 0.0 0.0 0.0 -0.1 0.0 0.0 -0.0 0.0 0.0 0.0 0.0 0.1 0.0 -0.1 -0.2 -0.3 -0.3 -0.3 -0.2 -0.2 -0.3 -0.2 -0.1 0.0 0.1 0.1 0.2 0.2 0.2 0.2 0.1 0.1 0.1 0.2 0.2 0.2 0.2 0.1 0.1 -0.0 -0.1 -0.2 -0.3
0.0 0.0 0.0 0.0 0.0 0.0 0.2 0.3 0.3 -0.1 0.0 -0.0 -0.0 0.0 0.2 0.1 0.1 0.2 0.1 0.0 -0.1 -0.2 -0.2 -0.2 -0.2 -0.1 -0.2 -0.2 -0.1 -0.1 -0.1 -0.1 -0.1 0.0 0.0 0.1 0.1 0.1 0.1 0.2 0.0 0.0 0.2 0.1 0.1 -0.0 -0.2 -0.2 -0.1
-0.0 0.1 0.0 0.0 0.0 0.0 0.2 0.4 0.4 0.2 0.0 -0.0 0.1 0.2 0.2 0.2 0.2 0.2 0.1 0.0 -0.0 -0.1 -0.1 -0.1 -0.1 -0.1 -0.1 -0.1 -0.2 -0.2 -0.1 -0.1 -0.1 -0.0 -0.0 -0.0 0.0 0.0 -0.1 0.0 0.0 -0.0 -0.0 -0.0 -0.0 -0.1 -0.1 0.0 0.0
0.0 0.0 0.1 0.0 0.0 0.1 0.2 0.4 0.3 0.3 0.1 -0.0 0.2 0.3 0.4 0.3 0.2 0.2 0.1 0.0 -0.0 -0.0 -0.0 -0.1 -0.0 -0.1 -0.0 -0.1 -0.1 -0.1 -0.1 -0.1 -0.1 -0.1 -0.1 -0.1 -0.0 -0.0 0.0 0.0 0.0 -0.0 -0.0 -0.0 -0.0 0.0 -0.0 0.1 0.1
-0.0 0.0 0.0 0.0 0.0 0.0 0.2 0.5 0.4 0.0 -0.1 0.1 0.2 0.4 0.3 0.3 0.2 0.1 0.1 -0.0 0.0 -0.0 -0.0 -0.1 -0.0 -0.1 -0.1 -0.1 -0.2 -0.1 -0.1 -0.1 -0.1 -0.1 -0.1 -0.0 -0.0 -0.0 -0.0 0.0 0.0 0.0 0.0 0.0 0.1 0.1 0.1 0.0 0.0
-0.0 0.0 0.0 0.0 0.0 0.0 0.4 0.4 0.7 -0.1 0.1 0.3 0.4 0.3 0.3 0.3 0.2 0.1 0.0 0.0 0.0 -0.0 -0.0 -0.0 -0.0 -0.1 -0.1 -0.1 -0.1 -0.1 -0.1 -0.1 -0.1 -0.0 -0.1 -0.0 -0.0 -0.0 -0.0 -0.0 0.0 0.0 0.0 0.1 0.1 0.2 0.1 0.0 0.0
-0.0 -0.0 -0.0 0.0 0.0 0.0 0.3 0.3 0.7 0.1 0.4 0.3 0.3 0.3 0.2 0.2 0.1 0.1 0.1 0.1 0.1 0.0 -0.0 0.0 0.0 -0.1 -0.1 -0.0 -0.1 -0.1 -0.1 -0.1 -0.0 -0.0 -0.0 -0.0 0.0 0.0 0.0 0.0 0.0 0.1 0.1 0.2 0.3 0.1 0.0 0.0 0.0
-0.0 -0.0 -0.0 -0.0 -0.0 0.0 0.4 0.3 0.7 0.6 0.7 0.4 0.4 0.3 0.2 0.2 0.1 0.0 0.0 0.1 0.1 0.0 0.0 -0.0 -0.0 -0.0 -0.1 -0.1 -0.1 -0.1 -0.1 -0.0 -0.0 -0.0 -0.0 -0.1 0.1 0.1 0.0 0.0 0.1 0.1 0.1 0.2 0.2 0.1 0.1 0.0 0.0
-0.0 -0.0 -0.0 -0.0 0.0 -0.0 0.3 0.0 0.5 1.0 1.0 0.7 0.6 0.4 0.2 0.2 -0.0 0.0 0.0 0.1 0.1 0.1 0.1 -0.0 -0.0 -0.0 -0.0 -0.1 -0.1 -0.1 -0.0 -0.0 -0.0 -0.0 -0.0 -0.0 0.0 0.1 0.1 0.1 0.1 0.1 0.1 0.2 0.1 0.0 0.0 0.0 0.0
0.0 -0.0 -0.0 -0.0 0.0 -0.0 0.0 0.0 0.1 1.1 1.2 1.2 0.7 0.5 0.3 0.1 0.1 0.0 0.0 0.1 0.1 0.1 0.1 -0.0 -0.0 -0.1 -0.1 -0.1 -0.1 -0.1 -0.1 -0.0 -0.0 -0.0 0.0 0.0 0.1 0.2 0.1 0.1 0.1 0.1 0.1 0.1 0.0 0.0 0.0 0.0 0.0
0.0 -0.0 -0.0 -0.0 0.0 0.0 -0.0 -0.0 0.2 0.7 0.9 0.8 1.1 1.1 0.4 0.1 0.1 -0.0 0.0 0.0 0.1 0.0 0.0 0.0 0.0 -0.0 -0.0 -0.0 -0.1 -0.1 -0.0 -0.1 -0.0 -0.0 -0.0 0.0 0.1 0.2 0.2 0.2 0.2 0.1 0.1 0.1 0.0 0.0 0.0 0.0 0.0
0.0 0.0 -0.0 -0.0 0.0 0.0 0.0 -0.0 0.1 0.7 1.0 1.2 1.1 1.2 0.7 0.0 0.0 0.0 0.0 0.0 0.0 0.1 0.0 0.0 0.1 0.1 0.1 0.1 0.0 0.0 0.0 0.0 0.1 0.0 -0.0 0.0 0.1 0.2 0.3 0.2 0.2 0.1 0.1 0.0 0.0 0.0 0.0 0.0 0.0
0.0 -0.0 -0.0 -0.0 0.0 0.0 0.0 0.0 -0.0 0.2 0.6 0.4 0.3 0.6 0.4 0.1 0.2 -0.0 0.1 0.1 0.0 0.0 0.0 0.1 0.2 0.2 0.3 0.2 0.1 0.0 0.0 0.0 -0.0 -0.0 0.0 0.0 0.1 0.2 0.3 0.2 0.1 0.1 0.1 0.1 0.0 0.0 0.0 0.0 0.0
-0.0 0.0 0.0 -0.0 0.0 0.0 0.0 -0.0 -0.0 -0.0 0.2 0.2 0.2 0.5 0.6 0.2 0.1 0.1 0.1 -0.0 0.0 0.0 0.1 0.1 0.1 0.2 0.2 0.4 0.3 0.4 0.3 0.3 0.3 0.2 0.2 0.2 0.1 0.1 0.2 0.1 0.0 0.1 0.0 0.1 0.0 0.0 0.0 0.0 0.0
0.0 0.0 0.0 0.0 0.0 0.0 0.0 0.0 -0.0 0.0 -0.0 0.0 0.1 0.4 0.7 0.7 0.4 0.4 0.3 0.3 0.1 0.0 0.0 0.2 0.3 0.3 0.3 0.5 0.5 0.5 0.5 0.2 0.1 0.1 0.2 0.2 0.2 0.2 0.0 0.0 0.1 0.0 0.0 0.0 0.0 0.0 0.0 0.0 0.0
0.0 0.0 0.0 0.0 0.0 -0.0 -0.0 -0.0 -0.0 -0.0 0.0 0.1 0.1 0.2 0.4 0.5 0.5 0.4 0.4 0.3 0.1 0.1 0.0 0.1 0.3 0.4 0.5 0.5 0.5 0.5 0.4 0.2 0.1 0.1 0.2 0.2 0.2 0.1 -0.1 -0.2 -0.0 0.0 0.0 0.0 0.0 0.0 0.0 0.0 0.0
0.0 0.0 0.0 0.0 0.0 -0.0 -0.0 -0.0 -0.0 -0.0 0.0 0.0 0.1 0.2 0.4 0.6 0.5 0.3 0.2 0.3 0.4 0.1 0.1 0.3 0.4 0.4 0.5 0.6 0.6 0.5 0.5 0.4 0.2 0.2 0.3 0.3 0.2 -0.0 -0.2 -0.2 -0.1 -0.0 0.0 0.0 0.0 0.0 0.0 0.0 0.0
0.0 0.0 0.0 0.0 0.0 0.0 0.0 -0.0 -0.0 -0.0 -0.0 -0.0 0.0 0.0 0.0 0.1 0.3 0.4 0.3 0.2 0.3 0.3 0.2 0.4 0.7 0.8 0.7 0.7 0.7 0.6 0.7 0.6 0.4 0.2 0.3 0.3 0.3 0.1 -0.0 -0.1 -0.1 0.0 0.0 0.0 0.0 0.0 0.0 0.0 0.0
0.0 0.0 0.0 0.0 0.0 0.0 0.0 -0.0 -0.0 -0.0 -0.0 0.0 0.0 0.0 0.0 0.0 0.0 0.1 0.2 0.2 0.2 0.2 0.3 0.7 0.9 0.8 1.1 1.1 0.9 0.8 0.9 0.9 0.6 0.4 0.3 0.3 0.3 0.1 0.0 -0.1 -0.1 0.1 0.0 0.0 0.0 0.0 0.0 0.0 0.0
0.0 0.0 0.0 0.0 -0.0 -0.0 0.0 0.0 0.0 0.0 0.0 -0.0 0.0 0.0 0.0 0.0 0.0 0.0 0.0 0.0 0.0 0.2 0.3 0.7 1.0 1.0 1.2 1.6 1.4 1.4 1.5 1.4 1.0 0.7 0.4 0.4 0.3 0.2 0.0 -0.2 -0.1 0.0 0.0 0.0 0.0 0.0 0.0 0.0 0.0
0.0 0.0 0.0 0.0 0.0 0.0 0.0 0.0 0.0 0.0 0.0 0.0 -0.0 0.0 0.0 0.0 0.0 0.0 0.0 0.0 0.0 0.0 0.2 0.4 1.0 1.1 1.0 1.8 2.0 1.8 1.7 1.6 1.4 0.9 0.6 0.5 0.4 0.2 0.1 -0.0 -0.0 0.0 0.1 0.0 0.0 0.0 0.0 0.0 0.0
0.0 0.0 0.0 0.0 0.0 0.0 0.0 -0.0 -0.0 -0.0 -0.0 0.0 0.0 0.0 0.0 0.0 0.0 0.0 0.0 0.0 0.0 0.0 0.0 0.2 0.8 1.1 1.1 1.5 2.8 2.5 2.2 2.1 2.0 1.3 0.8 0.6 0.4 0.3 0.2 0.2 0.1 0.0 0.1 0.1 0.1 0.0 0.0 0.0 0.0

GFSSGP_con_3kmehi_021.txt.gz
EHI
0.1 0.1 0.0 0.0 0.1 -0.0 0.0 -0.0 0.0 -0.0 -0.0 0.0 0.0 0.0 0.0 0.0 0.0 -0.0 0.0 0.0 -0.0 -0.0 -0.1 -0.2 -0.4 -0.4 -0.6 -0.6 -0.5 -0.4 -0.1 0.0 0.1 0.2 0.3 0.3 0.2 0.2 0.1 0.1 0.1 0.1 0.1 0.1 0.1 0.1 0.1 0.2 0.2
0.3 0.1 -0.0 0.0 -0.0 -0.0 -0.0 -0.0 -0.0 0.0 0.0 0.0 0.0 0.0 0.0 0.0 -0.0 0.0 0.0 -0.0 -0.0 -0.0 -0.1 -0.1 -0.5 -0.8 -0.7 -0.7 -0.6 -0.3 0.0 0.1 0.1 0.4 0.3 0.2 0.1 0.2 0.0 0.0 0.1 0.2 0.2 0.1 0.1 0.1 0.3 0.2 0.1
0.3 0.1 0.0 0.0 -0.0 -0.0 -0.0 -0.0 0.0 0.0 0.0 0.0 0.0 0.0 0.0 -0.0 0.0 0.0 -0.0 -0.0 -0.0 -0.0 -0.1 -0.1 -0.4 -0.8 -0.7 -0.6 -0.4 -0.2 0.0 0.1 0.3 0.3 0.2 0.2 0.1 0.1 0.1 0.1 0.2 0.2 0.1 0.2 0.1 0.2 0.2 0.2 0.1
0.3 0.1 0.0 0.1 0.0 0.0 -0.0 0.0 0.1 0.1 0.0 0.0 -0.0 0.0 0.0 0.0 0.0 -0.0 -0.0 -0.0 -0.0 -0.1 -0.1 -0.3 -0.5 -0.6 -0.6 -0.5 -0.3 -0.1 0.0 0.1 0.2 0.2 0.2 0.1 0.1 0.1 0.2 0.1 0.2 0.2 0.1 0.1 0.2 0.1 0.1 0.0 0.1
0.1 0.0 0.2 0.1 -0.0 0.0 -0.0 0.0 0.1 0.0 0.0 -0.0 0.0 0.0 0.0 -0.0 -0.0 0.0 -0.0 -0.0 -0.0 -0.1 -0.1 -0.3 -0.6 -0.8 -0.6 -0.5 -0.3 -0.2 0.0 0.1 0.2 0.2 0.2 0.1 0.1 0.1 0.2 0.1 0.3 0.2 0.1 0.2 0.2 0.1 0.2 0.2 0.1
0.0 0.0 0.0 0.0 0.0 -0.1 -0.0 0.0 0.1 -0.0 -0.0 0.0 0.0 0.0 -0.0 -0.1 -0.0 -0.0 -0.0 -0.0 -0.0 -0.1 -0.1 -0.3 -0.6 -0.7 -0.6 -0.4 -0.3 -0.1 0.1 0.1 0.1 0.2 0.2 0.2 0.1 0.1 0.1 0.2 0.2 0.1 0.1 0.1 0.0 0.0 0.1 0.1 0.0
0.0 -0.0 0.0 0.0 0.0 -0.1 -0.1 0.1 0.1 0.0 -0.0 -0.0 0.0 0.0 -0.0 -0.0 -0.0 -0.0 -0.0 -0.1 -0.1 -0.1 -0.1 -0.3 -0.3 -0.5 -0.4 -0.4 -0.2 -0.0 0.0 0.1 0.1 0.1 0.2 0.2 0.2 0.2 0.1 0.1 0.1 0.1 0.1 0.0 0.0 0.0 0.1 0.2 0.2
0.0 -0.0 0.0 0.0 0.0 0.0 -0.1 -0.0 0.0 0.0 -0.0 0.0 -0.0 -0.0 -0.0 -0.0 -0.0 -0.0 -0.0 -0.1 -0.1 -0.2 -0.1 -0.3 -0.2 -0.2 -0.2 -0.2 -0.1 0.0 -0.0 0.0 0.1 0.1 0.1 0.2 0.2 0.2 0.2 0.2 0.1 0.1 0.1 0.1 0.1 0.1 0.1 0.1 0.1
0.0 -0.1 0.1 0.0 -0.0 -0.0 0.1 -0.0 0.1 -0.0 0.0 -0.0 -0.0 -0.0 0.0 0.1 -0.0 -0.0 -0.0 -0.1 -0.1 -0.2 -0.2 -0.2 -0.2 -0.2 -0.2 -0.1 -0.1 0.0 -0.0 0.1 0.1 0.2 0.1 0.2 0.1 0.3 0.2 0.1 0.2 0.2 0.1 0.1 0.0 -0.0 -0.1 -0.2 -0.3
0.0 -0.0 0.0 -0.0 -0.0 0.0 0.2 0.1 0.3 -0.0 0.0 -0.0 0.0 0.1 0.1 0.1 0.1 0.1 0.1 0.1 0.0 -0.1 -0.1 -0.2 -0.2 -0.2 -0.1 -0.1 -0.1 -0.0 0.0 0.1 0.1 0.1 0.1 0.2 0.1 0.2 0.2 0.2 0.1 0.0 0.1 0.0 -0.0 -0.1 -0.1 -0.1 0.0
0.0 -0.0 0.0 0.0 0.0 0.0 0.0 0.2 0.2 0.1 -0.0 0.1 0.1 0.3 0.3 0.2 0.1 0.1 0.0 0.1 0.0 -0.0 -0.1 -0.1 -0.2 -0.2 -0.1 -0.1 -0.1 -0.0 -0.0 0.0 0.1 0.2 0.1 0.1 0.1 0.1 0.2 0.2 0.1 0.0 0.0 0.0 -0.0 -0.2 -0.1 0.1 0.0
0.1 0.2 0.1 0.0 0.0 0.0 0.0 0.1 0.1 0.3 -0.1 0.2 0.3 0.2 0.4 0.3 0.2 0.1 0.0 0.1 0.1 0.0 -0.0 -0.1 -0.1 -0.1 -0.1 -0.1 -0.1 -0.0 -0.0 0.0 0.0 0.0 -0.0 -0.0 0.0 0.1 0.2 0.1 0.0 0.0 0.0 0.1 0.1 0.0 0.1 0.1 0.3
0.1 0.0 0.0 0.0 0.0 0.0 0.0 0.4 0.1 0.3 0.1 0.0 0.5 0.4 0.3 0.2 0.1 0.0 0.0 0.0 0.0 0.0 -0.0 -0.0 -0.1 -0.1 -0.1 -0.1 -0.1 -0.0 0.0 -0.0 0.0 -0.0 -0.1 -0.1 0.0 0.1 0.1 0.1 0.0 0.0 0.0 0.0 0.0 0.1 0.1 -0.0 0.0
-0.0 0.0 0.0 0.0 0.0 0.0 0.0 0.0 0.1 0.0 0.2 0.3 0.6 0.7 0.3 0.2 0.1 0.1 0.0 0.1 0.1 -0.0 -0.0 -0.0 -0.1 -0.0 -0.1 -0.1 -0.1 -0.1 -0.0 -0.0 -0.0 -0.1 -0.1 -0.1 0.0 0.0 0.1 0.0 0.0 0.0 0.1 0.1 0.1 0.4 0.1 -0.1 -0.1
-0.0 0.0 0.0 0.0 0.0 0.0 0.0 -0.0 0.3 0.2 0.4 0.6 0.4 0.6 0.4 0.1 0.1 0.2 0.2 0.2 0.2 0.1 -0.1 -0.0 -0.0 -0.1 -0.1 -0.0 -0.1 -0.1 -0.1 -0.1 -0.1 -0.1 -0.1 -0.1 -0.0 0.0 0.1 0.0 0.1 0.1 0.2 0.4 0.6 0.3 0.4 0.0 0.0
0.0 -0.0 0.0 0.0 0.0 0.0 0.0 0.0 0.1 0.6 0.7 0.7 0.5 0.4 0.5 0.4 0.3 0.1 0.1 0.2 0.0 -0.0 -0.0 -0.0 -0.1 -0.0 -0.0 -0.1 -0.1 -0.1 -0.1 -0.1 -0.1 -0.1 -0.1 -0.1 -0.1 0.1 0.1 0.1 0.1 0.1 0.2 0.5 0.5 0.4 0.3 0.1 0.0
-0.0 0.0 -0.0 0.0 0.0 0.0 -0.0 0.0 0.0 0.9 0.8 1.0 1.0 0.6 0.4 0.5 0.2 0.1 0.1 0.1 0.0 -0.0 -0.1 -0.0 -0.1 -0.0 -0.0 -0.1 -0.1 -0.1 -0.1 -0.1 -0.1 -0.1 -0.1 -0.1 -0.0 0.1 0.2 0.2 0.1 0.2 0.3 0.3 0.4 0.3 0.2 0.0 0.0
0.0 -0.0 -0.0 0.0 0.0 -0.0 -0.0 0.0 0.0 0.7 0.9 1.2 0.9 0.6 0.4 0.5 0.5 0.1 -0.0 -0.0 -0.1 -0.1 -0.1 -0.1 -0.1 -0.1 -0.1 -0.2 -0.2 -0.1 -0.1 -0.1 -0.1 -0.1 -0.1 -0.1 -0.0 0.1 0.1 0.0 0.2 0.4 0.3 0.3 0.4 0.3 0.1 0.0 0.0
0.0 -0.0 -0.0 -0.0 -0.0 -0.0 -0.0 0.0 0.0 0.3 0.4 0.8 1.1 0.7 0.4 0.5 0.3 0.1 -0.0 -0.1 -0.1 -0.1 -0.2 -0.2 -0.1 -0.1 -0.2 -0.1 -0.0 -0.0 -0.0 -0.1 -0.1 0.0 -0.0 -0.1 -0.1 0.1 0.3 0.1 0.3 0.3 0.3 0.2 0.4 0.2 0.1 0.0 0.0
0.0 -0.0 -0.0 -0.0 0.0 0.0 0.0 -0.0 0.0 0.1 0.6 1.0 1.3 1.1 0.5 0.2 0.3 0.1 -0.1 -0.1 -0.1 -0.1 -0.2 -0.1 -0.0 -0.1 -0.0 -0.1 -0.1 0.0 0.0 0.0 -0.0 -0.1 -0.0 -0.1 -0.0 -0.0 0.1 0.4 0.3 0.2 0.2 0.4 0.4 0.3 0.1 0.0 0.0
-0.0 -0.0 -0.0 0.0 0.0 0.0 0.0 -0.0 0.0 0.0 0.0 0.4 0.8 0.6 0.3 0.2 0.4 0.2 0.1 -0.1 -0.0 -0.1 -0.1 -0.1 0.0 -0.0 0.0 0.0 -0.2 -0.2 -0.0 0.1 -0.2 -0.1 -0.1 -0.1 0.0 -0.1 0.0 0.3 0.4 0.1 0.1 0.2 0.5 0.5 0.2 0.0 0.0
-0.0 0.0 0.0 -0.0 0.0 -0.0 0.0 0.0 0.0 0.0 -0.1 0.1 0.5 0.4 0.4 0.1 0.2 0.2 0.3 0.0 0.0 0.0 -0.1 -0.1 -0.2 -0.2 -0.1 0.3 0.0 0.5 0.2 0.3 0.3 0.4 0.3 0.2 0.1 -0.0 -0.0 0.2 0.1 -0.0 -0.1 0.1 0.5 0.5 0.3 0.0 0.0
0.0 0.0 0.0 0.0 0.0 0.0 -0.0 -0.0 -0.0 0.0 -0.1 -0.1 0.2 0.4 0.5 0.2 0.1 0.5 0.5 0.4 0.3 -0.2 -0.1 -0.2 -0.2 -0.2 0.1 0.4 0.5 0.4 0.4 0.1 -0.0 0.1 0.4 0.5 0.4 0.1 -0.1 -0.1 -0.2 -0.2 -0.2 -0.2 0.4 0.4 0.2 0.1 0.0
0.0 0.0 0.0 0.0 0.0 -0.0 -0.0 -0.0 -0.0 -0.0 -0.0 -0.0 -0.1 0.2 0.4 0.4 0.5 0.1 0.4 0.3 0.2 0.1 -0.2 -0.3 -0.2 -0.3 -0.2 0.3 0.5 0.9 0.8 0.6 0.1 0.1 0.1 0.1 0.3 0.3 0.1 -0.3 -0.6 -0.7 -0.5 -0.3 -0.0 0.1 0.2 0.1 0.0
0.0 0.0 0.0 0.0 0.0 -0.0 0.0 -0.0 -0.0 -0.0 0.0 -0.0 -0.0 0.2 0.2 0.5 0.6 0.6 0.4 0.5 0.6 0.8 0.7 0.2 -0.1 -0.1 0.3 0.5 0.5 0.9 1.1 1.6 1.6 1.1 0.4 0.3 0.2 0.3 0.3 -0.3 -0.9 -0.9 -0.5 -0.4 -0.3 -0.1 0.1 0.1 0.0
0.0 0.0 0.0 0.0 0.0 0.0 0.0 0.0 0.0 -0.0 -0.0 -0.0 -0.0 -0.0 0.1 0.1 0.6 0.6 1.1 1.4 1.5 1.2 1.0 1.0 1.0 0.6 0.7 0.9 1.0 1.1 1.3 0.9 1.1 1.1 0.8 0.5 0.2 0.2 0.3 -0.1 -0.7 -0.8 -0.7 -0.4 -0.3 -0.3 -0.0 0.1 0.1
0.0 0.0 0.0 0.0 0.0 0.0 0.0 -0.0 -0.0 0.0 0.0 0.0 0.0 0.0 0.0 0.1 0.3 0.9 1.7 1.6 1.6 1.7 1.9 1.7 1.6 1.5 1.6 1.3 1.5 1.5 1.6 1.5 1.3 1.5 1.6 0.8 0.7 0.0 0.2 -0.1 -0.5 -0.8 -0.7 -0.4 -0.1 -0.2 0.0 0.1 0.1
0.0 0.0 0.0 0.0 -0.0 -0.0 0.0 0.0 0.0 0.0 0.0 0.0 0.0 0.0 0.0 0.0 0.1 0.3 0.8 1.4 2.0 1.8 2.4 2.5 2.2 2.1 2.4 2.3 2.2 1.7 1.6 1.5 1.6 1.7 1.9 1.4 1.2 0.6 0.1 -0.1 -0.6 -0.7 -0.7 -0.4 -0.0 -0.1 0.1 0.2 0.1
0.0 0.0 0.0 0.0 0.0 0.0 0.0 0.0 0.0 0.0 0.0 0.0 0.0 -0.0 -0.0 0.0 0.0 0.1 0.4 0.9 1.5 1.3 1.3 1.9 2.3 3.0 3.0 2.7 2.5 2.4 2.2 2.0 1.8 1.8 1.9 1.9 1.7 1.3 0.8 0.1 -0.3 -0.6 -0.6 -0.4 -0.1 0.1 0.2 0.2 0.3
0.0 0.0 0.0 0.0 0.0 0.0 0.0 0.0 0.0 -0.0 0.0 0.0 0.0 0.0 0.0 0.0 0.0 0.0 0.1 0.2 0.6 1.5 1.6 1.8 2.0 2.3 3.2 3.7 3.3 3.0 3.0 2.7 2.5 2.5 2.4 2.4 2.4 1.7 1.7 0.8 0.1 -0.5 -0.4 -0.3 -0.1 0.2 0.3 0.4 0.4

GFSSGP_con_3kmehi_024.txt.gz
EHI
0.1 0.1 0.1 0.1 0.4 0.2 0.0 -0.0 0.0 0.0 0.0 0.0 -0.0 0.1 0.0 0.0 0.0 -0.0 0.0 0.0 0.0 -0.1 -0.1 -0.5 -1.0 -0.6 -0.4 -0.3 -0.2 -0.3 -0.3 -0.3 -0.2 0.1 0.1 0.1 0.0 0.1 0.2 0.1 0.1 0.1 0.0 0.0 0.1 0.1 0.0 -0.0 0.2
0.1 0.1 0.1 0.1 0.0 -0.0 -0.0 -0.0 0.0 0.0 0.0 0.0 0.0 0.0 0.1 0.0 0.0 0.0 0.0 -0.0 -0.1 -0.1 -0.1 -0.3 -0.6 -0.6 -0.4 -0.2 -0.2 -0.3 -0.3 -0.3 0.1 0.2 0.1 0.1 0.1 0.1 0.1 0.1 0.1 -0.0 -0.1 0.1 0.1 0.1 0.1 0.1 0.1
0.2 0.2 0.1 0.1 0.1 0.0 0.0 0.0 0.0 0.0 -0.0 -0.0 0.1 0.2 0.1 0.0 0.0 0.0 0.0 -0.0 -0.1 -0.1 -0.1 -0.3 -0.6 -0.8 -0.4 -0.3 -0.4 -0.5 -0.3 -0.2 0.3 0.2 0.2 0.2 0.1 0.1 0.1 0.2 0.1 -0.0 0.1 0.1 0.1 0.1 -0.0 -0.1 0.1
0.2 0.1 0.0 0.2 0.0 0.0 0.0 -0.0 0.0 -0.0 -0.0 0.0 0.0 0.0 0.0 0.0 0.0 -0.0 0.0 -0.0 -0.1 -0.1 -0.1 -0.4 -0.7 -0.7 -0.6 -0.5 -0.4 -0.3 -0.2 0.2 0.2 0.2 0.2 0.2 0.1 0.1 0.2 0.2 0.1 0.2 0.1 0.1 0.0 -0.0 -0.1 -0.1 -0.1
0.1 0.1 0.2 0.0 0.0 0.0 -0.0 0.0 -0.1 -0.0 -0.0 -0.0 -0.0 0.0 0.0 0.0 -0.0 0.0 -0.0 -0.0 -0.1 -0.1 -0.1 -0.3 -0.9 -0.8 -0.6 -0.5 -0.3 -0.2 0.0 0.2 0.2 0.2 0.1 0.1 0.2 0.2 0.1 0.2 0.1 0.1 0.1 0.1 -0.0 -0.1 -0.1 0.1 0.1
0.2 0.3 0.2 0.0 0.0 -0.0 -0.1 -0.1 -0.1 -0.0 -0.0 0.0 0.0 0.0 -0.0 -0.0 0.0 0.0 -0.0 -0.1 -0.1 -0.1 -0.1 -0.2 -0.8 -0.7 -0.7 -0.4 -0.2 -0.2 0.1 0.2 0.2 0.2 0.2 0.1 0.1 0.1 0.1 0.1 0.1 0.1 0.1 0.0 0.0 -0.0 -0.0 0.0 0.0
0.3 0.3 0.1 0.0 0.0 -0.0 -0.1 -0.2 -0.2 -0.0 -0.1 -0.0 -0.0 -0.0 -0.0 -0.0 0.0 -0.0 -0.0 -0.1 -0.1 -0.1 -0.1 -0.2 -0.3 -0.5 -0.4 -0.5 -0.2 0.0 0.1 0.1 0.2 0.2 0.2 0.1 0.1 0.1 0.1 0.1 0.1 0.1 0.1 0.1 -0.0 -0.0 -0.0 0.0 -0.0
0.1 0.2 0.1 0.0 0.0 0.1 -0.1 -0.2 -0.2 -0.1 -0.0 0.0 -0.0 -0.0 0.0 0.0 -0.0 -0.0 -0.1 -0.1 -0.1 -0.1 -0.1 -0.1 -0.2 -0.2 -0.3 -0.2 -0.1 -0.0 0.1 0.1 0.1 0.1 0.2 0.2 0.2 0.1 0.1 0.2 0.0 0.0 0.1 0.1 0.1 0.0 -0.0 0.0 -0.0
0.1 0.1 0.0 0.0 -0.0 -0.0 0.0 -0.2 -0.0 -0.0 0.0 -0.0 -0.0 -0.0 0.2 0.1 -0.0 -0.0 -0.0 -0.1 -0.1 -0.1 -0.1 -0.1 -0.1 -0.2 -0.2 -0.1 -0.1 0.0 0.1 0.1 0.1 0.2 0.2 0.3 0.2 0.1 0.2 -0.1 0.1 0.0 0.1 0.0 0.0 -0.1 -0.1 0.1 0.3
-0.1 0.2 0.0 0.0 0.0 0.0 -0.0 -0.1 0.2 -0.0 0.0 0.0 0.0 0.1 0.3 0.2 0.1 0.1 0.1 0.1 0.0 -0.0 -0.1 -0.1 -0.1 -0.1 -0.1 -0.0 -0.1 0.0 0.0 0.1 0.1 0.1 0.1 0.3 0.1 0.1 0.2 0.1 0.1 0.1 0.2 0.2 0.1 -0.1 0.2 0.8 0.0
0.0 0.2 0.0 0.0 0.0 0.0 0.0 0.0 0.1 0.0 0.1 0.1 0.2 0.3 0.4 0.3 0.2 0.1 0.1 0.1 0.1 0.0 -0.1 -0.1 -0.1 -0.1 -0.1 -0.1 -0.0 -0.0 0.0 0.0 0.0 0.1 0.2 0.1 0.2 0.0 0.2 0.0 0.2 0.2 0.3 0.6 0.5 0.5 0.2 0.1 0.2
-0.0 -0.0 0.1 0.0 0.0 0.0 0.0 0.0 0.1 0.1 -0.0 0.2 0.3 0.3 0.6 0.4 0.3 0.1 0.1 0.1 0.0 0.0 -0.0 -0.1 -0.1 -0.1 -0.1 -0.1 -0.0 -0.0 0.0 0.0 0.0 -0.0 0.0 0.1 0.2 0.2 0.2 0.1 0.0 0.1 0.2 0.1 0.2 0.1 0.1 0.2 0.3
-0.1 0.0 0.0 0.0 0.0 0.0 0.0 -0.0 -0.0 0.1 0.0 0.3 0.4 0.4 0.4 0.3 0.2 0.1 0.0 0.0 0.0 0.0 -0.0 -0.0 -0.1 -0.2 -0.1 0.0 -0.0 0.0 0.0 0.0 0.0 -0.0 -0.1 0.1 0.1 0.1 0.1 -0.0 0.0 0.0 0.1 0.3 0.1 0.1 0.1 0.3 0.3
-0.0 -0.0 0.0 0.0 0.0 0.0 0.0 -0.0 0.0 0.1 0.3 0.3 0.6 0.5 0.3 0.4 0.3 0.2 0.1 0.0 0.0 0.0 -0.0 -0.1 -0.1 -0.1 -0.0 -0.0 0.0 0.0 0.0 0.0 0.0 -0.0 -0.0 0.0 0.1 0.0 0.1 0.0 -0.0 0.1 0.1 0.3 0.1 0.1 0.3 0.1 0.1
0.0 0.0 0.0 0.0 0.0 0.0 0.0 -0.0 0.0 0.1 0.4 0.6 0.5 0.5 0.3 0.3 0.1 0.2 0.2 0.1 0.1 0.0 -0.0 -0.1 -0.1 -0.1 -0.1 -0.0 -0.1 -0.0 -0.0 -0.0 -0.0 -0.0 -0.1 -0.0 -0.0 -0.1 0.2 0.0 0.1 0.1 0.1 0.2 0.2 0.3 0.3 0.1 0.0
-0.0 -0.0 0.0 0.0 0.0 0.0 0.0 0.0 0.1 0.2 0.5 0.8 0.7 0.7 0.5 0.4 0.2 0.1 0.1 0.0 0.0 -0.1 -0.1 -0.1 -0.1 -0.2 -0.1 -0.1 -0.1 -0.1 -0.0 -0.0 -0.0 -0.0 -0.0 -0.1 -0.2 -0.1 -0.0 -0.1 0.1 0.1 0.1 0.1 0.2 0.1 0.0 0.1 0.0
0.0 0.0 -0.0 -0.0 0.0 0.0 0.0 0.0 0.0 0.2 0.4 0.7 0.9 0.7 0.7 0.5 0.2 0.1 0.0 0.0 -0.0 -0.1 -0.2 -0.1 -0.2 -0.2 -0.2 -0.2 -0.1 -0.1 -0.1 -0.1 -0.0 -0.0 -0.0 -0.0 -0.0 -0.0 0.1 -0.0 0.1 0.1 0.3 0.1 0.1 0.1 0.2 0.1 0.0
0.0 0.0 0.0 -0.0 0.0 0.0 -0.0 0.0 0.0 0.1 0.2 0.3 0.7 0.7 0.6 0.6 0.6 0.1 0.0 0.0 -0.0 -0.2 -0.2 -0.1 -0.2 -0.2 -0.3 -0.2 -0.1 -0.1 -0.1 -0.1 -0.1 -0.0 -0.0 -0.0 -0.1 0.0 -0.0 -0.0 0.0 0.1 -0.0 0.0 0.1 0.1 0.1 0.0 0.0
0.0 0.0 0.0 0.0 0.0 0.0 0.0 0.0 0.0 0.0 0.2 0.1 0.5 0.8 0.6 0.6 0.3 0.2 0.1 -0.0 -0.1 -0.2 -0.3 -0.2 -0.3 -0.3 -0.3 -0.2 -0.1 -0.1 -0.0 -0.0 -0.0 -0.0 -0.0 -0.1 -0.1 -0.1 -0.0 0.1 -0.0 0.1 0.1 -0.0 0.2 0.2 0.2 0.0 0.0
0.0 0.0 0.0 0.0 0.0 0.0 0.0 0.0 0.0 0.0 0.0 0.1 0.3 0.4 0.9 0.2 0.2 0.3 0.2 -0.0 -0.1 -0.1 -0.2 -0.3 -0.3 -0.3 -0.3 -0.2 -0.1 -0.1 -0.0 -0.0 -0.0 -0.0 -0.1 -0.0 -0.1 -0.1 -0.0 0.0 0.2 0.1 -0.1 0.0 0.2 0.1 0.0 0.0 0.0
0.0 -0.0 0.0 0.0 0.0 0.0 0.0 0.0 0.0 0.0 0.0 0.0 0.0 0.3 0.3 0.4 0.2 0.5 0.4 0.1 -0.0 -0.0 -0.1 -0.2 -0.3 -0.3 -0.3 -0.2 -0.3 -0.1 -0.1 0.0 -0.1 -0.1 -0.0 0.0 -0.0 -0.0 0.0 -0.0 0.1 0.1 -0.2 0.3 0.3 0.3 0.1 0.0 0.0
-0.0 -0.0 0.0 0.0 0.0 0.0 0.0 0.0 -0.0 -0.0 0.0 -0.0 0.0 0.2 0.4 0.3 0.3 -0.0 0.5 0.5 0.2 0.2 -0.1 -0.2 -0.3 -0.4 -0.4 -0.2 -0.2 0.1 0.0 0.1 -0.0 0.0 0.1 0.0 0.1 0.1 0.0 -0.2 -0.2 -0.2 -0.3 -0.1 0.3 0.3 0.2 0.2 0.0
0.0 0.0 0.0 0.0 0.0 0.0 0.0 0.0 0.0 0.0 -0.0 -0.0 0.0 0.1 0.5 0.1 0.3 0.1 0.2 0.8 0.4 0.1 -0.0 -0.3 -0.5 -0.6 -0.5 -0.2 -0.1 0.2 -0.0 -0.1 -0.1 -0.1 -0.1 0.1 0.3 0.1 0.1 0.0 -0.3 -0.6 -0.6 -0.3 0.0 0.1 0.3 0.2 0.1
0.0 0.0 0.0 0.0 0.0 0.0 0.0 0.0 0.0 -0.0 -0.0 0.0 0.0 0.0 0.1 0.1 0.3 0.3 0.0 0.2 0.5 0.2 -0.0 -0.3 -0.3 -0.4 -0.1 0.4 0.2 0.2 0.1 -0.1 -0.1 0.2 0.2 0.1 0.2 0.5 0.3 0.1 -0.3 -0.7 -0.7 -0.6 -0.2 0.1 0.3 0.3 0.1
0.0 0.0 0.0 0.0 -0.0 -0.0 -0.0 0.0 -0.0 0.0 -0.0 0.0 0.0 0.0 0.0 0.1 -0.2 0.3 0.3 0.3 0.3 0.4 0.2 -0.1 -0.2 -0.1 0.2 0.3 0.3 0.2 0.2 0.2 0.2 0.5 0.3 0.5 0.3 0.2 0.9 0.5 -0.4 -0.8 -1.0 -0.9 -0.7 -0.2 0.1 0.3 0.2
0.0 0.0 0.0 0.0 0.0 -0.0 -0.0 0.0 -0.0 -0.0 0.0 0.0 0.0 0.0 0.1 0.1 0.0 -0.1 0.4 0.8 0.7 0.6 1.3 1.3 1.2 0.8 0.6 0.5 0.9 0.9 1.0 0.4 0.2 0.4 0.2 0.5 0.2 0.4 0.3 0.5 -0.3 -0.7 -0.8 -1.0 -1.1 -0.8 -0.2 0.1 0.2
0.0 0.0 -0.0 0.0 0.0 0.0 -0.0 -0.0 0.0 0.0 0.0 0.0 0.0 0.0 0.0 0.1 -0.2 -0.0 0.0 0.5 0.9 0.8 1.5 2.2 3.2 2.8 1.7 1.1 1.3 1.5 1.6 1.2 0.5 0.6 1.1 0.3 0.6 0.2 0.3 0.3 -0.1 -0.4 -0.6 -0.7 -1.0 -0.9 -0.5 -0.1 0.2
0.0 0.0 0.0 0.0 -0.0 -0.0 0.0 0.0 0.0 0.0 0.0 0.0 0.0 -0.0 0.0 0.0 0.1 0.1 -0.1 0.3 0.8 0.9 1.2 1.7 2.2 3.9 4.3 3.0 2.2 1.4 1.8 2.1 1.6 2.1 1.3 1.2 0.7 0.7 0.6 0.4 0.1 -0.1 -0.4 -0.6 -0.8 -0.8 -0.5 -0.2 0.1
0.0 0.0 0.0 0.0 -0.0 -0.0 0.0 0.0 0.0 0.0 0.0 -0.0 0.0 -0.0 0.0 0.0 0.1 0.1 0.3 -0.1 0.1 0.1 0.3 1.1 1.3 1.8 2.0 2.5 3.6 3.4 2.6 2.0 1.6 1.4 2.2 2.2 1.2 1.5 1.0 1.2 0.4 0.2 -0.1 -0.4 -0.5 -0.7 -0.3 0.1 0.3
0.0 0.0 0.0 0.0 0.0 -0.0 0.0 0.0 0.0 -0.0 -0.0 -0.0 0.0 0.0 0.0 0.0 0.0 0.0 0.0 0.1 0.3 0.2 0.3 0.6 1.3 1.5 2.0 2.4 3.5 4.0 3.9 3.6 2.5 2.7 2.4 2.7 2.5 2.1 2.1 1.7 1.1 0.5 0.2 0.0 0.1 -0.4 -0.2 0.3 0.6

GFSSGP_con_3kmehi_027.txt.gz
EHI
0.0 0.1 0.1 0.2 0.1 0.1 0.1 0.1 0.0 0.1 0.0 0.1 0.1 0.1 0.1 0.1 0.2 0.2 0.0 -0.0 -0.0 -0.0 -0.0 -0.1 -0.6 -0.4 -0.4 -0.5 -0.4 -0.5 -0.4 -0.3 -0.1 0.0 0.1 -0.0 0.1 0.1 0.1 0.0 -0.0 0.0 0.1 0.1 0.1 0.0 -0.0 -0.1 -0.1
0.0 0.1 0.1 0.2 0.1 0.0 -0.0 0.1 0.0 0.0 0.1 0.0 0.1 0.1 0.1 0.0 0.0 0.1 0.0 -0.0 -0.0 -0.0 -0.1 -0.2 -0.7 -0.7 -0.6 -0.5 -0.5 -0.5 -0.3 -0.2 -0.1 0.0 0.1 0.2 0.3 0.1 0.0 0.0 -0.0 -0.0 0.0 0.1 0.0 -0.0 -0.0 -0.0 -0.1
0.1 0.2 0.2 0.1 -0.0 -0.0 0.0 -0.0 -0.0 0.1 0.0 0.0 0.1 0.1 0.0 0.0 0.1 0.1 0.2 -0.0 -0.1 -0.1 -0.1 -0.5 -0.7 -0.8 -0.6 -0.6 -0.6 -0.5 -0.3 -0.2 0.1 0.1 0.0 0.1 0.1 0.1 0.1 -0.0 -0.0 0.0 -0.0 -0.1 -0.1 -0.1 -0.0 0.0 0.0
0.1 -0.0 0.2 0.3 0.1 0.0 0.1 0.0 0.1 0.0 -0.0 0.0 0.0 0.1 0.1 0.0 0.1 0.2 0.0 -0.1 -0.1 -0.1 -0.1 -0.6 -0.7 -0.5 -0.6 -0.6 -0.5 -0.3 -0.2 0.2 0.2 0.2 0.0 0.1 0.1 0.1 0.1 0.1 0.1 0.1 0.1 -0.0 -0.1 -0.1 -0.1 -0.0 0.1
0.0 0.2 0.1 -0.2 0.0 0.0 0.0 0.1 -0.0 0.0 0.0 -0.0 0.1 0.2 0.1 0.0 0.0 0.2 0.0 -0.1 -0.1 -0.1 -0.2 -0.5 -0.9 -0.7 -0.5 -0.4 -0.4 -0.2 0.2 0.2 0.1 0.2 0.1 0.1 0.1 0.1 0.1 0.1 0.1 0.1 0.1 0.0 -0.0 -0.1 -0.1 0.1 0.2
0.3 0.1 0.0 -0.0 0.0 0.0 0.0 -0.0 0.1 0.1 0.1 0.1 0.2 0.1 -0.0 0.0 0.2 0.1 -0.0 -0.1 -0.1 -0.1 -0.1 -0.4 -0.7 -0.7 -0.5 -0.3 -0.3 0.2 0.2 0.1 0.2 0.3 0.2 0.1 0.1 0.1 0.2 0.1 0.1 0.0 -0.0 -0.1 -0.1 -0.0 -0.0 0.1 0.1
0.8 0.1 0.2 0.1 0.0 0.0 0.0 -0.0 0.1 0.1 0.0 -0.0 0.1 -0.0 0.0 0.0 0.1 -0.0 -0.0 -0.1 -0.1 -0.1 -0.0 -0.2 -0.2 -0.5 -0.4 -0.4 -0.2 0.2 0.2 0.2 0.3 0.3 0.2 0.2 0.2 0.1 0.1 0.1 0.1 -0.0 -0.0 -0.0 -0.0 -0.0 0.1 0.1 0.1
0.5 0.3 0.2 0.0 0.0 0.0 0.0 0.0 0.0 0.1 0.2 0.0 0.1 0.0 0.2 0.0 -0.0 0.0 -0.0 -0.1 -0.1 -0.1 -0.0 -0.1 -0.1 -0.2 -0.3 -0.2 0.1 0.1 0.1 0.2 0.2 0.2 0.2 0.3 0.2 0.1 0.1 0.1 0.0 0.0 0.1 0.1 0.0 0.1 0.1 0.2 0.1
0.2 0.3 0.1 0.0 0.0 0.1 -0.0 0.0 0.0 0.1 0.0 0.0 0.0 0.0 0.4 0.0 0.0 0.0 -0.0 -0.1 -0.1 -0.1 -0.0 -0.0 -0.1 -0.1 -0.3 -0.1 -0.0 0.1 0.1 0.1 0.2 0.2 0.3 0.6 0.1 0.4 0.4 0.1 0.1 0.1 0.1 0.2 0.2 0.1 0.2 0.6 0.3
0.1 0.1 0.1 0.0 0.0 0.0 0.0 0.0 0.0 0.0 0.0 0.1 0.1 0.4 0.3 0.1 0.1 0.1 0.0 0.0 -0.1 -0.1 -0.0 -0.0 -0.0 -0.1 -0.1 -0.0 -0.1 0.1 0.1 0.1 0.2 0.3 0.4 -0.2 0.0 0.1 0.3 0.3 0.4 0.3 0.3 0.2 0.2 0.2 0.2 1.1 0.0
0.1 0.0 0.3 0.0 0.0 0.0 0.0 0.0 -0.0 0.0 0.0 0.1 0.3 0.4 0.4 0.4 0.3 0.3 0.1 0.0 -0.0 -0.1 -0.0 -0.0 -0.0 -0.1 -0.0 -0.1 -0.0 0.0 0.0 0.1 0.1 0.1 0.4 0.0 -0.1 0.4 0.1 0.1 0.2 0.3 0.9 -0.2 0.4 0.2 0.3 0.0 0.0
0.0 0.0 0.2 0.0 0.0 0.0 0.0 0.0 0.1 0.0 0.0 0.1 0.2 0.3 0.4 0.3 0.2 0.2 0.1 0.1 0.0 -0.0 -0.0 0.0 -0.0 -0.2 -0.1 -0.1 -0.0 0.0 0.0 0.0 0.0 0.0 0.1 0.3 0.2 0.0 0.3 -0.2 0.3 0.3 0.6 0.3 0.7 0.3 0.2 0.3 0.0
0.0 0.0 0.0 0.0 0.0 -0.0 0.0 -0.0 0.0 0.0 0.0 0.1 0.3 0.3 0.2 0.2 0.2 0.1 0.0 0.0 0.0 0.0 -0.1 -0.0 -0.0 -0.2 -0.2 0.1 -0.0 0.0 0.0 0.0 0.0 -0.1 0.0 0.2 0.0 -0.0 0.0 0.0 0.1 0.1 0.1 -0.1 0.2 0.2 0.2 0.2 -0.1
0.0 0.0 0.0 0.0 -0.0 0.0 -0.0 0.0 -0.0 0.1 0.0 0.2 0.3 0.3 0.2 0.1 0.2 0.1 -0.0 0.0 0.0 0.0 -0.0 -0.1 0.0 -0.2 -0.0 -0.0 0.2 0.0 0.0 -0.1 0.1 -0.1 -0.0 0.1 0.3 -0.2 0.1 0.1 0.4 0.3 0.2 0.1 0.1 0.1 0.4 0.0 0.1
-0.0 0.0 0.0 0.0 -0.0 -0.0 0.0 -0.0 0.0 0.2 0.2 0.4 0.5 0.4 0.3 0.2 0.1 0.2 0.1 0.1 0.1 0.1 -0.0 -0.0 -0.0 -0.1 -0.1 -0.0 0.0 0.0 -0.0 0.0 -0.0 -0.0 -0.0 0.0 0.0 -0.2 0.3 0.4 0.0 0.6 0.2 0.1 0.2 0.2 0.3 0.1 0.0
-0.0 -0.0 -0.0 -0.0 -0.0 -0.0 -0.0 0.0 0.0 0.1 0.4 0.4 0.5 0.4 0.4 0.3 0.3 0.1 0.1 0.1 0.1 0.1 0.1 0.0 -0.1 -0.0 -0.1 -0.1 -0.2 -0.0 -0.0 -0.0 -0.0 -0.0 -0.0 -0.0 -0.1 0.1 0.1 -0.1 -0.0 0.1 0.1 0.1 0.1 0.2 0.0 0.1 0.0
-0.0 -0.0 -0.0 -0.0 0.0 -0.0 0.0 0.0 0.0 0.1 0.3 0.4 0.4 0.5 0.3 0.4 0.3 0.3 0.1 0.1 0.2 0.1 0.2 -0.1 -0.1 -0.1 -0.1 -0.2 -0.1 -0.0 -0.1 -0.0 -0.0 -0.0 -0.0 0.3 0.1 -0.0 -0.1 -0.1 0.1 0.2 0.1 0.0 0.0 0.1 0.2 0.0 -0.0
0.0 -0.0 0.0 0.0 0.0 0.0 0.0 -0.0 0.0 0.1 0.1 0.2 0.4 0.5 0.5 0.4 0.4 0.5 0.1 0.1 0.1 0.1 0.1 -0.2 -0.2 -0.4 -0.3 -0.3 -0.2 -0.2 -0.1 -0.1 -0.0 -0.0 -0.0 1.3 0.3 0.1 -0.1 0.0 0.2 0.1 0.2 -0.0 0.1 -0.1 0.0 -0.0 -0.0
0.0 0.0 -0.0 0.0 0.0 0.0 -0.0 -0.0 0.0 0.0 0.1 0.1 0.5 0.4 0.6 0.5 0.3 0.4 0.2 0.1 0.0 0.2 0.1 -0.1 -0.4 -0.5 -0.4 -0.3 -0.2 -0.1 -0.0 -0.0 -0.0 -0.0 -0.0 0.2 0.1 0.2 0.1 -0.0 -0.1 0.1 0.1 0.0 0.1 0.1 -0.0 0.0 -0.0
0.0 0.0 0.0 0.0 0.0 0.0 0.0 -0.0 0.0 0.0 0.0 0.0 0.2 0.3 0.4 0.4 0.6 0.3 0.4 0.1 0.1 0.1 0.2 0.1 -0.4 -0.3 -0.2 -0.2 0.0 -0.1 -0.2 0.0 -0.0 -0.0 0.2 0.1 0.1 0.1 0.1 -0.1 -0.0 0.1 0.3 0.2 0.1 -0.1 0.0 0.0 -0.0
-0.0 -0.0 -0.0 0.0 0.0 0.0 0.0 0.0 -0.0 0.0 0.0 0.0 -0.0 0.2 0.2 0.5 1.0 0.8 0.6 0.2 0.1 0.3 0.5 0.9 0.2 -0.2 -0.2 -0.3 0.3 0.8 0.1 0.1 0.0 -0.1 -0.0 0.1 0.0 0.0 0.1 0.0 -0.1 0.1 -0.1 0.3 0.3 0.3 -0.0 0.1 0.0
-0.0 -0.0 0.0 0.0 0.0 0.0 0.0 0.0 -0.0 -0.0 0.0 0.1 0.0 0.2 0.2 0.4 0.5 0.9 0.6 0.6 0.4 0.7 0.7 1.2 1.6 0.0 -0.1 -0.5 -0.3 0.0 0.0 0.0 -0.0 -0.0 0.0 0.2 0.2 0.1 0.1 0.1 0.0 0.2 -0.1 1.3 0.3 0.2 0.0 0.1 0.0
0.0 0.0 0.0 0.0 0.0 0.0 0.0 0.0 0.0 0.0 0.0 0.0 0.0 0.0 0.2 0.2 0.4 0.8 0.9 0.6 0.5 0.4 0.6 0.7 1.8 0.5 -0.2 0.1 -0.1 0.1 -0.1 -0.1 -0.0 0.0 -0.0 0.2 1.2 0.2 0.3 0.4 0.1 0.1 -0.2 0.2 0.3 0.1 0.1 0.1 0.1
0.0 0.0 0.0 0.0 0.0 0.0 0.0 0.0 -0.0 0.0 0.0 0.0 0.0 0.0 0.1 0.2 0.4 0.5 0.8 0.4 0.3 0.3 0.3 0.6 1.4 0.7 -0.1 0.7 0.1 0.3 0.2 -0.2 -0.0 0.2 0.2 0.3 0.2 0.9 0.8 0.7 0.8 0.0 -0.5 -0.2 -0.0 0.0 0.1 0.2 0.1
0.0 0.0 0.0 -0.0 -0.0 -0.0 0.0 -0.0 -0.0 -0.0 0.0 0.0 0.0 0.0 0.0 0.1 0.1 0.5 0.6 0.6 0.4 0.7 0.9 1.2 2.2 1.6 1.4 1.1 0.6 0.8 0.5 -0.2 0.7 0.9 0.0 0.3 0.3 0.2 1.9 1.3 1.6 0.1 -0.6 -0.8 -0.5 -0.1 -0.2 0.1 0.1
0.0 -0.0 0.0 0.0 0.0 -0.0 -0.0 0.0 -0.0 -0.0 0.0 0.0 0.0 0.0 0.0 0.1 0.2 0.3 0.7 0.8 0.8 1.1 2.1 1.2 2.3 1.6 1.3 1.4 1.5 1.5 1.9 0.3 0.1 0.5 0.3 0.3 0.3 0.4 1.2 3.6 1.7 0.1 -0.4 -1.0 -0.8 -0.4 -0.2 -0.0 0.1
0.0 -0.0 -0.0 0.0 0.0 0.0 0.0 0.0 -0.0 0.0 0.0 0.0 0.0 0.0 0.0 0.1 0.2 0.3 0.6 0.8 1.1 1.0 2.3 2.8 3.2 3.9 3.3 3.1 3.0 2.1 1.9 0.8 0.4 0.6 1.0 0.7 0.6 0.1 1.9 2.9 1.8 0.5 -0.5 -0.9 -0.9 -0.5 -0.0 -0.3 0.2
0.0 0.0 0.0 0.0 0.0 -0.0 0.0 0.0 0.0 0.0 0.0 0.0 0.0 0.0 -0.0 0.0 0.2 0.4 0.3 0.7 1.2 0.8 1.7 2.8 3.2 4.8 4.4 3.3 3.4 3.1 2.6 1.9 1.3 1.6 1.7 1.4 0.9 1.0 1.9 2.9 1.8 1.0 0.4 -0.3 -0.4 -0.4 -0.5 0.0 0.1
0.0 0.0 0.0 0.0 0.0 0.0 0.0 0.0 -0.0 0.0 0.0 0.0 0.0 -0.0 -0.0 0.0 0.1 0.2 0.3 0.4 0.8 0.7 0.5 1.3 2.2 3.4 3.7 3.8 4.3 3.4 3.1 2.9 2.5 2.4 2.9 2.1 2.4 2.5 1.3 3.9 2.7 2.1 1.1 0.9 0.7 -0.5 -0.0 0.8 0.5
0.0 0.0 0.0 0.0 -0.0 -0.0 0.0 0.0 0.0 0.0 0.0 0.0 -0.0 0.0 -0.0 -0.0 0.1 0.2 0.3 0.2 0.4 0.5 0.7 1.0 1.2 1.5 3.3 3.1 3.8 4.4 4.5 3.9 3.9 3.3 3.2 3.7 3.0 2.8 3.5 3.2 4.3 3.1 2.1 1.8 1.5 0.9 -0.0 1.3 1.1

GFSSGP_con_3kmehi_030.txt.gz
EHI
0.1 0.0 0.0 0.0 0.1 0.0 0.1 0.0 0.0 0.1 0.1 0.1 0.1 0.2 0.1 0.2 0.1 0.0 -0.0 -0.0 -0.0 -0.0 -0.0 -0.1 -0.4 -0.6 -0.4 -0.3 -0.3 -0.2 0.0 0.3 0.1 0.2 0.1 0.0 0.0 0.0 0.0 0.1 0.1 0.1 0.0 0.0 0.1 0.1 0.0 -0.0 0.0
0.0 0.1 0.0 0.1 0.0 0.0 0.0 0.0 -0.0 0.0 0.0 0.1 0.1 0.1 0.2 0.1 0.0 0.0 -0.0 -0.0 -0.0 -0.0 -0.0 -0.1 -0.4 -0.6 -0.4 -0.3 -0.4 -0.3 0.0 0.1 0.1 0.1 0.0 -0.0 -0.0 -0.0 0.1 0.0 -0.0 -0.0 0.0 0.0 -0.0 -0.0 0.0 0.1 0.1
0.0 0.1 0.1 0.2 -0.0 -0.0 -0.0 0.0 0.1 0.0 0.1 0.1 0.4 0.1 0.1 0.0 0.0 0.0 -0.0 -0.0 -0.0 -0.0 -0.0 -0.5 -0.7 -0.7 -0.4 -0.6 -0.5 -0.3 -0.1 -0.0 0.0 -0.0 0.0 0.0 0.0 -0.0 -0.0 -0.0 -0.0 -0.0 -0.1 -0.1 -0.1 -0.0 0.1 0.1 0.1
-0.1 0.2 0.2 0.0 0.1 -0.1 0.1 0.0 0.1 0.1 0.0 0.2 0.1 0.2 0.0 0.0 0.0 0.0 -0.0 -0.0 -0.0 -0.0 -0.1 -0.6 -0.6 -0.5 -0.5 -0.6 -0.5 -0.3 -0.2 -0.1 -0.1 -0.1 -0.1 -0.1 -0.1 0.0 0.0 -0.0 -0.1 -0.2 -0.1 -0.1 -0.0 0.1 0.1 0.2 0.2
0.0 0.1 0.1 -0.3 -0.1 -0.1 0.1 0.2 0.0 -0.0 0.1 0.3 0.4 0.1 0.1 0.0 0.0 0.0 -0.0 -0.0 -0.0 -0.1 -0.5 -0.2 -0.8 -0.6 -0.7 -0.5 -0.4 -0.3 -0.2 -0.1 -0.0 -0.2 0.3 0.3 0.0 0.0 0.1 -0.1 -0.0 0.0 0.1 0.1 0.1 0.2 0.2 0.2 0.2
0.0 0.0 -0.0 -0.1 0.0 -0.0 0.1 0.1 0.1 0.1 0.3 0.5 0.3 0.1 0.1 0.1 0.2 0.0 -0.0 -0.0 -0.1 -0.2 -0.2 -0.4 -0.8 -0.7 -0.6 -0.4 -0.4 -0.3 0.3 0.1 0.1 0.3 0.3 0.4 0.3 0.2 0.1 0.1 0.1 0.1 0.1 0.1 0.1 0.2 0.2 0.2 0.1
0.0 0.0 0.0 0.3 0.0 0.0 0.2 0.1 0.1 0.1 0.0 0.4 0.2 0.2 0.1 0.0 0.1 -0.0 -0.1 -0.1 -0.0 -0.1 -0.2 -0.4 -0.4 -0.6 -0.5 -0.4 -0.3 0.0 0.4 0.2 0.3 0.3 0.3 0.4 0.3 0.2 0.1 0.0 0.1 0.1 0.1 0.1 0.1 0.2 0.1 0.0 0.3
0.1 0.0 0.0 0.0 0.0 0.0 0.1 0.1 -0.0 0.2 0.3 0.6 0.3 0.0 0.2 0.0 0.0 -0.0 -0.1 -0.0 -0.1 -0.0 -0.1 -0.3 -0.3 -0.2 -0.3 -0.1 0.1 0.2 0.3 0.3 0.3 0.4 0.3 0.2 0.2 0.2 0.2 0.2 0.1 0.2 0.2 0.2 0.2 0.1 0.2 0.2 0.4
0.4 0.1 0.0 -0.2 0.0 0.0 -0.0 0.3 0.2 0.1 0.1 0.1 0.1 0.3 0.3 0.1 0.0 -0.0 -0.0 -0.2 -0.2 -0.0 -0.1 -0.1 -0.1 -0.3 -0.3 0.0 0.1 0.2 0.2 0.3 0.3 0.3 0.2 0.3 0.4 0.3 0.5 0.4 0.3 0.2 0.2 0.1 0.2 0.2 0.2 0.2 0.0
0.2 0.0 -0.0 -0.0 0.0 0.0 0.1 0.0 0.0 0.0 0.1 0.3 0.2 0.2 0.2 0.2 0.1 0.2 0.0 -0.0 -0.2 -0.0 -0.0 -0.0 -0.1 -0.2 -0.2 -0.0 0.1 0.3 0.2 0.3 0.4 0.0 0.0 0.0 0.2 0.6 0.6 0.6 0.4 0.2 0.2 0.2 0.2 0.2 0.4 0.5 0.3
0.1 0.1 -0.0 0.0 0.1 0.0 0.0 0.0 0.0 0.0 0.1 0.8 0.6 0.2 0.3 0.3 0.1 0.1 0.1 -0.0 -0.1 -0.0 -0.0 -0.0 -0.1 -0.3 -0.1 0.0 0.0 0.2 0.3 0.2 0.4 0.6 0.0 0.0 0.1 0.3 0.2 0.5 0.2 0.5 0.1 0.1 0.2 0.1 0.6 0.4 0.4
-0.0 0.1 0.0 0.0 0.1 0.0 0.1 0.0 0.0 0.0 0.0 0.6 0.6 0.2 0.5 0.2 0.1 0.2 0.1 -0.1 -0.0 -0.1 0.0 0.1 0.1 -0.3 -0.1 0.3 -0.0 0.1 0.2 0.1 0.8 0.4 0.4 0.5 0.1 0.0 0.3 0.1 0.5 0.5 0.4 0.0 0.3 0.4 0.2 0.0 0.3
0.0 0.2 0.1 0.0 0.1 0.0 0.1 0.0 0.0 -0.0 0.0 0.5 0.5 0.1 0.3 0.2 0.0 0.2 0.2 -0.0 -0.2 -0.2 0.0 0.3 0.4 -0.3 -0.2 -0.2 -0.1 -0.0 0.2 0.0 0.4 0.7 -0.1 0.1 0.1 0.5 0.4 0.6 0.2 0.3 0.2 -0.0 0.1 0.2 0.4 -0.0 -0.0
0.0 -0.0 0.0 0.0 0.1 0.0 -0.0 0.1 0.1 -0.0 0.0 0.4 0.4 0.3 0.2 0.2 0.2 0.2 0.6 0.1 -0.0 -0.2 0.2 0.7 0.9 0.1 -0.1 0.2 0.4 0.1 0.1 -0.0 0.1 0.2 0.4 0.4 0.2 0.1 0.0 -0.1 -0.1 0.4 0.1 0.0 0.2 0.1 0.0 0.0 -0.1
0.0 -0.0 0.0 0.0 -0.0 -0.0 0.0 0.0 0.0 0.1 0.1 0.1 0.3 0.3 0.3 0.1 -0.0 0.2 0.5 0.2 -0.1 0.1 -0.0 1.0 1.1 0.2 0.3 -0.1 0.1 0.0 0.2 0.1 -0.0 0.3 0.6 0.0 0.1 0.1 -0.1 -0.0 0.2 0.1 0.6 0.5 0.7 0.3 0.1 0.0 0.0
0.0 0.0 0.0 0.0 -0.0 -0.0 0.0 -0.0 0.2 0.1 0.0 0.1 0.2 0.2 0.3 0.2 0.1 0.2 -0.0 0.2 0.2 0.2 0.2 0.7 0.2 0.0 0.1 -0.0 0.0 0.1 0.1 -0.0 0.0 -0.0 0.4 0.1 -0.1 0.0 0.1 0.1 0.2 0.1 0.2 0.5 0.4 0.6 0.2 0.1 0.0
0.0 -0.0 -0.0 0.0 0.0 -0.0 0.0 0.0 0.0 0.3 -0.0 0.3 0.1 0.2 0.3 0.3 0.2 0.3 0.0 0.2 0.3 0.4 1.0 0.9 0.1 0.7 0.2 -0.1 0.0 -0.0 0.1 -0.1 -0.1 -0.1 0.7 0.8 0.3 0.0 -0.2 -0.0 0.3 0.6 0.1 0.2 0.4 0.1 0.1 0.0 -0.0
0.0 0.0 0.0 -0.0 -0.0 0.0 0.0 0.0 0.0 0.0 0.1 0.3 0.7 0.3 0.3 0.3 0.4 0.6 0.2 0.2 0.5 1.0 1.6 1.4 0.2 0.9 0.9 -0.1 -0.2 -0.1 -0.1 -0.1 -0.2 -0.1 -0.1 1.4 0.6 0.3 -0.2 0.0 -0.2 0.3 0.0 0.2 0.4 0.4 0.0 0.0 0.0
-0.0 0.0 -0.0 -0.0 -0.0 0.0 0.0 0.0 0.0 0.0 0.0 0.1 0.4 0.6 0.3 0.4 0.3 0.9 0.2 0.2 0.6 1.5 2.0 1.4 1.1 0.9 1.4 -0.1 -0.1 -0.1 -0.1 -0.1 -0.2 -0.2 0.3 1.6 0.6 0.6 0.0 -0.1 0.3 0.0 0.5 0.4 0.5 0.3 -0.0 0.0 0.0
0.0 0.0 -0.0 -0.0 -0.0 0.0 0.0 0.0 0.0 0.1 0.1 -0.0 0.6 -0.1 0.6 0.2 0.5 0.8 0.6 0.4 0.4 1.7 2.6 1.9 1.2 1.3 2.0 1.5 0.4 -0.3 -0.3 -0.1 0.0 -0.2 -0.0 1.3 0.5 0.4 0.3 0.2 0.1 0.3 1.1 0.7 0.6 0.4 -0.0 0.1 -0.0
-0.0 -0.0 -0.0 -0.0 -0.0 0.0 0.0 0.0 -0.0 0.0 0.0 0.0 0.3 0.3 0.4 0.7 0.8 0.9 1.3 0.7 0.6 2.0 3.2 3.1 1.9 2.4 2.1 1.6 0.5 -0.7 -0.3 -0.4 0.2 -0.1 -0.0 0.9 1.0 0.6 0.3 0.2 -0.3 0.2 0.8 0.5 0.5 0.6 0.3 0.2 0.0
-0.0 -0.0 0.0 -0.0 0.0 0.0 0.0 0.0 0.0 -0.0 0.0 0.0 0.0 0.2 0.2 0.8 0.8 0.8 1.2 0.8 1.4 1.8 3.3 4.0 2.9 3.0 2.0 1.4 0.7 0.7 0.1 0.0 0.2 0.2 0.1 0.7 0.8 0.5 0.6 1.0 0.1 0.1 0.5 1.0 0.3 0.1 0.3 0.2 0.2
-0.0 -0.0 0.0 0.0 0.0 0.0 0.0 0.0 0.0 0.0 -0.0 0.0 0.0 0.4 0.1 0.7 1.1 1.5 1.2 1.1 1.2 1.6 3.3 4.7 3.8 3.0 2.2 0.9 0.6 0.6 0.3 -0.0 -0.1 0.1 0.1 0.7 1.5 0.8 -0.1 1.5 0.7 0.5 0.0 0.8 0.4 -0.1 0.2 0.2 -0.0
-0.0 0.0 0.0 0.0 0.0 0.0 0.0 0.0 0.0 0.0 0.0 0.0 0.0 0.0 0.5 0.4 0.9 2.2 1.6 1.1 0.6 1.5 2.7 3.7 4.2 2.5 2.2 1.1 -0.1 0.0 0.6 -0.1 -0.0 -0.1 0.1 0.7 1.8 1.1 0.6 1.0 1.5 0.9 0.1 0.7 0.5 0.3 0.2 0.0 -0.2
0.0 0.0 0.0 0.0 -0.0 -0.0 -0.0 -0.0 0.0 -0.0 0.1 0.0 0.0 0.0 0.1 0.6 0.8 2.2 2.3 1.5 1.1 1.4 3.0 3.1 5.0 3.3 2.0 1.6 0.7 0.6 0.4 0.0 -0.5 0.3 -0.1 1.0 0.8 2.0 1.6 1.4 2.8 1.4 0.4 -0.2 0.4 0.1 -0.5 -0.2 -0.1
0.0 -0.0 0.0 0.0 0.0 -0.0 -0.0 -0.0 -0.0 0.0 0.0 0.0 0.0 0.0 0.1 0.2 0.6 1.6 3.0 2.4 1.7 1.2 2.7 3.4 4.7 3.9 2.6 1.6 0.9 0.3 0.6 0.3 -0.4 -0.7 0.5 0.1 0.9 0.9 2.5 2.2 2.8 2.6 1.4 0.1 -0.4 0.4 -0.4 0.0 -0.0
0.0 -0.0 -0.0 0.0 -0.0 0.0 0.0 0.0 -0.0 -0.0 0.0 0.0 0.0 0.1 0.1 0.1 0.2 1.1 2.6 2.7 2.4 1.5 2.3 3.4 4.5 4.0 2.9 2.0 1.6 0.8 1.2 1.4 0.3 0.1 -0.3 0.6 0.1 0.6 2.7 3.9 3.4 2.9 2.3 1.3 -0.1 -0.2 0.3 -0.3 0.7
0.0 0.0 0.0 0.0 0.0 0.0 -0.0 0.0 0.0 -0.0 0.0 0.0 0.0 0.0 0.0 0.1 0.2 1.0 2.1 3.0 2.8 2.1 2.2 2.6 3.9 4.4 4.4 3.3 2.4 2.1 1.9 2.5 1.4 0.5 0.1 0.3 1.1 0.0 1.5 4.8 4.1 3.6 2.5 2.1 0.8 0.2 -0.4 0.6 0.7
0.0 0.0 0.0 0.0 0.0 0.0 0.0 -0.0 0.0 0.0 0.0 0.0 0.0 0.0 0.0 0.1 0.5 0.6 1.9 2.3 2.9 2.3 1.9 2.1 2.5 3.7 3.2 3.0 3.0 2.7 2.4 1.9 1.8 1.1 0.9 0.9 0.5 1.2 -0.2 4.0 4.6 3.9 3.0 2.3 1.6 1.1 0.6 0.9 1.2
0.0 0.0 0.0 0.0 0.0 0.0 0.0 0.0 0.0 0.0 0.0 0.0 0.0 0.0 0.0 0.0 0.6 0.6 1.3 2.2 2.8 2.9 2.1 2.0 2.0 2.3 3.1 3.2 2.6 2.4 2.6 2.7 2.3 1.7 1.7 1.9 1.9 1.1 1.7 2.6 4.4 5.1 3.8 3.0 2.4 2.0 0.8 1.3 2.0

GFSSGP_con_3kmehi_033.txt.gz
EHI
0.0 0.0 -0.0 0.0 0.1 0.0 0.0 0.0 0.0 -0.0 -0.0 0.1 0.1 0.2 0.1 -0.0 -0.0 -0.0 -0.0 -0.0 -0.0 -0.0 -0.1 -0.4 -0.4 -0.3 -0.2 0.0 -0.0 -0.0 0.1 0.2 0.3 0.2 0.0 0.1 0.1 -0.0 -0.0 0.0 0.1 0.1 0.0 0.1 0.1 0.1 0.1 0.1 0.1
0.0 0.0 -0.0 0.0 0.0 0.0 0.0 0.0 0.0 0.0 0.0 0.0 0.2 0.2 0.1 0.0 0.0 -0.0 0.0 -0.0 -0.0 -0.0 -0.1 -0.3 -0.4 -0.1 -0.2 -0.2 -0.3 -0.1 -0.1 0.0 0.0 0.0 0.0 0.0 -0.0 -0.1 -0.1 -0.1 -0.0 -0.1 -0.0 0.0 0.1 0.1 0.1 0.1 0.0
0.0 0.0 0.0 0.1 -0.0 0.0 0.0 0.0 0.0 -0.0 0.0 0.1 0.1 0.1 0.0 -0.0 0.0 0.0 -0.0 -0.0 -0.0 -0.0 -0.1 -0.3 -0.4 -0.3 -0.2 -0.3 -0.3 -0.2 -0.2 -0.1 0.0 -0.0 0.0 0.0 -0.1 -0.1 -0.2 -0.2 -0.2 -0.2 -0.1 0.0 0.1 0.2 0.2 0.1 -0.0
-0.0 0.1 0.1 -0.1 0.0 -0.1 -0.0 -0.0 -0.0 0.2 0.5 0.1 0.1 0.0 0.0 0.0 0.0 -0.0 -0.0 -0.0 -0.0 -0.0 -0.1 -0.4 -0.3 -0.2 -0.2 -0.2 -0.2 -0.1 -0.1 -0.0 -0.1 -0.1 -0.0 0.1 0.0 0.0 0.0 -0.2 0.1 0.1 0.1 0.1 0.2 0.1 0.2 0.1 -0.0
0.0 -0.0 -0.0 -0.0 0.0 -0.1 -0.0 0.0 -0.1 0.1 0.4 0.2 0.0 0.0 0.0 -0.0 0.0 0.0 0.0 -0.0 -0.0 -0.0 -0.1 -0.3 -0.4 -0.3 -0.4 -0.3 -0.1 -0.1 -0.2 -0.2 -0.3 -0.3 -0.1 0.1 0.2 0.2 0.2 0.1 0.0 0.1 0.1 0.1 0.1 0.1 0.2 0.2 0.1
-0.0 0.0 0.0 0.0 0.0 -0.0 -0.1 0.1 0.1 0.5 0.6 0.4 0.1 0.1 0.0 0.0 0.0 0.0 -0.0 -0.0 -0.0 0.0 -0.1 -0.3 -0.4 -0.5 -0.5 -0.2 -0.0 -0.0 -0.2 -0.3 0.2 0.4 0.4 0.4 0.3 0.3 0.2 0.1 0.1 0.2 0.1 0.0 -0.0 0.1 0.1 0.1 0.1
0.1 0.0 0.0 0.0 0.0 -0.0 -0.0 0.2 0.1 0.6 0.4 0.2 0.2 0.2 0.0 0.0 0.0 0.0 -0.0 -0.0 -0.1 -0.0 -0.1 -0.3 -0.5 -0.5 -0.4 -0.3 0.0 -0.1 -0.1 0.2 0.4 0.4 0.4 0.5 0.4 0.2 0.1 0.2 0.2 0.1 0.0 -0.0 0.2 0.2 0.2 0.1 0.2
0.0 0.0 0.0 0.0 0.0 0.0 0.0 0.1 0.1 0.3 0.1 0.1 0.1 0.1 0.1 0.0 0.0 -0.0 -0.0 -0.0 -0.0 -0.0 -0.1 -0.2 -0.4 -0.4 -0.3 0.0 0.0 0.1 0.2 0.3 0.3 0.2 0.3 0.4 0.4 0.3 0.2 0.2 0.3 0.1 0.1 0.1 0.3 0.5 0.5 0.4 0.3
0.2 0.0 0.0 0.1 0.0 -0.0 0.0 0.1 0.2 0.5 0.2 0.0 -0.0 0.3 0.1 0.0 -0.0 -0.0 -0.0 -0.0 -0.0 -0.1 -0.1 -0.2 -0.2 -0.3 -0.2 -0.0 0.1 0.3 0.3 0.2 0.4 0.2 0.2 0.1 0.2 0.3 0.2 0.4 0.5 0.4 0.2 0.2 0.2 0.3 0.7 0.5 0.4
0.0 0.0 0.0 0.0 0.0 0.0 0.0 0.0 0.1 0.8 0.4 0.3 0.4 0.3 0.1 0.1 0.0 0.0 -0.0 -0.0 -0.0 -0.0 -0.1 -0.1 -0.1 -0.2 -0.1 0.0 0.1 0.2 0.2 0.1 0.2 0.0 0.0 0.0 0.0 0.0 0.3 0.4 0.6 0.4 0.2 0.2 0.2 0.4 0.7 0.8 0.2
0.1 -0.0 -0.0 0.0 0.0 0.1 0.1 0.0 0.0 0.4 0.5 0.5 0.4 0.3 0.2 0.1 0.1 -0.0 -0.1 -0.0 -0.0 0.0 -0.0 -0.0 -0.1 -0.1 -0.1 -0.0 0.1 0.1 0.0 0.1 0.1 0.0 0.0 0.0 0.1 0.0 0.1 0.2 0.1 0.2 0.0 0.0 0.0 0.1 0.3 0.3 0.3
0.0 0.1 0.1 0.0 0.0 -0.0 0.0 0.0 0.0 0.0 0.5 0.5 0.2 0.3 0.2 0.1 0.1 0.0 0.0 -0.0 -0.0 0.0 -0.0 -0.0 -0.0 -0.1 -0.0 -0.0 0.0 -0.0 0.0 0.1 0.3 0.0 0.0 0.0 0.0 -0.0 0.1 0.1 0.2 0.1 0.0 -0.1 0.0 0.2 0.3 0.1 0.2
0.0 0.1 0.0 0.0 0.0 0.0 0.0 0.0 0.0 0.2 0.7 0.6 0.2 0.2 0.1 0.1 0.1 0.0 -0.0 -0.0 -0.0 -0.0 0.0 0.0 -0.0 -0.1 -0.0 0.0 0.0 -0.0 0.0 0.1 0.6 0.0 0.0 0.0 0.0 -0.0 0.1 0.3 0.1 0.2 0.1 0.0 0.0 0.0 0.0 0.0 0.0
0.0 0.1 0.0 0.0 0.0 0.0 0.0 0.0 0.0 0.9 0.5 0.5 0.5 0.2 0.1 0.1 0.1 0.0 -0.0 -0.0 -0.0 -0.0 0.0 0.0 0.0 -0.0 0.0 -0.0 -0.0 0.0 0.2 0.0 0.9 0.5 0.1 0.0 0.0 0.0 0.1 0.2 0.1 0.1 0.0 0.0 0.0 0.0 0.0 -0.0 -0.0
0.0 0.0 0.1 0.0 0.0 0.0 0.0 0.0 0.0 1.3 0.6 0.5 0.6 0.3 0.0 0.0 0.1 0.0 0.0 0.0 -0.1 -0.0 0.0 0.1 0.0 0.1 0.1 -0.0 0.1 0.0 0.1 -0.0 -0.0 0.2 0.3 0.1 0.0 0.1 0.1 0.1 0.3 0.2 0.0 0.0 0.1 0.0 0.0 0.0 -0.0
0.0 0.0 -0.0 0.0 0.0 0.0 0.1 0.0 0.1 0.7 1.1 0.7 0.3 0.4 0.2 0.1 0.3 0.1 -0.0 -0.1 -0.1 -0.1 0.1 0.2 0.1 0.1 0.2 0.1 -0.0 -0.1 0.0 0.1 -0.1 0.1 0.2 0.2 0.4 0.2 0.1 0.2 0.1 0.1 0.2 0.2 0.2 0.1 0.1 0.0 -0.0
0.0 0.0 0.0 0.0 0.0 0.0 -0.0 0.0 0.2 0.2 0.4 0.4 0.4 0.2 0.4 0.2 0.3 0.4 0.1 -0.0 -0.1 -0.0 0.3 0.4 0.2 0.2 0.4 0.2 0.1 -0.1 -0.0 -0.0 -0.1 0.3 0.3 0.2 0.4 0.2 0.1 0.2 0.1 0.2 0.1 0.1 0.0 0.1 0.2 0.0 -0.0
0.0 0.0 0.0 0.0 0.0 0.0 0.0 -0.0 0.2 0.1 0.3 0.3 0.2 0.2 0.2 0.1 0.3 0.4 0.2 0.0 0.0 0.3 0.2 0.3 0.3 0.1 0.3 0.1 0.1 -0.1 -0.1 -0.1 -0.1 -0.1 0.2 0.2 0.2 0.2 0.0 0.1 0.1 0.1 0.1 0.2 0.1 0.1 0.0 0.0 0.0
0.0 0.0 0.0 0.0 0.0 0.0 0.0 -0.0 0.3 0.5 1.3 1.2 0.2 -0.0 0.2 0.2 0.1 0.1 0.1 0.1 0.2 0.8 0.4 0.6 0.7 0.3 0.1 0.1 0.1 -0.1 -0.1 -0.2 -0.1 -0.1 0.2 0.5 0.5 0.3 0.3 0.1 0.1 0.1 0.1 0.2 0.2 0.1 -0.0 0.0 0.0
0.0 0.0 0.0 0.0 0.0 -0.0 0.0 -0.0 0.5 0.5 0.1 0.3 0.0 -0.0 -0.1 0.3 0.1 0.4 0.1 0.2 0.3 1.0 1.0 0.6 1.4 0.8 0.3 0.3 0.0 0.0 -0.2 -0.2 -0.1 -0.1 0.2 0.7 0.7 0.5 0.5 0.2 0.1 0.1 0.2 0.3 0.2 0.3 0.0 0.0 0.0
0.0 0.0 0.0 -0.0 0.0 0.0 0.0 0.0 0.2 0.2 0.1 0.0 0.0 -0.0 -0.2 0.5 0.3 0.5 0.3 0.3 0.5 1.3 1.0 1.3 1.0 1.4 0.6 0.7 0.2 -0.1 -0.3 -0.2 -0.1 -0.1 0.2 0.6 0.8 0.7 0.4 0.3 0.1 0.2 0.4 0.4 0.3 0.2 0.1 0.0 0.0
0.0 0.0 0.0 -0.0 -0.0 -0.0 0.0 0.0 0.0 0.1 0.0 0.0 0.0 0.0 0.2 0.4 0.2 0.6 0.4 0.3 0.9 1.7 1.3 1.4 1.3 2.7 1.3 1.2 0.6 0.2 0.1 -0.1 0.0 0.1 0.0 0.7 0.7 0.8 0.6 0.3 0.2 0.3 0.3 0.2 0.3 0.2 0.0 0.0 0.0
0.0 0.0 0.0 0.0 0.0 0.0 0.0 0.0 0.0 0.0 0.1 0.1 0.0 0.2 0.3 -0.1 0.1 0.6 0.6 0.6 0.7 2.0 1.7 1.2 1.7 2.5 1.7 1.4 0.9 0.4 0.0 -0.2 -0.0 0.1 0.2 0.4 0.6 0.9 0.8 0.6 0.3 0.3 0.4 0.2 0.1 0.1 0.1 -0.0 -0.0
0.0 0.0 0.0 0.0 0.0 0.0 0.0 0.0 0.0 0.0 0.0 0.1 0.1 0.5 0.4 0.1 0.3 0.2 0.9 0.6 0.5 1.8 2.7 2.1 1.6 2.3 1.7 1.6 1.2 0.4 0.1 -0.0 -0.1 -0.0 0.1 0.4 0.6 0.6 0.7 1.0 0.9 0.5 0.5 0.3 0.1 -0.0 -0.0 0.0 -0.1
0.0 0.0 0.0 0.0 0.0 0.0 -0.0 0.0 0.0 0.0 0.0 0.0 0.3 0.4 0.1 0.0 0.0 0.4 0.7 0.6 0.7 2.1 2.9 3.7 2.9 2.5 2.1 1.2 1.0 1.0 0.3 0.1 0.0 -0.0 0.0 0.4 1.0 0.8 0.7 1.2 1.2 1.0 0.6 0.5 0.2 0.1 -0.1 0.0 -0.0
0.0 -0.0 0.0 0.0 0.0 0.0 0.0 -0.0 -0.0 -0.0 -0.0 0.0 0.1 0.2 0.0 0.0 0.3 0.7 0.9 1.0 0.8 1.4 3.1 4.9 3.4 2.9 3.1 2.0 0.9 0.7 0.2 -0.0 0.1 -0.2 -0.0 0.2 0.7 1.2 1.1 1.2 1.6 1.3 1.0 0.7 0.3 0.1 -0.1 0.0 -0.0
0.0 0.0 0.0 0.0 0.0 0.0 0.0 -0.0 0.0 -0.0 -0.0 -0.0 0.0 0.0 0.2 0.4 1.2 0.8 0.7 1.2 0.7 1.3 2.8 4.4 4.3 2.9 2.7 2.3 1.2 0.5 0.5 0.3 0.2 0.0 -0.3 -0.0 0.5 0.6 1.4 1.2 2.2 1.7 1.5 0.9 0.8 0.3 0.1 0.1 0.2
0.0 0.0 0.0 0.0 0.0 0.0 0.0 0.0 0.0 0.0 -0.0 0.0 0.0 0.0 0.1 1.2 0.5 1.4 1.0 1.0 1.0 1.1 2.4 3.2 5.4 3.5 2.7 1.9 1.4 0.7 0.8 0.9 0.5 0.1 -0.1 -0.3 0.1 0.5 0.8 1.8 2.0 2.7 2.6 1.5 0.9 0.4 0.1 0.2 0.4
0.0 0.0 0.0 0.0 0.0 0.0 0.0 -0.0 0.0 0.0 0.0 0.0 0.0 0.0 0.0 0.2 1.6 2.1 1.4 1.0 1.3 1.1 2.2 2.8 4.1 4.0 2.7 2.0 1.4 1.0 0.5 0.6 1.0 0.5 0.1 -0.1 -0.0 0.2 0.6 1.9 2.2 3.1 2.7 2.7 1.6 1.0 0.5 0.5 0.4
0.0 0.0 0.0 0.0 0.0 -0.0 -0.0 -0.0 -0.0 0.0 0.0 0.0 -0.0 0.0 0.0 0.0 1.5 2.9 1.9 1.1 1.4 1.1 1.9 2.3 3.1 4.8 3.6 2.6 1.3 0.6 0.4 0.5 0.8 1.3 0.6 0.1 0.0 0.4 0.4 1.7 2.3 2.8 2.8 2.7 3.0 1.9 1.2 0.7 0.9

GFSSGP_con_3kmehi_036.txt.gz
EHI
0.0 0.0 0.0 0.0 0.0 0.0 0.0 0.0 0.0 -0.1 0.0 -0.1 -0.0 -0.0 0.0 -0.0 -0.0 -0.0 -0.0 -0.0 -0.0 -0.0 -0.3 -0.4 -0.3 -0.2 -0.1 0.3 0.1 0.2 0.2 0.1 0.2 0.2 0.1 0.1 0.1 0.1 0.1 -0.0 0.0 0.0 0.0 0.1 0.1 0.1 0.1 0.2 0.2
0.0 0.0 0.0 0.1 0.0 0.0 0.0 0.0 0.0 0.0 0.0 0.1 0.1 0.0 -0.0 -0.0 0.0 0.0 0.0 -0.0 -0.0 -0.1 -0.2 -0.4 -0.3 -0.2 0.1 0.1 -0.1 0.1 0.1 0.1 0.1 0.1 -0.0 -0.0 0.0 -0.0 -0.1 -0.2 -0.2 -0.3 -0.1 0.1 0.1 0.1 0.1 0.1 -0.0
0.0 0.0 0.0 0.0 0.0 -0.0 0.0 0.0 0.0 0.0 0.3 0.2 0.1 0.0 0.0 -0.0 0.0 0.0 -0.0 -0.0 -0.0 -0.0 -0.1 -0.2 -0.2 -0.1 0.1 -0.1 -0.1 -0.0 -0.1 -0.1 -0.0 -0.0 -0.0 -0.1 -0.1 -0.2 -0.3 -0.2 -0.3 -0.3 0.1 0.1 0.1 0.1 -0.0 -0.1 -0.2
0.0 0.0 0.1 0.0 0.0 0.0 0.0 -0.0 0.0 -0.0 -0.0 0.0 0.0 0.0 0.0 -0.0 0.0 -0.0 -0.0 -0.0 -0.0 -0.0 -0.2 -0.2 -0.1 0.1 -0.1 -0.2 -0.1 -0.1 -0.1 -0.1 -0.0 0.2 0.0 -0.0 -0.1 -0.2 -0.3 -0.3 0.0 0.1 0.1 0.1 0.1 0.0 -0.0 -0.1 -0.2
-0.0 -0.0 -0.0 0.1 0.0 0.0 0.0 0.1 0.1 0.0 0.0 0.0 -0.0 0.0 0.0 -0.0 -0.0 0.0 0.0 -0.0 -0.0 -0.1 -0.3 -0.3 -0.1 -0.1 -0.1 -0.2 -0.2 -0.2 -0.1 -0.1 -0.1 -0.1 0.1 0.0 -0.0 -0.1 -0.1 0.0 0.0 0.0 -0.0 0.1 0.1 0.0 -0.1 -0.1 0.0
0.0 -0.0 0.0 -0.0 -0.0 0.0 0.0 0.0 0.0 0.0 0.1 0.0 0.0 0.1 0.0 -0.0 0.0 0.0 -0.0 -0.0 -0.0 -0.1 -0.3 -0.3 -0.1 -0.2 -0.2 -0.1 -0.1 -0.2 -0.1 0.1 0.0 0.1 0.2 0.4 0.2 0.2 0.1 0.1 0.0 0.0 0.1 0.2 0.1 0.1 -0.0 0.0 0.1
0.0 0.0 0.0 -0.0 0.0 -0.0 -0.0 -0.0 0.1 0.2 0.1 0.0 0.0 0.1 0.0 -0.0 0.0 0.0 -0.0 -0.0 -0.0 -0.0 -0.3 -0.2 -0.3 -0.3 -0.2 -0.1 -0.1 -0.0 0.1 0.1 0.2 0.2 0.2 0.2 0.2 0.2 0.2 0.1 0.1 0.1 0.2 0.2 0.3 0.2 0.1 0.0 0.1
0.0 0.0 0.0 0.0 0.0 0.0 0.1 0.0 0.1 0.3 0.0 0.1 0.0 0.0 0.0 -0.0 0.0 0.0 -0.0 -0.0 0.0 -0.0 -0.2 -0.3 -0.4 -0.4 -0.2 0.0 0.1 0.1 0.1 0.1 0.2 0.2 0.2 0.1 0.2 0.2 0.3 0.2 0.3 0.2 0.2 0.2 0.2 0.3 0.4 0.4 0.3
0.0 0.0 0.0 0.0 0.0 0.0 0.0 0.0 0.0 0.1 0.1 -0.0 -0.0 0.1 0.0 0.0 0.0 0.0 -0.0 0.0 0.0 -0.1 -0.2 -0.4 -0.3 -0.3 -0.1 0.1 0.2 0.2 0.2 0.2 0.2 0.2 0.2 0.0 0.1 0.0 0.1 0.3 0.4 0.3 0.3 0.1 0.2 0.2 0.3 0.4 0.6
0.0 -0.0 0.0 0.0 0.0 0.0 0.1 -0.0 -0.0 0.1 0.2 0.2 0.2 0.0 0.0 0.0 0.0 0.0 0.0 0.1 -0.0 -0.1 -0.3 -0.3 -0.2 -0.2 -0.0 0.2 0.1 0.1 0.1 0.1 0.1 0.1 0.0 0.0 0.0 0.0 0.1 0.3 0.3 0.3 0.2 0.2 0.6 0.3 0.2 0.3 0.1
0.0 0.0 -0.0 -0.0 0.0 0.0 0.0 0.1 0.2 0.3 0.1 0.2 0.3 0.0 0.0 0.0 0.0 0.0 0.0 0.0 -0.0 -0.1 -0.2 -0.2 -0.2 -0.1 -0.0 0.0 0.0 0.0 0.0 0.0 0.0 0.0 0.0 0.0 0.0 0.0 0.1 0.0 0.1 0.0 0.0 0.0 0.0 0.1 0.1 0.2 0.1
-0.0 0.2 0.1 0.0 0.0 0.0 0.0 0.1 0.5 0.2 0.1 0.2 0.3 0.2 0.2 0.1 0.1 0.0 0.0 0.0 0.0 -0.1 -0.1 -0.1 -0.1 -0.1 -0.0 -0.0 -0.0 -0.0 -0.0 0.0 0.0 0.0 0.0 0.0 0.0 0.0 0.0 0.0 0.0 0.0 0.0 0.0 0.1 0.2 0.2 0.2 0.0
0.0 0.0 0.1 0.1 0.0 0.0 0.0 0.0 0.0 0.2 0.6 0.3 0.2 0.3 0.3 0.1 0.1 0.0 -0.0 0.0 0.0 -0.0 -0.0 -0.0 -0.1 -0.1 -0.0 -0.0 -0.0 -0.0 -0.0 0.0 0.1 0.0 0.0 0.0 0.0 0.0 0.0 0.0 0.0 0.0 -0.0 0.0 0.0 0.1 0.1 0.0 0.0
0.0 0.0 0.0 0.0 0.0 0.0 0.0 0.0 0.0 0.4 0.6 0.5 0.2 0.2 0.2 0.1 0.1 0.0 -0.0 0.0 0.0 -0.0 -0.0 -0.0 -0.1 -0.0 -0.0 -0.0 -0.0 -0.0 -0.0 0.0 0.1 0.0 0.0 0.0 0.0 0.1 0.0 0.0 0.0 0.0 0.0 0.0 0.0 0.0 0.0 0.0 0.0
0.0 0.0 0.0 0.0 0.0 0.0 0.0 0.0 -0.0 0.7 0.6 0.6 0.4 0.2 0.1 0.1 0.1 0.1 0.0 0.0 0.0 -0.0 -0.0 -0.0 -0.0 -0.0 -0.0 -0.0 -0.0 -0.0 0.0 0.0 0.2 0.1 0.1 0.0 0.0 0.1 0.1 0.1 0.0 0.0 0.0 -0.0 -0.0 0.0 0.0 -0.0 0.0
0.0 0.0 0.0 0.0 0.0 0.0 0.0 -0.0 0.5 0.5 0.4 0.3 0.2 0.1 0.1 0.1 0.1 0.1 0.0 0.0 -0.0 0.0 0.0 -0.0 -0.1 -0.1 -0.0 -0.0 -0.0 -0.0 0.0 -0.0 0.1 0.1 0.1 0.0 0.1 0.2 0.1 0.0 0.0 0.1 0.1 0.1 0.0 0.0 0.0 -0.0 -0.0
0.0 -0.0 0.0 0.0 -0.0 0.0 0.0 0.0 0.9 0.6 0.3 0.3 0.1 0.1 0.1 0.0 0.0 -0.0 0.0 0.0 -0.0 0.0 0.0 0.0 0.0 0.0 -0.0 -0.0 -0.0 -0.0 -0.0 0.0 -0.0 0.1 0.1 0.1 0.1 0.2 0.2 0.1 0.0 0.0 0.1 0.1 0.1 0.0 0.1 0.0 -0.0
0.0 0.0 0.0 0.0 -0.0 0.0 0.1 0.0 1.2 0.6 0.5 0.3 0.1 0.0 0.1 0.1 0.0 -0.0 -0.0 -0.0 -0.0 0.0 0.0 0.0 0.0 0.1 0.0 0.0 0.0 -0.0 -0.0 0.0 0.0 -0.0 0.0 0.1 0.1 0.4 0.2 0.1 0.0 0.1 0.0 0.1 0.1 0.0 0.0 0.0 0.0
0.0 0.0 0.0 0.0 0.0 -0.0 0.0 0.2 1.0 0.7 0.3 0.6 0.3 0.0 0.3 0.2 0.0 0.0 -0.0 -0.0 -0.0 0.0 0.0 0.0 0.0 0.1 0.1 0.2 0.1 -0.0 -0.0 -0.0 0.0 0.0 0.0 0.0 0.1 0.3 0.4 0.1 0.1 0.0 0.0 0.1 0.0 0.0 0.0 0.0 0.0
0.0 0.0 0.0 0.0 0.0 0.0 0.0 0.1 0.7 0.8 0.5 0.9 0.6 0.2 0.4 0.2 0.3 0.1 0.0 0.0 0.0 0.0 0.1 0.0 0.0 0.0 0.3 0.1 0.1 0.0 -0.0 -0.0 -0.0 0.0 0.0 0.1 0.0 0.2 0.4 0.3 0.1 0.1 0.1 0.1 0.1 0.1 0.0 0.0 0.0
0.0 0.0 0.0 0.0 -0.0 0.0 0.0 0.1 0.2 0.2 0.6 0.8 0.1 0.1 0.4 0.3 0.3 0.3 0.1 0.2 0.1 0.1 0.1 0.1 0.1 0.0 0.1 0.1 0.0 0.1 -0.0 -0.0 -0.1 -0.0 -0.0 0.1 0.1 0.3 0.4 0.2 0.2 0.1 0.1 0.1 0.1 0.0 0.0 0.0 0.0
0.0 0.0 0.0 0.0 0.0 0.0 0.0 0.0 0.1 0.3 0.3 0.1 0.0 0.0 0.3 0.2 0.3 0.3 0.1 0.3 0.1 0.2 0.1 0.3 0.3 0.1 0.1 0.2 0.0 0.0 0.0 0.0 -0.1 -0.1 -0.0 0.1 0.3 0.3 0.3 0.2 0.2 0.0 0.1 0.2 0.1 -0.0 0.0 0.0 0.0
0.0 0.0 0.0 0.0 0.0 -0.0 -0.0 0.0 0.1 0.3 0.1 0.0 0.0 0.0 0.1 0.2 0.3 0.1 0.1 0.1 0.1 0.3 0.3 0.4 0.9 0.4 0.2 0.5 0.1 0.1 0.0 -0.0 -0.1 -0.0 -0.0 0.0 0.2 0.4 0.4 0.2 0.3 0.1 0.1 0.1 0.1 0.0 0.0 0.0 0.0
0.0 0.0 0.0 0.0 0.0 0.0 -0.0 0.0 0.0 0.1 0.0 0.0 0.0 0.0 0.0 0.1 0.1 0.2 0.2 0.1 0.2 0.5 0.5 0.6 1.3 0.7 0.5 0.7 0.4 0.2 0.1 -0.0 -0.0 -0.1 -0.0 0.0 0.2 0.3 0.5 0.4 0.3 0.2 0.2 0.1 0.0 0.0 -0.0 0.0 0.0
0.0 0.0 0.0 0.0 0.0 0.0 -0.0 -0.0 0.0 0.0 0.0 0.0 0.0 0.0 0.0 0.1 0.1 0.2 0.3 0.2 0.2 0.8 0.7 0.8 0.9 1.7 1.0 0.8 0.7 0.4 0.3 0.1 0.0 -0.0 -0.0 0.1 0.2 0.2 0.4 0.6 0.4 0.3 0.3 0.1 0.0 0.0 -0.1 -0.0 -0.1
0.0 0.0 0.0 0.0 0.0 0.0 -0.0 0.0 0.0 -0.0 0.0 0.0 0.0 0.1 0.2 0.2 0.0 0.2 0.4 0.4 0.3 1.1 1.1 0.9 1.0 1.3 1.5 1.1 0.8 0.6 0.4 0.1 0.0 -0.0 -0.0 0.0 0.2 0.2 0.3 0.8 0.6 0.5 0.4 0.2 0.0 -0.0 -0.1 -0.1 -0.1
0.0 0.0 0.0 0.0 0.0 0.0 0.0 -0.0 -0.0 0.0 0.0 0.0 0.0 0.1 0.3 0.2 0.0 0.1 0.4 0.4 0.4 1.1 1.7 1.4 1.2 0.9 1.7 1.2 0.9 0.8 0.5 0.2 0.1 0.0 -0.0 0.0 0.2 0.3 0.4 0.7 1.1 0.6 0.6 0.3 0.2 -0.0 -0.1 -0.2 -0.1
0.0 0.0 0.0 0.0 0.0 0.0 0.0 -0.0 -0.0 -0.0 -0.0 0.0 0.0 0.1 0.4 0.3 0.1 0.0 0.3 0.5 0.5 1.1 2.0 2.2 2.0 1.3 1.7 1.4 0.9 0.7 0.7 0.8 0.3 0.0 -0.0 -0.0 0.0 0.2 0.4 0.6 1.1 0.9 0.7 0.5 0.6 0.2 0.0 0.0 -0.2
0.0 0.0 0.0 0.0 0.0 0.0 0.0 -0.0 0.0 -0.0 -0.0 -0.0 0.0 0.0 0.3 0.5 0.3 0.0 0.2 0.4 0.6 0.7 1.5 2.9 2.7 1.9 1.6 1.6 1.2 0.8 0.5 0.4 0.6 0.2 0.0 0.0 -0.0 0.0 0.2 0.6 0.8 1.1 1.1 1.0 0.8 0.7 0.5 0.3 0.1
0.0 0.0 0.0 0.0 0.0 0.0 0.0 0.0 0.0 0.0 0.0 0.0 0.0 0.1 0.1 0.2 0.2 0.1 0.6 0.3 0.5 0.6 1.2 2.3 3.2 2.7 1.8 2.1 1.5 1.0 0.6 0.2 0.2 0.5 0.1 0.0 0.0 -0.1 0.1 0.5 0.8 1.3 1.5 1.4 1.4 1.1 0.9 1.0 0.5

GFSSGP_con_3kmehi_039.txt.gz
EHI
0.0 0.0 -0.0 -0.0 0.0 0.0 0.0 0.0 0.0 0.0 -0.0 -0.0 0.0 -0.0 0.0 -0.0 0.0 0.0 -0.0 -0.0 -0.0 -0.1 -0.3 -0.5 -0.4 -0.2 -0.0 0.1 0.2 0.4 0.2 0.3 0.2 0.2 0.2 0.1 0.2 0.2 0.2 0.2 0.1 0.1 0.1 0.1 0.1 0.2 0.2 0.2 0.1
-0.0 0.0 0.0 0.0 0.0 -0.0 0.0 0.0 0.0 0.0 0.0 -0.0 0.1 0.0 0.0 0.0 -0.0 0.0 0.0 -0.0 -0.1 -0.1 -0.3 -0.4 -0.4 -0.1 -0.0 0.1 0.1 0.0 0.1 0.2 0.1 0.0 -0.0 -0.0 0.0 0.1 -0.0 -0.0 0.0 0.0 -0.1 -0.0 0.1 0.1 0.1 0.0 0.0
0.0 0.0 -0.0 0.0 -0.0 -0.0 0.0 0.0 0.0 0.1 0.0 -0.0 0.0 0.0 0.0 -0.0 0.0 0.0 -0.0 -0.0 -0.1 -0.1 -0.3 -0.4 -0.3 -0.1 0.1 -0.0 0.0 -0.1 0.0 0.1 0.0 -0.1 -0.1 -0.0 0.0 -0.1 -0.1 -0.2 -0.1 -0.0 0.0 0.0 0.0 -0.0 -0.1 -0.2 -0.2
0.0 -0.0 0.0 0.0 0.0 -0.0 -0.0 0.0 -0.0 0.1 0.1 0.0 0.0 0.0 0.0 -0.0 0.0 0.0 -0.0 -0.0 -0.0 -0.1 -0.3 -0.3 -0.1 -0.0 -0.0 -0.1 0.0 -0.1 -0.1 -0.1 -0.1 -0.2 -0.2 -0.1 -0.2 -0.1 -0.1 -0.0 -0.0 0.0 0.1 0.0 0.0 -0.1 -0.1 -0.2 -0.1
-0.0 -0.0 0.0 0.0 0.0 0.0 0.0 -0.0 0.2 -0.0 0.0 0.0 0.0 0.0 0.0 0.0 0.0 0.0 -0.0 -0.0 -0.0 -0.1 -0.3 -0.3 -0.1 -0.2 -0.1 -0.1 -0.1 -0.1 -0.1 -0.1 -0.1 -0.1 -0.0 -0.0 -0.1 -0.0 0.0 0.0 0.1 0.1 0.1 0.1 0.0 -0.0 -0.0 0.1 0.1
0.0 0.0 0.0 0.0 -0.0 -0.0 0.0 -0.0 0.1 0.0 -0.0 0.0 0.0 0.0 0.0 -0.0 0.0 0.0 -0.0 -0.0 -0.1 -0.0 -0.3 -0.3 -0.2 -0.2 -0.2 -0.1 -0.1 -0.0 -0.1 0.0 0.2 0.3 0.2 0.1 -0.0 -0.1 0.0 0.1 0.1 0.2 0.1 0.1 0.0 -0.0 -0.0 0.1 0.1
0.0 0.0 0.0 -0.0 -0.0 -0.0 -0.0 0.0 -0.0 0.0 0.0 0.0 0.0 0.0 0.0 -0.0 0.0 -0.0 -0.0 -0.0 -0.1 -0.1 -0.3 -0.3 -0.4 -0.2 -0.1 -0.1 -0.1 0.0 0.1 0.1 0.1 0.1 0.2 0.1 -0.0 0.0 0.1 0.1 0.1 0.1 0.1 0.1 0.1 0.0 0.1 0.1 0.2
0.0 0.0 0.0 0.0 0.0 -0.0 0.0 0.0 0.0 -0.0 -0.0 0.0 0.0 0.0 0.0 0.0 0.0 0.0 -0.0 -0.0 -0.1 -0.2 -0.2 -0.3 -0.3 -0.2 -0.1 0.1 0.1 0.1 0.2 0.1 0.1 0.1 0.1 0.1 0.1 0.1 0.1 0.2 0.2 0.1 0.2 0.2 0.2 0.2 0.2 0.1 0.2
0.0 0.0 0.0 0.0 0.0 -0.0 0.0 0.0 -0.0 0.0 0.0 -0.0 -0.0 0.0 0.0 0.0 0.0 0.0 0.0 -0.1 -0.1 -0.3 -0.3 -0.3 -0.2 -0.1 -0.0 0.2 0.2 0.1 0.2 0.1 0.1 0.1 0.1 -0.0 0.0 -0.0 0.0 0.3 0.2 0.1 0.1 0.1 0.1 0.3 0.3 0.3 0.3
0.0 0.0 0.0 -0.0 -0.0 -0.0 0.0 0.0 0.0 0.0 0.1 0.0 0.0 0.0 0.0 0.0 0.0 0.0 0.1 0.0 -0.0 -0.2 -0.3 -0.3 -0.1 -0.1 0.1 0.2 0.1 0.1 0.1 0.1 0.0 0.1 0.0 0.0 0.0 0.0 0.1 0.2 0.3 0.2 0.2 0.1 0.0 0.1 0.2 0.2 0.0
0.0 -0.0 0.0 0.0 -0.0 -0.0 -0.0 0.1 0.0 0.1 0.1 0.0 0.0 0.0 0.0 0.0 0.0 0.0 0.0 0.0 -0.0 -0.1 -0.3 -0.2 -0.1 -0.0 0.1 0.1 0.0 0.0 0.0 -0.0 -0.0 -0.0 0.0 0.0 0.0 0.0 0.0 0.0 0.0 0.0 0.0 0.0 0.0 0.1 0.1 0.1 0.1
0.0 -0.1 -0.1 -0.0 0.0 0.0 0.0 0.1 0.1 0.3 0.1 0.2 0.0 0.0 0.0 0.0 0.0 0.0 0.1 0.0 -0.1 -0.1 -0.2 -0.1 -0.0 -0.0 0.0 0.0 -0.0 -0.1 -0.1 -0.1 -0.0 0.0 0.0 0.0 0.0 0.0 0.0 0.0 0.0 0.1 0.0 0.0 0.0 0.1 0.1 0.0 0.0
0.0 0.0 -0.0 0.1 0.1 0.0 0.0 0.3 0.4 0.3 -0.0 0.2 0.0 0.0 0.0 0.0 0.0 0.0 0.0 -0.0 -0.0 -0.1 -0.2 -0.1 -0.0 -0.0 -0.0 -0.0 -0.0 -0.1 -0.0 -0.0 0.0 0.0 0.0 -0.0 0.0 0.0 0.0 -0.0 0.0 0.0 0.0 0.0 0.0 0.0 0.0 0.0 0.0
0.0 0.0 0.0 0.0 0.0 0.0 0.0 0.1 0.1 0.1 0.3 0.1 0.0 0.0 0.0 0.0 0.0 0.0 0.0 0.0 -0.0 -0.1 -0.1 -0.0 -0.0 -0.0 -0.0 -0.0 -0.0 -0.0 -0.0 -0.0 0.0 0.0 0.0 0.0 0.0 0.0 0.0 0.0 0.0 0.0 0.0 0.0 0.0 0.0 0.0 0.0 0.0
-0.0 0.0 0.0 0.0 0.0 0.0 0.0 0.0 -0.0 0.3 0.2 0.1 0.0 0.0 0.0 0.0 0.1 0.1 -0.0 0.0 0.0 -0.0 -0.0 -0.0 -0.0 -0.0 -0.0 -0.0 -0.0 -0.0 -0.0 -0.0 0.0 0.0 0.0 0.0 0.0 0.0 0.1 0.0 0.0 0.0 0.0 0.0 -0.0 0.0 0.0 0.0 0.0
-0.0 -0.0 -0.0 0.0 0.0 0.0 0.0 -0.0 0.3 0.3 0.2 0.1 0.1 0.0 0.0 0.0 0.1 0.1 0.0 0.0 0.0 -0.0 -0.0 -0.0 -0.0 -0.0 -0.0 -0.0 -0.0 -0.0 -0.0 0.0 0.0 0.0 0.0 0.0 0.0 0.0 0.0 0.0 0.0 0.0 0.0 0.0 0.0 0.0 0.0 -0.0 0.0
0.0 0.0 -0.0 0.0 0.0 0.0 0.0 0.0 0.3 0.3 0.2 0.2 0.2 0.1 0.1 0.0 0.0 0.0 0.0 0.0 0.0 -0.0 -0.0 -0.0 -0.0 -0.0 -0.0 -0.0 -0.0 -0.0 -0.0 0.0 0.0 0.0 -0.0 0.0 0.0 0.1 0.1 0.0 0.0 0.0 0.0 0.0 0.0 0.0 0.0 0.0 0.0
0.0 0.0 0.0 0.0 0.0 0.0 -0.0 0.0 0.5 0.4 0.3 0.3 0.2 0.1 0.1 0.1 0.1 0.1 0.0 0.0 0.0 0.0 -0.0 -0.0 -0.0 -0.0 -0.0 -0.0 -0.0 -0.0 -0.0 -0.0 -0.0 -0.0 0.0 0.1 0.1 0.2 0.1 0.0 0.0 0.0 0.0 0.0 0.0 0.0 0.0 0.0 0.0
0.0 0.0 0.0 0.0 0.0 0.0 0.0 0.0 0.6 0.4 0.3 0.2 0.2 0.1 0.1 0.0 0.0 -0.0 0.0 0.0 0.0 -0.0 -0.0 -0.0 -0.0 -0.0 -0.0 -0.0 -0.0 -0.0 0.0 -0.0 0.0 -0.0 0.0 0.0 0.1 0.2 0.2 0.0 0.1 0.0 0.0 0.0 0.0 0.0 -0.0 0.0 0.0
0.0 0.0 0.0 -0.0 0.0 0.0 0.0 0.0 0.5 0.6 0.5 0.4 0.3 0.1 -0.0 -0.0 -0.0 -0.0 -0.0 0.0 0.0 0.0 0.0 -0.0 0.0 -0.0 0.0 0.0 -0.0 -0.0 0.0 0.0 0.0 -0.0 -0.0 0.0 0.1 0.2 0.1 0.1 0.1 0.1 0.0 0.1 0.0 0.0 0.0 0.0 0.0
0.0 0.0 0.0 0.0 0.0 0.0 0.0 0.0 0.0 0.4 0.3 0.3 0.1 0.1 0.0 -0.0 0.0 -0.0 -0.0 -0.0 0.0 -0.0 0.0 0.0 0.0 0.0 0.0 0.0 0.0 0.0 0.0 0.0 0.0 0.0 0.0 0.0 0.0 0.1 0.2 0.2 0.1 0.1 0.0 0.0 0.0 0.0 0.0 0.0 0.0
0.0 0.0 0.0 0.0 0.0 0.0 0.0 0.0 0.2 0.3 0.2 0.2 0.1 0.0 0.2 0.1 -0.0 0.0 0.0 0.0 0.0 0.0 0.0 0.0 0.0 0.0 0.0 0.0 0.0 0.0 0.0 0.0 -0.0 0.0 0.0 -0.0 0.0 0.1 0.2 0.2 0.1 0.1 0.1 0.1 0.0 0.0 0.0 0.0 0.0
0.0 0.0 0.0 0.0 0.0 0.0 0.0 0.0 0.0 0.2 0.1 0.2 0.2 0.1 0.2 0.2 0.1 0.0 0.1 0.1 0.0 0.0 0.0 0.0 0.0 0.0 0.0 0.0 0.0 0.0 0.0 0.0 -0.0 -0.0 -0.0 -0.0 -0.0 0.0 0.3 0.2 0.1 0.1 0.0 0.0 0.0 0.0 0.0 -0.0 0.0
0.0 0.0 0.0 0.0 0.0 -0.0 -0.0 0.0 0.0 0.0 0.0 0.1 0.3 0.3 0.3 0.2 0.2 0.1 0.1 0.1 0.2 0.1 0.0 0.0 0.0 0.0 0.0 0.0 0.0 0.0 0.0 0.0 0.0 -0.0 -0.0 -0.0 -0.1 -0.0 0.0 0.1 0.1 0.0 0.0 0.0 0.0 0.0 0.0 0.0 -0.0
0.0 0.0 0.0 0.0 0.0 -0.0 0.0 0.0 0.0 0.0 0.0 0.2 0.4 0.3 0.2 0.1 0.2 0.2 0.1 0.1 0.2 0.2 0.1 0.0 0.0 0.0 0.0 0.0 0.0 0.0 0.0 0.0 0.0 0.0 -0.0 -0.0 -0.0 -0.1 0.0 0.1 0.1 0.0 0.0 0.0 -0.0 -0.0 -0.0 -0.0 -0.0
0.0 0.0 0.0 0.0 0.0 0.0 0.0 0.0 0.0 -0.0 -0.0 0.0 0.1 0.1 0.1 0.0 0.0 0.2 0.1 0.1 0.2 0.2 0.2 0.1 0.2 0.1 0.0 0.0 0.1 0.0 0.0 0.0 0.0 0.0 0.0 -0.0 0.0 0.0 0.1 0.2 0.2 0.2 0.1 -0.0 -0.0 -0.1 -0.0 -0.0 -0.0
0.0 0.0 0.0 0.0 0.0 0.0 0.0 0.0 0.0 0.0 0.0 0.0 0.0 0.0 0.0 0.0 0.0 0.0 0.2 0.2 0.2 0.2 0.2 0.2 0.2 0.3 0.2 0.2 0.2 0.2 0.1 0.1 0.0 0.0 0.0 0.0 0.0 0.0 0.1 0.2 0.3 0.3 0.3 0.1 0.0 -0.0 -0.0 -0.0 -0.0
0.0 0.0 0.0 0.0 0.0 0.0 0.0 0.0 0.0 0.0 0.0 0.0 0.0 0.0 0.0 0.0 0.0 0.0 0.1 0.1 0.2 0.2 0.3 0.4 0.3 0.6 0.7 0.4 0.4 0.4 0.3 0.2 0.1 0.0 0.0 0.0 0.0 0.0 0.1 0.1 0.3 0.4 0.4 0.3 0.2 0.0 -0.1 -0.1 -0.1
0.0 0.0 0.0 0.0 0.0 0.0 0.0 -0.0 -0.0 0.0 0.0 0.0 0.0 0.0 0.0 0.0 0.0 0.0 0.1 0.2 0.1 0.2 0.5 0.4 0.4 0.5 0.9 0.9 0.6 0.5 0.4 0.3 0.2 0.1 0.0 0.0 0.0 0.0 0.1 0.1 0.2 0.3 0.4 0.4 0.3 0.2 0.0 -0.0 -0.2
0.0 0.0 0.0 0.0 0.0 0.0 0.0 -0.0 0.0 0.0 0.0 0.0 -0.0 0.0 0.0 0.1 0.2 0.1 0.1 0.2 0.2 0.2 0.5 0.7 0.5 0.6 0.8 1.2 0.9 0.7 0.6 0.5 0.3 0.2 0.1 0.0 0.1 0.0 0.0 0.1 0.1 0.1 0.2 0.4 0.5 0.5 0.4 0.2 0.0

GFSSGP_con_3kmehi_042.txt.gz
EHI
0.0 0.0 -0.0 -0.0 -0.0 0.0 0.0 0.0 0.0 0.0 -0.0 0.0 0.0 0.0 -0.0 0.0 0.0 0.0 -0.0 -0.0 -0.0 -0.0 -0.3 -0.3 -0.3 -0.2 -0.0 0.0 0.1 0.1 0.0 0.0 0.1 0.1 0.1 0.1 0.2 0.2 0.1 0.1 0.2 0.2 0.2 0.2 0.3 0.2 0.1 0.1 0.0
0.0 0.0 0.0 -0.0 0.0 -0.0 -0.0 0.0 0.0 -0.0 -0.0 -0.0 0.0 0.0 0.0 0.0 0.0 0.0 0.0 -0.0 -0.0 -0.1 -0.3 -0.3 -0.2 -0.0 0.0 0.1 -0.0 0.0 0.1 0.0 0.2 0.1 0.1 0.1 0.0 0.1 0.0 0.1 0.2 0.3 0.2 0.1 0.3 0.1 0.1 -0.0 -0.1
0.0 0.0 -0.0 0.1 -0.0 0.0 -0.0 0.0 0.0 0.1 0.1 0.0 0.0 0.0 0.0 0.0 0.0 0.0 -0.0 -0.0 -0.1 -0.2 -0.3 -0.3 -0.2 0.0 0.1 0.1 -0.0 0.1 0.1 0.1 0.1 0.0 -0.0 0.0 0.0 0.0 0.0 -0.1 -0.0 0.1 0.1 0.2 0.2 0.1 -0.0 -0.1 -0.2
0.0 -0.0 0.0 0.0 0.0 -0.0 -0.0 -0.0 0.0 0.0 0.0 0.0 0.0 0.0 0.0 0.0 0.0 0.0 0.0 -0.0 -0.1 -0.2 -0.4 -0.3 -0.1 0.0 -0.0 0.0 0.0 0.1 0.0 -0.0 -0.1 -0.0 0.0 0.1 -0.1 -0.1 -0.1 -0.1 -0.0 0.0 0.1 0.1 -0.0 -0.0 -0.1 -0.1 0.0
0.0 -0.0 0.0 0.0 0.0 0.0 0.0 -0.0 0.0 0.0 0.0 0.0 0.0 0.0 0.0 0.0 0.0 0.0 0.0 -0.1 -0.1 -0.2 -0.4 -0.3 -0.1 -0.1 -0.1 -0.1 -0.1 0.0 -0.1 -0.1 0.2 0.2 0.0 0.1 0.1 -0.0 0.0 -0.0 0.0 0.1 0.1 0.0 -0.0 0.0 0.1 0.1 0.1
0.0 0.0 -0.0 0.0 0.0 -0.0 0.0 0.0 0.0 -0.0 0.0 0.0 0.0 0.0 0.0 0.0 0.0 0.0 -0.0 -0.1 -0.1 -0.2 -0.3 -0.3 -0.1 -0.1 -0.1 -0.1 -0.1 -0.1 -0.1 0.2 0.1 0.2 0.1 0.0 -0.0 -0.0 -0.0 -0.0 0.1 0.2 0.1 -0.0 -0.0 0.0 0.0 0.1 0.2
0.0 0.0 0.0 -0.0 -0.0 -0.0 -0.0 0.0 0.0 -0.0 0.0 0.0 0.0 0.0 0.0 0.0 0.0 0.0 -0.0 -0.0 -0.2 -0.3 -0.3 -0.3 -0.3 -0.2 -0.1 -0.1 -0.1 -0.1 0.0 0.1 0.1 0.1 0.0 -0.0 0.0 -0.0 -0.0 0.1 0.2 0.2 0.1 0.0 -0.0 0.0 0.1 0.2 0.3
0.0 0.0 0.0 0.0 -0.0 -0.0 0.0 -0.0 0.0 -0.0 0.0 0.0 0.0 -0.0 0.0 -0.0 -0.0 -0.0 -0.0 -0.0 -0.1 -0.3 -0.3 -0.3 -0.2 -0.2 -0.3 -0.0 -0.0 0.1 0.1 0.1 0.0 0.0 0.0 -0.0 0.1 0.1 0.0 0.1 0.2 0.1 0.1 0.2 0.2 0.2 0.2 0.2 0.3
0.0 0.0 0.0 0.0 0.0 -0.0 0.0 0.0 0.0 0.0 0.0 0.0 -0.0 0.0 0.0 0.0 0.0 0.0 0.0 -0.1 -0.2 -0.4 -0.3 -0.3 -0.2 -0.2 0.0 0.1 0.2 0.1 0.1 0.1 0.1 0.0 -0.0 0.0 0.1 0.1 0.1 0.2 0.1 0.2 0.2 0.2 0.2 0.1 0.2 0.2 0.2
0.1 0.0 0.0 0.0 -0.0 0.0 0.0 -0.1 0.0 0.0 0.0 0.0 0.0 0.0 0.0 0.0 0.0 0.0 0.0 0.0 -0.0 -0.1 -0.4 -0.2 -0.2 -0.2 0.1 0.2 0.1 0.1 0.2 0.1 0.1 0.1 0.0 0.0 0.0 0.0 0.1 0.2 0.2 0.2 0.1 0.1 0.1 0.1 0.1 0.1 0.1
0.1 0.0 0.0 -0.0 -0.0 -0.0 0.0 0.0 -0.0 0.0 0.0 0.0 0.0 0.0 0.0 0.0 0.0 0.0 0.0 0.0 -0.0 -0.1 -0.2 -0.2 -0.1 -0.0 0.1 0.1 0.1 0.0 0.1 0.0 0.1 0.0 0.0 0.0 0.0 0.0 0.1 0.1 0.0 0.0 0.0 0.0 0.1 0.1 0.1 0.0 0.1
0.1 -0.1 0.0 0.0 0.0 -0.0 -0.0 -0.0 -0.0 0.1 -0.0 0.0 0.0 0.0 0.0 0.0 0.0 0.0 0.0 0.0 -0.0 -0.1 -0.1 -0.2 -0.1 -0.0 0.0 0.1 0.0 -0.0 0.0 0.0 0.0 0.0 0.0 0.0 0.0 0.0 0.0 0.0 0.0 0.0 0.0 0.0 0.0 0.1 0.0 0.0 0.0
0.0 0.0 0.0 0.1 0.1 0.0 0.0 0.0 0.0 0.1 -0.0 0.0 0.0 0.0 0.0 0.0 0.0 0.0 0.0 -0.0 -0.1 -0.1 -0.1 -0.1 -0.0 0.0 0.0 0.0 -0.0 -0.0 -0.0 -0.0 0.0 0.0 -0.0 -0.0 -0.0 -0.0 0.0 0.0 0.0 0.0 0.0 -0.0 0.0 0.1 0.0 0.0 0.0
-0.0 0.0 0.0 0.0 0.0 0.0 0.1 0.1 0.0 -0.0 0.0 0.0 0.0 0.0 0.0 0.0 0.0 0.0 0.0 -0.0 -0.0 -0.1 -0.1 -0.1 -0.0 0.0 0.0 -0.0 -0.0 -0.0 -0.0 0.0 0.0 0.0 0.0 -0.0 -0.0 0.0 0.0 0.0 0.0 0.0 0.0 0.0 0.0 0.0 0.0 0.0 0.0
0.0 0.0 0.0 0.0 0.0 0.0 0.0 0.0 0.0 0.0 0.0 0.0 0.0 0.0 0.0 0.0 0.0 0.0 0.1 0.0 -0.0 -0.0 -0.1 -0.0 -0.0 -0.0 -0.0 -0.0 -0.0 -0.0 -0.0 -0.0 0.0 0.0 0.0 0.0 0.0 0.0 0.0 0.0 0.0 0.0 0.0 -0.0 0.0 0.0 0.0 0.0 -0.0
-0.0 -0.0 0.0 0.0 0.0 0.0 0.0 0.0 0.1 0.1 0.0 0.0 0.0 0.0 0.0 0.0 0.0 0.0 -0.0 0.0 -0.0 -0.0 -0.0 -0.0 -0.0 -0.0 -0.0 -0.0 -0.0 -0.0 -0.0 -0.0 0.0 0.0 0.0 0.0 0.0 0.0 0.0 0.0 0.0 0.0 0.0 0.0 -0.0 0.0 0.0 0.0 0.0
0.0 0.0 0.0 0.0 0.0 0.0 0.0 0.0 0.1 0.2 0.0 0.0 0.0 0.0 0.0 0.0 0.0 -0.0 -0.0 -0.0 0.0 -0.0 -0.0 -0.0 -0.0 -0.0 -0.0 -0.0 -0.0 -0.0 -0.0 -0.0 0.0 -0.0 -0.0 0.0 0.0 0.0 0.0 0.0 0.0 0.0 0.0 -0.0 0.0 0.0 0.0 0.0 0.0
0.0 0.0 0.0 0.0 0.0 0.0 0.0 0.0 0.1 0.1 0.1 0.0 0.0 0.0 0.0 0.0 0.0 -0.0 -0.0 -0.0 -0.0 -0.0 -0.0 -0.0 -0.0 -0.0 -0.0 -0.0 -0.0 -0.0 -0.0 -0.0 -0.0 0.0 -0.0 -0.0 0.1 0.1 0.0 0.0 0.0 0.0 0.0 0.0 -0.0 0.0 0.0 0.0 0.0
0.0 0.0 0.0 0.0 0.0 0.0 0.0 0.0 0.1 0.2 0.0 0.1 0.0 0.0 0.0 0.0 0.0 0.0 -0.0 -0.0 -0.0 -0.0 -0.0 -0.0 -0.0 -0.0 -0.0 0.0 0.0 -0.0 -0.0 -0.0 -0.0 -0.0 -0.0 -0.0 0.0 0.1 0.0 0.0 0.0 0.0 0.0 0.0 0.0 0.0 0.0 0.0 0.0
0.0 0.0 0.0 0.0 0.0 0.0 0.0 0.0 0.2 0.3 0.2 0.2 0.2 0.1 0.0 0.0 0.0 0.0 0.0 -0.0 -0.0 0.0 -0.0 -0.0 -0.0 -0.0 -0.0 0.0 0.0 0.0 0.0 0.0 0.0 -0.0 -0.0 -0.0 0.1 0.1 0.1 0.1 0.1 0.0 0.0 0.1 0.0 -0.0 -0.0 0.0 0.0
0.0 0.0 0.0 0.0 0.0 0.0 0.0 0.0 0.1 0.1 0.2 0.1 0.1 0.0 0.0 0.0 0.0 0.0 0.0 0.0 0.0 -0.0 -0.0 -0.0 -0.0 0.0 -0.0 0.0 0.0 0.0 0.0 0.0 0.0 0.0 -0.0 -0.0 0.1 0.1 0.2 0.1 0.1 0.1 0.0 0.1 0.0 0.0 0.0 0.0 0.0
0.0 0.0 0.0 0.0 0.0 0.0 0.0 0.0 0.0 0.2 0.1 0.1 0.1 0.1 0.0 0.1 0.0 0.0 0.0 0.0 0.0 0.0 0.0 -0.0 0.0 0.0 -0.0 -0.0 -0.0 -0.0 0.0 0.0 0.0 0.0 0.0 -0.0 0.0 0.1 0.1 0.1 0.0 0.0 0.0 0.1 0.1 0.0 0.0 0.0 0.0
0.0 0.0 0.0 0.0 0.0 0.0 0.0 0.0 0.0 0.0 0.1 0.0 0.1 0.1 0.0 0.1 0.1 0.0 0.0 0.0 0.0 0.0 -0.0 0.0 0.0 -0.0 0.0 0.0 0.0 0.0 0.0 -0.0 0.0 0.0 0.0 0.0 -0.0 0.0 0.1 0.1 0.0 0.0 0.0 0.0 0.1 0.1 0.0 0.0 0.0
0.0 0.0 0.0 0.0 0.0 0.0 0.0 0.0 0.0 0.0 -0.1 -0.0 0.1 0.1 0.1 0.1 0.1 0.1 0.0 0.0 0.0 -0.0 0.0 0.0 0.0 -0.0 0.0 0.0 0.0 0.0 0.0 0.0 0.0 0.0 0.0 0.0 0.0 0.0 0.0 0.1 0.0 -0.0 -0.0 -0.0 0.0 0.0 0.0 0.0 0.0
0.0 0.0 0.0 0.0 0.0 -0.0 0.0 0.0 0.0 0.0 0.0 0.0 0.1 0.1 0.2 0.2 0.1 0.1 0.1 0.0 0.0 0.0 -0.0 0.0 -0.0 -0.0 -0.0 0.0 0.0 0.0 0.0 0.0 0.0 0.0 0.0 0.0 0.0 0.0 0.0 0.0 0.0 0.0 0.0 -0.0 -0.0 -0.0 0.0 0.0 0.1
0.0 0.0 0.0 0.0 0.0 0.0 0.0 0.0 0.0 -0.0 0.0 0.0 0.1 0.2 0.2 0.2 0.2 0.1 0.1 0.1 0.0 0.0 0.0 0.0 0.0 0.0 0.0 0.0 0.0 0.0 0.0 0.0 0.0 0.0 0.0 0.0 0.0 0.1 -0.0 -0.0 0.0 0.0 -0.0 -0.1 -0.1 -0.0 -0.0 0.0 0.0
0.0 0.0 0.0 0.0 0.0 0.0 0.0 0.0 0.0 -0.0 0.0 0.0 0.0 0.2 0.1 0.2 0.2 0.2 0.1 0.1 0.1 0.0 0.0 0.0 0.0 0.0 0.0 0.0 0.0 0.0 0.0 0.0 0.0 0.0 0.0 0.0 0.0 0.0 -0.0 -0.0 0.1 0.1 0.0 0.0 -0.1 -0.1 -0.1 -0.1 0.0
0.0 0.0 0.0 0.0 0.0 0.0 0.0 0.0 0.0 0.0 0.0 0.0 0.0 0.0 0.1 0.2 0.1 0.1 0.2 0.1 0.1 0.1 0.1 0.0 0.0 0.0 0.0 0.0 0.0 0.0 0.0 0.0 0.0 0.0 0.0 0.0 0.0 -0.0 -0.1 -0.1 -0.0 0.0 0.1 0.1 0.0 -0.1 -0.1 -0.1 -0.1
0.0 0.0 0.0 0.0 0.0 0.0 0.0 0.0 0.0 0.0 0.0 0.0 0.0 0.0 0.0 0.1 0.0 0.0 0.0 0.2 0.1 0.1 0.1 0.1 0.0 0.0 0.0 0.1 0.1 0.1 0.1 0.1 0.1 0.0 0.0 0.0 0.0 -0.0 -0.0 -0.1 -0.0 0.0 0.1 0.2 0.2 -0.0 -0.1 -0.1 -0.2
0.0 0.0 0.0 0.0 0.0 0.0 0.0 0.0 0.0 0.0 0.0 0.0 -0.0 0.0 0.0 0.1 0.1 0.0 0.0 0.1 0.2 0.1 0.1 0.1 0.1 0.1 0.2 0.2 0.2 0.2 0.3 0.4 0.3 0.2 0.0 0.0 0.0 0.0 0.0 0.0 -0.1 -0.0 0.0 0.2 0.2 0.1 -0.1 -0.0 -0.1

GFSSGP_con_3kmehi_045.txt.gz
EHI
0.0 0.0 0.0 0.0 -0.0 0.0 0.0 0.0 0.0 0.0 -0.0 0.0 0.0 0.0 -0.0 0.0 0.0 -0.0 -0.0 -0.0 -0.0 -0.0 -0.1 -0.2 -0.4 -0.4 -0.3 -0.3 -0.3 -0.3 -0.1 -0.1 -0.0 -0.0 0.1 -0.0 0.0 0.1 0.2 0.2 0.1 0.1 0.2 0.2 0.2 0.2 0.0 0.0 0.1
0.0 0.0 0.0 -0.0 0.0 -0.0 -0.0 0.0 0.0 -0.0 0.0 0.0 0.0 0.0 0.0 0.0 0.0 0.0 0.0 -0.0 -0.0 -0.0 -0.2 -0.1 -0.3 -0.3 -0.2 -0.2 -0.2 -0.1 -0.0 0.0 0.0 0.1 0.1 0.1 0.1 0.0 0.1 0.2 0.2 0.2 0.2 0.3 0.2 0.2 0.0 -0.0 -0.1
0.0 0.0 0.0 0.0 0.0 0.0 -0.0 0.0 0.0 0.1 0.1 0.0 0.0 0.0 0.0 0.0 0.0 0.0 -0.0 -0.0 -0.0 -0.1 -0.2 -0.2 -0.2 -0.1 -0.1 -0.1 -0.1 0.1 0.1 0.0 -0.0 0.2 0.0 0.0 0.0 0.1 0.0 0.2 0.2 0.2 0.2 0.2 0.1 0.0 -0.0 -0.0 -0.1
0.0 0.0 -0.0 0.0 0.0 0.0 -0.0 0.0 0.0 0.1 0.1 0.0 0.0 0.0 0.0 0.0 0.0 0.0 0.0 -0.0 -0.0 -0.1 -0.1 -0.1 -0.1 -0.1 -0.1 -0.0 0.1 0.0 0.1 0.1 0.1 0.0 0.0 0.0 0.0 0.1 0.2 0.2 0.1 0.1 0.1 -0.0 0.0 0.0 0.1 0.1 0.2
0.0 -0.0 -0.0 -0.0 -0.0 0.0 0.0 0.0 0.1 0.0 0.0 0.0 0.0 0.0 0.0 0.0 0.0 0.0 0.0 -0.0 -0.0 -0.1 -0.2 -0.1 -0.1 -0.2 -0.1 0.1 0.1 0.2 0.1 0.1 0.1 0.1 -0.0 0.0 -0.0 -0.1 -0.1 0.2 0.1 0.0 -0.0 -0.1 0.0 0.0 0.1 0.1 0.2
0.0 0.0 -0.0 -0.0 -0.0 -0.0 -0.0 0.0 -0.0 0.0 0.0 0.0 0.0 0.0 0.0 0.0 0.0 0.0 -0.0 -0.0 -0.1 -0.0 -0.1 -0.0 -0.1 -0.1 -0.1 0.0 0.1 0.2 0.1 0.1 0.2 0.2 0.1 -0.0 -0.1 -0.1 0.0 0.1 0.1 -0.0 -0.1 -0.1 0.0 0.1 0.1 0.2 0.2
0.1 0.0 0.0 -0.0 -0.0 -0.0 -0.0 0.0 -0.0 -0.0 -0.0 -0.0 0.0 0.0 0.0 0.0 0.0 -0.0 -0.0 -0.1 -0.1 -0.1 -0.1 -0.1 -0.1 -0.2 -0.1 -0.1 -0.0 0.1 0.1 0.2 0.2 0.0 -0.1 -0.1 -0.1 -0.0 0.0 0.1 0.1 0.0 -0.0 0.0 0.1 0.1 0.1 0.2 0.1
0.0 0.0 0.0 -0.0 -0.0 -0.0 -0.0 0.0 0.1 0.0 0.0 0.0 0.0 0.0 0.0 0.0 -0.0 -0.0 -0.0 -0.1 -0.1 -0.1 -0.1 -0.1 -0.2 -0.2 -0.2 -0.0 0.0 0.1 0.1 0.1 0.1 -0.1 -0.0 -0.0 -0.1 -0.0 0.0 0.3 0.1 0.2 0.2 0.1 0.1 0.1 0.1 0.1 -0.0
0.0 0.0 0.0 0.0 0.0 0.0 0.0 0.0 -0.0 -0.0 0.0 0.0 -0.0 0.0 0.0 0.0 0.0 0.0 -0.0 -0.1 -0.2 -0.2 -0.1 -0.2 -0.2 -0.2 -0.2 0.2 0.2 0.2 0.1 0.0 0.0 -0.0 0.0 0.0 0.1 0.1 0.1 0.1 0.1 0.2 0.2 0.3 0.2 0.1 0.2 0.2 0.1
0.0 0.0 0.0 0.0 -0.0 0.0 0.0 0.1 0.1 -0.0 0.0 0.0 0.0 0.0 0.0 0.0 0.0 0.0 0.0 0.0 -0.0 -0.1 -0.1 -0.2 -0.2 -0.1 0.0 0.2 0.2 0.2 0.1 0.1 0.1 0.1 0.1 0.1 0.1 0.1 0.1 0.1 0.1 0.1 0.1 0.2 0.2 0.2 0.2 0.2 0.2
0.0 0.0 0.0 0.0 0.0 0.0 0.0 0.0 0.1 0.1 0.0 0.0 0.0 0.0 0.0 0.0 0.0 0.0 0.0 0.0 -0.0 -0.1 -0.2 -0.2 -0.2 -0.0 0.1 0.2 0.2 0.2 0.2 0.1 0.1 0.1 0.1 0.1 0.1 0.1 0.1 0.1 0.1 0.1 0.1 0.1 0.2 0.2 0.2 0.2 0.1
0.1 -0.0 0.1 0.0 0.0 0.0 0.0 0.1 -0.1 -0.0 0.0 0.0 0.0 0.0 0.0 0.0 0.0 0.0 0.0 0.0 -0.0 -0.0 -0.1 -0.1 -0.1 0.1 0.1 0.2 0.2 0.1 0.2 0.1 0.1 0.1 0.1 0.1 0.1 0.1 0.1 0.1 0.1 0.0 0.1 0.1 0.1 0.1 0.1 0.1 0.0
-0.0 0.1 0.0 0.0 0.0 0.1 0.1 0.1 -0.0 0.0 0.0 0.0 0.0 0.0 0.0 0.0 0.0 0.0 0.0 0.0 -0.0 -0.0 -0.1 -0.1 0.0 0.1 0.2 0.2 0.1 0.1 0.1 0.1 0.1 0.1 0.0 0.0 0.0 0.1 0.1 0.1 0.0 0.0 0.1 0.1 0.1 0.1 0.0 -0.1 -0.0
0.0 0.0 0.1 0.0 0.0 0.0 0.1 0.1 -0.0 0.0 0.0 0.0 0.0 0.0 0.0 0.0 0.0 0.0 0.0 0.0 -0.0 -0.0 -0.0 -0.1 0.1 0.1 0.1 0.1 0.1 0.0 0.1 0.1 0.1 0.0 -0.0 0.0 0.0 0.1 0.1 0.2 0.1 0.0 0.1 0.1 0.1 0.1 0.1 0.1 -0.2
-0.0 0.0 0.0 0.0 0.0 0.0 0.0 0.0 0.1 0.0 0.0 0.0 0.0 0.0 0.0 0.0 0.0 0.0 0.0 0.0 -0.0 -0.0 -0.0 -0.0 0.0 0.1 0.1 0.0 0.0 0.0 0.0 0.1 0.1 0.0 0.0 -0.0 0.0 0.0 0.2 0.2 0.1 0.1 0.0 0.0 0.1 0.0 0.1 0.0 -0.1
-0.0 0.0 0.0 0.0 0.0 0.0 0.0 0.0 0.1 0.0 0.1 0.0 0.0 0.0 0.0 0.0 0.0 0.0 0.0 -0.0 -0.0 -0.0 -0.0 -0.0 0.0 0.0 0.0 -0.0 0.0 0.0 0.0 0.1 0.1 0.1 0.0 0.1 0.1 0.1 0.2 0.2 0.1 0.1 0.0 0.0 0.1 0.0 0.0 0.0 -0.0
0.0 0.0 -0.0 0.0 0.0 0.0 0.0 0.0 0.1 0.0 0.0 0.0 0.0 0.0 0.0 0.0 0.0 0.0 -0.0 -0.0 -0.0 -0.1 -0.1 -0.0 0.0 0.0 -0.0 -0.0 0.0 0.0 -0.0 0.0 0.1 0.0 0.0 0.1 0.1 0.1 0.1 0.2 0.2 0.2 0.1 0.1 0.1 0.0 0.1 0.0 0.0
0.0 0.0 0.0 0.0 0.0 0.0 0.0 0.0 0.1 0.0 0.0 0.0 0.0 0.0 0.0 0.0 0.0 0.0 -0.0 -0.0 -0.1 -0.1 -0.1 -0.0 0.0 0.0 0.0 0.0 0.1 0.0 0.0 -0.0 0.0 0.0 -0.0 0.0 0.0 0.1 0.1 0.1 0.1 0.2 0.1 0.1 -0.0 -0.0 0.0 0.0 0.0
0.0 0.0 0.0 0.0 0.0 0.0 0.0 0.1 0.1 0.1 0.1 0.0 0.0 0.0 0.0 0.0 0.0 0.0 0.0 -0.0 -0.1 -0.1 -0.1 -0.1 -0.0 -0.0 0.0 0.0 0.0 0.0 0.0 -0.0 -0.0 0.0 -0.0 -0.1 -0.0 0.1 -0.0 0.0 0.1 0.2 0.2 0.0 -0.0 -0.0 0.0 0.0 0.0
0.0 0.0 0.0 0.0 0.0 0.0 0.0 0.0 0.0 0.1 0.2 0.2 0.0 0.0 0.0 0.0 0.0 0.0 -0.0 -0.0 -0.1 -0.1 -0.1 -0.1 -0.0 -0.0 0.0 0.0 0.2 0.1 0.0 -0.0 -0.0 -0.0 -0.2 -0.1 0.0 0.0 0.1 0.1 0.1 0.1 0.2 0.2 0.1 0.0 0.0 0.0 0.0
0.0 0.0 0.0 0.0 0.0 0.0 0.0 0.0 0.0 0.0 0.1 0.0 0.0 0.0 0.0 0.0 0.0 0.0 0.0 -0.0 -0.0 -0.1 -0.1 -0.1 -0.0 0.0 0.1 0.1 0.1 0.2 0.2 0.2 0.0 0.0 -0.1 -0.1 0.0 0.1 0.1 0.1 0.1 0.1 0.3 0.4 0.1 0.1 0.0 0.0 0.0
0.0 0.0 0.0 0.0 0.0 0.0 0.0 0.0 0.0 0.0 -0.0 0.1 0.1 0.1 0.1 0.0 0.0 0.0 0.0 0.0 0.0 -0.0 -0.0 -0.0 0.0 0.0 0.1 0.3 0.1 0.1 0.1 0.1 0.0 0.0 0.0 -0.1 0.0 0.2 0.1 0.2 0.3 0.2 0.2 0.3 0.2 0.2 0.1 0.0 0.0
0.0 0.0 0.0 0.0 0.0 0.0 0.0 0.0 0.0 -0.0 -0.0 -0.1 -0.1 0.2 0.1 0.1 0.1 0.1 0.1 0.1 0.0 0.0 -0.0 0.0 0.1 0.1 0.1 0.1 0.2 0.0 0.0 -0.0 0.0 0.0 -0.0 -0.0 -0.0 0.1 0.1 0.2 0.2 0.1 0.0 0.2 0.3 0.4 0.3 0.0 0.0
0.0 0.0 0.0 0.0 0.0 0.0 0.0 0.0 -0.0 -0.0 -0.1 -0.0 0.1 0.1 0.2 0.2 0.2 0.1 0.1 0.1 0.0 0.0 0.0 0.0 0.2 0.1 0.1 -0.2 -0.0 -0.0 -0.1 -0.2 -0.0 0.0 0.0 0.0 0.1 0.1 0.1 0.1 0.0 -0.1 -0.1 0.1 0.3 0.4 0.2 0.1 0.0
0.0 0.0 0.0 0.0 0.0 0.0 0.0 0.0 0.0 0.0 0.0 0.0 0.0 0.2 0.3 0.3 0.3 0.2 0.2 0.1 0.1 0.1 0.1 0.1 0.2 -0.0 -0.1 -0.2 -0.1 -0.2 -0.2 -0.1 -0.0 0.0 0.0 0.1 0.1 0.2 0.2 0.1 0.1 -0.1 -0.1 -0.1 0.0 0.1 0.1 0.1 0.2
0.0 0.0 0.0 0.0 0.0 0.0 0.0 0.0 -0.0 -0.0 0.0 0.0 -0.0 0.0 0.1 0.2 0.2 0.3 0.2 0.4 0.3 0.3 0.4 0.2 0.1 0.0 -0.1 -0.1 -0.4 -0.2 -0.2 -0.1 -0.1 -0.1 -0.0 0.1 0.1 0.2 0.2 0.3 0.1 -0.1 -0.3 -0.2 -0.2 -0.1 0.0 -0.0 0.0
0.0 0.0 0.0 0.0 0.0 0.0 0.0 0.0 0.0 0.0 0.0 -0.0 0.0 0.0 0.1 0.2 0.2 0.4 0.4 0.4 0.6 0.3 0.3 0.2 0.3 0.2 0.1 -0.1 0.2 -0.2 -0.2 -0.2 -0.2 -0.0 0.0 0.1 0.2 0.1 0.1 0.0 -0.1 -0.2 -0.3 -0.2 -0.2 -0.2 -0.2 -0.2 -0.1
0.0 0.0 0.0 0.0 0.0 0.0 0.0 -0.0 -0.0 0.0 0.0 0.0 0.0 0.0 0.1 0.2 0.3 0.2 0.5 0.7 0.6 0.3 0.4 0.4 0.3 0.2 0.1 0.1 0.3 0.2 0.1 0.0 0.0 -0.0 0.1 0.2 0.2 0.1 -0.0 -0.0 -0.1 -0.2 -0.2 -0.3 -0.3 -0.4 -0.4 -0.4 -0.3
0.0 0.0 0.0 0.0 0.0 0.0 0.0 0.0 0.0 -0.0 0.0 0.0 0.0 0.0 0.0 0.1 0.3 0.4 0.6 0.9 1.0 0.3 0.5 0.5 0.3 0.4 0.4 0.3 0.3 0.4 0.2 0.0 0.3 0.0 0.2 0.4 0.4 0.1 -0.0 0.1 -0.0 -0.2 -0.2 -0.2 -0.4 -0.5 -0.5 -0.7 -0.6
0.0 0.0 0.0 0.0 0.0 0.0 0.0 0.0 0.0 -0.0 -0.0 0.0 0.0 0.0 0.0 0.0 0.2 0.7 0.6 0.5 0.5 0.9 1.1 0.5 0.8 0.5 0.6 0.6 0.7 0.7 0.6 0.6 0.5 0.8 0.5 0.6 0.8 0.5 0.1 0.1 0.1 -0.0 -0.1 -0.1 -0.4 -0.7 -0.6 -0.6 -0.7

GFSSGP_con_3kmehi_048.txt.gz
EHI
0.0 0.0 -0.0 0.0 -0.0 0.0 0.0 0.0 0.1 0.1 0.0 0.0 0.0 0.0 -0.0 0.0 0.1 -0.1 -0.0 -0.1 -0.0 -0.0 -0.1 -0.2 -0.6 -0.5 -0.6 -0.4 -0.3 -0.2 -0.2 -0.2 -0.0 -0.1 -0.1 -0.1 -0.1 -0.1 0.0 0.1 0.1 0.1 0.2 0.2 0.2 0.1 0.1 0.1 0.1
0.0 0.0 -0.0 -0.0 -0.0 -0.0 -0.0 0.1 0.0 0.0 0.0 0.0 0.0 0.0 0.0 0.0 0.0 0.0 0.0 -0.0 -0.0 -0.0 -0.0 -0.1 -0.6 -0.5 -0.3 -0.4 -0.1 -0.1 -0.1 -0.1 -0.1 -0.1 -0.1 -0.2 -0.1 0.0 0.1 0.1 0.1 0.1 0.2 0.2 0.1 0.1 0.1 0.0 0.0
0.0 0.0 0.0 0.0 0.0 0.0 0.0 0.1 0.1 0.1 0.0 0.0 0.0 0.0 0.0 0.0 0.0 0.0 0.0 -0.0 -0.0 -0.0 -0.0 -0.2 -0.4 -0.4 -0.3 -0.2 -0.0 0.1 0.0 -0.0 -0.0 0.0 0.0 -0.0 0.1 0.1 0.2 0.2 0.2 0.2 0.1 0.1 0.1 0.0 0.0 0.0 0.0
0.0 0.0 0.0 0.0 0.0 0.0 0.0 0.1 0.0 0.2 0.1 0.0 -0.0 0.0 0.0 0.0 0.0 0.0 0.0 -0.0 -0.0 -0.0 -0.0 -0.2 -0.3 -0.2 -0.3 -0.2 -0.0 0.0 -0.0 -0.0 0.0 0.1 0.1 0.1 0.0 0.1 0.2 0.2 0.2 0.1 0.0 0.0 0.0 0.1 0.1 0.0 0.2
0.0 -0.0 -0.0 0.1 0.0 0.1 0.0 0.0 0.0 -0.0 0.1 0.0 0.0 0.0 0.0 0.0 0.0 0.0 0.0 -0.0 -0.0 -0.0 -0.0 -0.1 -0.2 -0.2 -0.1 -0.1 0.0 0.0 0.0 -0.0 0.0 0.0 -0.0 -0.0 0.1 0.2 0.3 0.1 0.1 0.1 -0.1 0.0 0.1 0.1 0.1 0.1 0.0
-0.0 -0.0 -0.0 -0.0 0.0 0.0 -0.1 0.0 0.0 0.1 0.0 0.0 0.0 0.0 0.0 0.0 0.0 -0.0 -0.0 -0.0 -0.0 -0.0 -0.0 -0.0 -0.2 -0.1 -0.1 -0.0 0.1 -0.0 -0.0 0.0 -0.1 -0.1 -0.1 0.1 0.0 0.2 0.3 0.0 0.0 -0.0 -0.2 -0.1 0.1 0.1 0.1 0.1 -0.1
0.0 0.1 0.0 -0.0 0.0 0.0 -0.0 0.0 0.1 0.1 -0.0 0.0 0.0 0.0 0.0 0.0 0.0 -0.0 -0.0 -0.0 -0.0 -0.0 -0.0 -0.1 -0.1 -0.1 -0.1 -0.0 0.1 0.1 0.0 -0.1 0.0 0.0 0.2 0.0 0.0 0.1 0.0 0.1 0.0 -0.1 -0.1 -0.0 0.0 0.1 0.3 0.1 -0.0
0.0 0.0 0.0 -0.0 -0.0 0.1 0.1 0.1 0.3 0.1 0.0 0.0 0.0 -0.0 0.0 0.1 0.0 -0.0 -0.0 -0.0 -0.0 -0.0 -0.0 -0.1 -0.1 -0.2 -0.1 -0.1 0.1 0.1 0.1 0.1 0.1 0.1 0.0 -0.2 0.0 0.1 0.1 0.2 0.2 0.0 0.1 0.0 0.1 0.1 0.1 0.0 0.1
-0.0 0.1 0.1 0.0 0.0 0.1 0.0 0.0 0.0 0.0 0.0 -0.0 0.0 0.0 0.1 0.1 0.0 0.0 -0.0 -0.0 -0.0 -0.0 -0.1 -0.0 -0.1 -0.1 0.2 0.2 0.1 0.1 0.1 0.2 0.0 -0.0 0.0 0.6 0.1 0.1 0.2 0.2 0.1 0.1 0.2 0.1 0.2 0.2 0.2 0.2 0.1
-0.0 0.1 0.0 0.0 0.0 0.1 0.1 0.0 -0.0 0.0 0.1 -0.0 -0.0 0.0 0.1 0.0 0.0 0.0 0.0 0.0 -0.0 -0.0 -0.0 -0.1 -0.1 -0.1 0.2 -0.0 0.2 0.2 0.1 0.1 0.1 0.1 0.2 0.2 0.1 0.1 0.0 -0.0 0.1 0.1 0.1 0.2 0.3 0.3 0.4 0.9 0.3
-0.0 0.0 0.1 0.0 0.0 0.1 0.2 0.1 -0.0 -0.0 0.1 0.0 0.0 0.1 0.0 0.1 0.1 0.1 0.0 0.0 0.0 -0.0 -0.0 -0.0 -0.2 0.0 -0.0 0.4 0.2 0.2 0.1 0.1 0.1 0.1 0.2 0.1 0.1 0.1 0.1 0.1 0.2 0.1 0.4 0.2 0.3 0.6 0.3 0.1 0.1
0.0 0.0 0.0 0.1 0.1 0.2 0.4 0.2 0.2 -0.0 0.3 0.1 0.0 0.1 0.1 0.1 0.1 0.0 0.0 0.0 0.0 0.0 -0.0 -0.0 -0.0 0.0 0.2 0.2 0.2 0.1 0.1 0.1 0.1 0.0 0.2 0.2 0.2 0.1 0.1 0.1 0.0 0.2 0.1 0.1 0.3 0.0 0.1 0.0 -0.1
-0.0 0.0 0.1 0.0 0.1 0.0 0.1 0.2 0.0 -0.0 0.2 0.1 0.1 0.1 0.1 0.0 0.0 0.0 0.0 -0.0 -0.0 0.0 -0.0 -0.0 0.0 0.1 0.2 0.3 0.2 0.1 0.1 0.1 0.1 0.1 0.1 0.1 0.1 0.1 0.1 -0.0 0.1 0.1 0.1 0.1 0.1 0.0 0.0 -0.1 -0.1
0.0 -0.0 0.1 0.0 0.1 0.1 0.1 0.1 0.0 0.1 0.1 0.1 0.1 0.1 0.1 0.0 0.0 0.0 0.0 0.0 -0.0 -0.0 -0.0 -0.0 0.0 0.1 0.1 0.2 0.2 0.2 0.2 0.1 0.1 0.0 -0.0 0.1 0.1 0.1 0.1 0.1 0.1 0.2 0.1 0.1 0.1 0.1 0.0 -0.0 -0.1
-0.0 0.0 0.0 -0.0 0.0 0.1 0.1 0.0 0.0 0.2 0.1 0.1 0.1 0.1 0.0 0.0 0.0 0.0 0.0 0.0 -0.0 -0.0 -0.0 0.0 0.1 0.1 0.1 0.1 0.2 0.2 0.1 0.1 0.1 -0.0 -0.0 0.1 0.2 0.0 0.1 0.0 0.1 0.2 0.0 0.1 0.0 0.0 0.0 0.0 -0.0
-0.0 -0.0 0.0 0.0 -0.0 0.0 0.0 0.1 0.1 0.0 0.1 0.0 0.1 0.1 0.0 0.0 0.0 0.0 0.0 -0.0 -0.0 -0.0 -0.0 0.0 0.0 0.0 0.1 0.1 0.1 0.1 0.1 0.1 0.0 0.0 -0.0 0.1 0.1 0.1 0.2 0.1 0.1 0.1 0.1 0.0 -0.0 0.0 0.1 0.0 -0.0
0.0 0.0 0.0 0.0 0.0 0.0 0.0 0.1 0.1 0.0 0.1 0.1 0.1 0.1 0.0 0.0 0.0 0.0 -0.0 -0.0 -0.0 -0.0 -0.0 0.0 0.1 0.0 0.0 0.1 0.0 0.1 0.0 0.1 0.1 0.0 0.0 -0.0 0.1 0.1 0.2 0.1 0.0 0.1 0.1 0.1 0.0 0.0 0.0 0.0 -0.0
0.0 0.0 0.0 0.0 0.0 -0.0 0.0 0.1 0.0 0.0 0.0 0.1 0.1 0.1 0.0 0.0 0.0 -0.0 -0.0 -0.0 -0.0 -0.0 0.0 0.1 0.1 0.1 -0.0 0.0 0.1 0.0 0.0 0.1 0.1 0.0 -0.0 -0.1 0.0 0.1 0.2 -0.0 0.0 0.1 0.1 0.1 0.0 0.0 0.0 0.0 0.0
0.0 0.0 0.0 0.0 0.0 0.1 0.1 0.1 0.1 0.1 -0.0 0.1 0.1 0.1 0.0 0.0 0.0 0.0 -0.0 -0.0 -0.0 -0.0 -0.1 0.0 0.1 0.1 0.1 0.0 0.0 0.0 0.0 0.0 0.0 0.0 -0.1 -0.1 -0.0 -0.0 0.0 -0.1 0.1 0.1 0.1 0.1 0.1 0.0 0.1 0.0 0.0
0.0 0.0 0.0 0.0 0.0 0.0 0.1 0.1 0.0 0.2 0.0 0.1 0.0 0.1 0.0 0.0 0.0 0.0 -0.0 -0.0 -0.0 -0.0 -0.1 -0.1 0.0 0.1 0.1 0.0 0.1 0.0 0.0 -0.0 -0.0 -0.0 -0.1 -0.1 -0.1 -0.1 -0.0 0.1 0.1 0.0 0.0 0.1 0.1 0.1 0.0 0.0 0.0
0.0 0.0 0.0 0.0 0.0 0.0 0.1 0.1 0.1 0.1 0.2 0.1 0.0 0.0 0.1 0.0 0.0 0.0 0.0 -0.0 -0.0 -0.0 -0.1 -0.1 -0.0 0.1 0.2 0.2 0.0 0.1 0.0 0.1 0.0 -0.1 -0.1 -0.2 -0.1 -0.1 -0.0 0.0 0.1 0.0 0.1 0.1 0.2 0.2 0.1 0.0 0.0
0.0 0.0 0.0 0.0 0.0 0.0 0.0 0.1 0.1 0.1 0.2 0.2 0.1 -0.0 0.1 0.1 0.0 0.1 0.1 0.0 0.0 -0.0 -0.1 0.0 0.1 0.2 0.3 0.3 0.0 0.1 0.0 -0.0 -0.0 -0.1 -0.1 -0.2 -0.2 -0.1 0.1 0.0 0.1 0.1 0.0 0.1 0.1 0.2 0.0 0.2 0.0
0.0 0.0 0.0 0.0 0.0 0.0 0.0 0.0 0.0 0.1 0.1 0.2 0.1 0.1 0.0 0.1 0.1 0.1 0.2 0.2 0.1 0.1 0.2 0.2 0.3 0.4 0.6 0.5 0.3 0.1 0.1 -0.0 -0.0 -0.0 -0.1 0.1 -0.3 -0.1 0.0 0.0 0.1 0.1 0.1 0.2 0.1 0.2 0.2 0.0 0.0
0.0 0.0 0.0 0.0 0.0 0.0 0.0 0.0 0.0 0.0 0.1 0.1 0.1 0.1 0.1 0.2 0.1 0.1 0.2 0.2 0.2 0.2 0.3 0.3 0.8 0.7 0.4 0.5 -0.0 0.4 0.1 0.0 -0.0 -0.0 -0.0 -0.0 -0.1 -0.2 -0.1 0.0 0.1 0.1 0.1 0.2 0.0 0.1 0.1 0.2 0.1
0.0 0.0 0.0 0.0 0.0 0.0 0.0 0.0 0.0 0.0 0.0 0.1 0.1 0.2 0.2 0.3 0.3 0.2 0.2 0.3 0.4 0.3 0.2 0.3 0.9 0.9 -0.1 -0.2 -0.2 -0.1 0.0 -0.2 0.0 0.0 -0.1 -0.0 -0.0 -0.1 -0.2 -0.1 0.1 0.0 0.1 0.0 -0.0 0.0 -0.0 0.1 0.2
0.0 0.0 0.0 0.0 0.0 0.0 0.0 0.0 0.0 0.0 0.0 0.0 0.1 0.1 0.1 0.2 0.3 0.4 0.3 0.3 0.4 0.5 0.4 0.3 0.8 0.9 0.2 -0.2 -0.1 1.1 -0.4 -0.2 -0.2 -0.2 0.0 -0.0 -0.0 -0.0 -0.1 -0.3 -0.0 0.0 -0.1 -0.0 -0.2 -0.2 -0.1 -0.0 0.1
0.0 0.0 0.0 0.0 0.0 0.0 0.0 0.0 0.0 0.0 0.0 0.0 0.0 0.0 0.1 0.1 0.2 0.4 0.4 0.4 0.4 0.5 0.9 1.0 1.5 1.3 0.8 0.0 1.2 1.2 -0.3 -0.3 -0.3 -0.1 -0.2 -0.0 0.0 0.0 -0.0 -0.1 -0.0 -0.0 0.0 -0.0 -0.3 -0.3 -0.4 -0.2 -0.0
0.0 0.0 0.0 0.0 0.0 0.0 0.0 0.0 0.0 0.0 0.0 0.0 0.0 0.0 0.1 0.2 0.2 0.3 0.4 0.5 0.4 0.4 0.5 0.4 0.3 0.9 1.0 0.6 0.6 0.5 -0.1 -0.1 0.1 -0.0 -0.2 -0.1 -0.0 0.0 0.1 -0.1 -0.1 -0.0 0.0 -0.0 -0.2 -0.5 -0.5 -0.3 -0.2
0.0 0.0 0.0 0.0 0.0 0.0 0.0 0.0 0.0 0.0 0.0 0.0 0.0 0.0 0.0 0.1 0.2 0.2 0.3 0.3 0.5 0.5 0.5 0.5 0.3 0.4 0.6 0.9 1.0 0.8 0.0 -0.1 0.1 -0.2 -0.3 -0.3 -0.1 -0.0 -0.1 -0.1 -0.1 0.0 0.1 0.1 0.1 -0.3 -0.4 -0.6 -0.4
0.0 0.0 0.0 0.0 0.0 0.0 0.0 0.0 0.0 0.0 0.0 0.0 0.0 0.0 0.0 0.1 0.1 0.2 0.2 0.3 0.4 0.6 0.5 0.6 0.5 0.4 0.5 1.3 1.6 0.8 0.9 0.6 0.4 -0.2 -0.4 -0.1 -0.3 -0.1 -0.1 -0.3 -0.1 -0.0 0.0 0.1 0.2 0.0 -0.4 -0.4 -0.5

GFSSGP_con_3kmehi_051.txt.gz
EHI
0.0 0.0 0.0 0.0 -0.0 0.1 0.2 0.1 0.2 0.0 0.0 0.0 0.0 0.0 0.0 0.2 0.1 0.1 0.0 -0.0 -0.0 -0.2 -0.3 -0.3 -0.5 -0.5 -0.4 -0.3 -0.2 -0.3 -0.2 -0.1 -0.2 -0.3 -0.2 -0.1 -0.1 0.1 0.1 0.1 0.1 0.2 0.3 0.2 0.2 0.2 0.2 0.1 0.4
0.0 0.0 0.0 0.0 -0.1 0.0 0.1 0.1 0.1 0.1 0.1 0.0 0.0 0.0 0.1 0.2 0.0 0.1 0.1 -0.0 -0.0 -0.1 -0.1 -0.2 -0.5 -0.3 -0.3 -0.4 -0.1 -0.3 -0.2 -0.2 -0.2 -0.1 -0.1 -0.1 -0.1 0.1 0.1 0.2 0.2 0.1 0.2 0.2 0.2 0.2 0.2 0.1 0.1
0.0 -0.0 0.0 0.0 0.0 0.0 0.1 0.2 0.0 0.1 0.0 0.1 0.1 0.1 0.3 0.0 0.0 0.1 0.1 -0.0 -0.0 -0.0 -0.0 -0.1 -0.3 -0.4 -0.3 -0.2 -0.1 -0.1 -0.1 -0.1 -0.0 -0.0 -0.0 0.0 0.1 0.1 0.1 0.1 0.2 0.1 0.1 0.1 0.1 0.1 0.0 0.1 0.0
0.0 0.0 -0.0 0.1 0.1 0.0 0.0 0.2 0.1 0.2 0.0 0.1 0.1 0.1 0.1 0.0 0.0 0.0 0.0 -0.0 0.0 -0.0 0.1 -0.1 -0.3 -0.3 -0.2 -0.0 0.1 -0.0 0.0 0.1 -0.0 0.0 0.0 0.1 0.1 0.2 0.2 0.2 0.2 0.1 0.0 0.0 0.0 0.0 -0.0 0.1 -0.0
0.0 -0.0 0.1 0.0 0.1 0.0 0.0 0.2 0.4 0.3 0.1 0.0 0.0 0.1 0.1 0.0 0.1 0.0 -0.0 -0.0 -0.0 0.1 -0.0 -0.0 -0.4 -0.2 -0.1 -0.0 0.0 -0.0 -0.0 0.0 -0.0 -0.0 0.0 0.1 0.1 0.2 0.2 0.1 0.0 -0.0 0.0 -0.0 0.0 0.1 0.1 0.0 0.1
0.0 -0.0 -0.1 -0.1 0.1 0.1 0.0 0.0 0.2 0.2 0.2 0.0 0.1 0.0 0.0 0.0 0.0 0.0 -0.0 -0.0 -0.0 0.1 0.0 0.0 -0.2 -0.1 -0.2 -0.2 -0.0 -0.0 -0.0 -0.0 -0.0 -0.0 0.1 0.0 0.3 0.4 0.3 0.1 -0.0 -0.1 -0.1 -0.1 -0.0 0.1 0.1 -0.0 0.0
0.0 0.1 0.2 0.1 0.0 0.0 0.2 0.1 0.2 0.1 -0.0 -0.0 0.1 0.1 0.0 0.0 -0.0 -0.0 -0.0 -0.0 -0.0 0.0 0.1 -0.0 -0.1 -0.2 -0.2 -0.2 -0.1 -0.0 0.0 0.0 -0.0 0.0 0.1 0.1 0.2 0.1 0.2 0.1 -0.0 -0.0 -0.0 -0.0 -0.1 0.0 0.1 0.2 0.2
0.0 0.3 0.1 -0.0 0.0 0.1 0.0 0.6 0.4 -0.0 0.0 0.1 -0.0 0.0 0.0 0.0 -0.0 -0.0 -0.0 -0.0 0.0 0.0 0.0 -0.0 -0.1 -0.1 -0.1 -0.2 -0.1 -0.1 0.1 0.0 -0.0 -0.0 0.1 0.1 0.1 0.3 0.2 0.2 0.0 0.0 0.0 -0.0 -0.0 -0.0 0.2 0.3 0.3
0.1 0.1 0.0 0.0 0.1 0.3 0.3 0.3 0.1 0.1 -0.0 -0.0 0.0 0.0 0.2 0.0 0.0 -0.0 -0.0 -0.0 0.0 0.0 0.0 0.0 -0.0 -0.1 -0.3 -0.1 -0.1 0.0 0.1 -0.1 -0.1 0.1 0.2 0.1 0.1 0.3 0.2 0.1 0.1 0.1 0.0 0.1 0.1 0.2 0.2 0.2 0.2
-0.0 0.0 0.0 0.0 0.0 -0.0 0.3 0.2 0.0 -0.0 0.0 0.0 0.0 0.3 0.1 0.0 0.0 0.0 0.0 -0.0 0.0 0.0 0.0 -0.0 0.0 0.1 0.1 -0.0 0.0 -0.1 0.1 0.1 0.1 0.1 0.8 0.7 0.1 0.1 0.1 0.1 0.2 0.2 0.2 0.3 0.5 0.2 0.1 0.3 0.1
-0.0 0.0 0.0 0.1 0.1 0.1 0.5 0.2 -0.0 -0.1 0.0 0.0 0.1 0.4 0.1 0.1 0.0 0.0 -0.0 0.0 0.0 -0.0 -0.0 0.1 0.3 -0.0 0.1 0.4 0.0 0.1 0.1 0.1 0.2 0.0 0.2 -0.0 -0.1 0.1 0.1 0.3 0.3 0.4 0.3 0.2 0.4 0.1 0.5 0.3 0.6
0.0 0.0 0.0 0.0 0.1 0.2 0.5 0.3 0.0 0.1 0.3 0.1 0.1 0.2 0.1 0.2 0.0 -0.0 -0.0 0.0 0.0 -0.0 -0.0 0.1 0.1 0.1 0.3 -0.1 0.0 0.2 -0.0 0.1 0.0 0.1 0.2 0.1 0.1 0.2 -0.0 0.3 0.1 -0.1 0.2 0.1 0.1 -0.1 0.1 0.2 0.1
-0.0 0.0 0.1 0.1 0.1 0.1 0.2 -0.0 0.1 0.1 0.1 0.2 0.1 0.1 0.1 0.1 0.0 -0.0 -0.0 0.0 0.0 -0.0 0.0 0.1 0.0 0.1 0.4 0.8 0.4 0.1 0.1 0.1 0.1 0.0 0.2 0.5 0.3 0.1 0.0 0.1 0.2 0.2 0.1 0.1 0.2 -0.0 0.0 -0.0 -0.0
0.0 0.0 0.0 0.0 0.0 0.0 0.0 0.1 0.0 -0.0 0.2 0.3 0.1 0.0 0.0 0.1 0.0 0.0 -0.0 0.0 0.0 -0.0 0.0 0.0 0.0 0.2 0.3 0.8 0.4 0.5 0.3 0.4 0.0 0.0 0.0 0.2 0.4 0.2 -0.0 0.1 0.0 0.3 0.0 -0.0 0.1 0.2 0.1 0.1 -0.0
0.0 0.0 0.0 0.0 0.0 0.0 0.0 0.0 0.0 -0.0 0.3 0.3 0.1 0.0 0.0 0.0 -0.0 0.0 0.0 0.0 0.0 -0.0 0.0 0.1 0.0 0.1 0.2 0.6 0.2 0.4 0.3 -0.0 0.1 0.2 0.0 0.2 0.1 0.0 0.2 0.1 0.1 0.3 0.1 -0.0 0.0 0.0 0.2 0.0 0.1
0.0 0.0 0.0 0.0 0.1 -0.0 0.1 0.0 0.1 0.4 0.3 0.3 0.2 0.1 0.1 0.0 0.0 0.0 -0.0 -0.0 0.0 -0.0 0.0 0.1 0.0 0.0 0.0 0.2 0.2 0.3 -0.0 0.2 0.0 0.1 0.1 0.0 -0.0 0.1 0.3 0.1 0.1 0.0 0.1 0.1 0.0 0.0 -0.0 0.1 0.1
0.0 0.0 -0.0 0.0 0.1 -0.0 -0.0 0.1 0.0 0.3 0.3 0.3 0.2 0.1 0.1 0.0 0.0 0.0 0.0 -0.0 0.0 0.0 -0.0 0.1 0.0 0.0 -0.1 0.2 0.1 0.2 0.1 0.3 0.1 0.1 0.2 0.1 0.2 0.2 0.3 -0.1 0.0 0.3 0.3 0.3 0.1 -0.0 0.0 0.2 0.0
0.0 0.0 -0.0 0.0 0.0 0.0 0.0 0.3 0.0 0.1 0.2 0.3 0.2 0.1 0.1 0.1 0.0 0.0 -0.0 0.0 0.0 0.0 0.0 0.1 0.1 0.3 0.1 -0.2 0.1 0.1 -0.0 0.3 0.0 0.1 0.1 -0.0 0.1 0.0 0.1 -0.1 -0.1 0.0 0.1 0.1 0.3 0.1 0.1 0.2 0.0
0.0 0.0 0.0 0.0 0.0 0.0 0.0 0.1 -0.0 0.2 0.2 0.4 0.2 0.2 0.1 0.2 0.1 0.0 -0.0 0.0 0.0 0.0 0.0 0.1 0.2 0.7 0.2 -0.0 0.0 0.0 0.0 0.1 0.0 -0.1 -0.0 -0.1 0.0 0.1 0.0 -0.1 -0.0 0.3 0.1 0.1 0.0 0.0 0.1 0.0 0.0
0.0 0.0 0.0 0.0 0.0 0.1 0.1 0.0 0.2 0.3 0.2 0.4 0.3 0.2 0.1 0.1 0.1 0.1 -0.0 0.0 0.0 0.0 0.0 0.1 0.6 0.9 -0.1 0.1 0.2 0.1 0.1 -0.0 0.0 0.0 -0.1 0.1 0.0 -0.0 0.0 0.0 0.1 -0.1 0.0 0.1 0.0 0.1 0.1 0.0 0.1
0.0 0.0 0.0 0.0 0.0 0.0 0.0 0.1 0.1 0.3 0.3 0.4 0.3 0.3 0.2 0.1 0.2 0.1 0.0 0.0 0.0 0.0 0.0 0.2 0.8 1.0 0.3 0.1 0.2 0.2 0.2 0.2 0.0 -0.1 -0.1 -0.0 -0.0 -0.0 0.0 0.0 0.1 -0.0 0.2 0.2 0.1 0.1 0.5 0.1 0.0
0.0 0.0 0.0 0.0 0.0 0.0 0.0 0.0 0.1 0.1 0.1 0.5 0.3 0.3 0.3 0.1 0.1 0.2 0.1 0.0 0.0 0.1 0.0 0.4 0.7 1.2 0.6 0.4 -0.0 0.2 0.0 -0.0 -0.0 0.0 -0.0 -0.2 -0.1 -0.1 -0.0 -0.0 0.0 0.1 0.1 0.2 0.2 0.1 0.5 0.3 0.1
0.0 0.0 0.0 0.0 0.0 0.0 0.0 0.0 0.0 0.1 0.4 0.3 0.3 0.3 0.3 0.2 0.1 0.2 0.2 0.2 0.1 0.1 0.2 0.2 0.9 1.3 1.1 0.5 0.3 0.4 0.1 -0.0 -0.0 0.0 1.4 0.1 -0.4 -0.1 -0.0 0.1 0.1 0.2 0.2 0.1 0.1 0.0 0.2 0.0 0.4
0.0 0.0 0.0 0.0 0.0 0.0 0.0 0.0 0.0 0.1 0.1 0.2 0.3 0.4 0.3 0.2 0.2 0.2 0.2 0.2 0.1 0.2 0.3 0.6 1.4 1.5 1.6 1.0 -0.1 0.9 0.1 0.0 -0.0 -0.0 -0.1 -0.1 -0.1 -0.1 -0.0 0.1 0.1 0.1 0.1 0.1 0.2 0.2 0.1 0.3 0.1
0.0 0.0 0.0 0.0 0.0 0.0 0.0 0.0 0.0 0.0 0.1 0.0 0.3 0.4 0.5 0.3 0.2 0.2 0.3 0.2 0.5 0.6 0.7 1.2 2.3 1.7 1.8 1.5 0.3 1.0 1.1 -0.3 0.7 0.4 -0.0 -0.1 -0.0 0.0 0.9 0.1 0.0 0.0 -0.0 0.0 0.1 0.1 0.1 0.1 0.1
0.0 0.0 0.0 0.0 0.0 0.0 0.0 0.0 0.0 0.0 0.0 0.0 0.0 0.4 0.4 0.4 0.3 0.3 0.3 0.3 0.8 1.0 1.5 1.5 2.8 2.4 1.9 1.8 1.4 0.9 1.6 0.2 -0.0 0.1 0.0 -0.0 -0.0 -0.0 2.7 0.2 -0.0 -0.0 0.1 -0.0 0.0 0.1 0.1 0.1 0.1
0.0 0.0 0.0 0.0 0.0 0.0 0.0 0.0 0.0 0.0 0.0 0.0 0.0 0.2 0.1 0.4 0.3 0.4 0.4 0.4 0.7 0.7 1.7 1.8 3.0 3.3 2.7 1.0 2.0 2.2 1.8 -0.2 0.0 -0.1 -0.2 0.2 0.0 0.1 0.6 0.1 -0.2 -0.0 -0.0 0.0 0.1 -0.1 0.1 0.1 0.1
0.0 0.0 0.0 0.0 0.0 0.0 0.0 0.0 0.0 0.0 0.0 0.0 0.0 0.0 0.1 0.1 0.3 0.4 0.5 0.5 0.5 0.5 0.8 1.3 1.6 3.2 3.1 2.2 2.4 2.3 2.0 1.6 0.6 1.2 1.0 -0.3 0.3 0.3 0.5 0.2 -0.2 -0.1 -0.1 -0.0 0.0 -0.1 0.0 -0.0 -0.0
0.0 0.0 0.0 0.0 0.0 0.0 0.0 0.0 0.0 0.0 0.0 0.0 0.0 0.0 0.0 0.0 0.3 0.3 0.5 0.7 0.5 0.4 0.4 0.7 1.2 1.7 1.7 2.0 2.3 1.8 1.7 1.3 1.4 1.7 1.1 0.3 0.5 0.9 0.5 0.5 -0.2 -0.2 -0.1 0.1 0.1 -0.8 -0.3 0.1 -0.2
0.0 0.0 0.0 0.0 0.0 0.0 0.0 0.0 0.0 0.0 0.0 0.0 0.0 0.0 0.0 0.0 0.1 0.4 0.3 0.5 0.7 0.5 0.5 0.5 0.6 0.7 1.2 1.5 2.7 2.2 2.3 1.9 1.4 0.6 1.0 1.8 0.3 0.7 0.8 0.4 0.6 -0.2 -0.0 0.3 0.4 0.0 -0.2 -0.0 -0.2

GFSSGP_con_3kmehi_054.txt.gz
EHI
0.0 0.0 0.0 0.0 -0.0 -0.0 0.1 0.0 -0.1 0.1 0.1 -0.0 0.0 0.1 0.0 0.1 -0.0 0.1 -0.0 -0.0 -0.0 -0.1 -0.1 -0.2 -0.3 -0.4 -0.3 -0.2 0.1 -0.1 -0.2 -0.1 -0.1 0.0 0.1 0.1 0.1 0.1 0.1 0.1 0.1 0.2 0.2 0.2 0.2 0.2 0.1 0.3 0.3
0.0 0.0 0.0 0.0 -0.1 -0.0 0.1 0.0 0.2 0.0 0.0 0.1 0.1 0.1 0.1 0.1 0.0 0.0 0.0 -0.0 -0.1 -0.0 -0.1 -0.2 -0.3 -0.4 -0.3 -0.2 -0.2 -0.1 -0.1 -0.0 0.1 0.2 0.2 0.1 0.1 0.2 0.2 0.1 0.1 0.2 0.3 0.2 0.2 0.2 0.2 0.1 0.2
0.0 -0.0 -0.0 -0.0 -0.0 0.0 -0.1 0.3 0.2 0.1 0.1 0.0 0.4 0.3 0.1 0.0 0.0 0.0 0.0 -0.0 -0.1 -0.1 -0.1 -0.1 -0.3 -0.4 -0.3 -0.3 -0.2 -0.1 0.1 0.1 0.2 0.2 0.2 0.1 0.1 0.1 0.1 0.2 0.2 0.2 0.2 0.1 0.1 0.1 0.1 0.1 0.1
0.0 0.0 0.1 0.1 0.1 0.0 0.0 0.0 0.2 -0.0 0.0 0.2 0.2 0.2 0.1 0.0 0.0 0.0 -0.0 -0.1 -0.1 0.1 0.1 -0.0 -0.2 -0.4 -0.4 0.0 0.0 0.0 0.1 0.1 0.1 0.0 0.1 0.0 0.0 0.2 0.2 0.1 0.1 0.1 0.0 0.0 0.0 -0.0 0.1 -0.0 0.0
0.0 0.0 0.0 0.0 0.1 0.0 0.1 0.3 0.2 0.4 0.5 0.3 0.1 0.2 0.1 0.1 0.0 0.0 -0.0 -0.1 0.0 0.3 0.1 0.1 -0.1 -0.1 -0.3 -0.0 -0.0 0.0 0.1 0.0 0.0 0.0 0.0 0.1 0.2 0.1 0.2 0.1 0.0 0.1 0.0 0.0 0.0 0.0 0.1 0.1 0.1
0.0 0.0 -0.0 -0.0 -0.0 0.1 0.0 0.3 0.6 0.4 0.3 0.2 0.1 0.1 0.1 0.0 0.0 0.0 -0.0 -0.0 0.3 0.1 0.1 0.1 0.1 -0.3 -0.2 -0.1 -0.0 0.0 0.0 -0.0 0.0 0.0 0.1 0.3 0.3 0.4 0.3 0.1 -0.0 -0.0 -0.0 0.0 0.1 0.0 0.1 0.2 0.3
0.0 0.1 0.1 0.0 -0.0 0.2 0.1 0.1 0.1 0.1 0.1 0.1 0.0 0.0 0.1 0.0 0.0 -0.0 -0.0 0.0 0.0 0.0 0.1 0.1 0.0 -0.0 -0.2 -0.2 -0.0 -0.0 -0.1 -0.0 0.1 0.1 0.2 0.4 0.4 0.3 0.3 0.2 0.0 0.0 0.1 0.1 0.1 0.2 0.3 0.3 0.3
0.0 0.1 0.1 0.0 0.0 0.2 0.1 0.0 0.1 0.0 0.0 -0.0 0.1 0.0 0.1 0.0 -0.0 -0.0 -0.0 0.0 0.0 0.1 0.0 0.0 -0.0 -0.1 -0.2 -0.1 -0.1 -0.1 -0.1 0.0 0.1 0.2 0.3 0.2 0.3 0.3 0.3 0.4 0.1 0.1 0.2 0.1 0.0 0.2 0.4 0.5 0.3
-0.0 0.0 0.2 -0.0 0.0 0.1 0.5 0.4 0.0 0.0 0.0 -0.0 0.0 0.1 0.1 0.0 -0.0 -0.0 -0.0 0.0 0.0 0.0 -0.0 0.0 -0.0 -0.1 -0.1 -0.1 -0.2 -0.1 -0.0 0.0 0.2 0.1 0.3 0.0 0.2 0.4 0.3 0.3 0.2 0.2 0.2 0.1 0.0 0.1 0.6 0.7 0.5
-0.0 0.0 0.0 -0.0 0.0 0.2 0.0 0.4 0.4 0.0 -0.0 -0.0 0.1 0.4 0.0 0.0 0.0 -0.0 -0.0 0.0 0.0 0.0 0.0 0.0 0.0 -0.0 -0.2 0.0 -0.1 -0.0 -0.1 -0.0 0.2 0.1 0.2 0.2 -0.2 0.6 0.3 0.2 0.2 0.2 0.1 0.2 0.3 0.2 0.1 -0.0 -0.1
0.0 0.0 -0.0 0.0 -0.0 0.2 0.0 0.2 0.1 0.0 0.0 0.1 0.4 0.3 0.1 0.0 0.0 -0.0 -0.0 0.0 -0.0 0.0 -0.0 0.0 0.5 -0.2 -0.2 0.1 -0.1 -0.0 -0.4 -0.1 0.1 0.2 0.0 0.5 0.1 0.1 0.0 0.0 0.1 -0.0 0.1 0.1 0.2 0.3 0.0 0.0 0.1
0.0 0.0 -0.0 0.0 0.1 0.2 0.3 0.7 0.2 0.1 0.0 0.1 0.4 0.2 0.1 0.0 0.0 0.0 -0.0 0.0 -0.0 0.0 0.1 0.5 0.5 1.0 0.7 0.1 -0.2 0.0 -0.1 -0.1 -0.4 0.0 0.4 0.4 -0.0 0.2 0.1 0.2 0.3 0.1 0.3 0.5 0.2 0.5 0.0 0.0 0.7
-0.0 0.0 0.0 0.0 -0.0 0.3 0.3 0.3 0.2 -0.0 0.0 0.1 0.3 0.1 0.0 0.0 0.0 -0.0 -0.0 0.0 -0.0 0.0 0.0 0.5 1.2 0.5 -0.1 0.7 0.2 0.0 0.0 -0.1 0.7 0.2 0.0 -0.1 0.3 0.2 0.3 -0.0 0.0 0.1 0.1 0.1 0.1 0.2 0.8 0.1 0.0
0.0 -0.0 0.0 0.0 0.0 0.1 0.2 0.0 -0.0 0.0 0.0 0.2 0.1 0.1 0.0 -0.0 -0.0 -0.0 -0.0 0.0 0.0 0.0 0.1 0.3 0.6 0.4 0.0 0.2 0.4 0.2 0.5 0.1 0.0 -0.1 0.5 0.1 0.0 0.2 0.3 0.1 0.1 0.1 -0.1 0.2 0.0 0.4 0.3 0.1 -0.0
0.0 0.0 0.0 0.0 0.1 0.0 0.1 0.0 0.0 0.3 -0.0 0.3 0.1 0.0 0.0 -0.0 -0.0 -0.0 -0.0 0.0 0.0 0.0 0.1 0.0 -0.2 0.1 0.7 0.7 1.1 1.6 0.1 0.4 0.6 0.6 0.2 0.3 0.2 0.1 0.2 0.1 0.1 0.0 0.3 0.5 0.3 0.3 0.0 0.1 0.1
0.0 0.0 0.0 -0.0 0.1 0.0 0.1 0.0 -0.0 0.4 0.0 0.2 0.1 0.0 0.2 -0.0 -0.0 -0.0 -0.0 0.0 0.0 0.0 0.4 0.1 -0.0 0.1 0.3 0.6 0.6 0.3 0.1 0.5 0.3 0.1 -0.1 0.2 0.0 0.2 0.0 0.4 0.2 0.3 0.2 0.0 0.0 -0.0 0.3 0.0 0.3
0.0 0.0 -0.0 0.0 0.0 -0.0 0.1 0.0 0.4 0.2 -0.2 0.5 0.2 0.1 0.1 -0.0 -0.1 0.0 0.0 0.0 0.1 0.2 0.7 0.1 0.2 0.1 0.3 0.3 0.2 0.1 0.3 -0.0 0.1 -0.1 0.3 0.5 0.3 -0.1 0.1 0.2 0.0 0.0 0.0 0.1 0.2 0.6 0.2 0.4 0.1
0.0 0.0 0.0 -0.0 0.0 0.1 0.0 0.1 0.3 0.0 0.0 0.7 0.4 0.2 0.2 0.0 -0.0 0.0 0.0 -0.0 0.1 0.3 0.6 0.1 0.3 0.3 0.0 0.3 0.5 0.6 0.2 0.2 0.1 0.1 0.5 0.5 0.3 0.7 0.3 0.2 0.1 0.0 -0.0 -0.0 0.1 0.1 0.0 0.2 0.0
0.0 0.0 -0.0 0.0 -0.0 0.1 0.1 0.2 0.0 0.0 0.0 -0.2 0.7 0.2 0.2 0.1 -0.0 0.0 -0.0 0.0 0.1 0.1 0.4 0.5 0.5 0.7 0.3 0.4 0.1 -0.0 -0.1 0.1 -0.1 0.1 0.3 0.1 0.2 0.7 0.2 0.0 0.2 0.1 0.1 0.1 0.5 0.2 0.4 0.3 0.0
0.0 0.0 0.0 0.0 0.0 0.0 0.6 0.2 0.1 0.0 -0.1 -0.1 0.8 0.2 0.1 0.1 0.2 0.0 -0.0 0.0 0.0 0.1 0.3 0.6 0.8 0.8 0.4 0.0 -0.1 0.0 -0.1 -0.2 -0.0 0.0 0.2 -0.0 0.0 -0.1 0.5 0.2 0.3 -0.0 0.2 0.3 -0.3 0.1 0.4 -0.0 0.2
0.0 0.0 0.0 0.0 0.0 0.0 0.0 0.1 0.0 0.0 -0.0 0.0 0.4 0.2 0.1 0.2 0.4 0.3 0.0 0.0 0.1 0.2 0.4 0.6 1.0 0.7 0.4 0.4 -0.2 0.1 0.3 0.2 -0.0 0.4 0.0 -0.1 0.0 0.2 0.1 0.0 0.4 0.1 0.3 0.3 0.0 0.1 0.4 0.3 -0.1
0.0 0.0 0.0 0.0 0.0 0.0 0.0 0.0 0.1 0.2 -0.0 0.0 0.0 0.3 0.2 0.2 0.3 0.6 0.2 0.1 0.1 0.4 0.5 0.8 1.0 1.0 0.3 -0.4 -0.2 0.0 -0.1 -0.1 -0.1 0.5 -0.1 0.1 0.3 0.3 0.2 -0.0 0.3 0.1 0.1 0.3 0.3 0.0 -0.1 0.1 0.2
0.0 0.0 0.0 0.0 0.0 0.0 0.0 0.0 0.0 1.1 0.2 0.0 0.0 0.4 0.4 0.2 0.3 0.5 0.4 0.3 0.1 0.5 0.6 0.7 0.9 1.2 0.4 -0.2 0.1 -0.1 -0.0 -0.2 0.1 -0.1 0.9 1.3 0.1 0.4 0.4 0.4 0.1 0.2 0.3 0.6 0.7 -0.2 -0.2 0.3 0.3
0.0 0.0 0.0 0.0 0.0 0.0 0.0 0.0 0.0 0.1 0.3 0.0 0.0 0.1 0.2 0.3 0.3 0.5 0.5 0.3 0.2 0.5 0.5 1.0 1.0 0.8 0.8 0.0 0.0 -0.1 -0.2 -0.0 0.0 -0.2 0.6 0.5 0.2 0.1 -0.1 0.4 0.2 0.1 0.2 0.4 0.5 -0.0 -0.3 -0.5 0.1
0.0 0.0 0.0 0.0 0.0 0.0 0.0 0.0 0.0 0.0 0.8 0.6 0.0 0.0 -0.0 0.7 0.4 0.6 0.6 0.4 0.3 0.3 0.8 1.2 1.5 1.1 0.9 0.5 -0.2 0.9 0.0 -0.5 -0.2 0.0 -0.1 -0.0 0.3 0.2 0.6 1.3 0.6 0.0 0.1 0.2 0.3 0.1 -0.1 -0.4 0.1
0.0 0.0 0.0 0.0 0.0 0.0 0.0 0.0 0.0 0.0 0.0 0.6 0.3 0.0 0.0 0.8 0.7 0.5 0.6 0.5 0.5 0.4 0.9 1.3 2.3 1.7 1.5 1.2 0.1 0.6 1.3 -0.2 -0.1 0.6 0.0 0.2 -0.2 0.8 2.1 1.9 1.1 0.3 0.1 0.1 0.2 0.1 0.2 0.1 0.1
0.0 0.0 0.0 0.0 0.0 0.0 0.0 0.0 -0.0 0.0 0.0 0.1 0.1 0.3 0.1 0.1 0.2 0.6 0.8 0.6 0.7 0.5 0.9 1.7 2.7 2.4 2.2 1.5 1.3 0.5 1.4 0.9 0.1 0.5 0.2 0.5 -0.5 0.1 2.4 1.8 1.2 0.3 0.6 -0.0 0.3 -0.0 0.2 0.0 0.2
0.0 0.0 0.0 0.0 0.0 0.0 0.0 0.0 0.0 0.0 0.0 0.0 0.1 0.0 0.0 0.1 0.0 0.2 0.9 0.9 1.0 0.7 1.0 1.3 2.7 2.8 2.6 1.9 2.0 1.5 0.7 0.9 1.2 -0.0 0.4 0.2 0.4 -0.1 1.6 1.6 0.6 0.5 0.2 0.3 0.3 -0.1 0.3 -0.1 0.2
0.0 0.0 0.0 0.0 0.0 0.0 0.0 0.0 0.0 0.0 0.0 0.0 0.2 0.1 0.0 0.1 0.2 0.1 0.2 1.1 1.1 1.2 1.1 1.3 2.0 3.2 2.7 2.3 1.7 1.5 1.2 0.9 0.5 1.3 -0.0 1.3 -0.3 1.0 1.7 2.0 1.6 0.9 0.4 0.2 0.2 -0.4 -0.5 0.3 0.3
0.0 0.0 0.0 0.0 0.0 0.0 0.0 0.0 0.0 0.0 0.0 0.0 0.0 0.0 0.2 0.6 0.6 -0.0 -0.0 0.0 1.8 1.5 0.9 1.4 1.4 2.7 3.1 2.7 2.0 1.7 1.7 1.0 0.8 0.3 1.5 0.7 2.3 1.8 2.2 2.8 2.2 1.3 1.0 0.5 0.5 0.1 -0.6 0.2 0.2

GFSSGP_con_3kmehi_057.txt.gz
EHI
0.0 0.0 0.0 0.0 -0.0 0.0 0.0 0.0 -0.0 -0.0 0.0 0.0 0.1 0.1 0.0 0.0 -0.0 -0.0 -0.0 -0.0 -0.0 -0.0 -0.2 -0.2 -0.3 -0.2 -0.1 -0.2 -0.1 0.1 0.2 0.2 0.0 0.1 0.1 0.1 0.1 0.2 0.2 0.2 0.2 0.2 0.3 0.2 0.1 0.2 0.3 0.3 0.5
0.0 0.0 0.0 0.0 -0.0 0.0 0.0 0.0 0.0 0.1 0.1 0.1 0.3 0.0 0.0 0.0 0.0 0.0 0.0 -0.0 -0.0 -0.0 -0.2 -0.3 -0.3 -0.2 -0.1 -0.1 -0.1 -0.1 -0.2 -0.1 0.1 0.1 0.1 0.1 0.2 0.2 0.2 0.2 0.3 0.3 0.2 0.2 0.1 0.1 0.1 0.3 0.4
0.0 0.0 0.0 -0.0 -0.0 -0.0 0.0 0.1 0.2 0.1 0.2 0.3 0.2 0.1 0.0 0.0 0.0 0.0 0.0 -0.0 -0.0 -0.0 -0.1 -0.2 -0.2 -0.1 -0.0 -0.1 -0.1 -0.2 -0.1 0.2 0.1 0.1 0.1 0.1 0.1 0.1 0.2 0.2 0.2 0.2 0.1 0.0 -0.0 0.1 0.1 0.1 0.2
-0.0 -0.0 0.0 0.0 0.0 0.0 0.0 0.1 0.1 0.2 0.5 0.1 0.1 0.0 0.0 0.0 0.0 -0.0 -0.0 -0.0 -0.0 0.0 0.1 -0.1 -0.1 -0.0 -0.1 -0.1 0.0 0.1 0.1 0.1 0.1 0.2 0.1 0.1 0.1 0.2 0.2 0.2 0.1 0.1 0.2 0.1 0.1 0.1 -0.0 0.1 0.2
0.0 -0.0 -0.0 -0.0 0.0 0.0 0.1 0.0 0.0 -0.0 0.2 0.0 0.0 0.0 0.0 -0.0 0.0 -0.0 -0.0 -0.0 0.3 0.3 0.1 -0.1 -0.0 0.0 0.0 0.0 0.1 0.1 0.1 0.1 0.1 0.1 0.1 0.2 0.2 0.2 0.2 0.1 0.2 0.1 0.1 0.1 0.2 0.1 0.1 0.1 0.1
-0.0 0.0 -0.0 -0.0 -0.0 0.0 0.1 -0.0 0.0 0.3 0.1 0.0 0.0 0.0 0.0 -0.0 -0.0 -0.0 -0.1 0.1 0.3 0.3 0.2 0.1 0.1 0.1 -0.1 0.2 0.1 0.0 0.0 0.1 0.1 0.1 0.2 0.3 0.3 0.3 0.1 0.1 0.1 0.1 0.1 0.2 0.2 0.3 0.2 0.1 0.1
-0.0 0.0 0.0 0.0 0.0 0.0 0.1 -0.0 -0.0 0.1 0.2 0.0 0.0 0.0 0.0 -0.0 -0.0 -0.0 -0.0 0.1 0.1 0.3 0.5 0.2 -0.1 -0.1 -0.0 0.0 -0.0 -0.0 0.0 0.0 0.1 0.1 0.3 0.4 0.4 0.3 0.2 0.2 0.1 0.1 0.1 0.2 0.3 0.4 0.3 0.2 0.2
0.0 0.0 0.1 0.1 0.0 -0.0 0.1 -0.1 0.0 0.0 0.1 0.0 0.0 0.0 0.0 -0.0 -0.0 -0.0 0.0 0.0 0.3 0.3 0.2 0.1 0.0 -0.1 -0.2 -0.2 -0.1 -0.1 -0.0 0.1 0.1 0.1 0.2 0.2 0.3 0.3 0.2 0.1 0.2 0.2 0.1 0.2 0.2 0.2 0.2 0.1 0.2
0.0 0.0 0.1 0.0 0.0 0.0 0.0 0.0 0.0 0.0 0.0 -0.0 -0.0 0.0 0.0 -0.0 -0.0 0.0 0.0 0.0 0.0 0.0 0.1 0.0 -0.1 -0.2 -0.2 -0.2 -0.1 -0.1 0.1 0.1 0.1 0.1 0.2 0.1 0.0 0.0 0.2 0.2 0.2 0.1 0.2 0.1 0.2 0.0 -0.1 -0.1 0.1
-0.0 0.0 0.0 -0.0 0.0 0.1 0.0 0.1 0.0 0.1 -0.0 -0.1 0.0 0.0 0.0 0.0 -0.0 0.0 0.0 0.0 0.0 -0.0 -0.0 -0.0 -0.0 -0.0 -0.1 -0.1 -0.1 -0.1 -0.0 0.0 -0.1 -0.1 -0.0 0.1 0.1 0.0 0.1 0.2 0.2 0.0 0.1 0.1 0.1 0.0 0.0 -0.0 0.0
-0.0 0.0 -0.0 -0.0 0.1 0.3 0.0 -0.1 -0.0 0.0 -0.0 -0.1 0.2 0.0 0.0 0.0 -0.0 0.0 0.0 0.0 0.0 -0.0 -0.0 -0.0 -0.1 -0.1 -0.1 -0.1 -0.2 -0.2 -0.2 -0.1 0.0 0.1 -0.0 0.1 0.0 0.1 -0.0 -0.0 -0.0 0.0 0.1 0.1 0.0 0.0 0.0 0.0 0.1
0.0 0.0 0.0 0.0 0.4 0.6 0.4 0.1 0.0 0.0 0.0 0.3 0.1 0.0 0.0 0.0 0.0 0.0 0.0 0.0 -0.0 0.0 0.0 0.0 -0.1 -0.1 0.0 -0.2 -0.3 -0.2 -0.2 0.0 -0.0 -0.0 -0.0 0.1 -0.0 0.0 0.0 0.0 0.0 0.0 0.1 0.0 0.0 0.0 0.0 0.0 0.0
0.0 0.0 0.0 0.0 0.2 0.5 0.2 0.2 0.3 0.1 0.0 0.1 0.1 0.0 0.0 0.0 0.0 0.0 0.0 -0.0 0.0 0.1 0.2 0.2 0.0 0.0 -0.0 -0.0 -0.1 -0.0 -0.0 0.0 0.0 0.0 0.0 -0.0 0.0 0.0 0.1 -0.0 0.0 0.1 0.0 0.2 0.1 0.0 0.0 0.1 0.1
0.0 0.0 0.0 0.0 0.2 0.2 0.2 0.1 0.1 0.0 0.0 0.0 0.1 0.0 0.0 0.0 -0.0 -0.0 -0.0 -0.0 0.1 0.1 0.2 0.0 0.0 0.0 -0.0 0.2 -0.0 -0.0 -0.0 0.0 0.2 0.1 0.0 0.0 0.1 0.1 0.1 0.0 0.1 0.0 0.0 0.0 0.0 0.1 0.0 -0.1 0.1
0.0 0.0 0.0 0.0 0.1 -0.0 0.1 0.0 0.0 0.1 0.0 0.1 0.0 0.0 0.0 0.0 -0.0 -0.0 -0.0 0.0 0.0 0.3 0.2 0.0 0.0 0.0 0.0 0.2 -0.0 0.0 -0.1 -0.2 0.0 -0.0 -0.0 -0.0 0.0 0.0 0.1 -0.0 -0.0 0.0 0.1 0.2 0.1 0.0 0.0 0.1 0.0
0.0 0.0 -0.0 0.0 0.0 0.1 0.1 0.1 0.4 0.5 0.1 0.1 0.1 0.0 -0.0 -0.0 -0.0 -0.0 -0.0 0.0 0.1 0.3 0.1 0.1 0.0 0.0 -0.1 0.0 -0.0 -0.1 0.0 -0.0 0.1 0.1 0.1 0.1 0.1 0.1 0.2 -0.0 0.2 0.0 0.1 0.0 0.0 0.0 0.0 0.0 0.0
0.0 0.0 0.0 0.0 0.0 0.2 0.2 0.3 0.4 0.8 0.2 0.1 0.1 0.0 -0.0 -0.0 -0.0 -0.0 -0.0 0.0 0.0 0.0 0.1 0.0 -0.0 0.0 -0.1 0.0 -0.0 -0.0 0.1 -0.0 -0.2 -0.0 0.1 0.1 0.1 0.0 0.0 -0.0 0.0 0.0 0.0 0.0 0.0 0.0 0.0 0.0 0.0
0.0 0.0 0.0 0.0 0.0 0.2 0.4 0.5 0.4 0.1 0.2 0.3 0.1 0.1 -0.0 -0.0 -0.0 -0.0 0.0 0.0 0.1 0.0 0.0 0.0 0.0 0.1 -0.0 -0.2 -0.1 0.0 -0.0 -0.0 0.0 -0.1 -0.0 0.1 0.0 -0.0 0.0 0.0 0.1 0.0 -0.0 0.0 0.0 0.1 0.0 0.0 0.0
0.0 0.0 0.0 0.0 0.0 0.0 0.6 1.3 0.9 0.1 0.2 0.3 -0.1 0.1 0.1 -0.0 -0.1 -0.0 0.0 0.0 0.1 0.0 0.0 0.0 0.2 0.0 0.1 -0.3 -0.3 -0.1 -0.0 -0.1 -0.1 0.0 0.2 0.2 0.2 0.1 0.1 0.0 0.1 0.0 0.0 0.0 0.1 0.0 0.0 0.0 0.0
0.0 0.0 0.0 0.0 0.0 0.0 0.4 0.8 0.1 0.3 0.1 0.3 -0.0 -0.1 0.2 0.0 -0.1 -0.0 0.0 0.0 0.1 0.0 0.0 0.2 0.5 0.1 0.1 -0.1 -0.2 -0.1 -0.1 -0.0 -0.0 -0.1 -0.0 0.0 0.4 0.1 0.0 0.0 0.1 0.1 -0.0 0.2 -0.1 0.0 0.1 0.1 0.0
0.0 0.0 0.0 0.0 0.0 -0.0 0.4 0.4 0.2 0.1 0.1 0.1 0.0 0.0 0.1 0.2 0.0 -0.0 0.0 0.0 0.0 0.2 0.1 0.3 0.7 0.2 0.2 -0.0 -0.1 0.2 -0.0 -0.1 -0.1 -0.0 -0.0 -0.1 0.6 0.2 0.2 0.1 0.2 0.0 0.0 -0.0 -0.1 -0.0 -0.0 0.0 0.0
0.0 0.0 0.0 0.0 0.0 0.0 0.1 0.1 0.1 0.1 0.3 0.7 0.1 0.0 0.0 0.0 0.0 0.0 0.0 0.0 0.0 0.1 0.2 0.4 0.8 0.3 0.2 -0.0 -0.1 -0.2 -0.1 -0.1 -0.0 0.1 -0.0 0.1 0.2 0.1 0.2 0.2 0.1 0.1 0.1 0.1 -0.1 0.0 -0.0 -0.0 -0.0
0.0 0.0 0.0 0.0 0.0 0.0 0.0 0.0 0.0 0.2 0.3 0.1 0.5 0.0 0.0 0.0 0.1 0.1 0.0 0.0 0.0 0.1 0.1 0.6 0.9 0.3 0.1 0.0 -0.0 -0.1 -0.1 -0.0 0.0 0.0 0.0 0.1 -0.1 0.3 0.3 0.2 0.2 0.1 0.1 0.0 0.1 -0.1 -0.1 -0.1 0.1
-0.0 0.0 0.0 0.0 0.0 0.0 0.0 0.0 0.0 0.2 0.2 0.0 0.0 0.0 -0.0 -0.0 0.1 0.2 0.1 0.0 0.1 0.2 0.2 0.5 1.2 0.3 0.1 0.0 -0.2 -0.0 -0.0 -0.1 -0.0 -0.0 0.1 0.2 0.4 0.2 0.5 0.4 0.2 0.3 0.2 0.1 0.1 -0.0 -0.2 -0.3 0.1
0.0 0.0 0.0 0.0 0.0 0.0 0.0 0.0 0.0 0.0 0.3 0.1 0.0 0.0 0.0 -0.2 0.0 0.5 0.2 0.1 0.0 0.2 0.2 0.4 0.9 0.8 0.2 0.0 -0.1 -0.4 -0.0 -0.1 -0.0 -0.1 0.2 0.3 0.2 0.0 0.6 0.6 0.3 0.3 0.2 0.1 -0.0 -0.1 -0.3 -0.2 -0.2
0.0 0.0 0.0 0.0 0.0 0.0 0.0 0.0 0.0 0.0 0.7 0.2 0.0 0.1 0.2 0.0 0.0 0.4 0.5 0.3 0.1 0.3 0.2 0.4 0.4 0.8 0.7 0.2 0.0 -0.2 -0.3 -0.0 -0.1 0.1 0.1 0.3 0.2 0.1 0.5 0.5 0.3 0.1 0.3 0.1 0.0 -0.1 -0.2 -0.1 -0.1
0.0 0.0 0.0 0.0 0.0 0.0 0.0 0.0 0.0 0.0 0.1 0.3 0.2 0.3 0.0 0.1 0.6 0.2 0.5 0.5 0.4 0.4 0.4 0.4 0.5 0.4 1.0 0.5 0.1 0.0 0.3 -0.1 -0.1 -0.1 0.1 -0.0 0.3 0.1 0.4 1.2 0.6 0.3 0.2 0.3 0.2 -0.0 -0.0 -0.1 -0.1
0.0 0.0 0.0 0.0 0.0 0.0 0.0 0.0 0.0 0.0 -0.0 0.4 0.5 0.2 0.9 1.6 0.9 0.9 0.9 0.3 0.2 0.4 0.4 0.4 0.6 0.4 0.8 0.6 0.3 0.1 0.1 0.2 0.0 -0.0 -0.0 0.1 -0.0 0.2 0.4 1.9 1.0 0.6 0.2 0.2 0.1 0.0 -0.1 -0.0 -0.0
0.0 0.0 0.0 0.0 0.0 0.0 0.0 0.0 -0.0 0.0 -0.0 0.3 0.6 0.4 1.3 0.7 1.0 0.3 0.2 0.0 0.1 0.1 0.2 0.5 1.4 0.8 0.5 0.4 0.5 0.2 0.1 0.4 0.3 0.0 -0.0 0.2 0.1 0.8 1.3 1.7 1.5 0.8 0.6 0.3 0.2 0.0 -0.2 0.0 0.0
0.0 0.0 0.0 0.0 0.0 0.0 0.0 0.0 -0.0 -0.0 -0.0 0.0 0.4 0.4 0.8 1.2 1.0 0.4 0.1 0.0 0.0 0.1 0.4 0.5 1.0 1.8 1.2 0.8 0.5 0.6 0.2 0.2 0.2 0.3 0.0 -0.0 0.2 0.3 1.3 1.6 1.2 0.8 0.5 0.6 0.5 0.2 -0.1 -0.2 -0.1

GFSSGP_con_3kmehi_060.txt.gz
EHI
0.0 -0.0 -0.0 -0.0 -0.0 -0.0 -0.0 0.0 0.1 -0.0 0.0 -0.0 0.0 -0.0 -0.0 -0.0 -0.0 -0.0 -0.0 -0.0 -0.0 -0.0 -0.3 -0.5 -0.5 -0.3 -0.3 -0.0 -0.0 0.1 0.1 0.1 0.1 0.1 0.1 0.3 0.2 0.1 0.1 0.2 0.2 0.3 0.2 0.2 0.4 0.3 0.5 0.5 0.4
-0.0 -0.0 0.0 -0.0 0.0 0.0 0.0 0.0 0.0 0.1 0.1 0.1 0.1 0.0 -0.0 -0.0 -0.0 -0.0 0.0 -0.0 -0.0 -0.0 -0.3 -0.4 -0.4 -0.3 -0.1 0.0 0.1 0.0 0.0 0.1 0.1 0.1 0.1 0.2 0.2 0.2 0.2 0.2 0.3 0.1 0.1 0.2 0.2 0.2 0.2 0.3 0.2
0.0 0.0 0.0 -0.0 -0.0 0.0 0.0 0.0 0.0 0.2 0.0 0.2 0.1 0.0 0.0 -0.0 0.0 0.0 -0.0 -0.0 -0.0 -0.1 -0.2 -0.2 -0.1 -0.1 0.0 0.1 -0.0 0.0 0.0 0.1 0.1 0.1 0.2 0.2 0.2 0.2 0.2 0.2 0.1 0.0 0.0 0.0 0.1 0.1 0.2 0.1 0.1
-0.0 -0.0 -0.0 -0.0 0.0 0.0 0.0 0.0 0.0 0.4 0.5 0.0 0.0 0.0 0.0 -0.0 0.0 -0.0 0.0 0.0 0.0 0.0 -0.1 -0.1 0.1 0.1 0.1 0.1 0.1 -0.0 0.1 0.1 0.1 0.1 0.1 0.2 0.2 0.2 0.1 0.2 0.2 0.2 0.1 0.1 0.0 0.0 0.0 -0.0 -0.2
0.0 -0.0 -0.0 0.0 0.0 0.0 0.1 0.0 0.0 0.0 0.0 0.0 0.0 0.0 0.0 0.0 -0.0 0.0 0.0 0.0 0.1 0.1 -0.1 -0.1 -0.0 0.1 0.1 0.1 0.1 0.1 0.1 0.1 0.1 0.1 0.1 0.1 0.1 0.1 0.1 0.1 0.2 0.2 0.2 0.1 0.2 0.2 0.2 0.0 0.2
0.0 0.0 -0.0 -0.0 -0.0 0.1 0.0 0.0 -0.0 -0.1 0.0 0.0 0.0 0.0 0.0 -0.0 0.0 0.0 -0.0 0.1 0.2 0.3 0.0 -0.0 0.0 0.0 0.1 0.1 0.1 0.0 0.0 0.0 0.1 0.2 0.2 0.3 0.2 0.0 0.0 0.1 0.2 0.2 0.2 0.1 0.1 0.1 0.2 0.3 0.4
-0.0 0.0 0.0 0.0 -0.0 0.1 0.0 0.0 -0.0 0.0 0.0 0.0 0.0 0.0 0.0 -0.0 -0.0 -0.0 0.0 0.1 0.1 0.3 0.2 0.1 -0.1 -0.1 0.0 0.1 0.0 -0.0 0.0 0.0 0.1 0.1 0.2 0.3 0.1 0.0 0.1 0.1 0.1 0.2 0.3 0.2 0.0 -0.0 0.1 0.2 0.3
0.0 0.0 0.0 0.0 0.0 0.0 0.1 -0.0 -0.1 -0.0 0.0 0.0 0.0 0.0 0.0 -0.0 -0.0 0.0 0.0 0.1 0.2 0.2 0.2 0.0 -0.0 -0.0 -0.1 -0.1 0.0 -0.0 0.0 0.1 0.1 0.1 0.1 0.1 0.1 0.1 0.1 0.2 0.2 0.2 0.2 0.1 0.0 -0.0 0.1 0.3 -0.2
0.0 0.0 0.0 0.0 0.0 0.0 0.1 0.0 -0.0 -0.0 -0.0 -0.0 -0.0 -0.0 0.0 0.0 0.0 0.0 0.0 0.1 0.1 0.1 0.1 0.1 0.1 -0.1 -0.1 -0.1 -0.2 -0.0 0.0 0.0 0.1 0.1 0.1 -0.0 0.0 -0.0 0.0 0.2 0.2 0.2 0.2 0.2 0.1 -0.3 0.1 0.1 0.3
0.0 0.0 0.0 -0.0 0.0 0.1 0.2 -0.0 -0.0 0.0 0.0 0.1 0.0 0.0 0.0 0.0 0.0 0.0 0.0 0.1 0.0 0.1 0.1 0.0 0.0 -0.1 -0.2 -0.0 -0.2 -0.2 -0.1 -0.2 -0.2 -0.1 -0.0 0.0 0.0 0.0 0.1 0.1 0.3 0.3 0.2 0.2 0.1 0.0 0.0 0.0 0.1
0.0 0.0 -0.0 -0.0 0.1 0.0 0.0 0.0 0.0 0.0 0.0 0.0 0.0 0.0 0.0 0.0 0.0 0.0 0.0 0.0 0.0 0.0 0.0 -0.0 -0.1 -0.1 -0.1 -0.2 -0.2 -0.2 -0.2 -0.2 -0.2 -0.1 -0.0 0.1 0.0 0.0 -0.0 -0.1 -0.0 0.0 0.1 0.1 0.1 0.0 0.0 0.0 0.1
0.0 -0.0 0.0 -0.0 0.2 0.0 -0.0 -0.0 -0.1 0.0 -0.1 0.1 0.0 0.0 0.0 0.0 0.0 0.0 0.0 0.0 0.0 -0.0 -0.0 -0.0 -0.1 -0.1 -0.0 -0.2 -0.3 -0.3 -0.3 -0.2 -0.1 -0.0 -0.0 -0.0 0.0 -0.0 0.0 0.0 0.0 0.0 0.0 0.0 0.1 0.0 0.0 0.0 0.1
0.0 0.0 0.0 0.0 0.7 0.1 0.0 0.1 0.0 -0.0 0.2 0.2 0.0 0.0 0.0 0.0 0.0 0.0 0.0 0.0 0.0 0.0 -0.0 -0.0 -0.1 -0.1 -0.0 -0.2 -0.3 -0.2 -0.2 -0.2 -0.0 -0.0 0.0 0.0 0.0 0.0 0.0 0.0 0.0 0.0 0.0 0.0 0.1 0.0 0.0 0.0 0.1
0.0 0.0 0.0 0.8 0.5 0.1 -0.0 -0.0 -0.0 0.0 0.1 0.3 0.0 0.0 0.0 0.0 0.0 0.0 0.0 0.0 0.0 0.0 -0.0 -0.0 -0.1 -0.1 -0.1 -0.1 -0.1 -0.0 -0.1 -0.1 -0.0 -0.0 -0.0 0.0 0.1 0.1 0.0 0.0 0.0 0.0 0.0 0.1 0.0 0.1 0.0 0.0 0.1
0.0 0.0 0.0 0.1 1.3 0.3 0.1 0.0 -0.0 0.0 0.1 0.2 0.0 0.0 0.0 0.0 0.0 0.0 0.0 0.0 0.0 0.0 0.0 0.0 -0.0 -0.0 -0.0 -0.1 -0.0 -0.0 -0.0 -0.0 -0.0 -0.0 0.0 0.0 0.1 0.1 0.0 -0.0 -0.0 0.0 0.0 0.0 0.0 0.0 0.0 -0.0 0.0
0.0 0.0 0.0 -0.0 0.4 0.3 0.0 0.1 0.0 0.2 0.3 0.2 0.1 0.0 0.0 -0.0 0.0 -0.0 0.0 0.1 0.1 0.1 0.1 0.0 0.0 0.0 -0.0 -0.0 -0.0 -0.0 -0.0 -0.0 -0.0 -0.0 0.0 0.1 0.1 0.0 0.0 0.0 0.0 0.0 0.0 0.0 0.0 0.0 -0.0 0.0 0.0
0.0 0.0 0.0 -0.0 0.0 0.2 0.0 0.3 0.2 0.4 0.4 0.3 0.1 0.0 0.0 -0.0 -0.0 -0.0 -0.0 0.1 0.1 0.2 0.0 0.0 0.0 0.0 -0.0 -0.0 -0.0 -0.0 -0.0 0.0 0.0 -0.0 -0.0 0.0 0.0 0.0 0.0 -0.0 0.0 -0.0 0.0 0.0 0.0 0.0 0.0 0.0 0.0
0.0 0.0 0.0 0.0 0.0 0.2 0.3 0.5 0.5 0.5 0.5 0.3 0.1 0.0 0.0 -0.0 -0.0 -0.0 0.0 0.1 0.2 0.1 0.1 0.0 0.0 0.1 -0.0 -0.0 -0.0 0.0 0.0 -0.0 -0.0 -0.0 -0.1 -0.0 0.0 0.0 -0.0 0.0 -0.0 -0.0 0.0 0.0 0.0 0.0 0.0 0.0 0.0
0.0 0.0 0.0 0.0 0.0 0.0 0.5 1.2 0.9 0.8 0.4 0.4 0.1 0.1 0.0 0.0 -0.0 -0.0 -0.0 0.1 0.1 0.1 0.1 0.0 0.0 0.0 0.1 -0.0 -0.0 -0.0 0.0 -0.0 -0.0 -0.1 0.0 0.0 -0.0 -0.0 0.0 0.0 -0.0 -0.0 -0.0 0.0 0.0 0.0 0.0 0.0 0.0
0.0 0.0 0.0 0.0 0.0 0.0 0.5 0.9 1.0 0.4 0.3 0.2 0.1 0.0 -0.0 -0.0 -0.0 -0.0 -0.0 0.0 0.0 0.0 0.0 0.1 0.0 0.0 0.1 -0.0 -0.1 0.0 -0.0 -0.0 -0.0 -0.1 -0.0 0.1 0.0 0.0 0.0 0.0 0.0 -0.0 -0.0 -0.0 -0.0 -0.0 0.0 0.0 0.0
0.0 0.0 0.0 0.0 0.0 0.0 0.2 0.2 0.2 0.1 0.1 0.2 0.5 0.3 0.0 -0.0 -0.0 -0.0 0.0 0.1 0.0 0.0 0.1 0.1 0.1 0.1 0.1 -0.0 -0.1 0.2 -0.0 -0.0 -0.0 -0.2 -0.1 0.0 0.0 0.0 0.0 0.0 0.0 0.0 -0.0 -0.0 -0.0 -0.0 -0.0 -0.0 0.0
0.0 0.0 0.0 0.0 0.0 0.0 0.0 0.0 0.0 0.2 0.1 0.1 0.0 0.0 0.0 -0.0 -0.1 -0.0 0.0 0.0 0.0 0.0 0.1 0.4 0.2 0.2 0.0 -0.0 -0.0 -0.2 -0.1 -0.1 -0.0 -0.0 -0.1 0.0 0.0 0.0 0.0 0.1 0.1 0.0 -0.0 -0.0 -0.0 -0.0 -0.0 -0.0 0.0
0.0 0.0 0.0 0.0 0.0 0.0 0.0 0.0 0.0 0.2 0.2 0.3 0.0 0.0 0.0 -0.0 -0.0 0.0 0.0 0.1 0.0 0.0 0.0 0.7 0.3 0.2 0.0 0.0 -0.0 -0.0 -0.1 -0.1 -0.0 -0.0 -0.1 -0.0 -0.1 0.0 0.1 0.1 0.1 0.1 -0.0 -0.0 -0.1 -0.1 -0.1 -0.0 0.0
0.0 0.0 0.0 0.0 0.0 0.0 0.0 0.0 0.0 0.1 0.4 0.5 0.3 -0.0 0.1 0.1 0.0 0.0 0.0 0.0 0.1 0.0 0.0 1.0 0.5 0.2 0.1 -0.0 -0.0 -0.0 -0.1 -0.0 -0.1 -0.0 -0.1 -0.1 -0.1 0.1 0.1 0.1 0.1 0.1 0.1 0.0 -0.1 -0.0 -0.0 -0.1 0.0
0.0 0.0 0.0 0.0 0.0 0.0 0.0 0.0 0.0 0.0 0.1 0.8 0.9 0.3 0.1 0.1 0.0 0.0 0.1 0.0 0.0 0.1 0.2 0.8 0.5 0.2 0.1 0.0 -0.1 -0.0 -0.0 -0.0 -0.0 -0.0 0.0 -0.0 -0.2 0.1 0.2 0.1 0.1 0.1 0.0 0.1 0.0 -0.0 -0.2 -0.1 -0.0
0.0 0.0 0.0 0.0 0.0 0.0 0.0 0.0 0.0 0.0 0.1 0.5 0.9 0.5 0.0 0.0 0.0 0.0 0.1 0.0 0.0 0.1 0.2 0.8 0.6 0.3 0.1 0.1 -0.0 -0.1 -0.0 -0.0 -0.0 -0.0 0.0 0.1 0.2 0.3 0.3 0.2 0.2 0.2 0.1 0.1 0.0 -0.1 -0.2 -0.2 -0.1
0.0 0.0 0.0 0.0 0.0 0.0 0.0 0.0 0.0 0.0 0.0 0.3 0.2 0.1 0.0 0.1 0.1 0.1 0.1 0.1 0.0 0.0 0.1 0.3 0.8 0.3 0.1 0.1 0.0 -0.0 -0.1 -0.0 -0.0 -0.1 -0.1 0.1 0.1 0.1 0.2 0.3 0.2 0.1 0.1 0.1 0.0 -0.0 -0.1 -0.2 -0.2
0.0 0.0 0.0 0.0 0.0 0.0 0.0 0.0 0.0 -0.0 0.0 0.0 0.1 0.1 0.0 0.5 0.3 0.5 0.3 0.1 0.2 0.3 0.1 0.1 0.4 0.7 0.5 0.1 0.0 0.0 -0.0 -0.1 -0.0 -0.0 -0.1 -0.1 -0.1 -0.0 0.1 0.3 0.2 0.1 0.0 -0.0 -0.1 -0.1 -0.0 -0.0 -0.1
0.0 0.0 0.0 0.0 0.0 0.0 0.0 0.0 -0.0 -0.0 -0.0 -0.0 0.1 0.1 0.2 0.5 0.4 0.6 0.5 0.2 0.4 0.3 0.3 0.3 0.1 0.2 0.9 0.6 0.3 0.0 0.0 -0.0 -0.1 -0.0 -0.0 -0.0 -0.0 -0.0 0.1 0.3 0.5 0.3 0.1 0.1 0.0 -0.1 -0.1 -0.1 -0.1
0.0 0.0 0.0 0.0 0.0 0.0 0.0 0.0 0.0 -0.0 -0.0 0.0 0.0 0.0 0.2 0.2 0.3 0.5 0.5 0.7 0.5 0.4 0.3 0.4 0.3 0.2 0.2 1.0 0.7 0.2 0.0 0.0 -0.1 -0.1 -0.0 -0.0 -0.0 0.1 0.2 0.6 0.7 0.5 0.3 0.1 0.1 -0.1 -0.2 -0.2 -0.1

GFSSGP_con_3kmehi_063.txt.gz
EHI
0.0 -0.0 -0.0 -0.0 -0.0 0.0 -0.0 -0.0 -0.0 0.0 0.0 -0.0 0.0 -0.0 -0.0 -0.0 -0.0 -0.0 -0.0 -0.0 -0.0 -0.0 -0.4 -0.6 -0.6 -0.4 -0.2 -0.1 -0.1 -0.0 0.1 0.2 0.2 0.2 0.3 0.3 0.2 0.2 0.2 0.3 0.4 0.3 0.4 0.3 0.3 0.4 0.3 0.2 0.3
-0.0 -0.0 0.0 -0.0 -0.0 0.0 0.0 0.0 0.1 0.0 0.1 0.0 0.0 0.0 -0.1 -0.0 -0.0 0.0 0.0 -0.0 -0.0 -0.1 -0.5 -0.6 -0.4 -0.3 -0.1 -0.1 -0.1 -0.0 0.0 0.0 0.1 0.1 0.1 0.1 0.1 0.1 0.2 0.3 0.3 0.2 0.2 0.2 0.1 0.3 0.3 0.0 0.0
-0.0 0.0 -0.0 -0.0 0.0 0.0 0.0 0.0 0.0 0.1 0.2 0.0 0.0 0.0 -0.0 -0.0 -0.0 0.0 -0.0 -0.0 -0.0 -0.3 -0.3 -0.4 -0.2 -0.2 -0.0 0.0 0.0 0.0 0.0 0.0 0.1 0.1 0.1 0.1 0.1 0.1 0.0 -0.0 -0.1 -0.1 0.0 0.1 0.2 0.2 0.1 0.0 -0.1
0.0 -0.0 -0.0 -0.0 0.0 0.0 -0.0 0.0 0.0 0.2 0.2 0.1 0.0 0.0 -0.0 0.0 0.0 -0.0 0.0 -0.0 -0.1 -0.2 -0.2 -0.2 0.0 0.0 0.0 0.0 0.1 0.1 0.1 0.1 0.0 0.0 0.0 0.0 0.1 0.1 0.1 0.1 0.1 0.0 -0.0 0.1 0.2 0.0 -0.1 -0.2 -0.1
-0.0 -0.0 -0.0 0.0 0.0 0.0 0.0 0.0 -0.0 0.0 -0.0 0.0 0.0 0.0 0.0 -0.0 0.0 0.0 0.0 -0.0 -0.0 -0.1 -0.2 -0.2 0.0 0.0 0.1 0.2 0.1 0.1 0.0 0.1 0.0 -0.0 -0.0 -0.0 0.0 0.1 0.1 0.1 0.1 0.1 0.0 0.0 0.1 0.2 0.1 0.3 0.2
-0.0 -0.0 -0.0 0.0 -0.0 0.1 0.0 0.0 -0.0 0.0 0.0 0.0 -0.0 0.0 0.0 0.0 0.0 0.0 -0.0 -0.1 -0.0 0.0 -0.1 -0.1 0.0 0.1 0.1 0.1 0.1 0.1 0.0 0.0 -0.1 -0.0 0.0 0.0 -0.0 0.1 0.1 0.1 0.1 0.1 0.1 0.1 0.1 0.2 0.2 0.4 0.3
0.0 -0.0 0.0 0.0 0.0 0.0 0.0 -0.0 0.0 -0.0 -0.0 0.0 0.0 0.0 0.0 0.0 0.0 0.0 -0.0 -0.1 -0.0 0.1 0.1 -0.1 -0.2 -0.0 0.1 0.0 0.1 0.0 0.0 0.0 0.1 0.0 0.1 -0.0 0.0 0.0 0.1 0.0 0.2 0.2 0.1 -0.0 0.1 0.1 0.2 0.1 -0.1
-0.0 -0.0 0.0 0.0 0.0 -0.0 0.0 -0.0 -0.0 -0.0 0.0 0.0 0.0 0.0 0.0 -0.0 0.0 0.0 -0.0 -0.1 0.0 0.0 0.1 -0.1 -0.1 -0.0 -0.1 -0.1 0.0 0.1 -0.0 0.0 -0.0 -0.0 0.1 0.1 0.0 0.1 0.0 0.0 0.2 0.2 0.2 -0.0 0.0 0.0 0.2 0.1 -0.1
-0.0 0.0 0.0 0.0 0.0 0.0 0.1 0.0 -0.0 0.1 -0.0 -0.0 0.0 0.0 0.0 0.0 0.0 0.1 0.1 -0.0 -0.0 -0.0 0.0 -0.1 0.1 -0.0 -0.1 -0.0 0.0 -0.0 0.0 0.0 0.1 0.1 0.1 0.0 0.1 0.1 0.0 0.2 0.1 0.0 0.1 -0.0 -0.1 -0.0 0.1 0.3 0.1
-0.0 0.0 0.0 0.0 -0.0 0.0 0.2 0.0 0.0 0.0 0.1 0.0 0.0 0.0 0.0 0.0 0.1 0.1 0.1 0.0 -0.0 -0.0 -0.1 -0.1 0.0 -0.1 -0.1 0.2 -0.0 -0.1 -0.1 -0.1 -0.1 -0.1 -0.0 0.1 0.1 0.1 0.1 0.2 0.2 0.1 0.1 -0.0 -0.0 0.1 0.2 0.1 0.0
-0.0 0.0 0.0 0.0 0.0 0.1 0.2 0.1 -0.0 0.1 0.1 -0.0 0.0 0.0 0.0 0.0 0.0 0.1 0.0 0.0 -0.0 0.0 -0.0 -0.1 -0.1 -0.1 -0.1 -0.1 -0.1 -0.1 -0.1 -0.2 -0.1 -0.1 -0.0 0.0 0.1 0.1 0.1 0.1 0.1 0.0 0.0 0.1 0.0 0.0 0.0 0.0 0.0
0.0 -0.0 0.0 0.0 0.0 0.0 0.0 0.1 0.1 0.1 0.0 0.1 0.0 0.0 0.0 0.0 0.0 0.1 0.0 0.0 -0.0 0.0 -0.0 -0.0 -0.1 -0.1 -0.1 -0.1 -0.1 -0.2 -0.2 -0.1 -0.1 -0.0 -0.0 -0.0 0.0 0.0 0.0 0.0 0.0 0.0 0.0 0.0 0.0 0.0 0.0 0.1 0.0
-0.0 0.0 0.0 0.0 0.0 0.1 0.0 0.0 0.0 0.0 -0.0 0.1 0.0 0.0 0.0 0.0 0.0 0.0 0.0 -0.0 0.0 -0.0 -0.0 -0.0 -0.1 -0.1 -0.1 -0.1 -0.1 -0.2 -0.2 -0.1 -0.0 -0.0 -0.0 -0.0 0.0 0.0 0.0 0.0 0.0 0.0 0.0 0.0 0.0 0.0 0.0 0.1 0.1
0.0 0.0 0.0 0.0 0.1 0.0 0.0 -0.0 0.0 0.1 0.1 0.0 0.0 0.0 0.0 0.0 0.0 0.0 0.0 0.0 0.0 -0.0 -0.0 -0.0 -0.1 -0.1 -0.1 -0.1 -0.1 -0.1 -0.1 -0.1 -0.0 -0.0 -0.0 0.0 0.0 0.0 0.0 0.0 0.0 0.0 0.0 0.0 0.0 0.0 0.0 0.0 0.0
0.0 0.0 0.0 0.3 0.2 0.1 0.0 0.0 -0.0 0.1 0.2 0.1 0.0 0.0 0.0 0.0 0.0 0.0 0.0 0.0 0.0 -0.0 -0.0 -0.0 -0.1 -0.0 -0.0 -0.1 -0.1 -0.0 -0.0 -0.0 -0.0 0.0 0.0 0.0 0.1 0.0 0.0 0.0 0.0 0.0 0.0 0.0 -0.0 0.0 0.0 0.0 0.0
0.0 0.0 0.0 0.2 0.1 0.1 0.1 0.0 0.0 0.2 0.4 0.1 0.0 0.0 0.0 0.0 0.0 0.0 0.0 0.0 0.0 -0.0 -0.0 -0.0 -0.1 -0.0 -0.1 -0.1 -0.0 -0.0 -0.0 -0.0 0.0 0.0 0.0 0.0 0.1 0.1 0.0 0.0 -0.0 0.0 0.0 0.0 0.0 0.0 0.0 0.0 0.0
0.0 0.0 0.0 0.0 0.2 0.1 0.1 0.1 0.1 0.2 0.2 0.2 0.0 0.0 0.0 0.0 0.0 0.0 0.0 0.0 0.0 0.0 0.0 0.0 -0.0 -0.0 -0.0 -0.0 -0.0 -0.0 -0.0 -0.0 -0.0 0.0 0.0 0.0 0.1 0.0 0.0 0.0 -0.0 0.0 0.0 0.0 0.0 -0.0 -0.0 0.0 0.0
0.0 0.0 0.0 0.0 0.1 0.1 0.2 0.0 0.2 0.1 0.2 0.4 0.1 0.0 0.0 0.0 0.0 0.0 0.0 0.0 0.0 0.0 0.0 0.0 0.0 -0.0 -0.0 -0.0 -0.0 -0.0 -0.0 -0.0 -0.0 0.0 0.1 0.1 0.0 0.0 0.0 -0.0 -0.0 0.0 0.0 0.0 0.0 0.0 0.0 0.0 0.0
0.0 0.0 0.0 0.0 0.0 0.0 0.1 0.1 0.6 0.4 0.1 0.3 0.1 0.0 0.0 0.0 0.0 0.0 0.0 0.0 0.0 0.0 0.0 0.0 0.0 -0.0 0.0 0.0 0.0 -0.0 -0.0 -0.0 -0.0 0.0 0.1 -0.0 -0.0 0.0 0.0 -0.0 -0.0 -0.0 0.0 0.0 0.0 0.0 0.0 0.0 0.0
0.0 0.0 0.0 0.0 0.0 0.0 0.0 0.1 0.4 0.7 0.5 0.2 0.1 0.0 0.0 0.0 0.0 0.0 0.0 0.0 0.0 0.0 0.0 0.0 0.0 0.0 0.0 0.0 0.0 0.0 -0.0 -0.0 -0.0 -0.0 -0.0 -0.0 -0.0 0.0 -0.0 -0.0 -0.0 -0.0 -0.0 -0.0 0.0 0.0 0.0 0.0 0.0
0.0 -0.0 0.0 0.0 0.0 0.3 0.2 -0.0 0.2 0.2 0.2 0.2 0.1 0.1 0.0 0.0 0.0 0.0 0.0 0.0 0.0 0.0 0.0 0.0 0.0 0.1 0.0 0.0 0.0 0.1 0.0 0.0 0.0 -0.0 -0.1 -0.0 0.0 0.0 0.0 -0.0 -0.0 -0.0 -0.0 -0.0 -0.0 0.0 -0.0 0.0 0.0
0.0 -0.0 0.0 0.0 0.0 0.0 0.0 0.0 0.1 0.1 0.1 0.1 0.3 0.2 0.0 0.0 -0.0 0.0 0.0 0.0 0.0 0.0 0.0 0.0 0.0 0.1 0.0 0.0 0.0 0.0 0.0 -0.0 0.0 -0.0 -0.0 -0.1 -0.0 0.0 0.0 0.0 0.0 -0.0 -0.0 -0.0 -0.0 -0.0 -0.0 -0.0 -0.0
0.0 0.0 0.0 0.0 0.0 0.0 0.0 0.0 0.0 0.1 -0.0 0.1 0.5 0.2 -0.0 0.0 0.0 0.0 0.0 0.0 0.0 0.0 0.0 0.0 0.0 0.0 0.0 0.0 0.0 0.0 0.0 -0.0 -0.0 -0.0 -0.0 -0.0 -0.0 0.0 0.0 0.0 0.1 0.0 -0.0 -0.0 -0.0 -0.1 -0.0 -0.0 -0.0
0.0 0.0 0.0 0.0 0.0 0.0 0.0 0.0 0.0 0.1 0.2 0.2 0.2 0.0 -0.0 -0.1 -0.1 -0.0 0.0 0.0 0.0 0.0 0.0 0.0 0.0 0.0 0.0 0.0 0.0 0.0 0.0 -0.0 -0.0 -0.0 -0.0 -0.0 -0.0 -0.1 -0.0 0.0 0.0 0.0 0.0 0.0 -0.0 -0.0 -0.0 -0.0 -0.0
0.0 0.0 0.0 0.0 0.0 0.0 0.0 0.0 0.0 0.0 0.1 0.2 0.3 0.3 0.0 0.0 -0.0 -0.0 0.0 0.0 0.0 0.0 0.0 0.1 0.0 0.0 0.0 0.0 0.0 0.0 0.0 -0.0 -0.0 -0.0 -0.0 -0.0 -0.1 -0.0 0.0 0.0 0.1 0.0 0.0 0.0 -0.0 -0.0 -0.0 -0.0 -0.0
0.0 0.0 0.0 0.0 0.0 0.0 0.0 0.0 0.0 0.0 0.0 0.0 0.1 0.2 0.1 0.0 0.0 0.0 0.0 0.0 0.0 0.0 0.0 0.5 0.1 0.0 0.0 0.0 0.0 0.0 0.0 -0.0 -0.0 -0.0 -0.0 -0.0 0.0 0.1 0.2 0.2 0.0 0.1 0.1 0.1 0.0 -0.0 -0.0 -0.0 -0.0
0.0 0.0 0.0 0.0 0.0 0.0 0.0 0.0 0.0 0.0 0.0 0.0 0.1 0.1 0.1 0.2 0.1 0.1 0.0 0.0 0.0 0.0 0.0 0.4 0.3 0.0 0.0 0.0 0.0 0.0 0.0 -0.0 -0.0 -0.0 -0.0 -0.0 -0.0 0.1 0.2 0.3 0.1 0.0 0.1 0.0 0.1 0.0 -0.0 -0.1 -0.1
0.0 0.0 0.0 0.0 0.0 0.0 0.0 0.0 0.0 0.0 0.0 0.0 0.0 0.1 0.1 0.1 0.1 0.0 0.0 0.0 0.0 0.1 0.1 0.2 0.4 0.2 0.0 0.1 0.0 0.0 0.0 0.0 -0.0 -0.0 -0.0 -0.0 -0.0 0.0 0.1 0.2 0.1 0.1 0.1 0.1 0.0 -0.0 -0.0 -0.1 -0.1
0.0 0.0 0.0 0.0 0.0 0.0 0.0 0.0 0.0 0.0 0.0 0.0 0.0 0.0 0.1 0.0 0.0 0.0 0.0 0.0 0.0 0.1 0.1 0.2 0.3 0.3 0.2 0.1 0.1 0.0 0.0 0.1 0.1 -0.0 -0.0 -0.0 -0.0 -0.1 -0.0 -0.1 0.0 0.1 0.1 0.1 0.1 -0.0 -0.1 -0.1 -0.1
0.0 0.0 0.0 0.0 0.0 0.0 0.0 0.0 0.0 0.0 0.0 0.0 0.0 0.0 0.0 0.0 0.1 0.3 0.2 0.1 0.1 0.0 0.0 0.0 0.2 0.4 0.3 0.2 0.1 0.0 0.0 0.0 0.2 -0.0 -0.0 -0.0 -0.0 -0.0 -0.0 -0.1 -0.1 0.0 0.3 0.1 0.1 0.1 -0.1 -0.1 -0.1

GFSSGP_con_3kmehi_066.txt.gz
EHI
0.0 0.0 0.0 -0.0 -0.0 -0.0 -0.0 0.0 0.0 0.1 0.1 0.0 0.0 -0.0 -0.0 0.0 0.0 0.0 -0.0 -0.0 -0.0 -0.0 -0.2 -0.3 -0.3 -0.1 -0.2 -0.1 -0.1 -0.1 0.1 0.1 0.1 0.2 0.3 0.3 0.3 0.2 0.2 0.2 0.3 0.3 0.3 0.3 0.3 0.2 0.3 0.3 0.3
-0.0 -0.0 0.0 -0.0 -0.0 0.0 0.0 0.0 0.1 0.1 0.0 -0.0 0.0 0.0 -0.0 -0.0 0.0 0.0 -0.0 -0.0 -0.0 -0.1 -0.2 -0.3 -0.2 -0.1 -0.0 -0.1 -0.1 -0.1 0.1 0.1 -0.0 0.1 0.2 0.2 0.2 0.2 0.4 0.6 0.4 0.3 0.2 0.2 0.2 0.1 0.1 0.1 -0.0
-0.0 0.0 -0.0 -0.0 0.0 0.0 0.0 0.0 0.0 0.0 0.0 0.0 0.0 0.0 0.0 -0.0 0.0 0.0 -0.0 -0.0 -0.0 -0.3 -0.3 -0.2 -0.2 -0.0 0.1 -0.1 -0.1 0.0 0.0 0.0 0.0 0.0 -0.0 -0.1 -0.1 -0.0 -0.1 -0.1 -0.1 0.3 0.3 0.2 0.2 0.3 -0.1 -0.2 -0.1
0.0 -0.0 -0.0 0.0 0.0 0.0 0.0 0.0 -0.0 -0.1 0.1 0.0 0.0 0.0 -0.0 -0.0 0.0 -0.0 -0.0 -0.0 -0.1 -0.2 -0.3 -0.3 -0.1 0.0 0.1 0.0 0.0 0.0 0.1 -0.0 -0.0 -0.0 -0.1 -0.1 -0.1 -0.1 -0.1 -0.1 -0.1 -0.2 0.2 0.4 0.3 0.2 -0.0 0.2 0.2
-0.0 -0.0 -0.0 0.0 0.0 0.0 0.0 0.0 -0.0 -0.0 -0.0 0.0 0.0 -0.0 0.0 0.0 0.0 0.0 -0.0 -0.1 -0.0 -0.1 -0.2 -0.2 0.0 0.1 0.1 0.1 0.1 0.1 0.0 -0.0 0.0 -0.1 -0.1 -0.0 -0.1 0.0 0.0 -0.0 -0.0 -0.1 -0.1 0.1 0.1 0.2 0.3 0.2 -0.1
-0.0 -0.0 -0.0 0.0 0.0 0.0 0.0 0.0 0.0 0.1 -0.0 0.0 -0.0 0.0 0.0 -0.0 -0.0 -0.0 -0.0 -0.1 -0.1 -0.0 -0.2 -0.1 -0.0 0.0 0.1 0.1 0.1 0.1 0.1 -0.0 -0.0 -0.1 -0.0 -0.1 -0.0 0.0 0.1 0.0 -0.1 -0.1 -0.0 0.0 0.2 0.3 0.4 0.1 -0.1
-0.0 -0.0 -0.0 -0.0 0.0 0.0 0.0 -0.0 0.1 0.0 -0.0 -0.0 0.0 0.0 0.0 -0.0 -0.0 -0.0 -0.0 -0.0 -0.1 -0.2 -0.1 -0.1 -0.1 0.1 0.2 0.1 0.1 0.0 0.1 -0.1 -0.0 0.0 -0.1 -0.1 0.0 -0.0 0.1 0.1 0.1 0.1 0.0 0.1 0.2 0.4 0.4 0.3 0.1
-0.0 0.0 0.0 -0.0 0.0 0.0 0.0 -0.0 0.0 -0.1 0.0 0.0 0.0 0.0 0.0 -0.0 -0.0 -0.0 -0.0 -0.0 -0.2 -0.2 -0.2 -0.1 -0.2 -0.1 -0.1 -0.0 -0.0 0.1 -0.0 0.0 -0.0 0.1 -0.0 0.0 -0.1 -0.1 0.1 0.2 0.3 0.1 0.1 0.2 0.1 0.2 0.1 -0.1 -0.0
-0.0 0.0 0.0 0.0 0.0 0.0 0.0 -0.0 -0.0 0.1 -0.0 0.0 0.0 0.0 0.0 0.0 0.0 0.0 0.0 -0.0 -0.1 -0.2 -0.1 -0.1 -0.1 -0.1 -0.1 0.0 0.0 0.1 0.1 0.0 0.1 0.1 -0.0 -0.0 0.0 0.0 0.1 0.2 0.2 0.2 0.2 0.2 0.1 0.1 0.2 0.3 0.2
0.0 0.0 0.0 0.0 0.0 0.1 0.0 0.1 0.0 0.0 0.0 -0.0 0.0 0.0 0.0 0.0 0.0 0.0 0.0 0.0 -0.0 -0.0 -0.1 -0.1 -0.1 -0.0 -0.1 0.1 0.2 0.0 -0.0 0.0 0.0 0.0 0.0 0.0 0.0 0.1 0.2 0.0 0.0 0.1 0.1 0.2 0.3 0.3 0.3 0.3 0.3
0.0 0.0 0.0 0.0 0.0 0.1 0.0 0.0 0.0 0.0 0.0 -0.0 0.0 0.0 0.1 0.0 0.0 0.0 0.0 -0.0 -0.0 -0.0 -0.1 -0.1 -0.1 -0.1 -0.1 0.1 -0.0 0.0 -0.0 -0.0 -0.0 -0.0 0.0 0.0 0.1 0.1 0.1 0.1 0.1 0.2 0.0 0.1 0.0 0.0 0.1 0.1 0.1
0.0 0.0 0.0 0.0 0.0 0.0 0.0 0.1 -0.0 0.0 0.0 0.0 0.0 0.0 0.1 0.1 0.0 0.0 -0.0 -0.0 -0.0 -0.0 -0.1 -0.1 -0.1 -0.1 -0.1 0.1 -0.0 -0.0 -0.1 -0.1 -0.0 0.0 0.0 0.0 0.0 0.0 0.0 0.0 0.0 0.0 0.0 0.1 0.0 0.0 0.1 0.1 0.1
0.0 0.0 0.0 0.0 0.0 0.0 0.0 0.1 0.1 -0.0 0.0 0.0 0.0 0.0 0.0 0.0 0.0 -0.0 -0.0 -0.0 -0.0 -0.0 -0.1 -0.1 -0.1 -0.1 -0.0 -0.1 -0.0 -0.1 -0.1 -0.0 -0.0 -0.0 0.0 0.0 0.0 0.0 0.0 0.0 0.0 0.0 0.0 0.0 0.0 0.0 0.1 0.1 0.1
0.0 0.0 0.0 0.0 0.0 0.0 0.0 0.0 0.0 -0.1 0.0 0.0 0.0 0.0 0.0 0.0 0.0 -0.0 -0.0 -0.0 -0.0 -0.0 -0.0 -0.0 -0.1 -0.0 -0.0 -0.1 -0.1 -0.1 -0.0 -0.0 -0.0 0.0 0.0 0.0 0.0 0.0 0.0 0.0 0.0 0.0 0.0 0.0 0.0 0.0 0.1 0.1 0.1
0.0 0.0 0.0 0.0 0.0 0.0 0.1 0.1 -0.0 0.3 0.0 0.0 0.0 0.0 0.0 0.0 0.0 0.0 -0.0 0.0 0.0 -0.0 -0.0 -0.0 -0.0 -0.0 -0.0 -0.1 -0.1 -0.0 -0.0 -0.0 -0.0 0.0 0.0 0.0 0.0 0.0 0.0 0.0 0.0 0.0 0.0 0.0 0.1 0.0 0.1 0.0 0.0
0.0 0.0 0.0 0.1 0.1 0.1 0.0 0.0 0.0 0.2 0.1 0.0 0.0 0.0 0.0 0.0 0.0 -0.0 -0.0 -0.0 -0.0 -0.0 -0.0 -0.0 -0.1 -0.0 -0.0 -0.0 -0.0 -0.0 -0.0 -0.0 0.0 0.0 0.0 0.0 0.0 0.0 0.0 0.0 0.0 0.0 0.0 0.0 0.0 0.0 0.1 0.0 0.0
0.0 0.0 0.0 0.0 0.1 0.2 0.1 0.0 0.0 0.1 0.1 0.0 0.0 0.0 0.0 0.0 -0.0 -0.0 -0.0 -0.0 0.0 -0.0 -0.0 -0.0 -0.0 -0.0 -0.0 -0.0 -0.0 -0.0 -0.0 -0.0 -0.0 0.0 0.0 0.0 0.0 0.1 0.0 0.0 0.0 0.0 0.0 0.0 0.0 0.0 0.1 0.0 0.0
0.0 0.0 0.0 0.0 0.2 0.1 0.1 0.1 0.0 0.0 -0.0 0.0 0.0 0.0 0.0 0.0 0.0 -0.0 -0.0 -0.0 0.0 -0.0 -0.0 -0.0 -0.0 -0.0 -0.0 -0.0 -0.0 -0.0 -0.0 -0.0 -0.0 -0.0 0.0 0.1 0.0 0.0 0.0 0.0 0.0 0.0 0.0 0.0 0.0 0.0 0.0 0.0 0.0
0.0 0.0 0.0 0.0 0.0 0.0 0.0 0.0 0.2 0.0 0.1 0.1 0.0 0.0 0.0 0.0 0.0 0.0 -0.0 0.0 0.0 0.0 0.0 0.0 0.0 -0.0 0.0 0.0 -0.0 -0.0 -0.0 -0.0 -0.0 -0.0 0.0 0.1 0.1 0.0 -0.0 0.0 -0.0 -0.0 -0.0 0.0 0.0 0.0 0.0 0.0 0.0
0.0 0.0 0.0 0.0 0.0 0.0 0.0 0.0 0.0 0.1 0.2 0.2 0.2 0.0 0.0 0.0 0.0 0.0 0.0 0.0 0.0 0.0 0.0 0.0 0.0 0.0 -0.0 0.0 0.0 0.0 0.0 -0.0 -0.0 -0.0 -0.0 0.0 0.0 0.0 -0.0 -0.0 -0.0 0.0 -0.0 -0.0 0.0 0.0 0.0 0.0 0.0
0.0 0.0 0.0 0.0 0.0 0.0 0.0 0.0 -0.0 0.2 0.1 0.1 0.1 0.1 0.0 0.0 0.0 0.0 0.0 0.0 0.0 0.0 0.0 0.0 0.0 0.0 0.0 0.0 0.0 0.0 0.0 0.0 0.0 0.0 -0.0 0.1 0.0 -0.0 -0.0 -0.0 -0.0 -0.0 0.0 -0.0 -0.0 0.0 0.0 0.0 0.0
0.0 0.0 0.0 0.0 0.0 0.0 0.0 0.0 0.0 0.1 0.1 0.0 0.1 0.1 0.0 0.0 0.0 0.0 0.0 0.0 0.0 0.0 0.0 0.0 0.0 0.0 0.0 0.0 0.0 0.0 0.0 0.0 -0.0 0.0 -0.0 0.1 0.0 0.0 0.0 -0.0 -0.0 -0.0 -0.0 -0.0 -0.0 0.0 0.0 0.0 0.0
0.0 0.0 0.0 0.0 0.0 0.0 0.0 0.0 0.0 0.0 0.0 0.0 0.0 0.2 0.1 0.0 0.0 0.0 0.0 0.0 0.0 0.0 0.0 0.0 0.0 0.0 0.0 0.0 0.0 0.0 0.0 0.0 0.0 -0.0 -0.0 -0.0 0.0 -0.0 -0.0 -0.0 0.0 0.0 -0.0 -0.0 -0.0 0.0 0.0 0.0 0.0
0.0 0.0 0.0 0.0 0.0 0.0 0.0 0.0 0.0 0.1 0.1 0.0 0.2 0.2 0.2 0.1 0.0 0.0 0.0 0.0 0.0 0.0 0.0 0.0 0.0 0.0 0.0 0.0 0.0 0.0 0.0 0.0 0.0 0.0 0.0 -0.0 0.0 0.0 0.0 -0.0 -0.0 0.0 0.0 0.0 -0.0 -0.0 -0.0 -0.0 0.1
0.0 0.0 0.0 0.0 0.0 0.0 0.0 0.0 0.0 0.0 0.0 0.0 0.0 0.2 0.3 0.2 0.1 0.1 0.0 0.0 0.0 0.0 0.0 0.0 0.0 0.0 0.0 0.0 0.0 0.0 0.0 0.0 0.0 0.0 0.0 -0.0 -0.0 0.0 0.1 0.1 0.0 0.0 0.0 0.0 0.0 0.0 0.0 0.0 0.1
0.0 0.0 0.0 0.0 0.0 0.0 0.0 0.0 0.0 0.0 0.0 0.0 0.0 0.1 0.2 0.2 0.1 0.1 0.0 0.0 0.0 0.0 0.0 0.0 0.0 0.0 0.0 0.0 0.0 0.0 0.0 0.0 0.0 0.0 0.0 -0.0 -0.0 0.0 0.0 0.1 0.1 0.0 0.0 0.0 0.0 0.0 0.0 -0.0 0.0
0.0 0.0 0.0 0.0 0.0 0.0 0.0 0.0 0.0 0.0 0.0 0.0 0.0 0.0 0.1 0.1 0.2 0.1 0.0 0.0 0.0 0.0 0.0 0.0 0.0 0.0 0.0 0.0 0.0 0.0 0.0 0.0 0.0 0.0 0.0 0.0 -0.0 -0.1 0.0 0.1 0.1 0.1 0.0 0.0 0.0 0.1 0.0 -0.0 -0.0
0.0 0.0 0.0 0.0 0.0 0.0 0.0 0.0 0.0 0.0 0.0 0.0 0.0 0.0 0.0 0.0 0.0 0.0 0.0 0.0 0.0 0.0 0.0 0.0 0.1 0.0 0.0 0.1 0.0 0.0 0.0 0.0 0.0 0.0 -0.0 -0.0 -0.0 -0.1 -0.1 0.1 0.1 0.1 0.1 0.0 0.1 0.0 0.0 -0.0 -0.0
0.0 0.0 0.0 0.0 0.0 0.0 0.0 0.0 0.0 0.0 0.0 0.0 0.0 0.2 0.0 0.1 0.1 0.1 0.1 0.0 0.0 0.0 0.0 0.0 0.1 0.1 0.1 0.1 0.1 0.0 0.0 0.0 0.0 0.0 0.0 -0.0 -0.0 -0.1 -0.1 0.0 0.1 0.0 0.0 0.1 0.1 0.1 0.0 -0.0 -0.0
0.0 0.0 0.0 0.0 0.0 0.0 0.0 0.0 0.0 0.0 0.0 0.0 0.0 0.1 0.1 0.0 0.1 0.2 0.1 0.0 0.0 0.0 0.0 0.0 0.0 0.1 0.0 0.1 0.1 0.0 0.0 0.0 0.0 0.0 0.0 0.0 -0.0 -0.0 -0.1 -0.1 -0.1 -0.0 -0.0 -0.0 0.1 0.1 0.1 0.0 -0.0

GFSSGP_con_3kmehi_069.txt.gz
EHI
0.0 0.0 -0.0 -0.0 -0.0 -0.0 -0.0 0.0 0.1 0.1 0.0 0.0 0.0 0.0 -0.0 0.0 0.0 0.0 -0.0 -0.0 -0.0 -0.1 -0.2 -0.1 -0.3 -0.2 -0.2 -0.2 -0.2 -0.1 -0.1 -0.0 0.0 0.1 0.3 0.2 0.2 0.2 0.1 0.1 0.1 0.2 0.3 0.4 0.4 0.2 0.1 0.2 0.1
0.0 -0.0 0.0 -0.0 0.0 0.0 0.0 0.1 0.2 0.1 0.0 0.0 0.0 0.0 -0.0 -0.0 0.0 -0.0 -0.0 -0.0 -0.0 -0.1 -0.2 -0.2 -0.2 -0.2 -0.2 -0.2 -0.2 -0.1 -0.1 -0.2 -0.0 0.1 0.3 0.3 0.2 0.4 0.3 0.3 0.4 0.2 0.1 0.3 0.3 0.1 0.1 0.1 -0.0
0.0 0.0 0.0 -0.0 0.0 0.0 0.1 0.0 0.1 0.0 0.0 0.1 0.0 0.0 0.0 0.0 0.0 0.0 -0.0 -0.0 -0.0 -0.1 -0.1 -0.2 -0.1 -0.1 -0.1 -0.1 -0.1 -0.0 -0.0 -0.0 0.1 -0.1 0.1 0.2 0.3 0.2 0.3 0.2 0.2 0.2 0.0 0.2 0.3 -0.0 -0.2 -0.3 -0.0
0.0 -0.0 0.0 0.0 0.0 0.0 0.0 0.0 0.0 0.0 0.0 0.1 0.0 0.0 0.0 0.0 0.0 -0.0 -0.0 -0.0 -0.1 -0.1 -0.0 -0.1 0.0 0.1 -0.1 -0.1 -0.0 0.0 -0.0 -0.0 0.0 -0.1 -0.2 -0.2 -0.1 -0.1 -0.2 -0.1 0.0 0.1 0.1 0.0 0.1 -0.1 -0.4 0.3 0.1
-0.0 -0.0 -0.0 -0.0 -0.0 0.0 0.0 0.0 -0.0 -0.0 0.1 0.1 0.0 -0.0 0.0 0.0 -0.0 -0.0 -0.0 -0.0 -0.0 -0.1 -0.0 -0.1 -0.0 0.1 0.1 0.0 0.0 0.0 -0.0 -0.0 -0.1 -0.1 -0.1 -0.2 -0.2 -0.2 -0.1 -0.1 -0.1 -0.0 0.2 0.3 0.3 0.3 0.1 0.1 -0.1
-0.0 -0.0 -0.0 -0.0 0.0 0.0 0.0 0.0 0.0 0.0 0.0 -0.0 -0.0 0.0 0.0 -0.0 -0.0 -0.0 -0.0 -0.1 -0.0 -0.0 -0.0 -0.1 -0.0 0.0 0.0 0.0 -0.0 0.1 0.1 0.1 -0.0 -0.1 -0.2 -0.2 -0.1 -0.1 -0.1 -0.1 -0.2 -0.1 0.0 0.2 0.4 0.5 0.2 -0.0 -0.0
-0.0 -0.0 -0.0 -0.0 0.0 0.0 0.0 0.0 -0.0 -0.0 0.0 -0.0 0.0 -0.0 -0.0 -0.0 -0.0 -0.0 -0.0 -0.1 -0.0 -0.1 -0.1 -0.1 -0.1 0.0 0.1 0.0 0.1 0.1 0.1 0.2 0.1 -0.0 -0.1 -0.1 -0.1 -0.0 -0.0 -0.0 0.0 0.1 0.1 0.3 0.4 0.4 0.3 0.3 0.3
0.0 0.0 0.0 0.0 0.0 -0.0 -0.0 -0.0 0.1 -0.0 -0.0 0.0 0.0 -0.0 0.0 -0.0 -0.0 -0.0 -0.0 -0.1 -0.1 -0.0 -0.1 -0.0 0.0 0.0 0.1 0.1 0.1 0.2 0.2 0.2 0.1 0.0 -0.0 -0.1 -0.1 -0.0 0.1 0.2 0.3 0.2 0.2 0.3 0.3 0.4 0.4 0.1 0.2
0.0 0.0 0.0 0.0 0.0 0.1 0.0 -0.1 -0.0 0.0 -0.0 0.0 0.0 -0.0 0.0 -0.0 -0.0 -0.0 -0.0 -0.1 -0.1 -0.0 -0.0 -0.0 -0.1 -0.0 -0.0 0.1 0.1 0.2 0.2 0.1 0.2 0.0 -0.1 0.0 0.0 0.0 0.1 0.2 0.1 0.2 0.3 0.3 0.4 0.3 0.4 0.2 0.2
0.1 0.1 0.0 0.0 0.0 0.1 0.0 -0.0 -0.0 -0.0 0.0 0.0 0.0 0.0 0.0 0.0 0.0 0.0 0.0 0.0 -0.0 -0.0 -0.0 -0.0 -0.1 -0.0 0.0 0.1 0.1 0.2 0.1 0.1 0.1 0.0 -0.0 0.1 0.1 0.1 0.3 -0.0 0.1 0.2 0.3 0.4 0.3 0.4 0.4 0.4 0.4
0.0 0.1 0.0 0.0 0.0 0.0 0.0 0.1 0.0 -0.0 -0.0 -0.0 0.0 0.0 0.0 0.0 0.0 0.0 0.0 0.0 0.0 -0.0 -0.0 -0.0 -0.1 0.0 0.1 0.0 0.1 0.1 0.1 0.1 0.1 0.0 0.1 0.1 0.1 0.2 0.3 0.4 0.3 0.3 0.3 0.3 0.4 0.2 0.2 0.2 0.3
0.1 0.0 0.0 0.0 0.0 0.0 0.0 0.1 0.1 0.0 0.0 0.0 0.0 0.0 0.0 0.0 0.0 0.0 0.0 -0.0 -0.0 -0.0 -0.0 -0.1 -0.1 -0.0 0.0 0.1 0.1 0.1 0.0 0.1 0.1 0.1 0.2 0.3 0.1 0.2 0.2 0.2 0.2 0.2 0.2 0.2 0.2 0.2 0.3 0.3 0.4
0.0 0.0 0.0 0.0 0.0 0.0 0.0 -0.0 0.0 -0.0 0.0 0.0 0.0 0.0 0.0 0.0 0.0 -0.0 -0.0 -0.0 -0.0 -0.0 -0.0 -0.0 -0.1 -0.1 -0.0 0.0 0.1 0.1 0.0 0.0 0.1 0.2 0.2 0.3 0.2 0.1 0.1 0.2 0.2 0.2 0.2 0.2 0.1 0.3 0.3 0.3 0.2
0.0 0.0 0.0 0.0 0.0 0.0 -0.0 0.0 -0.0 0.0 0.0 0.0 0.0 0.0 0.0 0.0 0.0 -0.0 -0.0 -0.0 -0.0 -0.0 -0.0 -0.0 -0.0 -0.0 -0.0 0.0 0.0 0.1 0.1 0.0 0.1 0.1 0.2 0.3 0.2 0.1 0.1 0.1 0.2 0.2 0.2 0.2 0.2 0.3 0.3 0.3 0.1
0.0 0.0 0.0 0.0 0.0 0.0 0.0 0.1 0.0 0.0 0.0 0.0 0.0 0.0 0.0 0.0 0.0 -0.0 -0.0 -0.0 -0.0 -0.0 -0.0 -0.0 -0.0 -0.0 0.0 0.0 -0.1 0.0 0.0 0.0 0.1 0.1 0.2 0.1 0.1 0.1 0.1 0.1 0.1 0.1 0.2 0.2 0.2 0.2 0.2 0.1 0.1
0.0 0.0 0.0 0.1 0.0 0.1 0.0 0.1 0.1 0.1 0.0 0.0 0.0 0.0 0.0 0.0 0.0 -0.0 -0.0 -0.0 -0.0 -0.0 -0.0 -0.0 -0.0 -0.0 0.0 -0.0 -0.1 -0.0 0.0 0.1 0.1 0.1 0.1 0.1 0.1 0.2 0.1 0.1 0.1 0.0 0.2 0.2 0.2 0.1 0.1 0.1 0.2
0.0 0.0 0.0 0.0 0.2 0.1 0.0 0.1 0.1 0.0 0.0 0.0 0.0 0.0 0.0 0.0 -0.0 -0.1 -0.1 -0.0 -0.0 -0.0 -0.0 -0.0 -0.0 -0.0 0.0 -0.0 -0.0 0.0 0.1 0.1 0.1 0.1 0.1 0.0 0.0 0.1 0.1 0.1 0.0 0.0 0.0 0.1 0.1 0.1 0.2 0.1 0.1
0.0 0.0 0.0 0.0 0.1 0.2 0.1 0.1 0.0 0.0 0.0 0.0 0.0 0.0 0.0 0.0 0.0 -0.0 -0.0 -0.0 -0.0 -0.0 -0.0 -0.0 0.0 -0.0 0.0 0.0 -0.0 0.0 0.1 0.1 0.1 0.0 0.1 0.1 0.0 0.1 0.1 0.1 0.1 0.1 0.0 0.1 0.1 0.2 0.2 0.1 0.2
0.0 0.0 0.0 0.0 0.0 0.0 0.0 0.0 0.0 0.0 0.0 0.0 0.0 0.0 0.0 0.0 0.0 -0.0 -0.0 -0.0 -0.0 -0.0 -0.0 -0.0 -0.0 -0.0 0.1 0.0 -0.0 0.0 0.0 0.0 0.0 0.1 0.0 0.1 0.1 0.1 0.1 0.2 0.0 0.1 -0.0 0.1 0.2 0.1 0.1 0.1 0.1
0.0 0.0 0.0 0.0 0.0 0.0 0.0 0.0 0.2 0.0 0.3 0.1 0.1 0.0 0.0 -0.0 -0.0 -0.0 -0.0 -0.0 -0.0 -0.0 0.0 0.0 -0.0 0.0 0.1 0.1 0.1 0.1 0.1 0.1 0.1 0.0 0.0 0.0 -0.0 0.0 0.0 0.0 0.0 0.1 0.0 0.0 0.1 0.3 0.1 0.1 0.1
0.0 0.0 0.0 0.0 0.0 0.0 0.1 0.1 0.2 0.1 0.1 0.0 0.1 0.0 0.0 0.0 0.0 0.0 -0.0 -0.0 -0.0 -0.0 -0.0 0.1 0.1 0.2 0.2 0.0 0.0 0.1 0.1 0.1 0.1 0.0 0.1 -0.0 -0.1 -0.0 0.0 0.0 0.0 0.0 0.1 0.0 0.1 0.1 0.3 0.1 0.0
0.0 0.0 0.0 0.0 0.0 0.0 0.0 0.0 0.1 0.1 0.1 0.0 0.0 0.2 0.1 0.1 0.0 0.0 0.0 -0.0 -0.0 -0.0 0.0 0.2 0.2 0.3 0.3 0.1 0.1 0.1 0.1 0.1 0.1 0.0 -0.0 -0.1 -0.1 -0.1 -0.1 0.0 0.0 -0.0 0.0 0.1 0.1 0.2 0.2 0.1 0.1
0.0 0.0 0.0 0.0 0.0 0.0 0.0 0.0 0.0 0.1 0.1 0.0 -0.0 -0.0 0.3 0.2 0.1 0.0 0.0 0.0 -0.0 -0.0 -0.0 0.1 0.2 0.3 0.4 0.3 0.2 0.1 0.1 0.1 0.2 0.1 -0.2 -0.1 -0.1 -0.2 -0.1 -0.0 0.1 0.1 0.1 0.0 0.0 0.2 0.1 0.1 0.1
0.0 0.0 0.0 0.0 0.0 0.0 0.0 0.0 0.0 0.0 0.0 0.0 0.1 0.0 0.1 0.2 0.2 0.1 0.0 0.0 -0.0 -0.0 -0.1 0.1 0.1 0.4 0.4 0.3 0.4 0.2 0.1 0.1 0.2 0.0 -0.1 -0.1 -0.1 -0.2 -0.2 -0.1 -0.0 -0.0 -0.0 0.1 -0.0 -0.0 0.1 0.2 0.2
0.0 0.0 0.0 0.0 0.0 0.0 0.0 0.0 0.0 0.0 0.0 0.0 0.0 0.0 0.3 0.3 0.2 0.1 0.1 0.0 -0.1 -0.1 -0.1 0.0 0.1 0.2 0.3 0.3 0.4 0.4 0.2 0.2 0.3 0.2 0.0 -0.0 -0.0 -0.1 -0.2 -0.1 0.0 0.0 0.1 0.1 0.2 0.1 0.1 0.1 0.3
0.0 0.0 0.0 0.0 0.0 0.0 0.0 0.0 0.0 0.0 0.0 0.0 0.0 0.0 0.0 0.1 0.3 0.2 0.2 0.2 0.0 -0.0 -0.0 0.0 0.1 0.2 0.2 0.2 0.7 0.6 0.3 0.1 0.1 0.2 0.1 0.1 -0.0 -0.2 -0.2 -0.1 0.0 -0.0 0.1 0.1 0.1 0.1 0.1 0.2 0.2
0.0 0.0 0.0 0.0 0.0 0.0 0.0 0.0 0.0 0.0 0.0 0.0 0.2 0.2 0.1 0.0 0.1 0.2 0.3 0.2 0.2 0.1 0.0 0.1 0.1 0.1 0.2 0.3 0.4 0.4 0.2 0.3 0.1 0.1 0.1 0.0 0.0 -0.0 -0.1 -0.3 -0.1 -0.1 0.0 0.1 0.1 0.1 0.1 0.1 0.2
0.0 0.0 0.0 0.0 0.0 0.0 0.0 0.0 0.0 0.0 0.0 0.0 0.2 0.3 0.1 0.1 0.1 0.1 0.2 0.1 0.2 0.1 0.2 0.1 0.1 0.3 0.3 0.3 0.3 0.2 0.1 0.1 0.2 0.1 0.2 0.1 0.1 0.1 0.0 -0.3 -0.3 -0.2 -0.1 0.0 0.2 0.1 0.1 0.1 0.1
0.0 0.0 0.0 0.0 0.0 0.0 0.0 0.0 0.0 0.0 0.0 0.0 0.0 0.0 0.4 0.6 0.2 0.2 0.2 0.1 0.1 0.1 0.1 0.1 0.2 0.2 0.2 0.3 0.5 0.4 0.2 0.1 0.2 0.1 0.1 0.1 0.1 0.1 -0.0 -0.1 -0.3 -0.3 -0.1 -0.0 0.1 0.1 0.2 0.2 0.1
0.0 0.0 0.0 0.0 0.0 0.0 0.0 0.0 0.0 0.0 0.0 0.0 0.0 0.0 0.0 0.0 0.1 0.7 0.5 0.1 0.1 0.1 0.1 0.1 0.1 0.2 0.2 0.4 0.8 0.5 0.6 0.2 0.1 0.2 0.1 0.0 0.1 0.2 0.1 -0.1 0.0 -0.2 -0.3 -0.2 0.1 0.0 0.1 0.1 0.1

GFSSGP_con_3kmehi_072.txt.gz
EHI
0.0 0.0 0.0 0.0 0.0 -0.0 0.0 0.1 0.2 0.1 0.0 0.0 -0.0 -0.0 -0.0 -0.0 0.0 -0.0 -0.0 -0.0 -0.0 -0.1 -0.2 -0.0 -0.2 -0.1 -0.1 -0.1 -0.0 -0.0 0.0 0.1 0.3 0.3 0.3 0.3 0.3 0.2 0.1 0.1 0.1 0.2 0.3 0.3 0.2 0.1 0.2 0.2 0.1
0.0 -0.0 0.0 -0.0 -0.0 0.0 0.1 0.1 0.1 0.0 0.0 0.0 0.0 -0.0 -0.0 -0.0 0.0 -0.0 -0.0 -0.0 -0.0 -0.1 -0.1 -0.1 -0.1 -0.1 0.0 -0.0 0.1 0.1 -0.1 0.0 0.4 0.4 0.3 0.3 0.3 0.3 0.3 0.3 -0.0 0.1 0.0 0.1 0.1 -0.0 0.1 0.1 -0.0
0.0 0.0 0.0 -0.0 0.0 0.0 0.1 0.2 0.1 0.0 0.0 0.0 0.0 0.0 0.0 0.0 -0.0 0.0 -0.0 -0.0 -0.0 -0.1 -0.1 -0.1 -0.1 -0.1 -0.0 -0.0 0.0 -0.0 0.1 0.2 0.3 0.3 0.3 0.4 0.3 0.3 0.2 0.2 0.1 -0.0 0.1 0.1 -0.0 -0.1 -0.1 -0.1 -0.1
0.0 0.1 0.1 0.0 -0.0 0.0 0.0 0.1 0.0 0.0 0.1 0.1 0.0 -0.0 -0.0 0.0 -0.0 -0.0 -0.0 -0.0 -0.1 -0.1 -0.1 -0.2 -0.1 -0.1 -0.1 -0.0 -0.1 -0.0 0.0 0.1 0.1 0.1 0.2 0.2 0.2 0.2 0.2 0.1 0.2 0.1 0.1 0.1 -0.3 -0.4 0.1 -0.1 -0.2
0.1 0.2 -0.1 -0.1 0.0 0.1 0.1 0.0 0.0 0.0 0.0 0.2 0.1 -0.0 0.0 -0.0 -0.0 -0.0 -0.0 -0.0 -0.1 -0.1 -0.1 -0.1 -0.1 -0.1 -0.1 -0.1 -0.0 0.2 0.1 0.1 0.0 0.0 -0.0 -0.0 0.0 -0.1 -0.1 -0.1 0.1 0.2 0.2 0.3 0.3 0.1 0.0 -0.1 -0.1
0.1 0.1 -0.1 -0.0 0.1 0.1 0.0 -0.0 0.0 -0.0 0.0 0.0 0.0 0.0 0.0 -0.0 -0.0 -0.0 -0.0 -0.0 -0.1 -0.1 -0.1 -0.1 -0.1 -0.1 -0.1 -0.0 -0.0 0.1 0.1 0.1 0.0 -0.1 -0.1 -0.0 -0.1 -0.1 -0.2 -0.2 -0.1 0.1 0.2 0.4 0.4 -0.0 -0.3 0.1 0.3
0.1 -0.1 0.0 -0.0 0.1 0.0 0.0 0.0 -0.0 0.0 0.0 -0.1 -0.0 0.0 -0.0 0.0 -0.0 -0.0 -0.0 -0.1 -0.0 -0.1 -0.1 -0.1 -0.1 -0.1 0.0 -0.0 0.0 0.2 0.2 0.2 0.0 -0.1 -0.1 -0.0 -0.0 -0.1 -0.1 0.0 0.1 0.1 0.4 0.4 0.3 0.2 0.2 0.2 0.2
0.0 0.1 -0.0 0.0 -0.0 -0.0 -0.0 -0.0 -0.0 0.0 -0.0 -0.0 -0.0 -0.0 0.0 0.0 -0.0 -0.0 -0.1 -0.0 0.0 -0.0 -0.1 -0.1 -0.0 0.0 0.1 0.1 0.1 0.1 0.2 0.1 0.1 -0.1 -0.0 0.1 -0.0 0.0 0.1 0.2 0.3 0.2 0.2 0.4 0.5 0.3 0.2 0.2 0.1
0.1 0.0 0.0 0.0 0.1 -0.0 -0.0 0.0 0.1 0.1 -0.0 0.0 -0.0 -0.0 0.0 0.0 -0.0 -0.0 -0.0 -0.0 0.0 0.1 0.0 -0.0 -0.0 0.0 0.2 -0.0 0.1 0.2 0.1 0.2 0.1 -0.0 0.2 0.4 0.1 0.1 0.0 0.2 0.1 0.2 0.4 0.3 0.3 0.3 0.0 0.2 0.0
0.1 0.1 0.1 0.0 0.0 0.1 -0.1 -0.1 -0.0 -0.0 -0.0 0.0 -0.0 -0.0 0.0 0.0 -0.0 0.0 0.0 0.0 -0.0 -0.0 0.0 -0.0 -0.0 -0.0 0.1 0.0 0.2 0.1 0.1 0.1 0.0 -0.1 0.0 0.1 0.2 0.4 0.1 -0.0 0.1 0.3 0.2 0.1 0.2 0.2 0.4 0.6 0.5
0.1 0.1 0.0 0.0 0.1 0.0 0.1 -0.0 -0.0 -0.0 0.0 0.0 0.0 0.0 0.0 0.0 0.0 0.0 0.0 0.0 0.0 -0.0 -0.0 -0.0 0.0 0.1 0.0 0.0 0.1 0.1 0.1 0.1 0.1 0.0 0.0 0.1 0.0 0.1 0.1 0.2 0.3 0.3 0.5 0.2 0.2 0.3 0.2 0.3 0.2
0.2 0.1 0.1 0.0 0.0 -0.0 -0.0 -0.0 0.0 0.0 0.0 0.0 0.0 0.0 0.0 0.0 0.0 0.0 0.0 0.0 -0.0 -0.0 -0.0 -0.0 -0.1 0.1 0.1 0.1 0.1 0.1 -0.0 0.1 0.1 -0.0 0.0 0.1 0.0 0.1 0.1 0.2 0.2 0.4 0.2 0.2 0.2 0.2 0.2 0.2 0.2
0.1 0.1 0.0 -0.0 0.0 -0.0 -0.0 -0.0 0.0 -0.0 0.0 -0.0 0.0 0.0 0.0 0.0 0.0 -0.0 -0.0 0.0 -0.0 -0.0 0.0 -0.0 -0.1 0.1 0.2 0.1 -0.0 0.0 -0.0 0.1 -0.0 0.0 0.1 0.0 0.0 0.1 0.1 0.2 0.2 0.3 0.2 0.1 0.1 0.1 0.2 0.1 0.0
0.0 0.0 0.0 0.0 0.0 0.0 -0.0 -0.0 -0.1 0.0 0.0 0.0 0.0 0.0 0.0 0.0 0.0 0.0 -0.0 0.0 0.0 -0.0 -0.0 -0.0 -0.0 -0.0 0.1 0.1 -0.0 -0.0 0.1 0.0 0.1 0.0 0.1 0.2 0.1 0.2 0.2 0.1 0.2 0.2 0.2 0.1 0.1 0.3 0.1 0.1 -0.0
0.0 0.0 0.0 0.0 0.0 0.0 -0.0 0.0 0.0 0.1 0.0 0.0 0.0 0.0 0.0 0.0 0.0 0.0 -0.0 -0.0 0.0 -0.0 -0.0 -0.0 0.0 -0.0 0.1 0.0 -0.0 0.1 0.0 0.1 0.0 0.1 0.1 0.1 0.2 0.1 0.2 0.2 0.1 0.1 0.2 0.3 0.2 0.1 0.1 -0.0 0.0
0.0 0.0 0.0 0.0 0.0 0.0 -0.1 0.1 0.1 0.1 0.0 0.0 0.0 0.0 0.0 -0.0 0.0 -0.0 -0.0 -0.0 0.0 -0.0 0.0 0.0 0.0 0.0 -0.0 0.0 0.0 0.1 0.0 0.1 0.1 0.1 0.0 0.0 0.1 0.0 0.1 0.1 0.1 0.2 0.3 0.1 0.1 0.1 -0.0 0.0 0.0
0.0 0.0 0.0 0.0 0.1 0.1 0.0 0.1 0.1 0.0 0.0 -0.0 0.0 -0.0 0.0 -0.0 -0.0 -0.0 -0.0 0.0 0.0 0.0 0.1 0.0 0.1 0.0 0.0 0.0 0.0 0.1 0.0 0.3 0.1 0.1 0.0 -0.0 0.0 -0.0 0.0 0.1 0.1 0.4 0.1 0.1 0.0 0.0 0.1 0.1 0.0
0.0 0.0 0.0 0.0 0.1 0.0 0.0 0.2 0.2 0.0 0.0 0.0 0.0 -0.0 0.0 0.0 -0.0 -0.0 -0.0 -0.0 0.1 0.0 0.0 0.0 0.1 0.1 0.1 -0.0 0.0 -0.0 -0.1 0.1 0.1 0.1 0.1 0.0 0.0 0.0 -0.0 0.0 0.1 0.3 0.1 0.0 0.1 0.2 0.1 0.1 0.1
0.0 0.0 0.0 0.0 0.1 0.0 0.0 0.0 0.0 0.0 -0.0 0.1 0.0 -0.0 0.0 0.0 -0.0 -0.0 -0.0 -0.1 0.1 0.1 0.0 0.0 0.0 0.1 0.0 0.0 -0.1 -0.1 0.1 0.1 0.1 -0.0 0.0 -0.0 0.0 0.1 0.0 0.1 0.1 0.2 0.1 0.3 0.1 0.0 0.1 -0.0 0.0
0.0 0.0 0.0 0.0 0.0 0.0 0.0 0.0 0.0 -0.0 0.0 0.0 0.1 0.0 0.1 0.0 0.0 -0.0 -0.0 -0.0 0.1 0.1 0.0 0.0 -0.0 0.1 -0.1 -0.0 -0.1 -0.0 0.2 0.1 0.1 -0.0 0.0 0.0 -0.0 0.1 -0.0 0.1 0.0 0.1 -0.0 0.1 0.1 0.3 0.0 0.0 0.1
0.0 0.0 0.0 0.0 0.0 0.0 0.0 0.0 0.1 0.0 0.0 0.2 0.0 0.0 0.0 0.1 0.1 0.0 0.0 -0.0 0.0 0.0 0.0 0.0 -0.1 -0.0 -0.2 -0.0 -0.0 0.1 0.2 0.3 0.2 0.0 -0.1 -0.1 -0.0 -0.0 0.1 -0.0 0.0 0.1 0.1 0.0 0.2 0.3 0.4 -0.0 0.1
0.0 0.0 0.0 0.0 0.0 0.0 0.0 0.0 0.0 0.1 0.1 0.2 0.1 -0.0 0.0 0.1 0.1 0.2 0.1 0.1 0.0 0.0 -0.0 -0.0 0.0 0.1 -0.0 -0.0 -0.1 0.1 0.1 0.1 0.1 0.0 -0.0 0.1 -0.1 -0.1 0.1 0.0 -0.0 0.1 0.1 0.2 0.1 0.2 0.3 0.5 0.0
0.0 0.0 0.0 0.0 0.0 0.0 0.0 0.0 0.1 0.1 -0.1 0.1 0.2 -0.1 -0.0 0.1 0.0 0.1 0.1 0.1 0.1 0.0 -0.1 -0.0 -0.0 0.2 0.1 -0.1 0.1 -0.0 0.3 0.1 0.2 0.1 0.4 -0.0 -0.2 -0.1 -0.0 0.2 0.1 0.0 0.1 0.1 0.3 0.3 0.5 0.2 0.0
0.0 0.0 0.0 0.0 0.0 0.0 0.0 0.0 0.0 0.0 0.0 0.0 0.1 0.1 -0.1 0.2 0.1 -0.0 0.1 0.1 0.0 0.0 -0.1 -0.1 -0.1 0.2 0.2 0.3 0.5 0.3 0.1 0.2 0.1 0.0 0.4 -0.0 -0.1 -0.2 0.0 0.0 0.1 0.2 0.1 -0.0 0.1 0.3 0.3 0.4 0.2
0.0 0.0 0.0 0.0 0.0 0.0 0.0 0.0 0.0 0.0 0.0 0.0 0.0 0.0 0.1 0.1 0.2 0.1 0.1 0.1 0.0 0.0 -0.1 -0.1 -0.1 0.2 0.2 0.2 0.6 0.6 0.3 0.0 0.1 0.2 0.0 -0.0 0.0 -0.1 -0.1 -0.1 0.0 0.1 0.2 0.0 0.1 0.2 0.2 0.2 0.2
0.0 0.0 0.0 0.0 0.0 0.0 0.0 0.0 0.0 0.0 0.0 0.3 0.4 0.1 0.0 0.2 0.2 0.2 0.2 0.1 0.0 0.0 -0.0 -0.0 -0.0 0.1 0.2 0.3 0.7 0.7 0.3 0.1 0.1 0.1 0.1 0.0 0.0 -0.0 0.1 -0.1 -0.0 0.0 -0.0 0.1 0.1 0.1 0.1 0.1 0.2
0.0 0.0 0.0 0.0 0.0 0.0 0.0 0.0 0.0 0.0 0.0 0.1 0.3 0.4 0.3 0.3 0.0 0.1 0.2 0.1 0.2 0.1 0.1 0.2 0.1 0.1 0.2 0.1 0.4 0.5 0.3 0.2 0.1 0.2 0.1 0.1 0.1 0.1 0.1 0.0 -0.2 -0.1 -0.1 -0.0 -0.0 0.1 0.1 0.1 0.1
0.0 0.0 0.0 0.0 0.0 0.0 0.0 0.0 0.0 0.0 0.0 0.0 0.0 0.2 0.8 0.3 0.3 0.2 -0.0 0.1 0.0 0.1 0.2 0.3 0.3 0.3 0.3 0.2 0.2 0.3 0.3 0.2 0.3 0.3 0.2 0.2 0.2 0.1 0.2 -0.1 0.4 -0.1 -0.1 -0.1 -0.0 -0.0 -0.0 0.1 0.1
0.0 0.0 0.0 0.0 0.0 0.0 0.0 0.0 0.0 0.0 0.0 0.0 0.0 0.0 0.0 0.2 0.7 0.5 0.9 0.1 0.1 0.1 0.2 0.2 0.2 0.2 0.3 0.3 0.3 0.3 0.3 0.3 0.3 0.4 0.2 0.2 0.1 0.1 0.1 0.0 -0.2 -0.2 -0.2 -0.2 -0.1 0.0 0.0 -0.0 0.0
0.0 0.0 0.0 0.0 0.0 0.0 0.0 0.0 0.0 0.0 0.0 0.0 0.0 0.0 0.0 0.0 0.0 0.0 0.0 0.0 0.1 0.3 0.3 0.3 0.3 0.2 0.2 0.3 0.4 0.4 0.4 0.3 0.2 0.3 0.4 0.2 0.2 0.1 0.1 0.3 -0.0 -0.3 -0.3 -0.3 -0.2 -0.1 -0.1 -0.1 0.0

GFSSGP_con_3kmehi_075.txt.gz
EHI
0.0 0.0 0.0 0.0 -0.0 0.0 -0.0 0.1 0.1 0.1 0.0 0.0 0.0 -0.0 -0.0 0.6 0.3 -0.2 -0.0 -0.0 0.0 -0.1 -0.1 -0.1 -0.4 -0.0 -0.1 -0.0 0.1 0.2 0.2 0.3 0.2 0.3 0.2 0.2 0.2 0.2 0.1 0.1 0.2 0.3 0.3 0.2 0.2 0.2 0.2 0.2 -0.1
0.0 0.0 0.0 0.0 0.0 0.1 0.1 0.1 0.2 0.1 0.0 0.0 0.0 -0.0 0.0 0.0 0.0 0.1 -0.0 -0.0 -0.0 -0.0 -0.0 -0.1 -0.2 -0.0 0.0 0.1 -0.0 -0.1 0.1 0.2 0.3 0.4 0.3 0.3 0.3 0.3 0.2 0.1 0.1 0.1 0.2 0.1 0.0 0.0 0.1 0.0 -0.1
0.2 0.0 0.0 -0.0 -0.0 0.1 0.2 0.0 0.0 0.0 0.0 0.0 -0.0 0.2 0.3 -0.0 0.0 0.0 0.1 -0.0 0.0 0.0 0.0 0.1 -0.1 -0.1 -0.0 0.1 0.1 0.1 0.2 0.2 0.2 0.3 0.4 0.3 0.3 0.2 0.2 0.2 0.1 0.1 0.1 -0.1 -0.2 -0.1 -0.1 0.1 -0.2
0.0 0.1 0.1 0.0 0.0 0.1 0.2 0.0 0.0 0.1 0.2 0.1 -0.0 -0.0 0.0 -0.0 -0.0 0.1 -0.0 -0.0 0.0 0.1 0.3 0.1 0.0 -0.0 -0.0 0.1 0.1 0.1 0.1 0.1 0.2 0.3 0.2 0.1 0.1 0.1 0.1 0.2 0.1 0.1 -0.1 -0.4 -0.3 -0.1 0.2 -0.4 -0.2
0.0 0.2 0.2 0.0 0.1 0.2 0.2 0.0 0.0 0.1 0.3 0.1 0.0 0.0 0.0 -0.0 0.0 0.0 -0.0 -0.0 -0.0 0.2 0.1 0.1 -0.1 -0.1 -0.1 -0.0 0.1 0.1 0.2 0.1 0.2 0.0 0.1 0.1 0.0 -0.1 -0.1 0.0 0.2 0.2 0.2 -0.1 0.1 0.0 -0.1 -0.2 -0.1
0.1 0.3 -0.1 -0.0 0.3 0.1 0.0 -0.0 0.0 0.0 0.2 0.1 -0.0 0.0 -0.0 -0.0 0.0 -0.0 -0.0 -0.0 0.1 0.1 0.1 0.1 -0.0 -0.0 -0.1 0.1 0.2 0.2 0.2 0.3 0.1 0.0 0.1 0.1 -0.0 -0.1 -0.1 -0.1 0.2 0.3 0.5 -0.1 -0.4 -0.3 -0.2 -0.1 -0.1
0.2 0.2 -0.0 -0.0 0.2 0.1 0.0 -0.0 0.0 0.0 0.0 0.0 -0.0 -0.0 -0.0 -0.0 -0.0 -0.0 -0.0 0.0 -0.0 0.3 0.2 0.1 0.1 -0.0 -0.0 0.0 0.1 0.2 0.3 0.3 0.1 0.1 0.1 0.1 0.0 0.1 0.1 -0.0 0.0 0.3 0.1 0.1 -0.0 0.0 0.2 0.1 0.1
0.3 0.0 -0.0 0.0 0.1 0.1 -0.0 0.0 0.0 0.0 0.0 0.0 0.0 -0.0 0.0 0.0 -0.0 -0.0 -0.0 0.0 -0.0 0.1 0.0 0.1 0.1 0.0 0.0 0.1 0.0 0.2 0.2 0.1 0.0 0.2 0.3 0.2 0.1 0.2 0.2 0.0 0.2 -0.0 -0.1 -0.0 0.0 0.1 0.1 0.1 0.1
0.4 0.1 0.0 0.0 0.1 0.1 0.1 0.0 -0.0 0.1 -0.0 0.0 0.0 -0.0 0.0 0.0 -0.0 -0.0 -0.0 0.0 -0.0 0.3 0.0 0.0 0.1 0.2 0.2 0.1 0.1 0.1 0.2 0.2 0.1 0.2 0.5 0.8 0.1 0.1 0.0 0.4 0.1 0.0 -0.1 -0.1 0.0 0.1 0.3 0.1 0.2
0.1 0.2 0.1 0.1 0.2 0.0 -0.0 -0.1 -0.0 0.0 0.0 -0.0 0.0 0.1 0.0 0.0 -0.0 -0.0 -0.0 -0.0 0.0 0.1 0.0 0.1 0.2 0.2 0.0 0.1 0.1 0.3 0.4 0.2 0.1 -0.1 1.0 0.6 0.5 0.0 -0.0 -0.1 0.1 0.1 0.2 0.2 0.3 0.5 1.1 1.3 0.4
0.0 0.1 0.0 0.1 0.1 0.1 -0.0 0.0 -0.0 0.0 0.1 0.0 0.0 0.0 0.0 0.0 -0.0 -0.0 -0.0 0.0 0.0 0.0 0.0 0.3 0.4 0.3 0.1 0.1 0.0 0.1 0.0 -0.0 -0.0 0.3 0.4 -0.0 0.1 0.0 0.1 0.0 0.2 0.5 0.5 0.4 0.4 0.7 1.0 1.8 0.1
0.0 -0.1 -0.0 0.0 0.0 0.1 0.1 -0.0 -0.0 0.0 0.1 0.1 0.0 0.0 0.0 0.0 0.0 -0.0 -0.0 -0.0 0.0 0.0 0.0 0.1 0.0 0.9 0.2 -0.0 0.0 0.2 0.0 0.1 0.1 -0.1 0.3 0.1 0.0 0.1 0.3 -0.2 0.1 0.3 0.2 0.1 0.2 0.1 0.2 0.2 0.4
0.1 -0.0 -0.0 -0.0 -0.0 0.0 0.0 -0.0 0.1 -0.0 -0.0 0.0 0.0 0.0 0.0 0.0 -0.0 -0.0 -0.0 0.0 0.0 0.0 0.0 0.2 0.1 0.5 0.9 0.1 0.0 0.1 -0.0 0.1 -0.0 0.1 0.5 0.4 0.2 0.2 0.3 0.4 0.2 0.1 -0.0 0.1 0.1 0.4 -0.0 0.2 0.1
0.1 0.1 0.0 -0.0 0.0 0.0 -0.0 0.1 0.1 0.1 0.0 -0.0 -0.0 0.0 0.0 0.0 -0.0 -0.0 -0.0 0.0 0.0 0.0 0.0 0.2 0.1 0.1 0.3 0.2 0.2 0.3 0.5 0.0 -0.1 0.0 0.0 0.5 -0.0 0.3 0.1 0.3 0.1 0.2 0.4 0.7 0.4 0.5 0.3 0.0 0.0
0.1 0.0 -0.0 -0.0 0.0 0.0 -0.0 0.1 0.1 0.2 0.1 0.0 0.0 -0.0 0.0 -0.0 -0.0 -0.0 0.0 0.0 0.0 0.0 0.0 0.1 0.1 0.1 -0.0 -0.0 -0.0 0.2 -0.1 0.2 0.4 0.0 0.1 0.1 0.4 0.1 0.2 0.0 0.2 0.1 0.2 0.1 0.2 0.0 0.3 -0.0 -0.0
0.0 -0.0 -0.0 0.0 0.0 0.0 -0.0 0.1 0.3 0.3 0.1 0.0 0.0 -0.0 -0.0 -0.0 -0.0 0.0 0.0 0.0 0.0 0.0 0.0 0.1 -0.0 0.1 0.0 0.0 0.0 0.2 0.1 0.3 0.0 0.1 0.2 -0.0 0.1 0.1 0.6 0.1 0.1 -0.1 0.4 0.0 0.6 0.1 0.3 -0.1 0.1
0.0 0.0 -0.0 0.1 -0.0 0.1 0.1 0.2 0.4 0.3 0.1 0.1 -0.0 0.0 0.0 -0.0 -0.0 0.0 0.0 0.0 0.0 0.0 0.0 0.0 0.1 0.1 0.0 0.1 0.0 -0.2 -0.1 0.2 0.1 0.4 0.4 0.1 0.0 0.0 0.3 0.0 0.1 0.6 0.7 0.4 0.0 0.1 0.2 0.1 0.5
0.0 -0.0 -0.0 0.0 0.0 0.0 0.3 0.2 0.3 0.2 0.1 0.1 0.0 -0.0 0.0 -0.0 -0.0 0.0 0.0 0.0 0.1 0.1 0.0 0.1 0.0 0.2 0.0 0.0 -0.0 -0.0 -0.2 0.2 0.3 0.2 0.3 -0.0 0.4 0.0 0.2 0.1 0.1 0.5 0.2 0.4 0.5 0.7 0.2 0.8 -0.1
0.0 0.0 0.0 0.0 0.0 -0.0 0.1 0.2 0.2 0.2 0.1 0.2 0.1 0.0 -0.0 -0.0 -0.0 0.0 0.0 0.1 0.1 0.1 0.0 0.1 0.1 0.3 0.0 -0.0 -0.1 -0.1 -0.2 0.2 0.2 0.2 0.0 -0.0 0.2 0.1 0.1 -0.0 0.0 1.2 0.7 0.9 0.2 0.1 0.3 0.1 0.2
0.0 0.0 0.0 0.0 0.0 0.0 0.0 0.0 0.1 -0.1 0.3 0.1 0.1 -0.0 -0.0 -0.0 0.0 -0.0 -0.0 0.0 0.1 0.2 0.1 0.1 0.1 0.3 -0.2 -0.1 0.0 0.0 0.1 0.1 0.3 0.3 0.1 0.1 0.0 0.0 0.1 -0.1 0.0 0.3 0.3 0.1 0.2 0.2 0.7 -0.0 0.2
0.0 0.0 0.0 0.0 0.0 -0.0 0.0 0.0 0.1 0.0 -0.0 1.0 0.3 0.0 -0.1 0.0 0.1 0.1 0.1 0.1 0.1 0.2 0.1 0.1 0.1 0.2 -0.2 0.1 0.1 0.2 0.4 0.5 0.1 0.3 0.0 0.1 0.2 0.1 0.2 0.2 0.4 0.1 0.3 0.1 0.2 0.3 0.3 0.5 0.0
0.0 0.0 0.0 0.0 0.0 0.0 0.0 0.0 0.1 0.1 0.1 0.8 0.1 -0.1 0.0 0.1 0.1 0.1 0.1 0.1 -0.0 0.1 0.0 0.1 0.1 0.1 0.0 0.1 -0.2 0.1 0.1 0.2 0.0 0.2 0.3 0.3 0.1 0.1 0.2 0.1 -0.0 0.1 0.2 1.1 0.1 0.2 1.2 0.3 -0.0
0.0 0.0 0.0 0.0 0.0 -0.0 0.0 0.0 0.0 0.2 0.3 0.3 -0.1 -0.1 0.3 0.4 0.1 0.1 0.2 0.1 0.0 0.1 0.1 0.1 0.1 0.1 0.1 -0.2 0.6 -0.1 0.2 0.3 0.0 0.7 -0.4 0.5 0.2 -0.0 0.3 0.2 0.1 0.1 0.2 0.3 0.2 0.4 0.7 0.2 0.3
0.0 0.0 0.0 0.0 0.0 0.0 0.0 -0.0 -0.1 0.1 0.5 0.5 0.2 0.0 0.1 0.0 0.4 0.2 0.1 0.1 0.0 0.1 0.1 0.2 0.3 0.2 -0.0 -0.1 -0.2 0.2 0.5 0.9 0.6 0.6 0.1 0.0 0.1 0.2 0.0 0.3 -0.2 0.1 0.8 0.6 0.1 0.2 0.4 1.3 0.9
0.0 0.0 0.0 0.0 0.0 0.0 0.0 0.0 0.1 0.0 0.0 0.0 0.1 0.0 0.0 0.6 0.2 0.4 -0.0 0.2 0.1 -0.0 0.0 0.2 0.3 0.2 0.1 -0.0 -0.1 -0.2 0.3 0.4 1.0 0.8 0.1 -0.0 0.1 0.1 1.0 0.2 0.5 0.1 0.1 0.1 0.1 -0.1 0.5 0.2 0.5
0.0 0.0 0.0 0.0 0.0 0.0 0.0 0.0 0.0 0.0 0.4 0.5 0.2 0.0 0.2 0.3 0.2 0.2 0.3 -0.1 0.2 0.2 0.1 0.1 0.4 0.4 0.1 0.1 -0.0 0.1 0.1 0.1 0.1 0.1 0.3 0.3 -0.1 0.3 2.3 0.5 0.3 0.2 0.4 0.1 0.0 -0.0 0.1 -0.3 0.0
0.0 0.0 0.0 0.0 0.0 0.0 0.1 0.0 0.0 0.1 0.2 0.3 1.0 0.7 0.0 0.0 0.7 0.4 0.1 0.4 0.4 0.1 0.2 0.2 0.8 0.4 0.2 0.1 0.1 0.1 0.2 0.1 0.1 0.3 0.2 0.5 0.3 0.4 0.6 0.4 0.2 0.3 0.2 0.1 -0.2 -0.1 0.0 0.6 -0.0
0.0 0.0 0.0 0.0 0.0 0.0 0.1 0.0 0.0 0.1 0.1 0.1 0.1 0.5 0.8 0.3 0.1 0.0 0.4 0.5 0.6 0.3 0.2 0.2 0.3 0.5 0.4 0.2 0.1 0.1 0.1 0.2 0.2 0.3 0.3 0.3 0.5 0.2 0.7 0.5 0.2 0.2 0.2 -0.1 -0.2 0.1 0.0 -0.0 -0.0
0.0 0.0 0.0 0.0 0.0 0.0 0.1 0.0 0.0 0.0 0.0 0.0 0.0 0.0 0.0 0.0 0.0 0.0 0.0 0.0 0.1 0.2 0.4 0.5 0.3 0.4 0.4 0.5 0.3 0.3 0.2 0.2 0.3 0.3 0.3 0.3 0.3 0.5 0.1 0.6 0.2 0.1 0.2 0.3 -0.0 -0.4 0.1 -0.2 0.0
0.0 0.0 0.0 0.0 0.0 0.0 0.0 0.0 0.0 0.0 0.0 0.0 0.0 0.0 0.0 0.0 0.0 0.0 0.0 0.0 0.0 0.0 0.0 0.2 0.3 0.3 0.4 0.6 0.7 0.4 0.3 0.3 0.3 0.4 0.4 0.5 0.4 0.3 0.3 0.3 0.2 0.2 0.0 0.0 0.3 0.1 -0.0 -0.1 0.0

GFSSGP_con_3kmehi_078.txt.gz
EHI
0.0 0.0 0.0 0.1 0.0 0.1 0.0 0.1 0.0 0.3 0.0 0.0 0.0 0.1 0.1 0.3 -0.0 0.1 -0.0 -0.0 -0.0 -0.1 -0.1 -0.1 -0.2 -0.2 -0.1 -0.1 -0.0 0.1 0.2 0.2 0.2 0.2 0.2 0.1 0.1 0.1 0.1 0.2 0.2 0.2 0.1 0.2 0.2 0.1 0.1 -0.0 -0.3
0.0 0.0 0.0 -0.0 0.0 0.0 0.0 0.0 0.0 0.1 0.1 0.0 0.2 0.3 0.2 0.0 0.1 0.3 -0.0 -0.1 -0.0 -0.0 -0.1 -0.1 -0.2 -0.2 -0.1 0.1 0.1 0.1 0.2 0.2 0.2 0.3 0.2 0.3 0.3 0.2 0.1 0.1 0.1 -0.0 -0.0 0.0 0.0 0.0 -0.0 -0.0 -0.4
0.0 0.0 0.0 -0.1 0.0 0.1 0.1 0.1 0.0 0.1 0.1 0.0 0.0 0.1 0.1 0.0 0.1 0.1 -0.1 0.0 -0.0 -0.0 -0.0 -0.1 -0.1 -0.1 -0.0 0.0 0.1 0.1 0.2 0.2 0.3 0.4 0.3 0.2 0.2 0.2 0.1 -0.0 0.0 -0.0 -0.0 -0.2 -0.3 0.0 -0.0 -0.2 -0.5
0.1 0.1 0.0 0.1 0.1 0.1 0.1 0.0 -0.0 0.2 0.2 0.1 0.0 0.0 0.0 -0.0 0.2 0.1 0.0 0.0 -0.0 0.0 0.0 0.2 0.1 -0.0 0.1 0.0 0.1 0.2 0.2 0.3 0.4 0.3 0.1 0.1 0.0 0.1 0.1 0.1 -0.0 -0.1 -0.3 -0.3 -0.2 -0.0 -0.3 -0.3 -0.3
0.0 0.2 0.1 -0.0 0.1 0.2 0.0 0.0 0.0 0.2 0.1 0.2 0.0 0.0 0.0 0.1 0.1 -0.0 -0.0 0.1 0.2 0.1 0.1 0.1 0.0 0.1 0.1 0.1 0.1 0.2 0.2 0.2 0.1 0.1 0.1 0.0 -0.1 -0.1 -0.0 0.0 -0.2 -0.3 -0.2 -0.0 0.0 0.1 -0.2 -0.1 -0.0
0.2 0.3 -0.1 0.0 0.3 0.1 0.0 0.0 0.0 0.1 0.1 -0.0 0.0 0.0 0.0 0.1 -0.0 -0.0 0.2 0.4 0.4 0.1 0.1 0.1 0.1 0.2 0.1 0.1 0.2 0.2 0.2 0.1 0.1 0.2 0.1 0.0 -0.1 -0.1 -0.1 -0.1 -0.0 -0.0 -0.2 -0.1 -0.0 0.1 0.1 0.0 -0.1
0.6 0.2 -0.0 0.0 0.2 0.1 -0.0 0.0 0.0 0.1 -0.0 0.0 0.0 0.0 0.0 0.0 -0.0 0.0 0.3 0.1 -0.0 0.3 0.3 0.1 0.1 0.1 0.2 0.2 0.2 0.3 0.3 0.1 0.2 0.2 0.2 0.3 0.1 -0.1 -0.1 0.1 0.0 -0.2 -0.1 -0.0 0.0 0.2 0.2 0.1 0.0
0.1 0.2 -0.0 -0.0 0.2 0.0 -0.0 -0.0 0.0 0.1 -0.0 -0.0 0.0 0.0 0.0 0.0 -0.0 0.1 0.1 0.0 0.4 0.4 -0.1 0.1 0.1 0.1 0.1 0.2 0.3 0.3 0.2 0.3 0.2 0.2 0.2 0.1 0.3 0.1 0.1 0.2 0.0 -0.1 -0.0 0.1 0.1 0.2 0.2 -0.1 -0.4
0.1 0.0 0.1 -0.1 0.2 0.0 0.0 0.0 0.0 0.1 0.1 0.1 0.0 0.0 0.0 -0.0 -0.0 0.1 0.1 0.7 0.2 0.1 -0.1 0.0 0.4 0.6 0.3 0.2 0.1 0.2 0.2 0.3 0.3 0.2 0.1 0.2 -0.1 0.1 0.3 0.2 0.1 0.1 0.1 0.1 0.2 0.2 -0.1 -0.1 0.1
0.1 0.3 0.0 0.1 0.1 0.1 0.0 -0.0 -0.0 0.0 0.1 0.0 0.0 0.0 0.0 -0.0 -0.0 0.1 0.0 0.2 0.0 0.0 0.0 0.4 0.4 -0.2 -0.0 0.0 -0.0 0.1 0.1 0.3 0.6 0.3 0.1 0.1 0.4 0.1 0.1 0.2 0.3 0.4 0.4 0.4 0.6 0.6 0.6 0.5 0.3
0.0 0.1 -0.0 0.1 0.2 0.1 0.1 -0.0 0.0 0.2 -0.0 0.0 0.0 0.0 0.0 -0.0 -0.0 0.0 0.0 0.1 0.0 0.0 0.7 0.7 0.8 0.3 -0.4 0.3 -0.1 -0.0 -0.4 -0.3 0.1 0.5 0.7 0.2 0.2 0.2 -0.0 -0.2 0.1 0.3 0.4 0.6 0.7 1.2 0.5 1.6 -0.0
0.1 -0.1 -0.0 0.1 0.2 0.1 0.1 -0.0 0.0 0.0 0.2 0.0 0.0 0.0 0.0 -0.0 -0.0 0.0 0.0 0.0 0.0 0.4 0.3 0.3 0.8 0.1 -0.1 0.3 0.1 0.0 0.2 0.1 -0.0 0.2 0.4 0.1 0.4 0.3 0.1 -0.0 0.2 0.7 0.2 0.1 0.2 1.0 1.2 1.2 0.1
0.1 0.2 0.0 0.0 0.6 0.2 -0.0 0.0 0.1 0.0 0.1 0.0 0.0 0.0 0.0 -0.0 -0.0 -0.0 0.0 0.0 0.0 0.1 0.3 0.7 0.1 -0.3 0.6 0.2 0.2 0.1 0.0 0.0 0.1 -0.0 0.2 0.3 0.0 0.2 -0.2 0.3 0.0 0.1 0.2 -0.0 0.1 0.2 0.9 0.2 0.3
0.1 0.1 -0.0 -0.0 0.0 0.0 0.1 0.4 0.2 0.0 0.0 0.0 0.0 0.0 -0.0 -0.0 -0.0 -0.0 0.0 0.0 0.0 0.0 0.3 1.1 0.6 0.3 0.7 -0.1 0.1 -0.2 -0.1 0.2 -0.0 0.0 0.1 0.7 0.0 0.6 -0.1 0.2 0.6 -0.3 0.0 0.2 0.1 0.7 0.0 0.4 0.2
-0.0 0.1 -0.0 -0.0 0.0 0.0 0.4 0.3 0.1 0.0 -0.0 0.1 0.0 -0.0 -0.0 -0.0 0.0 -0.0 -0.0 0.1 0.0 0.0 0.5 0.4 0.2 0.3 0.4 -0.2 -0.0 -0.0 0.4 -0.1 0.1 0.2 0.4 0.5 1.0 0.2 0.1 0.5 0.2 0.1 0.4 0.0 0.2 0.6 0.4 0.1 0.2
0.0 0.0 -0.0 0.0 0.0 0.0 0.2 0.1 0.5 0.1 0.1 0.0 0.1 -0.0 0.0 -0.0 0.0 0.0 -0.0 0.0 0.0 0.0 0.4 0.1 0.1 -0.0 0.0 -0.3 -0.2 -0.0 0.1 -0.1 -0.0 0.1 0.4 -0.0 0.2 0.0 -0.0 0.4 -0.1 -0.1 0.3 -0.4 0.1 0.5 -0.0 0.7 0.0
0.0 -0.0 -0.0 0.0 0.0 0.1 0.2 0.2 0.1 0.0 0.0 0.0 0.1 0.0 0.0 -0.0 -0.0 0.1 0.0 0.0 0.0 0.1 0.3 -0.1 0.5 0.2 0.1 -0.2 -0.2 0.1 -0.3 -0.1 0.1 -0.1 0.5 0.6 0.3 0.0 0.1 0.1 0.1 0.1 0.5 -0.3 0.1 0.7 0.3 0.5 0.2
-0.0 -0.0 0.0 0.1 -0.0 0.0 0.6 0.0 0.0 0.1 0.1 0.1 0.1 0.0 0.1 -0.0 0.0 -0.0 0.0 0.0 0.0 0.3 0.2 -0.0 0.4 0.9 0.3 -0.2 -0.2 -0.2 0.1 0.0 0.0 0.3 0.2 0.3 0.5 0.1 0.4 0.4 0.1 -0.1 0.7 -0.3 0.2 0.2 0.2 0.2 0.2
-0.0 -0.0 0.0 0.1 0.0 -0.0 0.5 0.1 -0.3 0.2 0.3 0.2 0.1 0.1 0.0 0.0 0.0 -0.0 0.0 0.0 0.0 0.2 0.2 0.2 1.0 1.1 0.5 -0.1 -0.2 -0.2 -0.0 0.0 0.1 0.3 0.5 0.5 0.1 0.2 0.2 0.2 -0.1 0.2 0.0 -0.0 0.4 0.6 0.5 0.5 0.4
0.0 0.0 0.0 0.0 0.0 0.8 0.2 0.1 0.1 0.1 0.2 0.2 0.2 0.2 0.0 0.0 0.0 -0.0 0.0 0.1 0.0 0.4 0.4 0.4 0.9 0.9 0.2 -0.2 -0.5 0.1 -0.0 -0.3 0.2 0.4 0.1 0.4 0.2 0.1 0.4 0.3 0.2 0.3 -0.3 -0.5 0.4 0.3 0.7 1.0 0.1
0.0 0.0 0.0 0.1 0.0 0.0 -0.0 0.2 -0.1 0.1 0.3 0.2 0.2 0.1 0.1 0.0 0.0 0.1 -0.0 0.3 0.1 0.2 0.4 0.7 0.9 0.8 -0.4 -0.4 -0.2 0.1 0.1 0.2 0.0 -0.0 -0.1 0.7 0.2 0.1 -0.0 0.1 0.4 -0.0 0.2 0.2 0.3 0.3 0.4 0.9 0.2
0.0 0.0 0.0 0.0 -0.0 0.0 -0.0 0.0 0.3 0.4 0.6 0.9 0.1 0.1 0.0 -0.1 -0.0 -0.0 0.2 0.2 0.1 0.1 0.3 0.9 1.0 0.6 -0.5 0.3 -0.6 -0.6 -0.1 0.2 0.1 -0.1 0.3 1.0 0.4 0.0 0.1 0.2 -0.5 0.4 -0.0 0.1 0.3 0.1 0.5 0.7 1.1
0.0 0.0 0.0 0.0 0.0 0.0 0.0 0.0 0.1 0.2 1.4 1.3 0.2 0.1 0.1 0.1 0.1 -0.0 0.1 0.3 0.3 0.0 0.2 1.0 0.6 0.4 -0.1 -0.4 0.6 -0.2 0.7 0.3 0.3 0.5 0.3 0.2 0.2 0.2 0.1 -0.0 -0.8 -0.0 0.2 -0.0 0.3 0.9 0.8 1.2 0.6
0.0 0.0 0.0 0.0 0.0 0.0 0.0 0.0 0.5 0.4 0.1 -0.0 0.3 0.1 0.2 0.0 0.3 0.1 0.0 0.3 0.1 0.0 0.0 0.6 0.5 0.4 0.4 -0.6 0.5 0.3 0.6 0.1 -0.0 0.3 0.0 -0.1 0.1 0.2 0.0 0.2 -0.3 0.1 -0.0 0.0 0.2 0.2 0.6 1.2 1.9
0.0 0.0 0.0 0.0 0.0 0.0 -0.0 0.0 0.2 0.1 0.1 0.1 -0.0 1.0 0.7 -0.4 0.1 0.3 0.1 0.6 -0.0 0.0 0.1 1.0 0.8 0.5 0.4 0.0 -0.3 0.1 0.1 0.7 0.3 0.0 -0.0 -0.1 0.2 0.1 1.0 1.0 0.6 0.1 -0.1 0.1 0.5 0.3 1.0 0.5 0.9
0.0 0.0 0.0 0.0 0.0 0.0 0.0 0.0 0.1 -0.0 -0.3 -0.2 0.1 0.1 0.2 0.9 0.3 0.8 0.2 0.6 0.2 0.0 0.1 1.4 1.3 0.7 0.3 0.4 0.0 -0.4 0.2 0.5 0.4 -0.0 -0.0 0.3 0.0 -0.2 0.2 0.5 0.8 0.2 0.4 0.3 0.1 0.1 -0.1 0.1 0.1
0.0 0.0 0.0 -0.0 -0.0 -0.0 0.1 0.2 0.2 0.3 0.6 1.3 1.1 0.7 0.4 0.3 0.1 0.2 -0.3 0.8 0.2 0.1 0.0 1.5 1.8 1.2 0.8 0.4 0.6 0.3 0.3 0.0 0.6 -0.2 -0.2 0.5 0.0 0.1 0.2 -0.0 0.5 0.2 0.2 0.3 0.4 0.1 0.0 -0.1 0.0
0.0 0.0 0.0 0.0 0.0 0.0 0.1 0.3 0.3 0.3 0.4 0.6 0.2 0.0 0.0 0.0 0.0 0.0 0.0 0.5 0.3 -0.2 -0.0 1.5 2.6 1.5 1.0 0.7 0.8 0.6 0.3 -0.4 0.4 1.0 0.5 1.1 0.2 0.1 0.2 0.0 0.0 0.0 0.5 0.5 0.4 0.2 -0.0 0.4 -0.2
0.0 0.0 0.0 0.0 0.0 0.0 0.2 0.3 0.5 0.5 0.2 0.0 0.0 0.0 0.0 0.0 0.0 0.0 0.0 0.0 0.0 0.2 0.5 0.1 1.9 2.2 1.0 0.9 1.0 0.7 0.6 0.4 -0.1 0.6 0.7 0.3 0.9 0.1 0.0 0.0 -0.0 0.1 0.3 0.5 0.5 -0.2 0.0 0.1 0.2
0.0 0.0 0.0 0.0 0.0 0.0 0.0 0.0 0.1 0.0 0.0 0.0 0.0 0.0 0.0 0.0 0.0 0.0 0.0 0.0 0.0 0.0 0.0 0.0 0.3 0.4 0.8 0.9 1.0 0.9 1.1 0.7 0.8 0.4 0.4 0.6 0.5 1.0 0.7 0.0 0.0 0.4 0.4 0.5 0.5 0.2 0.1 0.3 0.2

GFSSGP_con_3kmehi_084.txt.gz
EHI
0.0 0.0 -0.0 -0.0 0.0 0.0 -0.0 -0.0 -0.0 -0.0 -0.1 -0.0 0.0 0.0 0.0 0.0 0.0 0.0 -0.0 -0.0 -0.0 -0.0 -0.1 -0.1 -0.2 -0.1 0.0 0.1 0.2 0.2 0.2 0.2 0.3 0.2 0.1 0.1 0.2 0.2 0.1 0.1 -0.0 -0.1 -0.1 -0.1 -0.0 0.1 0.1 0.1 0.2
-0.0 0.0 0.0 -0.0 0.0 0.0 -0.0 -0.0 0.0 0.1 0.0 0.1 0.0 0.1 0.1 0.0 0.1 0.0 -0.0 -0.1 0.0 -0.0 -0.1 -0.1 -0.0 0.1 0.1 0.1 0.1 0.1 0.2 0.3 0.4 0.4 0.3 0.2 0.2 0.2 0.0 -0.1 -0.2 -0.2 -0.3 -0.2 0.0 0.1 0.1 0.1 0.1
0.0 0.0 0.0 0.0 0.1 0.0 -0.0 -0.0 0.0 0.1 0.0 0.0 0.0 0.2 0.1 0.0 0.2 0.0 -0.0 -0.0 0.1 -0.1 -0.1 -0.0 0.1 0.0 0.0 0.1 0.1 0.1 0.1 0.2 0.2 0.3 0.2 0.2 0.1 0.1 -0.1 -0.1 -0.2 -0.3 -0.3 -0.1 0.0 0.0 0.2 0.2 0.2
-0.0 0.0 -0.0 0.1 0.1 -0.0 -0.0 -0.0 0.0 -0.0 0.1 0.0 0.1 0.1 0.1 0.0 0.1 -0.0 -0.0 0.1 0.0 -0.1 -0.1 -0.0 0.1 0.1 0.1 0.1 0.1 0.1 0.1 0.1 0.1 0.0 0.1 0.1 0.1 0.0 -0.1 -0.2 -0.2 -0.1 0.2 0.2 0.1 0.2 0.3 0.4 0.2
0.0 0.0 0.0 0.0 0.0 0.0 0.0 0.0 0.0 0.1 0.1 0.0 0.1 0.0 0.0 0.0 0.0 0.0 0.0 0.0 0.1 -0.1 -0.0 -0.0 0.2 0.1 0.1 0.1 0.1 0.0 0.0 0.0 0.0 0.0 0.0 0.1 0.1 0.2 0.1 -0.1 -0.1 0.1 0.3 0.3 0.2 0.2 0.3 0.2 0.2
0.0 0.0 -0.0 0.0 0.0 0.0 0.0 0.0 0.0 0.2 0.0 0.0 0.0 0.0 0.0 0.0 0.0 0.0 0.0 -0.0 0.0 0.1 -0.0 0.0 0.2 0.1 0.1 0.1 0.0 0.0 0.0 0.1 0.0 0.0 0.1 0.0 0.2 0.2 0.2 0.1 0.1 0.2 0.3 0.2 0.0 0.1 0.2 0.2 0.3
0.0 0.1 0.1 0.1 0.0 0.0 0.0 0.0 0.1 0.0 0.0 0.0 0.0 0.0 -0.0 -0.0 -0.0 -0.0 0.0 0.0 0.0 0.1 0.1 0.0 -0.1 0.1 0.2 0.1 0.1 0.0 0.1 0.2 0.2 0.1 0.1 0.1 0.2 0.2 0.3 0.3 0.2 0.3 0.2 0.0 -0.0 0.1 0.2 0.0 0.4
0.2 0.1 0.0 0.1 0.0 0.0 0.0 0.1 0.2 0.0 -0.0 0.0 0.0 0.0 0.0 -0.0 0.0 0.0 0.0 0.1 0.0 -0.0 0.1 -0.1 -0.1 -0.1 -0.1 0.0 0.1 0.1 0.2 0.3 0.2 0.1 0.2 0.1 0.1 0.2 0.2 0.4 0.3 0.1 0.1 -0.1 -0.2 -0.1 0.1 0.3 0.4
0.0 0.0 0.0 0.0 0.0 -0.0 0.0 0.1 0.2 0.4 0.0 0.0 0.0 0.0 0.0 0.0 0.0 0.0 0.0 -0.0 -0.0 -0.1 -0.1 -0.1 -0.1 -0.1 -0.1 -0.0 -0.0 0.1 0.1 0.3 0.2 0.1 0.3 0.0 0.1 0.3 0.3 0.5 0.3 0.2 0.2 -0.0 -0.2 -0.2 -0.0 0.3 0.9
0.0 -0.0 0.0 0.0 -0.0 0.0 -0.0 -0.0 0.0 0.1 0.0 -0.0 0.0 0.0 0.1 0.1 0.0 0.0 0.0 -0.1 -0.1 -0.1 -0.1 -0.2 -0.1 -0.1 -0.1 -0.1 -0.2 -0.1 -0.0 0.0 0.1 0.0 0.0 0.1 0.1 0.2 0.4 0.4 0.4 0.4 0.2 0.0 0.0 0.2 0.4 0.7 0.4
0.0 -0.0 0.0 -0.0 0.0 0.0 0.0 0.0 0.0 0.0 -0.0 0.0 0.0 0.0 0.0 0.0 0.0 0.0 -0.1 -0.0 -0.0 -0.1 -0.1 -0.1 -0.1 -0.1 -0.2 -0.2 -0.2 -0.2 -0.1 0.0 0.0 0.0 0.1 0.1 0.1 0.3 0.3 0.3 0.4 0.4 0.3 0.0 0.1 0.2 0.3 0.6 0.8
0.0 0.0 0.0 -0.0 0.0 0.0 0.1 0.1 0.0 0.1 0.0 0.0 0.0 0.0 0.0 0.0 0.0 0.0 -0.0 0.0 0.0 -0.1 -0.1 -0.1 -0.1 -0.0 -0.0 -0.1 -0.2 -0.1 -0.1 0.0 0.0 0.0 0.0 0.0 0.0 0.0 0.1 0.2 0.2 0.3 0.1 0.1 0.2 0.6 0.8 0.7 0.7
0.0 -0.0 0.1 0.0 0.1 0.1 0.3 0.2 0.0 0.0 0.0 -0.0 0.0 0.0 0.0 0.0 0.0 0.0 0.0 0.0 0.0 -0.0 -0.1 -0.1 -0.0 -0.0 -0.0 -0.1 -0.1 -0.0 -0.0 0.0 0.0 0.1 0.0 -0.0 0.0 0.0 0.0 0.1 0.2 0.3 0.0 0.0 0.2 0.4 0.5 0.2 0.1
0.0 0.0 0.2 0.0 0.0 0.3 0.3 0.1 0.1 0.0 0.0 -0.0 0.0 0.0 0.0 0.0 -0.0 0.0 0.0 0.0 0.1 0.0 -0.1 -0.0 -0.0 -0.0 0.0 -0.0 -0.0 -0.0 0.0 0.0 0.0 -0.0 -0.0 -0.0 -0.0 0.0 0.0 0.0 0.2 0.2 0.1 0.0 0.2 0.3 0.2 0.1 0.0
0.0 0.0 0.0 -0.0 -0.0 0.1 0.5 0.1 0.1 0.0 0.0 0.0 0.0 -0.0 0.0 0.0 0.0 0.0 0.1 0.1 0.2 0.1 0.0 -0.0 0.0 0.0 -0.0 -0.0 -0.0 -0.0 -0.0 0.0 0.1 0.0 0.0 0.1 0.0 0.1 0.0 0.1 0.1 0.1 0.0 0.1 0.1 0.3 0.1 0.1 0.1
0.0 0.0 0.0 -0.0 0.1 0.1 0.0 0.1 0.2 0.1 0.0 0.0 -0.0 -0.0 -0.0 0.0 0.0 0.1 0.1 0.1 0.2 0.1 0.0 0.1 0.2 0.0 0.0 0.0 0.0 -0.0 -0.0 0.0 0.0 0.0 0.0 0.0 0.0 0.0 0.0 -0.0 0.1 0.1 0.3 0.0 0.1 0.1 0.1 0.1 0.0
0.0 0.0 0.0 0.0 0.3 0.1 0.0 0.1 -0.0 0.0 -0.0 0.0 -0.0 -0.0 -0.0 0.0 0.0 0.1 0.2 0.2 0.2 0.1 0.1 0.1 0.1 0.1 0.1 0.0 -0.0 0.0 0.1 0.0 -0.0 0.0 0.0 0.0 0.1 0.0 0.0 0.0 0.0 0.2 0.2 0.0 0.1 0.1 0.1 0.1 0.1
0.0 0.0 0.0 0.1 0.1 0.4 0.2 0.1 0.0 0.0 0.1 0.0 -0.0 -0.0 -0.0 0.0 0.0 0.0 0.2 0.2 0.2 0.1 0.1 0.0 0.1 0.0 0.1 0.0 0.0 -0.0 0.0 0.0 0.0 0.0 0.0 -0.0 0.1 0.0 -0.0 -0.0 0.1 0.0 0.0 0.1 0.1 0.2 0.1 0.0 0.1
0.0 0.0 0.0 0.1 0.4 0.2 0.1 0.0 -0.0 -0.1 0.2 0.0 -0.0 -0.0 -0.0 0.0 0.0 0.0 0.1 0.3 0.1 0.1 0.0 0.0 0.1 0.0 0.0 0.1 0.0 -0.0 -0.0 0.0 0.1 -0.0 -0.0 -0.0 0.0 -0.0 -0.0 0.1 0.1 0.1 -0.0 0.0 0.1 0.1 0.1 0.1 0.1
0.0 0.0 0.0 0.2 0.1 0.1 0.1 0.1 -0.0 0.0 0.0 -0.0 0.0 0.0 0.0 0.0 0.0 0.0 0.0 0.0 0.0 0.0 0.1 0.1 0.1 0.0 0.0 0.0 -0.0 -0.0 0.0 0.1 0.0 0.0 -0.0 -0.0 0.0 -0.1 -0.1 -0.0 0.0 0.1 0.0 -0.0 0.2 0.1 0.2 0.1 0.1
0.0 0.0 0.0 0.1 0.3 0.1 0.0 0.0 0.0 -0.0 0.0 -0.0 -0.1 0.0 0.0 0.0 0.0 0.0 0.0 0.0 0.0 0.0 0.3 0.2 0.2 0.0 0.0 0.0 0.1 0.1 0.1 0.0 0.0 0.0 -0.0 -0.0 0.0 -0.1 -0.0 -0.0 -0.0 -0.0 0.1 0.0 0.1 0.0 0.0 0.2 0.0
0.0 0.0 0.0 0.1 0.0 0.0 0.1 0.0 0.1 0.0 0.0 0.0 -0.0 0.0 0.0 0.0 0.0 0.0 0.0 0.0 0.1 0.0 0.3 0.2 0.3 0.0 0.0 0.1 0.0 0.0 -0.0 0.0 0.0 -0.0 -0.0 -0.0 -0.0 -0.0 -0.0 -0.0 -0.0 -0.0 -0.0 -0.0 0.2 0.2 0.2 0.1 0.1
0.0 0.0 0.0 0.0 0.0 0.2 0.1 0.0 0.0 0.1 0.0 0.1 0.0 0.0 0.0 0.0 0.0 0.0 0.0 0.0 0.0 0.1 0.3 0.2 0.3 0.2 0.1 0.3 0.1 -0.0 0.0 0.1 0.0 0.0 -0.0 -0.1 -0.1 -0.1 0.0 0.1 -0.0 -0.0 0.0 0.0 0.1 0.2 0.3 0.3 0.2
0.0 0.0 0.0 0.0 0.0 0.0 0.0 0.0 0.0 0.2 0.2 0.3 0.3 0.2 0.1 0.0 0.0 0.1 0.0 0.0 0.0 0.1 0.2 0.6 0.2 0.2 0.0 0.2 0.4 0.1 -0.0 0.0 0.0 0.1 -0.0 -0.1 -0.1 -0.1 -0.1 -0.0 -0.0 -0.1 -0.0 0.1 0.0 0.1 0.2 0.2 0.3
0.0 0.0 0.0 0.0 0.0 0.0 0.0 0.0 0.0 0.2 0.6 0.4 0.3 -0.0 0.2 0.1 0.2 0.0 0.1 0.1 0.1 0.2 0.3 0.7 0.3 0.3 0.1 0.1 0.4 0.2 0.0 0.0 0.0 -0.0 -0.0 -0.1 -0.1 -0.1 -0.1 0.1 0.0 -0.1 -0.1 0.0 0.0 0.1 0.2 0.3 0.1
0.0 0.0 0.0 0.0 0.0 0.0 0.0 0.0 0.0 0.1 0.4 0.4 0.1 0.1 -0.0 0.0 0.3 0.0 0.0 0.1 0.1 0.1 0.3 0.4 0.6 0.4 0.3 0.2 0.3 0.2 0.1 0.0 0.0 0.0 0.1 -0.0 -0.1 -0.1 -0.1 0.1 0.1 -0.1 -0.1 0.0 0.0 0.0 0.0 0.1 0.2
0.0 0.0 0.0 0.0 0.0 0.0 0.0 0.0 0.0 0.0 0.0 0.0 0.0 0.0 0.0 0.2 0.2 0.4 0.1 0.2 0.2 0.1 0.3 0.3 0.7 0.5 0.3 0.3 0.2 0.2 0.2 0.1 0.0 0.0 0.0 -0.0 -0.0 -0.0 -0.0 0.1 0.2 0.1 -0.0 -0.0 0.1 0.0 0.0 0.0 0.1
0.0 0.0 0.0 0.0 0.0 0.0 0.1 0.1 0.0 0.0 0.0 0.0 0.0 0.0 0.0 0.0 0.0 0.0 0.0 0.0 0.2 0.2 0.2 0.2 0.2 0.6 0.4 0.3 0.3 0.3 0.2 0.2 0.0 0.1 0.0 0.0 -0.0 0.1 0.1 0.3 0.3 0.1 0.0 -0.1 -0.0 0.0 0.0 0.0 -0.0
0.0 0.0 0.0 0.0 0.0 0.0 0.1 0.0 0.0 0.0 0.0 0.0 0.0 0.0 0.0 0.0 0.0 0.0 0.0 0.0 0.0 0.1 0.0 0.1 0.1 0.1 0.1 0.1 0.1 0.3 0.3 0.3 0.1 0.0 0.0 -0.0 0.0 0.0 0.1 0.0 0.0 0.0 -0.0 -0.1 -0.0 0.0 0.1 0.0 0.0
0.0 0.0 0.0 0.0 0.0 0.0 0.0 0.0 0.0 0.0 0.0 0.0 0.0 0.0 0.0 0.0 0.0 0.0 0.0 0.0 0.0 0.0 0.0 0.0 0.1 0.0 0.0 0.0 0.0 0.1 0.1 0.3 0.3 0.1 -0.0 0.1 0.1 0.0 0.0 0.0 0.0 -0.0 -0.0 -0.0 0.0 0.0 0.0 0.1 0.0

GFSSGP_con_3kmehi_087.txt.gz
EHI
0.0 -0.0 -0.0 -0.0 0.0 -0.0 0.0 -0.0 0.0 -0.0 -0.0 -0.0 -0.0 0.0 -0.0 0.0 0.0 0.0 -0.0 -0.0 -0.0 -0.1 -0.1 -0.2 -0.2 0.0 0.2 0.3 0.2 0.2 0.1 0.1 0.1 0.2 0.1 0.1 0.1 0.1 0.0 -0.0 -0.0 0.1 0.1 0.2 0.3 0.2 0.0 0.0 0.1
0.0 -0.0 -0.0 -0.0 0.0 0.0 -0.0 -0.0 -0.0 -0.0 -0.0 -0.0 -0.0 0.0 0.0 -0.0 -0.0 0.0 0.1 -0.1 -0.0 -0.0 -0.1 -0.2 -0.1 0.1 0.2 0.2 0.2 0.2 0.2 0.1 0.2 0.1 0.1 0.0 0.0 0.0 -0.1 -0.1 -0.1 -0.0 0.1 0.1 0.1 0.1 -0.0 0.0 -0.1
-0.0 -0.0 -0.0 0.0 0.0 0.0 -0.0 -0.0 0.0 0.2 0.0 0.0 -0.0 0.1 0.1 0.0 -0.0 0.1 -0.0 -0.0 0.0 -0.0 -0.0 0.0 0.1 0.1 0.0 0.1 0.1 0.2 0.2 0.2 0.1 0.1 -0.0 -0.1 -0.1 -0.2 -0.2 -0.3 -0.3 -0.1 0.0 0.1 0.1 0.1 0.1 0.2 0.2
-0.0 -0.0 -0.0 0.1 0.0 0.0 -0.0 -0.0 0.1 0.1 -0.0 0.0 0.0 0.0 0.0 -0.0 0.1 0.0 -0.0 0.0 0.0 -0.0 -0.0 0.1 0.1 0.1 0.1 0.1 0.2 0.2 0.1 0.0 -0.0 -0.0 -0.1 -0.0 -0.0 -0.2 -0.2 -0.3 -0.2 0.0 0.1 0.1 0.2 0.2 0.2 0.4 0.4
-0.0 -0.0 0.0 0.1 -0.0 -0.0 0.0 0.0 -0.0 0.0 -0.0 0.0 0.0 0.1 0.1 0.1 -0.0 0.0 0.0 -0.0 0.1 -0.0 0.0 0.1 0.1 0.1 0.1 0.2 0.2 0.2 0.1 0.1 -0.0 0.0 -0.0 0.1 -0.0 -0.0 -0.2 -0.1 0.2 0.3 0.2 0.2 0.2 0.2 0.2 0.1 0.7
0.0 -0.0 -0.0 -0.0 -0.0 -0.0 0.0 0.0 0.0 -0.0 0.0 0.0 0.1 0.1 0.1 -0.1 0.1 -0.0 0.0 0.0 -0.0 -0.0 -0.0 0.0 0.1 0.1 0.1 0.1 0.1 0.2 0.1 0.1 -0.0 -0.0 -0.1 -0.1 -0.0 0.0 -0.0 0.1 0.2 0.3 0.1 0.2 0.2 0.2 0.1 0.2 0.6
0.0 -0.0 0.0 0.0 0.0 0.0 0.0 0.0 0.0 0.0 0.0 0.0 0.0 0.1 0.0 -0.0 -0.1 -0.0 -0.0 -0.0 -0.0 -0.1 -0.0 -0.0 -0.0 0.1 0.2 0.1 0.1 0.2 0.1 0.0 -0.1 -0.1 -0.1 -0.1 -0.1 0.0 0.1 0.2 0.1 0.2 -0.0 0.1 0.2 0.1 0.3 0.6 0.7
0.0 -0.0 0.0 0.0 0.0 0.0 0.0 0.0 -0.0 0.0 0.0 0.0 0.0 0.1 0.0 -0.0 -0.0 -0.0 -0.0 -0.0 -0.1 -0.1 -0.1 -0.0 -0.0 0.0 0.1 0.1 0.1 0.2 0.1 0.1 -0.1 -0.0 -0.2 -0.2 -0.0 0.3 0.2 0.3 0.2 0.1 -0.1 -0.0 0.1 0.2 0.3 0.3 0.5
-0.0 0.0 0.0 -0.0 0.0 0.0 0.0 0.0 0.1 0.1 0.0 0.0 0.0 -0.0 0.0 -0.0 -0.0 -0.0 0.0 -0.0 -0.1 -0.1 -0.1 -0.0 -0.0 0.0 -0.0 0.0 0.1 0.1 0.2 0.1 0.0 -0.0 -0.2 -0.1 0.3 0.5 0.4 0.4 0.1 0.1 0.0 -0.1 -0.0 0.2 0.5 0.5 0.5
-0.0 0.0 0.0 -0.0 -0.0 0.0 -0.0 0.1 0.2 -0.0 -0.0 0.0 0.0 0.0 0.0 0.0 -0.0 0.0 -0.0 0.0 -0.0 -0.1 -0.1 -0.0 -0.0 -0.0 -0.0 -0.1 -0.1 0.0 0.1 0.1 0.1 0.1 0.1 0.1 0.2 0.4 0.5 0.4 0.2 0.2 0.0 -0.1 0.1 0.5 0.6 0.6 0.5
0.0 0.0 0.1 -0.0 0.0 0.0 0.0 0.1 0.1 0.0 -0.0 0.0 0.0 0.0 -0.0 -0.0 -0.0 -0.0 -0.0 -0.0 -0.0 -0.1 -0.1 -0.1 -0.0 -0.1 -0.1 -0.2 -0.1 -0.0 0.0 0.0 0.0 0.1 0.1 0.1 0.1 0.3 0.4 0.4 0.4 0.2 0.0 0.2 0.2 0.4 0.6 0.6 0.4
0.0 -0.0 0.0 -0.0 0.0 0.0 0.0 0.0 0.0 0.0 0.1 0.0 0.1 0.0 0.0 0.0 0.0 0.0 -0.0 -0.1 -0.1 -0.1 -0.1 -0.0 -0.0 -0.1 -0.0 -0.1 -0.1 -0.0 0.0 -0.0 0.0 0.0 0.1 0.0 0.1 0.1 0.2 0.3 0.2 0.2 0.0 0.0 0.1 0.2 0.3 0.6 0.7
0.0 -0.0 0.0 0.0 0.0 0.0 0.0 0.0 0.0 0.0 0.0 0.0 0.1 0.0 0.0 0.0 0.0 0.0 -0.0 -0.1 -0.1 -0.1 -0.1 -0.0 -0.0 -0.0 -0.0 -0.1 -0.0 -0.0 0.0 0.0 0.1 0.1 0.1 0.0 0.0 0.0 0.1 0.2 0.2 0.2 0.0 0.0 0.1 0.2 0.3 0.1 0.1
-0.0 0.1 0.0 0.1 -0.0 0.0 0.1 0.0 0.1 -0.0 0.1 0.0 0.0 0.0 0.0 0.0 0.0 0.0 0.0 -0.0 -0.1 -0.1 -0.1 -0.1 -0.0 -0.0 -0.0 -0.0 -0.0 0.0 0.0 0.0 0.0 0.0 0.0 0.0 0.0 0.0 0.1 0.0 0.1 0.2 0.1 0.0 0.0 0.2 0.2 0.0 0.0
0.0 0.1 0.1 -0.0 -0.1 -0.1 0.2 0.1 0.0 0.1 0.0 0.0 0.0 0.0 0.0 0.0 0.0 0.0 0.0 0.0 -0.0 -0.0 -0.0 -0.0 -0.0 -0.0 -0.0 0.0 0.0 0.0 0.0 0.0 0.0 0.0 -0.0 0.0 0.1 0.0 0.0 0.0 0.1 0.1 0.1 0.1 0.1 0.2 0.0 0.1 0.0
0.1 0.1 0.1 0.0 0.0 0.0 0.0 0.0 0.0 0.1 0.1 0.0 0.0 0.0 0.0 0.0 0.0 0.0 0.0 0.0 -0.0 0.0 0.0 -0.0 -0.0 -0.0 -0.0 -0.0 0.0 0.0 -0.0 0.0 0.0 0.0 0.0 0.0 0.1 0.1 0.1 0.1 0.1 0.1 0.2 0.1 0.0 0.1 0.0 0.0 0.0
0.0 0.0 0.0 0.1 0.0 0.0 0.0 0.0 -0.1 0.0 -0.0 0.0 0.0 0.0 0.0 0.0 0.0 0.0 0.1 0.1 0.1 0.0 0.0 0.0 -0.0 0.0 0.0 0.0 -0.0 -0.0 0.0 0.0 0.1 0.0 0.0 0.0 0.0 0.0 0.0 0.1 0.1 0.1 0.1 0.0 0.1 0.1 0.1 0.1 0.1
0.0 0.0 0.0 0.1 0.0 0.0 0.0 -0.0 0.0 -0.1 -0.0 0.0 0.0 0.0 0.0 0.0 0.0 0.0 0.1 0.1 0.1 0.0 0.1 0.0 0.0 0.0 0.0 0.0 -0.0 0.0 0.0 0.0 0.0 0.0 0.0 0.1 -0.0 0.0 0.0 0.1 0.0 0.1 0.1 0.2 0.0 0.1 0.1 0.0 0.0
0.0 0.0 0.0 0.1 0.1 0.3 0.0 0.0 0.1 -0.0 0.0 -0.0 -0.0 0.0 0.0 0.0 0.0 0.1 0.2 0.2 0.1 0.1 0.0 0.1 0.0 0.0 0.0 0.0 0.1 0.0 0.0 0.0 0.0 0.0 0.0 0.0 -0.0 -0.0 0.0 0.0 -0.0 0.1 0.1 0.1 0.1 0.1 0.0 0.2 0.0
0.0 0.0 0.0 0.2 0.1 0.1 0.0 0.0 0.1 -0.0 -0.0 -0.0 -0.0 0.0 0.0 0.0 0.0 0.1 0.1 0.1 0.1 0.1 0.0 0.0 0.0 0.0 0.0 0.0 0.0 0.0 0.0 0.0 0.0 0.0 0.0 -0.0 0.0 -0.0 0.0 0.1 -0.0 0.0 0.0 0.0 0.1 0.1 0.1 0.1 0.0
0.0 0.0 0.0 0.1 0.0 0.0 0.1 0.0 -0.0 0.0 0.0 0.0 0.0 -0.0 0.0 0.0 0.0 0.1 0.2 0.1 0.1 0.1 0.0 0.0 0.0 0.0 0.0 0.0 0.0 0.0 0.0 0.0 0.0 0.0 0.0 0.0 -0.0 0.0 0.1 0.0 0.1 0.1 -0.0 -0.0 0.0 0.0 0.0 0.0 0.0
0.0 0.0 0.0 0.2 0.1 0.1 0.0 0.0 0.0 0.0 -0.0 -0.0 -0.1 -0.0 0.0 0.0 0.0 0.1 0.2 0.1 0.1 0.0 0.0 0.0 0.0 0.0 0.0 0.1 0.1 -0.0 0.0 0.0 0.0 -0.0 0.0 0.0 -0.0 -0.0 -0.0 -0.0 -0.0 -0.0 0.0 0.1 0.1 0.1 0.1 0.0 0.0
0.0 0.0 0.0 0.2 0.0 0.0 0.1 0.0 0.0 0.0 0.0 -0.0 -0.0 0.0 0.0 0.0 0.0 0.0 0.1 0.1 0.0 0.0 0.1 0.0 0.0 0.0 0.0 0.0 0.1 0.0 0.0 0.0 0.0 -0.0 -0.0 -0.0 -0.0 -0.0 -0.0 -0.0 0.0 -0.0 -0.0 0.0 0.1 0.1 0.1 0.2 0.1
0.0 0.0 0.0 0.0 0.0 0.1 0.0 0.0 0.0 0.0 0.0 0.0 0.0 0.1 0.0 0.0 0.0 0.0 0.0 0.0 0.1 0.0 0.1 0.1 0.1 0.0 0.0 0.1 0.1 0.0 0.0 0.0 0.0 0.0 -0.0 -0.0 -0.1 -0.0 -0.0 -0.1 -0.0 -0.0 0.0 0.0 0.0 0.1 0.1 0.1 0.2
0.0 0.0 0.0 0.1 0.0 0.0 0.0 0.0 0.0 0.0 0.0 0.2 0.2 0.1 0.0 0.0 0.0 0.0 0.0 0.0 0.0 0.1 0.2 0.2 0.1 0.1 0.1 0.2 0.2 0.1 0.0 -0.0 0.0 0.0 0.0 -0.0 -0.0 -0.1 0.0 -0.0 -0.0 -0.0 0.0 0.0 0.0 0.0 0.2 0.1 0.0
0.0 0.0 0.0 0.0 0.0 0.0 0.0 0.0 0.0 0.0 0.1 0.2 0.2 0.2 0.0 0.2 0.0 0.0 0.0 0.0 0.0 0.0 0.2 0.3 0.1 0.1 0.0 0.1 0.2 0.1 0.0 0.0 0.0 0.0 0.0 -0.0 -0.0 -0.1 -0.0 0.0 0.0 -0.0 -0.0 0.0 0.0 0.2 0.2 0.1 0.2
0.0 0.0 0.0 0.0 0.0 0.0 0.0 0.0 0.0 0.0 0.0 0.0 0.0 0.0 0.0 0.0 0.1 0.0 0.1 0.0 0.0 0.1 0.1 0.3 0.3 0.1 0.1 0.0 0.1 0.1 0.1 0.0 0.0 0.0 0.0 0.0 0.0 -0.0 -0.0 0.0 0.1 0.0 -0.0 -0.0 0.0 0.1 0.1 0.1 0.1
0.0 0.0 0.0 0.0 0.0 0.0 0.0 0.0 0.0 0.0 0.0 0.0 0.0 0.0 0.0 0.0 0.0 0.0 0.0 0.2 0.1 0.1 0.2 0.2 0.6 0.3 0.1 0.1 0.1 0.1 0.1 0.1 0.0 0.0 0.0 0.0 0.0 -0.0 0.0 0.0 0.1 0.1 0.1 -0.0 0.0 0.0 0.0 0.0 0.0
0.0 0.0 0.0 0.0 0.0 0.0 0.1 0.0 0.0 0.0 0.0 0.0 0.0 0.0 0.0 0.0 0.0 0.0 0.0 0.2 0.2 0.2 0.3 0.1 0.1 0.3 0.1 0.3 0.2 0.1 0.1 0.1 0.1 0.0 0.0 0.0 0.0 0.0 0.0 0.0 0.0 0.1 0.1 0.1 0.0 -0.0 0.0 0.0 0.0
0.0 0.0 0.0 0.0 0.0 0.0 0.0 0.0 0.0 0.0 0.0 0.0 0.0 0.0 0.0 0.0 0.0 0.0 0.0 0.0 0.0 0.1 0.2 0.2 0.0 0.0 0.0 0.0 0.0 0.1 0.1 0.1 0.1 0.1 0.1 0.1 0.1 0.0 0.0 0.0 0.0 0.0 0.0 0.0 0.1 -0.0 0.0 0.0 0.0

GFSSGP_con_3kmehi_090.txt.gz
EHI
0.0 -0.0 -0.0 -0.0 0.0 -0.0 -0.0 0.0 0.0 -0.0 -0.0 0.0 -0.0 0.0 0.0 0.0 0.0 0.0 -0.0 -0.0 0.0 -0.0 -0.1 -0.0 0.0 0.0 0.1 0.1 0.1 0.1 0.1 0.1 0.2 0.2 0.2 0.2 0.2 0.1 0.1 0.2 0.2 0.2 0.2 0.0 -0.0 -0.1 -0.0 -0.0 -0.0
0.0 -0.0 -0.0 -0.0 0.0 0.0 0.0 0.0 -0.0 0.0 -0.0 -0.0 0.0 0.0 0.0 -0.0 0.0 0.0 0.0 -0.1 -0.0 0.0 -0.1 -0.0 0.1 0.1 0.1 0.1 0.1 0.1 0.0 0.1 -0.0 0.0 0.1 0.1 0.0 0.0 -0.0 -0.0 -0.0 0.1 0.2 0.0 -0.2 -0.3 -0.2 -0.1 -0.0
-0.0 -0.0 0.0 0.0 0.0 0.0 -0.0 0.0 0.1 0.1 0.0 0.0 0.0 0.1 0.0 0.0 -0.0 0.0 -0.0 -0.0 -0.1 -0.1 -0.0 0.0 0.1 0.2 0.2 0.1 0.2 0.1 -0.0 -0.1 -0.1 -0.0 0.1 -0.0 -0.1 -0.2 -0.2 -0.0 0.0 0.1 0.1 -0.0 -0.3 -0.3 -0.2 -0.2 0.0
-0.0 -0.0 -0.0 0.0 0.0 -0.0 0.0 -0.0 -0.0 0.1 -0.0 0.0 0.0 0.0 0.0 -0.0 0.0 0.0 -0.0 0.0 -0.1 -0.1 0.0 0.1 0.2 0.2 0.2 0.1 0.2 0.2 0.0 -0.1 -0.0 -0.1 -0.0 -0.0 -0.1 -0.1 -0.1 0.0 0.1 0.0 0.0 0.1 0.1 0.2 0.3 0.3 0.3
-0.0 -0.0 0.0 0.0 -0.0 -0.0 -0.0 0.0 -0.0 0.0 0.0 0.0 0.0 0.0 0.0 0.1 -0.1 -0.0 0.0 0.0 0.0 0.0 0.1 0.1 0.2 0.2 0.2 0.2 0.1 0.1 0.1 -0.1 -0.0 -0.1 -0.1 0.0 -0.0 0.0 0.0 0.1 0.0 0.0 0.1 0.2 0.3 0.3 0.3 0.4 -0.1
0.0 -0.0 0.0 -0.0 -0.0 -0.0 0.0 0.0 0.0 0.0 0.0 0.0 0.0 0.0 0.1 -0.1 -0.0 -0.1 -0.0 0.0 -0.0 0.0 0.0 0.1 0.2 0.3 0.2 0.2 0.1 0.1 0.0 -0.1 -0.1 -0.0 -0.0 0.1 0.0 -0.0 0.1 0.1 -0.0 0.0 0.2 0.3 0.3 0.4 0.3 0.2 0.3
-0.0 0.0 0.0 0.0 -0.0 0.0 0.0 0.0 -0.0 -0.0 0.0 0.0 0.0 0.0 0.1 -0.0 -0.1 -0.1 -0.0 0.0 -0.0 -0.0 -0.0 0.0 0.1 0.2 0.2 0.1 0.1 0.0 -0.0 -0.1 -0.2 -0.1 -0.1 -0.0 0.0 0.1 0.1 0.1 -0.1 -0.0 0.2 0.2 0.2 0.3 0.5 0.5 0.5
-0.0 -0.0 -0.0 -0.0 0.0 -0.0 -0.0 0.0 -0.0 0.0 0.0 0.0 0.0 0.0 0.1 -0.0 -0.0 -0.0 -0.1 -0.0 -0.1 -0.1 -0.0 0.0 0.1 0.1 0.1 0.1 0.2 0.0 -0.0 -0.2 -0.1 -0.1 -0.1 -0.0 0.1 -0.2 0.1 0.0 -0.0 0.0 0.1 0.2 0.3 0.4 0.5 0.7 0.5
0.0 0.0 0.0 0.0 -0.0 0.0 -0.0 0.0 0.1 0.0 0.0 0.0 -0.0 0.0 0.0 -0.0 0.0 0.0 -0.0 -0.1 -0.1 -0.1 -0.0 0.0 0.1 0.0 0.1 0.1 0.1 0.1 -0.0 -0.1 -0.2 -0.2 0.1 0.5 0.4 0.3 0.4 0.2 -0.0 -0.0 0.1 0.1 0.2 0.4 0.4 0.3 0.8
0.0 0.0 0.0 -0.0 0.0 0.0 0.0 0.0 0.0 0.0 0.0 0.0 0.0 0.0 0.0 0.0 0.0 0.0 0.0 0.0 -0.0 -0.0 0.0 0.0 0.0 0.0 0.0 0.1 0.0 0.1 0.0 0.1 0.0 0.0 0.1 0.2 0.4 0.7 0.7 0.3 0.1 -0.1 -0.0 0.2 0.3 0.7 0.6 0.5 0.5
0.0 0.0 0.0 -0.0 -0.0 0.0 0.1 0.1 0.0 0.0 0.0 0.0 0.0 0.0 0.0 -0.0 -0.0 -0.0 -0.0 -0.0 -0.0 -0.0 0.0 0.0 -0.0 -0.0 -0.0 0.1 0.1 0.0 0.0 0.0 0.0 0.0 0.1 0.1 0.4 0.5 0.5 0.5 0.4 0.3 0.2 0.3 0.4 0.5 0.5 0.5 0.5
0.0 0.0 0.0 -0.0 -0.0 0.1 0.0 0.1 0.0 0.0 -0.0 0.0 0.0 0.0 -0.0 -0.0 -0.0 -0.0 -0.0 -0.0 -0.0 -0.0 0.0 -0.0 -0.0 -0.0 -0.0 -0.0 0.0 0.0 0.0 0.0 0.0 0.1 0.1 0.1 0.2 0.3 0.3 0.3 0.3 0.2 0.1 0.1 0.2 0.5 0.5 0.6 0.7
0.0 0.0 0.0 0.0 0.0 0.0 0.1 -0.1 0.0 0.0 0.0 0.0 0.0 -0.0 -0.0 -0.0 -0.0 -0.0 -0.0 -0.0 -0.0 -0.0 -0.0 -0.0 -0.0 -0.0 -0.0 -0.0 0.0 0.0 0.1 0.0 0.0 0.0 0.1 0.1 0.1 0.1 0.1 0.1 0.1 0.1 0.0 0.0 0.1 0.4 0.4 0.1 0.1
0.0 0.0 0.0 0.0 0.0 0.0 0.1 0.0 0.0 0.0 0.0 0.0 0.0 -0.0 -0.0 -0.0 -0.0 -0.0 -0.1 -0.0 -0.0 -0.0 -0.0 -0.0 -0.0 0.0 -0.0 -0.0 0.0 0.0 0.0 0.1 0.1 0.1 0.0 0.0 0.0 0.0 0.1 0.1 0.2 0.1 0.1 0.1 0.1 0.2 0.1 0.1 0.0
0.0 0.1 0.0 0.0 0.0 0.1 0.1 0.1 -0.0 0.0 0.0 0.0 -0.0 -0.0 -0.0 -0.0 -0.0 -0.0 -0.0 -0.0 -0.0 -0.0 -0.0 -0.0 -0.0 -0.0 -0.0 0.0 0.0 0.0 0.0 0.0 0.0 0.0 0.0 0.0 0.0 0.0 0.0 0.0 0.1 0.1 0.1 0.1 0.1 0.2 0.1 0.1 0.0
0.0 0.0 0.0 0.0 0.1 0.1 0.0 -0.0 -0.0 0.1 0.0 0.0 0.0 -0.0 -0.0 -0.0 0.0 0.0 -0.0 -0.0 -0.0 -0.0 -0.0 -0.0 -0.0 -0.0 -0.0 -0.0 0.0 0.0 0.0 0.0 0.0 0.0 0.0 0.1 0.0 0.0 0.0 0.1 0.1 0.2 0.1 0.0 0.1 0.1 0.2 0.1 0.1
0.0 0.0 0.0 0.1 0.1 0.1 -0.0 -0.0 0.1 0.0 0.0 0.0 0.0 0.0 -0.0 0.0 -0.0 0.0 0.0 0.0 -0.0 -0.0 0.0 -0.0 -0.0 -0.0 -0.0 -0.0 -0.0 0.0 -0.0 0.0 0.0 0.0 0.0 0.0 0.0 0.0 0.0 0.1 0.1 0.1 0.1 0.0 0.1 0.1 0.2 0.2 0.1
0.0 0.0 0.0 0.1 0.0 0.1 -0.0 -0.0 0.1 0.1 0.0 0.0 0.0 0.0 0.0 0.0 0.0 0.0 0.0 0.0 0.0 0.0 0.0 0.0 -0.0 -0.0 -0.0 -0.0 -0.0 -0.0 -0.0 0.0 0.0 0.0 0.0 0.0 0.0 0.0 0.0 0.1 0.1 0.1 0.1 0.1 0.1 0.1 0.1 0.1 0.1
0.0 0.0 0.0 0.1 0.1 0.2 -0.0 0.0 0.0 0.0 0.0 0.0 0.0 0.0 0.0 0.0 0.0 0.0 0.0 0.1 0.0 0.0 0.0 0.0 0.0 -0.0 0.0 0.0 0.0 0.0 0.0 0.0 0.0 0.0 0.0 -0.0 0.0 0.0 0.0 0.0 0.1 0.1 0.1 0.1 0.1 0.1 0.1 0.1 0.1
0.0 0.0 0.1 0.2 0.1 0.1 0.0 0.0 0.0 0.1 0.1 0.0 0.0 0.0 0.0 0.0 0.0 0.0 0.0 0.1 0.1 0.0 0.0 0.0 0.0 0.0 0.0 0.0 0.0 -0.0 -0.0 0.0 0.0 0.0 0.0 0.0 0.0 0.1 0.0 -0.0 0.0 0.1 0.1 0.1 0.0 0.0 0.0 0.1 0.1
0.0 0.0 0.0 0.1 0.1 0.1 0.0 0.1 0.0 0.0 0.0 0.0 0.0 0.0 0.0 0.0 0.0 0.0 0.1 0.1 0.0 0.0 0.0 0.0 0.0 0.0 0.0 0.0 0.0 0.0 0.0 0.0 0.0 0.0 0.0 0.0 0.0 0.0 0.0 0.0 0.0 0.0 0.0 0.0 0.1 0.0 -0.0 0.1 0.1
0.0 0.0 0.0 0.1 0.0 0.0 0.0 0.0 0.0 0.0 -0.0 -0.0 -0.0 0.0 0.0 0.0 0.0 0.1 0.1 0.1 0.1 0.0 0.0 0.0 0.0 0.0 0.0 0.0 0.0 0.0 0.0 0.0 0.0 0.0 0.0 0.0 0.0 0.0 0.0 -0.0 -0.0 0.0 0.0 0.1 0.2 0.2 0.0 0.0 0.1
0.0 0.0 0.0 0.1 0.0 0.0 0.0 0.0 0.0 0.0 0.0 0.0 -0.0 0.0 0.0 0.0 0.0 0.1 0.1 0.1 0.1 0.1 0.0 0.0 0.0 0.0 0.0 0.0 0.0 0.0 0.0 0.0 0.0 0.0 0.0 0.0 0.0 0.0 0.0 0.0 -0.0 -0.0 0.0 0.0 0.1 0.2 0.1 0.2 0.0
0.0 0.0 0.0 0.0 0.0 0.0 0.0 0.0 0.0 0.0 0.0 0.0 -0.0 -0.0 0.0 0.0 0.0 0.1 0.1 0.1 0.1 0.0 0.0 0.0 0.0 0.0 0.0 0.0 0.0 0.0 0.0 0.0 0.0 0.0 -0.0 0.0 0.0 0.0 -0.0 0.0 0.0 0.0 0.0 0.0 0.1 0.3 0.2 0.1 0.2
0.0 0.0 0.0 0.0 0.0 0.0 0.0 0.0 0.0 0.0 0.0 -0.0 0.0 -0.0 0.0 0.0 0.0 0.0 0.1 0.1 0.0 0.0 0.1 0.0 0.0 0.0 0.0 0.0 0.0 0.0 -0.0 0.0 0.0 0.0 0.0 0.1 0.1 0.1 -0.0 0.0 0.0 0.0 0.0 0.0 0.0 0.1 0.2 0.1 0.1
0.0 0.0 0.0 0.0 0.0 0.0 0.0 0.0 0.0 0.0 0.0 0.0 0.1 0.0 0.0 0.0 0.0 0.0 0.0 0.1 0.1 0.0 0.0 0.0 0.0 0.0 0.0 0.1 0.0 0.0 0.0 0.0 0.0 0.0 0.0 0.0 0.0 0.1 0.0 0.0 0.0 0.0 0.0 0.0 0.0 0.1 0.1 0.2 0.2
0.0 0.0 0.0 0.0 0.0 0.0 0.0 0.0 0.0 0.0 0.0 0.0 0.0 0.0 0.0 0.1 0.0 0.0 0.0 0.0 0.0 0.0 0.0 0.0 0.0 0.0 0.0 0.1 0.1 0.1 0.0 0.0 0.0 0.0 0.0 0.0 0.0 0.0 0.1 -0.0 0.0 0.0 0.1 0.1 0.1 0.1 0.1 0.1 0.1
0.0 0.0 0.0 0.0 0.0 0.0 0.0 0.0 0.0 0.0 0.0 0.0 0.0 0.0 0.0 0.0 0.0 0.0 0.0 0.0 0.0 0.0 0.0 0.0 -0.0 0.0 0.0 0.0 0.0 0.1 0.0 0.0 0.0 0.0 0.0 0.0 0.0 0.0 0.0 0.0 0.0 0.0 0.0 0.1 0.1 0.1 0.1 0.1 0.1
0.0 0.0 0.0 0.0 0.0 0.0 0.0 0.0 0.0 0.0 0.0 0.0 0.0 0.0 0.0 0.0 0.0 0.0 0.0 0.1 0.0 0.1 0.1 0.1 0.2 0.3 0.1 0.0 0.0 0.1 0.1 0.1 0.0 0.0 0.0 0.0 0.0 0.0 0.0 0.0 0.1 0.1 0.1 0.1 0.1 0.1 0.1 0.1 0.1
0.0 0.0 0.0 0.0 0.0 0.0 0.0 0.0 0.0 0.0 0.0 0.0 0.0 0.0 0.0 0.0 0.0 0.0 0.0 0.0 0.1 0.1 0.2 0.1 0.1 0.1 0.0 0.0 0.0 0.1 0.1 0.1 0.1 0.0 0.1 0.1 0.1 0.0 0.0 0.0 0.0 0.1 0.1 0.1 0.1 0.1 0.1 0.0 0.0

GFSSGP_con_3kmehi_093.txt.gz
EHI
-0.0 -0.0 -0.0 0.0 0.0 0.0 0.0 0.0 0.0 -0.0 0.0 0.0 -0.0 -0.0 0.0 0.0 0.0 0.0 -0.0 0.0 0.1 0.1 0.1 0.2 0.2 0.1 0.1 0.1 0.2 0.1 -0.0 0.1 0.1 0.0 0.1 0.2 0.2 0.1 0.0 0.0 0.0 -0.1 -0.2 -0.1 0.0 0.0 0.1 0.0 0.0
-0.0 -0.0 -0.0 -0.0 -0.0 -0.0 -0.0 0.0 -0.0 0.0 0.0 0.0 0.0 0.0 0.0 0.0 0.0 -0.0 -0.0 0.0 0.0 0.0 0.1 0.1 0.3 0.2 0.2 0.0 -0.1 -0.1 -0.1 0.0 0.1 0.1 0.2 0.1 0.0 -0.0 0.0 -0.0 0.0 -0.1 -0.1 -0.1 -0.1 -0.0 0.0 0.1 0.0
-0.0 -0.0 -0.0 0.0 0.0 0.0 -0.0 0.0 0.0 0.0 -0.0 0.0 0.0 0.0 0.1 0.1 -0.0 0.0 -0.0 0.0 0.0 0.0 0.0 0.1 0.1 0.0 -0.0 0.0 -0.1 -0.2 -0.1 -0.0 0.0 0.0 -0.0 0.0 -0.0 -0.1 -0.0 -0.0 -0.1 -0.1 -0.1 -0.1 -0.1 -0.1 -0.1 0.1 0.0
-0.0 -0.0 -0.1 0.0 0.0 0.0 0.0 0.0 0.0 -0.0 -0.0 0.0 0.0 0.0 0.0 0.0 0.0 -0.0 0.0 0.0 0.0 0.0 0.0 0.0 0.1 0.0 0.0 -0.1 -0.1 -0.1 -0.1 -0.0 -0.0 0.1 0.0 0.0 -0.0 -0.0 0.1 0.1 -0.0 0.1 0.1 0.1 0.1 0.2 0.1 0.3 0.3
-0.0 0.0 -0.0 -0.0 0.0 0.0 0.0 -0.0 0.0 -0.0 0.0 0.0 0.1 0.0 0.0 0.1 -0.1 0.0 0.0 0.0 0.0 0.0 0.1 0.1 0.1 0.1 0.1 0.0 -0.0 0.0 -0.0 0.0 0.1 0.2 0.2 0.1 0.1 0.0 0.0 0.0 -0.0 0.1 0.3 0.4 0.5 0.2 0.1 0.1 0.2
-0.0 -0.0 0.0 -0.0 0.0 0.0 0.0 0.1 0.0 0.1 -0.0 0.0 0.0 0.0 0.0 -0.0 -0.0 -0.0 -0.0 0.0 0.0 0.1 0.1 0.1 0.2 0.1 0.1 0.0 -0.0 -0.0 -0.1 -0.0 0.0 0.1 0.0 0.0 0.0 -0.0 0.1 0.1 0.1 0.1 0.1 0.2 0.2 0.1 0.2 0.3 0.4
-0.0 -0.0 0.0 0.0 -0.0 -0.0 0.0 -0.0 0.0 0.0 0.0 0.0 -0.0 0.0 0.0 -0.0 -0.1 -0.1 -0.1 -0.0 0.0 0.1 0.1 0.1 0.1 0.1 0.0 0.1 -0.0 -0.1 -0.1 -0.1 -0.1 -0.1 0.0 0.0 0.1 0.1 0.0 0.1 0.1 0.1 0.2 0.2 0.3 0.3 0.3 0.5 0.2
-0.0 0.1 0.0 -0.0 -0.0 -0.0 0.0 0.0 0.0 -0.0 0.0 0.0 -0.0 0.0 0.0 -0.0 -0.1 -0.1 -0.1 -0.0 0.0 0.1 0.1 0.1 0.1 0.0 0.1 0.2 0.1 -0.1 -0.2 -0.0 -0.1 -0.1 0.1 -0.0 -0.2 -0.1 -0.1 -0.0 0.0 -0.0 0.2 0.3 0.3 0.3 0.3 0.7 0.4
0.0 0.0 -0.0 0.0 -0.0 -0.0 0.0 -0.0 -0.0 0.0 0.0 0.0 0.0 0.0 0.0 -0.0 -0.0 -0.0 -0.0 0.0 0.0 0.0 0.1 0.1 0.0 0.0 0.2 0.2 0.0 -0.1 -0.1 -0.1 -0.2 0.1 0.5 -0.0 -0.1 -0.0 -0.0 0.2 -0.1 0.1 0.2 0.3 0.4 0.3 0.4 0.8 0.8
-0.0 0.0 0.0 0.0 -0.0 -0.0 -0.0 -0.0 -0.0 0.0 0.0 0.0 0.0 0.0 0.1 -0.0 0.0 0.0 0.0 0.0 0.0 0.1 0.1 0.1 0.1 0.1 0.1 0.1 0.1 0.0 0.1 0.1 0.1 0.3 0.2 0.2 -0.2 0.4 0.1 0.2 0.1 0.2 0.1 0.3 0.5 0.4 0.5 0.7 1.0
0.0 0.0 0.0 -0.0 -0.0 0.0 0.0 -0.0 -0.0 0.0 0.0 0.0 0.1 0.1 0.1 0.0 0.0 -0.0 -0.0 0.0 0.0 0.1 0.1 0.1 0.1 0.0 0.1 0.2 0.2 0.2 0.2 0.1 0.2 0.2 0.2 0.3 0.3 0.4 0.4 0.5 0.2 0.2 0.3 0.4 0.5 0.4 0.5 0.6 0.8
0.0 0.0 0.0 -0.0 -0.0 0.0 0.0 0.0 -0.0 0.0 0.0 0.0 0.0 0.1 0.0 -0.0 0.0 0.0 0.0 0.0 0.0 0.1 0.1 0.1 0.0 -0.0 0.1 0.2 0.1 0.1 0.2 0.2 0.2 0.2 0.2 0.2 0.3 0.4 0.4 0.3 0.3 0.3 0.4 0.5 0.7 0.8 1.0 0.8 0.9
0.0 0.1 -0.0 -0.0 -0.0 0.0 0.0 0.0 0.0 0.0 0.0 0.0 0.0 0.0 -0.0 -0.0 -0.0 -0.0 -0.0 0.0 0.0 0.1 0.0 0.0 0.0 -0.0 0.0 0.0 0.1 0.2 0.2 0.3 0.2 0.2 0.2 0.3 0.2 0.3 0.4 0.3 0.4 0.3 0.4 0.4 0.7 0.8 0.6 0.5 0.3
0.1 0.1 0.0 -0.0 -0.0 0.0 0.0 0.0 0.0 0.0 0.0 0.0 -0.0 -0.0 -0.0 -0.0 -0.0 -0.0 -0.0 0.0 0.0 0.0 0.0 0.0 0.0 -0.0 0.0 0.0 0.1 0.2 0.3 0.3 0.2 0.2 0.2 0.2 0.2 0.3 0.3 0.3 0.3 0.3 0.3 0.3 0.6 0.5 0.4 0.3 0.3
0.2 0.1 0.1 -0.0 0.0 0.0 0.1 0.0 0.0 0.0 0.0 0.0 -0.0 -0.0 -0.0 -0.0 -0.0 -0.0 -0.0 0.0 0.0 -0.0 0.0 0.0 0.0 0.1 0.0 0.0 0.1 0.1 0.3 0.2 0.2 0.1 0.1 0.1 0.2 0.1 0.2 0.2 0.2 0.2 0.3 0.3 0.3 0.3 0.3 0.3 0.2
0.1 0.1 0.1 0.0 0.1 0.1 0.0 -0.0 0.0 0.0 -0.0 0.0 -0.0 -0.0 -0.0 -0.0 -0.0 0.0 0.0 0.0 0.0 0.0 0.0 0.0 0.0 0.0 0.0 0.0 0.0 0.1 0.1 0.1 0.1 0.0 0.1 0.2 0.2 0.2 0.1 0.2 0.2 0.2 0.2 0.2 0.2 0.3 0.4 0.4 0.5
0.0 0.1 0.1 0.0 0.0 0.1 0.0 0.0 0.1 0.0 0.0 0.0 -0.0 -0.0 -0.0 -0.0 -0.0 -0.0 0.0 0.0 0.0 0.1 0.1 0.0 0.1 0.1 0.1 0.1 0.1 0.1 -0.0 0.1 0.1 0.1 0.1 0.1 0.1 0.2 0.2 0.2 0.3 0.3 0.1 0.2 0.3 0.3 0.5 0.5 0.7
0.0 0.0 0.0 0.1 0.1 0.1 -0.0 0.0 0.1 0.0 0.0 0.0 -0.0 -0.1 -0.0 -0.0 -0.0 0.0 0.0 0.1 0.1 0.1 0.1 0.1 0.1 0.0 0.0 -0.0 0.0 0.0 0.0 0.0 0.1 0.1 0.1 0.1 0.1 0.0 0.0 0.1 0.2 0.3 0.2 0.3 0.3 0.3 0.3 0.6 0.7
0.0 0.0 0.0 0.0 0.1 0.1 0.0 0.1 0.1 -0.0 -0.0 -0.0 -0.0 -0.1 -0.0 -0.0 0.0 0.0 0.0 0.0 0.1 0.2 0.2 0.2 0.1 0.1 -0.0 -0.1 -0.0 0.0 -0.0 -0.0 -0.0 0.0 0.1 0.1 0.1 -0.0 0.1 0.1 0.2 0.2 0.3 0.2 0.2 0.1 0.3 0.3 0.6
0.0 0.0 0.0 0.2 0.1 0.2 0.2 0.0 0.0 0.0 -0.0 -0.1 -0.0 -0.0 -0.0 -0.0 -0.1 -0.0 0.0 0.1 0.1 0.3 0.3 0.3 0.2 0.1 0.0 -0.0 0.0 0.0 0.0 0.0 0.0 0.0 0.1 0.1 0.2 0.1 0.1 0.1 0.1 0.2 0.2 0.3 0.2 0.2 0.1 0.3 0.5
0.0 0.0 0.1 0.1 0.1 0.0 0.0 0.0 0.0 0.0 0.1 -0.0 0.0 -0.0 -0.0 0.0 -0.0 -0.0 0.0 0.1 0.1 0.1 0.3 0.3 0.2 0.0 0.1 0.1 -0.1 0.0 0.1 0.1 0.1 0.0 0.1 0.1 0.1 0.1 0.1 0.2 0.2 0.2 0.3 0.2 0.2 0.2 0.1 0.2 0.4
0.0 0.0 0.0 0.2 0.1 0.1 0.0 0.0 0.0 -0.0 0.1 -0.1 -0.0 -0.0 -0.0 -0.0 -0.0 0.0 0.1 0.1 0.1 0.1 0.2 0.3 0.2 0.1 0.1 0.1 0.0 0.0 0.1 0.1 0.0 0.1 -0.0 0.1 0.1 0.1 0.0 0.2 0.3 0.2 0.2 0.2 0.2 0.2 0.2 0.2 0.5
0.0 0.0 0.0 0.2 0.1 0.1 0.0 0.0 0.0 0.1 0.1 0.4 0.1 -0.0 -0.0 -0.0 -0.0 0.0 0.1 0.2 0.1 0.1 0.2 0.2 0.1 0.1 0.1 0.2 0.1 0.0 0.1 0.1 0.0 0.1 0.1 0.0 0.1 0.1 0.0 -0.0 0.2 0.3 0.3 0.2 0.3 0.3 0.4 0.3 0.3
0.0 0.0 0.0 0.1 0.1 0.0 0.0 0.0 -0.0 0.0 0.3 0.2 0.2 0.1 -0.0 -0.0 -0.0 -0.0 0.0 -0.0 -0.0 0.0 0.0 0.1 0.2 0.1 0.1 0.1 0.1 0.0 0.0 0.1 0.1 0.1 0.1 0.0 0.0 0.0 0.0 0.2 0.2 0.2 0.2 0.3 0.3 0.6 0.4 0.5 0.3
0.0 0.0 0.0 0.0 0.0 0.0 0.0 0.1 0.0 0.0 0.0 0.1 0.0 0.1 0.0 -0.0 -0.0 -0.0 0.1 0.0 -0.0 0.0 0.0 0.0 0.1 0.2 0.1 0.1 0.1 -0.1 -0.1 0.0 0.0 0.1 -0.0 0.0 0.1 0.1 0.1 0.2 0.2 0.3 0.2 0.2 0.2 0.6 0.5 0.3 0.4
0.0 0.0 0.0 0.0 0.0 0.0 0.0 0.0 0.0 0.0 0.0 0.0 -0.1 -0.0 0.2 0.1 0.0 0.0 0.1 0.2 0.1 0.1 0.0 0.0 -0.0 0.1 0.1 0.0 0.1 -0.1 0.0 0.1 0.2 0.1 0.2 0.1 0.1 0.0 0.1 0.1 0.1 0.2 0.2 0.1 0.1 0.2 0.3 0.3 0.4
0.0 0.0 0.0 0.0 0.0 0.0 0.0 0.1 0.0 0.0 0.1 0.2 0.1 0.1 0.1 0.1 0.0 0.1 0.1 0.2 0.5 0.1 -0.0 -0.2 -0.1 -0.1 0.0 0.0 0.1 0.0 0.1 0.2 0.2 0.2 0.2 0.2 0.1 0.1 0.1 -0.0 -0.0 0.2 0.1 0.1 0.1 0.1 0.2 0.3 0.3
0.0 0.0 0.0 0.0 0.0 0.0 0.1 0.1 0.1 0.1 0.1 0.1 0.1 0.1 0.1 0.1 0.1 0.1 0.2 0.3 0.5 0.2 0.0 0.1 0.0 -0.1 -0.1 0.1 0.2 0.2 0.1 0.3 0.3 0.2 0.2 0.2 0.2 0.2 0.2 0.1 0.1 0.1 0.1 0.1 0.2 0.2 0.3 0.3 0.2
0.0 0.0 0.0 0.0 0.0 0.0 0.0 0.0 0.2 0.2 0.1 0.1 0.0 0.0 0.0 0.0 0.0 0.0 0.1 0.2 0.3 0.2 0.1 0.1 0.1 -0.1 -0.1 0.0 0.1 0.3 0.2 0.3 0.4 0.3 0.3 0.3 0.2 0.1 0.1 0.1 0.2 0.0 0.1 0.2 0.2 0.2 0.2 0.2 0.2
0.0 0.0 0.0 0.0 0.0 0.0 0.0 0.0 0.0 0.0 0.1 0.0 0.0 0.0 0.0 0.0 0.0 0.0 0.0 0.1 0.2 0.2 0.3 0.3 0.3 0.0 0.2 0.2 0.1 0.1 0.2 0.2 0.4 0.5 0.3 0.4 0.2 0.2 0.2 0.2 0.1 0.1 0.2 0.1 0.2 0.2 0.1 0.0 0.1

GFSSGP_con_3kmehi_096.txt.gz
EHI
0.0 0.0 0.0 0.1 0.1 0.1 -0.0 0.0 -0.0 -0.0 -0.0 0.0 -0.0 0.0 -0.0 0.1 0.0 -0.0 -0.0 -0.0 0.0 0.1 0.1 0.3 0.2 0.2 0.2 0.0 -0.0 0.1 0.3 0.4 0.4 0.3 0.3 0.3 0.0 0.0 -0.1 0.1 -0.1 -0.2 -0.2 0.0 0.0 0.0 0.0 0.1 0.1
-0.0 0.0 0.0 -0.0 0.0 0.0 -0.0 0.0 0.0 0.0 -0.0 -0.0 0.0 0.0 0.0 -0.0 -0.0 0.0 -0.0 -0.1 0.1 0.1 0.2 0.1 0.3 0.2 0.0 -0.1 -0.2 -0.1 0.1 0.2 0.2 0.2 0.1 0.1 -0.0 0.0 0.1 -0.0 -0.2 -0.2 -0.2 -0.2 -0.0 0.0 0.0 0.1 0.1
-0.0 -0.0 -0.0 -0.0 0.0 0.0 0.0 -0.0 -0.0 -0.0 0.0 0.0 0.0 0.1 0.2 0.0 -0.0 0.0 -0.0 0.0 0.1 0.0 0.0 0.2 0.2 0.2 0.1 -0.1 -0.2 -0.0 0.1 0.1 0.1 0.1 0.2 0.0 -0.0 -0.0 -0.0 -0.2 -0.2 -0.2 -0.2 -0.1 -0.1 -0.0 0.0 0.1 0.2
-0.0 0.0 0.0 0.0 -0.1 0.1 -0.0 -0.0 -0.0 -0.0 0.0 0.0 0.0 -0.0 0.1 0.0 0.0 -0.0 0.0 0.1 0.1 0.0 0.1 0.1 0.1 -0.0 -0.1 -0.1 -0.2 -0.1 -0.0 0.0 0.1 0.1 0.1 0.0 -0.1 -0.1 -0.1 -0.2 0.1 -0.1 0.0 0.0 0.0 0.1 0.2 0.1 0.3
-0.0 -0.0 -0.0 0.0 0.0 -0.0 -0.1 -0.0 -0.0 0.0 0.0 0.1 0.2 0.0 -0.0 0.0 -0.0 0.0 0.0 0.0 0.0 0.0 0.1 0.0 -0.0 -0.1 -0.2 -0.1 -0.1 -0.0 0.1 0.1 0.1 0.1 0.2 0.2 0.2 0.1 0.1 0.1 0.1 0.2 0.3 0.2 -0.0 0.2 0.4 0.3 0.4
-0.0 -0.1 -0.0 0.0 -0.0 -0.0 0.0 -0.0 0.0 0.0 0.0 0.0 0.0 0.0 0.0 -0.0 -0.0 -0.1 -0.0 -0.0 0.0 -0.0 -0.0 0.0 -0.0 -0.0 -0.1 -0.0 -0.0 -0.0 0.1 -0.0 0.1 0.3 0.2 0.0 -0.0 0.1 0.1 0.0 0.1 0.2 0.3 0.3 0.2 0.3 0.4 0.3 0.2
-0.0 -0.1 -0.1 0.0 -0.0 -0.0 -0.0 -0.0 -0.0 -0.0 0.0 0.0 0.0 -0.0 -0.0 0.0 -0.1 -0.1 -0.0 -0.0 0.0 0.0 -0.0 0.0 0.1 0.0 -0.0 -0.0 -0.0 -0.0 0.1 0.0 -0.1 -0.1 0.1 -0.1 -0.0 -0.1 -0.0 -0.2 0.1 0.3 0.3 0.3 0.2 0.2 0.3 0.1 0.1
0.0 0.0 0.0 0.0 -0.0 -0.0 -0.1 -0.0 -0.0 -0.0 0.1 0.1 -0.0 -0.0 0.1 0.1 -0.0 -0.1 -0.0 -0.0 0.0 0.0 0.0 -0.0 0.0 0.1 0.1 -0.0 -0.1 -0.1 -0.0 -0.0 -0.2 -0.1 -0.2 -0.1 -0.1 -0.1 -0.0 0.0 -0.2 -0.0 0.1 0.1 0.0 0.1 0.2 0.2 0.1
0.0 0.1 0.0 0.0 -0.0 -0.1 -0.1 -0.1 -0.0 0.1 0.0 0.0 0.0 -0.0 0.1 0.1 0.0 0.0 0.0 0.0 0.0 0.0 0.0 0.0 0.0 0.0 0.2 0.1 -0.1 -0.1 -0.1 -0.2 -0.2 -0.3 0.0 0.5 0.1 0.1 0.2 0.3 0.0 0.0 0.1 0.1 0.0 -0.1 0.2 0.2 0.3
-0.0 -0.0 0.0 0.2 -0.0 -0.1 0.0 -0.1 -0.0 -0.0 -0.0 0.0 0.0 0.0 0.1 0.1 0.0 0.0 0.0 0.0 0.0 0.1 0.1 -0.0 0.0 0.0 0.1 0.0 0.0 -0.0 0.2 0.1 0.0 -0.1 0.1 -0.0 -0.1 0.3 0.1 -0.1 -0.0 -0.0 0.3 0.3 0.3 0.3 0.5 0.8 0.4
-0.0 0.0 0.1 0.0 -0.0 -0.0 0.0 -0.1 -0.0 0.0 -0.0 -0.0 0.0 0.1 0.1 0.1 0.0 0.0 0.0 0.0 0.0 0.1 0.0 0.0 0.0 0.0 0.1 0.1 0.1 0.1 0.1 0.1 0.1 0.1 0.1 -0.0 -0.0 0.1 0.1 0.2 0.2 0.2 0.8 0.4 0.4 0.5 0.4 0.3 0.3
0.0 0.0 0.2 -0.0 -0.1 -0.0 -0.0 -0.0 -0.0 -0.0 0.0 -0.0 0.0 0.1 0.1 0.0 0.0 0.0 0.0 0.0 0.0 0.0 0.0 0.0 0.0 0.1 0.1 0.1 0.1 0.1 0.1 0.1 0.1 0.0 0.1 0.1 0.1 0.1 0.2 0.2 0.2 0.3 0.3 0.4 0.5 0.3 0.4 0.4 0.4
0.1 0.1 0.1 -0.0 0.1 0.0 0.0 0.0 0.0 0.0 0.0 0.0 0.0 0.0 0.0 0.0 0.0 -0.0 -0.0 0.0 0.0 0.0 0.0 0.0 0.0 0.0 0.1 0.2 0.1 0.1 0.1 0.1 -0.0 0.1 0.1 0.1 0.1 0.1 0.2 0.3 0.2 0.3 0.2 0.2 0.3 0.3 0.3 0.2 0.2
0.2 0.1 0.1 0.0 0.1 0.0 0.0 0.0 0.0 0.0 0.0 0.0 0.0 0.0 0.0 0.0 0.0 -0.0 -0.0 -0.0 0.0 0.0 0.0 -0.0 0.0 0.0 0.0 -0.0 0.1 0.2 0.1 0.1 0.0 0.1 0.1 0.2 0.1 0.3 0.2 0.3 0.3 0.1 0.1 0.2 0.2 0.2 0.2 0.2 0.1
0.1 0.1 0.1 0.2 0.0 0.0 0.0 0.0 0.1 0.0 0.0 0.0 -0.0 0.0 0.0 -0.0 -0.0 -0.0 -0.0 -0.0 0.0 0.0 0.0 0.0 -0.0 -0.0 -0.0 -0.0 0.2 0.2 0.2 0.0 0.0 -0.0 0.1 0.2 0.2 0.2 0.2 0.2 0.3 0.3 0.2 0.3 0.1 0.1 0.1 0.1 0.1
0.2 0.1 0.3 0.1 0.2 0.2 0.0 0.1 0.0 0.0 0.0 0.0 -0.0 -0.0 -0.0 -0.0 -0.0 -0.0 -0.0 -0.0 -0.0 -0.0 0.0 0.0 0.0 -0.0 0.0 -0.1 0.2 0.2 0.1 0.1 0.0 0.0 0.0 0.1 0.1 0.2 0.2 0.2 0.3 0.3 0.3 0.2 0.2 0.2 0.1 0.2 0.2
0.1 0.1 0.1 0.2 0.1 0.2 0.0 0.0 0.1 0.0 0.0 0.0 -0.0 -0.0 -0.0 0.0 0.0 -0.0 -0.0 -0.0 -0.0 -0.0 0.0 -0.0 -0.0 -0.0 0.0 -0.1 0.0 0.1 -0.0 0.1 0.0 -0.0 0.1 0.0 0.0 0.1 0.1 0.1 0.2 0.5 0.2 0.2 0.2 0.1 0.4 0.3 0.3
0.0 0.1 0.1 0.2 0.3 0.0 0.1 0.0 0.1 0.0 0.0 -0.0 -0.0 0.0 0.0 0.0 0.0 -0.0 -0.0 -0.0 -0.0 -0.0 -0.0 -0.0 0.0 -0.1 0.0 -0.0 0.1 0.1 0.0 0.1 0.1 0.1 0.0 0.1 0.1 0.2 0.2 0.0 0.1 0.5 0.4 0.2 0.2 0.4 0.3 0.5 0.5
0.0 0.0 0.1 0.1 0.2 0.1 -0.0 0.0 0.1 0.0 -0.1 0.0 -0.0 -0.0 -0.0 -0.0 -0.0 -0.0 -0.0 -0.0 -0.0 0.0 0.0 0.1 0.0 -0.1 0.1 0.1 0.1 0.0 0.1 0.0 0.1 0.1 -0.0 0.0 0.0 0.0 0.1 0.0 0.1 0.3 0.3 0.4 0.3 0.2 0.3 0.2 0.3
0.0 -0.1 0.1 0.4 0.2 0.2 0.0 0.0 0.1 -0.0 0.0 0.0 -0.0 -0.0 -0.0 -0.0 -0.0 -0.0 -0.0 0.0 0.1 0.1 0.1 0.1 0.1 -0.1 0.1 0.0 0.0 0.1 0.0 0.0 -0.0 -0.0 -0.1 -0.0 0.0 0.0 -0.0 0.1 0.0 0.3 0.1 0.2 0.2 0.4 0.3 0.2 0.6
0.0 0.0 0.0 0.1 0.2 0.2 0.1 0.0 0.0 0.0 0.1 0.0 -0.1 -0.0 -0.0 0.0 -0.0 -0.0 -0.0 0.1 0.0 0.1 0.3 0.3 0.1 -0.0 -0.0 0.0 -0.0 0.1 0.2 0.1 0.0 -0.0 -0.0 -0.1 -0.1 -0.0 0.0 0.1 0.2 0.1 0.5 -0.0 0.2 0.1 0.6 0.2 0.4
0.0 0.0 0.1 0.2 -0.0 0.1 0.0 0.0 0.0 0.0 0.0 0.0 -0.1 0.0 -0.0 0.0 -0.0 -0.0 -0.0 0.0 0.1 0.1 0.2 0.2 0.1 -0.1 -0.1 -0.0 0.0 0.1 0.1 0.2 0.3 0.1 -0.0 -0.1 -0.0 -0.0 -0.1 0.2 0.2 0.2 0.1 0.1 0.0 0.1 0.2 1.1 0.5
0.0 0.0 0.0 0.0 0.1 0.0 -0.0 -0.0 -0.0 0.0 0.0 0.1 -0.2 -0.0 -0.0 -0.0 -0.0 -0.0 0.0 0.0 0.1 -0.0 0.1 0.1 0.0 -0.1 -0.0 -0.1 0.1 -0.1 0.1 0.4 0.1 0.1 -0.0 0.1 0.1 0.0 -0.0 0.1 0.3 0.3 0.1 0.2 0.3 0.2 0.5 0.1 0.6
0.0 0.0 0.0 0.1 0.0 0.0 -0.0 -0.0 0.0 0.0 0.1 0.0 -0.0 0.0 -0.0 -0.0 -0.0 -0.0 0.0 0.0 -0.1 -0.1 -0.0 0.1 0.2 -0.0 0.0 -0.0 0.0 0.2 0.2 0.1 0.2 0.2 0.1 0.0 0.1 0.1 0.1 0.1 0.1 0.2 0.5 0.4 0.3 0.5 0.4 0.7 0.5
0.0 0.0 0.0 0.0 0.0 0.0 0.0 -0.0 -0.0 -0.0 0.0 0.1 0.0 0.1 -0.0 -0.1 -0.1 -0.1 -0.2 -0.1 -0.2 -0.0 0.0 0.2 0.2 0.1 0.0 -0.0 -0.1 0.2 0.2 0.2 0.2 0.1 0.3 0.1 0.2 0.1 0.3 0.1 0.2 0.2 0.4 0.4 0.4 0.5 0.6 0.5 0.5
0.0 0.0 0.0 0.0 0.0 0.0 0.0 0.1 0.0 0.1 0.1 -0.0 -0.0 -0.0 -0.1 -0.2 -0.1 -0.1 0.0 -0.0 0.4 -0.0 0.3 0.3 0.1 -0.0 0.0 -0.0 -0.1 -0.0 0.0 0.0 0.2 0.1 0.1 0.3 0.2 0.0 0.3 0.1 0.1 0.2 0.2 0.2 0.3 0.1 0.3 0.3 0.3
0.0 0.0 0.0 0.0 0.0 0.0 0.0 0.0 0.1 0.0 0.1 0.1 0.0 0.0 -0.0 -0.1 -0.2 -0.1 0.2 0.3 0.5 0.7 0.7 0.4 0.2 0.1 -0.2 -0.2 -0.1 -0.1 0.1 0.3 0.2 0.1 0.1 0.4 0.3 0.2 0.1 0.1 0.0 0.0 0.1 -0.0 0.1 0.1 0.2 0.4 0.2
0.0 0.0 0.0 0.0 0.1 0.0 0.0 0.0 0.0 0.1 0.1 0.2 0.2 0.1 0.1 0.1 0.0 0.1 0.2 0.4 0.4 0.4 0.3 0.2 0.4 0.3 0.2 0.1 0.2 0.1 0.1 0.1 0.2 0.2 0.2 0.4 0.4 0.2 0.2 0.1 0.0 -0.0 -0.1 0.0 0.2 0.2 0.2 0.2 0.3
0.0 0.0 0.0 0.0 0.0 0.0 0.0 -0.0 0.4 0.3 0.3 0.2 0.3 0.5 0.7 0.5 0.4 0.3 0.5 0.6 0.5 0.5 0.3 0.3 0.2 0.2 0.1 0.3 0.2 0.3 0.2 0.1 0.1 0.2 0.3 0.2 0.4 0.4 0.3 0.2 0.0 0.0 -0.0 0.0 0.1 0.2 0.3 0.2 0.2
0.0 0.0 0.0 0.0 0.0 0.0 0.0 0.2 0.4 0.6 0.4 0.2 0.1 0.2 0.2 0.2 0.2 0.2 0.4 0.6 0.8 0.8 0.5 0.2 0.4 0.1 0.1 0.2 -0.2 0.2 0.2 0.2 0.2 0.2 0.2 0.3 0.2 0.3 0.4 0.3 0.2 0.2 0.1 0.2 0.2 0.1 0.2 0.1 0.1

GFSSGP_con_3kmehi_099.txt.gz
EHI
0.0 0.0 0.1 0.2 0.4 0.4 0.0 0.0 0.0 0.0 -0.0 -0.0 -0.0 0.0 -0.1 0.2 0.1 0.1 -0.0 -0.0 -0.0 0.1 0.1 0.2 0.1 0.1 -0.1 -0.1 -0.1 0.1 0.2 0.2 0.2 0.3 0.1 0.1 -0.0 -0.1 -0.2 -0.1 -0.1 -0.1 -0.0 0.0 0.0 0.1 0.1 0.1 0.2
0.0 -0.0 0.2 0.0 0.3 0.0 0.0 0.0 0.0 -0.0 -0.0 -0.0 0.0 0.0 0.0 -0.0 -0.0 0.1 -0.1 -0.1 -0.0 0.0 0.1 0.1 0.1 0.1 -0.0 0.0 0.0 0.1 0.1 0.2 0.3 0.2 0.1 0.0 -0.0 -0.0 -0.1 -0.2 -0.1 -0.1 -0.1 0.1 0.0 0.0 0.1 0.1 0.2
0.0 0.0 -0.1 0.0 0.0 0.0 0.0 0.0 0.0 0.0 -0.0 0.0 -0.0 0.2 0.0 0.0 -0.0 -0.0 0.0 0.1 0.0 0.0 0.1 0.2 0.2 0.1 -0.1 -0.1 0.1 0.2 0.2 0.2 0.2 0.0 0.0 -0.1 0.0 -0.1 -0.1 -0.1 0.0 0.0 -0.0 -0.0 -0.0 0.0 0.1 0.2 0.2
0.0 -0.0 0.0 0.3 0.0 0.0 0.0 0.0 0.0 0.0 0.0 0.0 0.1 0.0 0.0 0.0 -0.0 0.0 0.0 0.0 0.0 0.4 0.3 0.0 0.0 0.0 -0.0 -0.3 -0.1 0.1 0.1 0.1 0.1 -0.0 -0.1 -0.1 -0.1 -0.1 0.0 0.1 0.1 0.0 -0.1 -0.1 0.1 0.0 -0.0 0.1 0.2
-0.0 0.0 0.0 0.0 0.0 0.0 0.0 0.0 0.0 0.0 -0.0 0.0 0.1 0.0 0.0 -0.0 0.0 0.1 -0.0 0.2 0.2 0.2 0.1 0.1 -0.0 -0.1 -0.0 -0.1 -0.0 0.1 0.2 0.2 0.1 -0.3 -0.2 -0.1 -0.1 -0.0 0.0 0.0 0.1 0.1 -0.0 -0.1 0.1 0.1 0.1 0.1 0.1
0.0 -0.0 0.0 -0.0 0.0 0.0 0.0 0.0 -0.0 0.0 -0.0 0.1 0.1 0.0 0.0 -0.0 0.0 0.1 0.3 0.2 0.1 0.3 0.1 0.1 -0.0 -0.1 -0.1 -0.1 -0.0 0.1 0.1 0.1 0.1 0.2 0.2 0.1 0.0 -0.0 -0.0 0.1 0.2 0.2 -0.1 -0.0 -0.0 0.0 0.0 0.0 0.0
-0.0 -0.1 0.1 0.0 0.0 -0.0 0.0 0.0 0.0 0.0 -0.0 0.1 0.0 0.0 0.0 0.0 -0.0 -0.0 -0.0 0.0 0.0 0.2 0.2 0.2 0.1 0.1 -0.1 -0.1 0.1 0.2 0.0 -0.2 0.2 0.1 -0.0 -0.0 -0.0 0.1 0.1 0.1 0.0 -0.0 -0.1 -0.1 0.0 0.1 0.0 0.0 0.0
0.0 -0.0 -0.0 0.0 -0.0 0.0 -0.0 -0.0 0.0 0.0 0.0 0.0 0.0 0.0 0.1 0.1 0.0 -0.0 -0.0 -0.0 0.0 0.2 -0.0 -0.0 0.5 0.1 -0.0 -0.1 0.1 -0.0 0.1 0.0 0.2 0.0 0.1 0.1 0.1 0.2 0.2 0.2 -0.1 -0.1 0.0 -0.0 0.1 0.1 -0.0 -0.1 -0.1
0.0 -0.0 0.1 0.0 0.0 0.0 0.0 -0.0 0.0 0.2 0.1 0.0 0.0 0.0 0.1 0.0 -0.0 0.0 -0.0 -0.0 0.1 0.1 0.1 0.1 0.1 0.0 -0.1 -0.1 0.0 0.1 0.1 0.2 0.0 0.1 0.3 0.7 0.1 0.2 0.3 0.1 0.1 0.1 -0.1 -0.1 -0.1 0.1 0.2 0.1 -0.4
-0.0 0.0 -0.0 0.1 0.0 0.1 0.0 0.0 0.0 0.0 0.0 0.1 0.0 0.1 0.1 0.0 -0.0 0.0 0.0 0.0 0.0 0.0 -0.0 0.1 0.0 0.1 0.3 -0.1 0.2 0.2 0.2 0.3 0.3 -0.1 0.1 0.5 -0.2 0.1 -0.0 -0.2 0.1 0.2 0.3 0.5 0.6 0.4 1.1 1.7 1.2
0.0 0.1 0.3 0.1 -0.0 0.1 0.0 0.1 -0.0 0.1 -0.0 0.0 0.0 0.1 0.1 0.0 -0.0 0.0 0.0 0.0 -0.0 -0.0 -0.0 0.0 0.4 0.0 0.0 0.0 0.1 0.2 -0.1 -0.0 0.2 0.2 0.2 0.1 0.2 0.1 0.1 0.2 0.3 0.8 0.8 0.5 1.0 1.4 0.3 0.6 0.5
0.0 0.1 0.1 0.2 -0.0 0.0 0.0 0.0 0.0 0.0 0.0 0.0 0.0 0.1 0.0 0.0 0.0 0.0 0.0 0.0 0.0 -0.0 -0.0 0.0 0.0 0.1 0.1 0.1 0.1 -0.1 -0.0 0.1 0.1 -0.1 0.0 0.1 0.1 0.1 0.4 0.0 -0.0 0.7 0.0 0.3 -0.0 -0.0 0.1 -0.0 0.3
0.0 0.0 0.1 0.1 -0.0 0.1 0.1 -0.0 0.0 0.1 0.1 0.1 0.0 0.0 0.0 -0.0 -0.0 -0.0 -0.0 -0.0 0.0 0.0 -0.0 0.0 -0.0 0.3 0.1 0.1 0.0 0.1 0.1 0.0 -0.0 0.0 0.2 0.0 0.0 0.1 0.1 0.5 -0.0 0.3 0.3 0.4 -0.1 -0.0 0.2 0.0 -0.0
0.2 0.2 0.1 0.1 0.2 0.6 -0.0 0.0 -0.0 0.0 0.0 0.0 0.0 0.0 0.0 0.0 0.0 -0.0 -0.0 -0.0 0.0 0.0 -0.0 -0.0 -0.0 -0.0 0.3 0.1 0.2 0.2 -0.1 0.0 -0.0 -0.0 0.1 0.3 -0.0 0.1 0.2 0.1 0.5 0.1 0.3 0.2 0.1 0.4 0.4 0.1 -0.1
0.1 0.2 0.2 0.3 0.2 0.1 0.1 0.0 0.0 0.0 0.0 0.0 0.0 -0.0 -0.0 -0.0 0.0 -0.0 -0.0 -0.0 -0.0 0.0 0.0 -0.0 -0.0 -0.0 -0.1 0.1 0.1 0.2 0.1 -0.0 0.1 -0.0 0.3 0.2 0.1 0.4 0.4 0.2 0.3 0.1 0.2 0.5 0.7 0.3 0.3 -0.0 0.0
0.1 0.2 0.3 0.1 0.3 0.4 0.2 0.1 0.1 0.0 0.0 0.0 0.0 0.0 -0.0 -0.0 0.0 -0.0 -0.0 -0.0 0.0 0.0 0.0 -0.0 0.0 -0.0 0.1 -0.2 0.7 0.5 0.2 -0.0 -0.0 -0.0 0.0 0.1 0.2 0.3 0.7 0.5 0.3 0.1 0.9 0.1 0.4 0.1 0.1 0.1 0.0
0.2 0.2 0.2 0.4 0.2 0.3 0.3 0.2 0.2 0.0 -0.0 0.0 0.0 0.0 0.0 0.0 0.0 -0.0 -0.0 0.0 0.0 0.0 0.0 -0.0 -0.0 -0.0 -0.2 -0.0 0.1 0.3 0.2 0.6 0.1 -0.1 -0.0 -0.0 0.1 0.4 0.9 0.5 -0.2 1.3 0.6 0.3 0.1 0.1 0.3 0.3 0.1
0.1 0.0 0.1 0.5 0.3 0.2 0.0 0.0 0.1 0.0 0.0 -0.0 0.0 0.0 0.0 0.0 0.0 0.0 -0.0 0.0 0.0 0.0 -0.0 -0.0 -0.0 -0.1 0.1 0.0 0.0 -0.1 0.0 0.3 -0.0 0.2 1.0 -0.0 -0.1 0.2 0.8 -0.1 0.3 0.6 0.4 0.1 0.5 1.5 0.4 0.5 0.6
0.0 0.0 0.0 0.4 0.1 0.0 0.1 0.0 0.1 0.1 0.0 0.1 0.0 -0.0 0.0 0.0 0.0 0.0 0.0 0.0 0.0 0.0 -0.0 -0.0 -0.2 -0.1 0.1 0.1 0.1 -0.1 0.1 0.0 0.1 0.6 -0.0 0.1 -0.0 0.1 0.3 0.1 0.3 1.0 0.5 0.9 0.4 0.9 0.8 0.0 0.3
-0.0 0.0 0.0 0.0 0.1 0.0 0.0 0.0 0.1 0.0 0.0 0.0 0.1 0.0 0.0 0.0 0.0 0.0 0.0 0.0 0.0 0.0 0.0 -0.1 -0.2 -0.1 0.1 0.2 0.3 0.3 0.1 0.0 0.1 0.5 -0.1 0.1 0.0 -0.0 0.4 0.6 0.2 0.4 -0.1 0.2 0.3 1.0 1.0 -0.1 0.4
-0.0 0.0 -0.0 0.0 0.1 0.0 0.0 0.0 0.1 0.1 -0.0 0.0 0.1 0.1 0.0 0.0 0.1 0.0 0.0 0.0 0.1 0.1 0.1 0.0 -0.1 -0.2 0.1 0.1 0.0 0.3 0.5 0.2 -0.1 0.3 0.2 0.0 -0.0 0.1 0.1 0.2 0.4 0.2 0.5 0.4 0.4 0.6 1.2 0.5 0.1
0.0 0.0 -0.0 0.0 0.0 0.1 0.0 0.0 0.0 0.0 0.0 -0.0 0.2 0.0 0.0 0.0 0.0 0.1 0.0 0.0 0.0 0.3 0.1 0.2 -0.0 -0.0 -0.1 0.2 0.3 0.1 0.2 0.1 0.2 0.2 0.0 0.6 -0.0 -0.0 0.1 -0.1 0.1 0.2 0.6 0.8 0.2 0.2 2.2 1.5 0.1
0.0 0.0 0.0 0.1 0.0 -0.0 -0.1 -0.0 0.0 0.1 0.0 0.0 0.3 0.1 0.0 -0.0 0.0 0.1 0.1 0.0 0.0 0.2 0.2 0.2 0.0 0.0 0.2 -0.1 0.7 -0.0 0.1 0.2 0.3 0.2 0.3 0.4 0.3 0.0 0.0 0.1 -0.2 -0.0 0.2 -0.2 1.2 0.5 0.8 1.0 1.9
0.0 0.0 0.0 0.1 0.0 -0.0 -0.0 -0.1 -0.0 -0.0 -0.0 0.0 0.0 0.0 0.0 0.1 0.0 0.2 0.0 0.1 -0.0 0.3 0.4 0.3 0.3 0.1 0.1 0.1 0.2 0.3 0.3 0.3 0.3 0.3 0.3 0.0 0.6 0.3 0.1 0.1 -0.0 0.2 0.5 0.0 -0.1 -0.0 0.4 1.3 1.6
0.0 0.0 0.0 0.0 0.1 0.1 0.0 -0.0 0.0 0.0 0.0 -0.0 0.0 -0.0 0.0 0.0 -0.0 -0.0 0.1 0.2 0.1 0.4 0.4 0.8 0.4 0.2 0.2 0.1 0.1 0.1 0.2 0.3 0.4 0.3 0.1 0.0 0.3 0.1 1.3 0.5 0.2 0.0 0.4 0.4 0.5 0.2 0.3 0.3 0.9
0.0 0.0 0.0 0.0 0.0 0.0 -0.0 -0.0 -0.0 0.0 0.0 0.0 0.1 0.0 0.0 0.2 -0.0 -0.0 0.3 0.2 -0.0 0.2 0.3 0.5 0.6 0.3 0.2 0.2 0.2 0.2 0.1 -0.0 0.2 0.2 0.7 0.3 0.2 -0.1 0.4 0.2 0.2 0.1 0.4 0.2 0.2 0.0 -0.1 0.2 0.2
0.0 0.0 0.0 0.0 0.0 0.0 0.0 0.2 0.3 0.0 0.0 -0.0 0.0 0.1 0.1 -0.1 0.2 -0.0 -0.0 0.8 0.9 0.7 0.4 0.9 1.3 0.8 0.4 0.3 0.3 0.3 0.3 0.4 0.7 0.4 0.4 0.4 -0.1 0.6 0.3 0.2 0.2 0.1 0.1 0.1 0.1 0.2 -0.1 -0.1 0.4
0.0 0.0 0.0 0.0 0.0 0.0 0.0 0.1 0.1 0.1 0.0 -0.0 0.0 -0.0 0.3 0.0 -0.2 0.0 0.9 0.8 0.9 0.5 1.7 0.8 0.4 1.0 1.0 0.3 0.3 0.3 0.1 0.2 0.3 0.2 0.3 0.2 0.1 0.4 0.0 0.1 0.1 0.1 0.1 0.1 0.2 0.3 0.4 0.2 0.4
0.0 0.0 0.0 0.0 0.0 0.0 0.0 0.0 0.2 0.1 0.3 0.1 0.2 0.2 0.1 0.1 0.1 0.2 1.0 0.9 1.9 1.2 1.2 1.3 1.5 1.0 1.2 0.8 0.8 0.7 0.3 0.4 0.2 0.2 0.2 0.2 0.2 0.3 0.2 0.2 0.1 0.1 0.2 0.0 0.1 -0.1 0.4 0.2 0.2
0.0 0.0 0.0 0.0 0.0 0.0 0.0 0.1 0.2 0.3 0.6 0.8 0.8 1.2 1.6 2.4 1.2 1.1 1.2 1.6 1.3 1.0 0.3 0.7 0.4 0.6 0.2 0.9 1.0 0.7 0.3 0.3 0.5 0.3 0.2 0.2 0.4 0.4 0.3 0.2 0.3 0.2 0.1 0.2 0.4 0.1 0.0 0.3 0.0

GFSSGP_con_3kmehi_102.txt.gz
EHI
0.0 0.0 0.0 0.6 -0.1 0.4 0.0 0.0 -0.0 0.0 -0.0 0.0 0.1 0.0 0.0 0.1 0.0 0.0 0.0 -0.0 0.1 0.1 0.1 0.2 0.1 0.1 0.0 0.0 0.0 0.1 0.2 0.1 0.1 0.1 -0.1 -0.1 -0.1 -0.1 -0.1 -0.1 -0.1 -0.0 0.0 0.0 0.0 0.1 0.1 0.1 0.2
0.0 0.0 0.0 0.0 0.2 -0.0 0.0 0.0 0.0 -0.0 0.0 0.2 0.2 0.0 0.0 0.0 0.1 0.1 0.0 0.1 0.0 0.1 0.1 0.0 0.1 0.2 0.0 -0.0 -0.0 -0.0 -0.0 0.1 0.1 -0.0 -0.1 -0.1 -0.1 -0.2 -0.1 -0.1 -0.0 -0.0 0.0 -0.0 0.1 0.1 0.0 0.2 0.2
0.0 0.0 -0.1 0.0 0.0 -0.0 0.0 0.0 0.0 0.0 0.0 0.1 0.0 -0.0 0.0 0.0 0.0 0.1 0.1 0.0 0.1 0.2 0.3 0.1 0.1 0.1 0.1 0.1 -0.1 -0.1 -0.0 0.0 0.0 -0.0 -0.1 -0.0 -0.0 -0.1 0.0 -0.0 -0.1 -0.0 -0.0 -0.0 0.1 0.1 0.1 0.1 0.1
0.0 -0.0 0.0 0.0 0.0 -0.0 0.0 0.0 0.0 -0.0 0.0 0.0 0.0 0.0 0.1 0.1 0.1 0.2 0.1 0.0 0.1 0.3 0.2 0.2 0.1 0.0 0.1 0.1 0.1 0.0 0.0 0.0 -0.0 -0.1 -0.1 -0.0 0.0 0.0 0.0 -0.0 -0.2 -0.1 -0.2 -0.2 -0.2 -0.1 -0.0 -0.1 -0.0
0.0 0.0 -0.0 0.0 0.0 0.0 0.0 0.0 0.0 0.0 0.2 0.0 0.0 0.0 0.1 0.3 0.2 0.1 0.0 0.1 0.3 0.2 0.2 0.2 0.2 0.0 -0.0 -0.1 -0.1 -0.2 -0.2 -0.2 -0.3 -0.3 -0.2 -0.1 0.1 0.1 0.0 -0.0 -0.1 -0.2 -0.1 0.0 -0.1 -0.1 -0.1 -0.1 0.0
-0.1 -0.0 0.0 0.0 0.0 0.0 0.0 0.0 -0.0 0.1 0.1 0.0 0.0 0.0 0.1 0.3 -0.0 0.0 0.2 -0.0 0.0 0.5 0.2 0.2 0.1 0.1 -0.0 -0.1 -0.1 -0.2 -0.1 -0.2 -0.1 -0.1 -0.0 0.0 0.1 0.1 0.1 0.2 0.2 -0.1 -0.1 -0.1 -0.1 -0.2 -0.2 -0.1 -0.0
-0.1 -0.1 0.1 0.0 0.0 0.0 0.0 -0.0 0.1 0.0 0.0 0.0 0.0 0.0 0.1 0.0 -0.0 0.1 0.0 0.1 0.1 0.1 0.1 0.1 0.1 0.1 -0.0 -0.1 -0.0 -0.0 -0.1 -0.1 0.1 0.0 0.1 0.2 0.2 0.2 0.2 0.1 0.1 -0.2 -0.2 -0.3 -0.3 -0.3 -0.1 -0.0 -0.1
0.1 -0.0 0.1 0.0 0.0 0.0 0.0 -0.0 0.0 0.0 -0.0 0.0 0.0 0.1 0.1 -0.0 0.1 0.1 0.0 0.1 -0.0 0.3 -0.0 0.4 -0.0 0.1 -0.0 -0.0 0.0 0.1 0.1 0.0 0.1 0.2 0.3 0.4 0.3 0.2 0.2 0.2 0.2 0.1 -0.5 0.3 0.3 0.2 0.1 0.0 -0.0
0.1 0.0 -0.0 0.0 0.0 -0.0 0.0 -0.0 0.0 0.0 0.0 0.0 0.0 0.1 0.1 0.0 0.0 -0.0 0.1 0.1 0.0 0.1 0.4 0.2 -0.0 0.0 0.1 -0.0 0.1 0.1 0.1 0.1 0.2 0.2 0.3 0.2 0.1 0.2 0.2 0.0 0.3 0.3 0.3 0.3 0.4 0.5 -0.1 0.0 0.1
0.2 0.1 0.0 0.0 -0.0 0.0 0.0 0.0 0.0 0.0 0.1 -0.0 0.0 0.1 0.0 0.0 0.0 -0.0 0.0 0.1 0.0 0.2 0.1 0.2 0.2 0.1 -0.1 -0.0 0.3 0.3 0.2 0.3 0.4 0.5 0.3 0.4 0.2 0.3 0.2 0.3 0.1 0.2 0.4 0.6 0.6 0.6 -0.6 0.7 0.0
0.0 0.0 0.2 0.1 0.1 -0.0 0.1 0.0 0.1 -0.0 -0.0 0.0 0.0 0.0 -0.0 0.0 0.0 0.0 0.0 0.0 0.0 0.0 0.2 0.0 -0.1 0.2 0.1 -0.3 0.1 -0.2 0.0 -0.4 0.5 0.3 0.6 0.3 0.1 0.2 0.2 0.1 0.2 0.2 0.5 1.0 0.9 1.1 0.6 2.0 0.6
0.0 0.0 0.3 0.3 0.1 0.0 0.1 -0.0 0.1 0.0 0.0 0.0 0.0 0.0 0.0 -0.0 0.0 0.0 0.0 -0.0 0.0 0.1 0.1 0.0 0.3 0.1 0.3 -0.1 0.3 -0.2 -0.1 0.5 0.1 0.2 0.2 0.4 0.2 0.4 0.2 0.3 0.1 0.2 0.3 0.1 0.2 0.9 0.8 0.9 0.7
-0.0 0.0 0.2 0.1 0.0 0.1 0.0 0.0 0.1 0.0 -0.0 0.0 0.0 0.0 0.0 -0.0 0.0 -0.0 0.0 0.0 0.0 0.0 0.1 0.0 0.0 0.7 1.0 0.1 -0.2 0.2 0.3 -0.2 -0.2 0.3 0.4 0.2 0.3 0.5 0.0 0.2 0.2 0.1 0.3 0.5 0.3 0.6 0.3 0.6 0.5
0.0 0.0 0.2 0.4 0.2 0.1 -0.0 0.0 0.1 0.0 0.0 0.0 0.0 -0.0 -0.0 0.0 0.0 0.0 0.0 0.0 0.0 0.0 0.1 -0.1 0.1 0.3 1.2 1.6 0.4 0.2 0.1 -0.1 -0.2 0.3 0.6 1.1 0.2 0.1 0.1 0.1 0.5 0.3 0.5 0.6 0.2 0.8 0.2 0.2 0.2
0.0 0.1 0.2 0.5 0.1 0.3 0.0 0.0 0.1 0.0 0.0 0.0 0.0 -0.0 -0.0 -0.0 0.0 0.0 0.0 0.0 0.0 0.0 0.5 -0.1 -0.0 0.1 0.4 0.5 0.5 0.5 0.2 0.6 0.5 0.2 0.1 0.4 0.1 -0.2 0.1 0.4 0.7 1.0 0.7 1.0 1.5 1.4 0.6 -0.1 0.4
0.1 0.1 0.2 0.4 0.6 0.1 0.1 0.2 0.0 0.0 0.0 0.0 0.0 -0.0 0.0 -0.0 0.0 0.0 0.0 0.0 0.0 0.1 0.2 -0.1 0.1 -0.1 0.2 0.1 1.0 0.5 0.4 -0.0 0.1 0.1 0.2 0.0 0.3 0.5 1.5 0.5 0.3 0.6 1.7 3.2 1.6 1.7 1.2 0.4 0.6
0.3 0.2 0.1 0.2 0.1 0.7 0.4 0.2 0.1 0.0 0.0 0.0 -0.0 0.0 0.0 0.0 0.0 0.0 0.0 0.0 0.1 0.3 -0.0 0.0 0.1 0.0 -0.1 0.1 0.6 0.4 0.4 0.6 0.5 -0.0 0.3 0.4 0.3 0.2 1.0 0.2 0.5 0.9 0.5 -0.2 0.5 0.7 0.5 0.6 0.2
0.1 0.1 0.1 0.2 0.2 0.2 0.2 0.0 0.0 0.1 -0.0 0.0 0.0 0.0 0.0 0.0 0.0 0.0 0.0 0.0 0.2 0.2 -0.1 0.3 0.0 0.1 -0.1 0.1 0.5 0.4 0.2 0.3 0.3 0.3 0.2 0.0 0.2 0.1 1.0 0.8 -0.0 -0.0 0.6 0.3 1.1 0.6 0.9 0.9 0.7
0.0 0.1 0.2 0.0 0.0 0.1 0.1 0.0 0.0 0.1 0.1 0.1 0.0 0.0 0.0 0.0 0.0 0.0 0.0 0.1 0.1 0.1 -0.1 0.1 0.2 0.3 0.1 -0.2 0.0 0.0 0.2 -0.1 -0.0 -0.1 0.2 0.1 0.3 -0.1 0.9 0.7 0.3 0.2 1.0 0.9 1.3 2.0 2.7 2.0 0.7
0.0 -0.1 -0.0 -0.0 -0.0 0.1 0.1 0.0 0.0 0.1 0.0 0.0 0.1 0.0 0.0 0.0 0.0 0.0 0.0 0.1 0.0 0.1 0.2 0.6 0.2 0.4 -0.1 -0.1 0.4 0.4 0.1 0.1 0.1 0.1 0.2 0.3 -0.0 -0.2 0.5 0.8 0.3 0.0 0.9 0.5 0.1 2.0 3.5 1.2 0.8
0.0 0.0 -0.0 -0.0 -0.0 0.0 0.1 0.1 0.1 0.1 -0.0 0.0 0.0 0.0 0.2 0.1 0.1 0.1 0.0 0.0 0.2 0.3 0.3 0.2 0.2 -0.2 -0.1 0.1 0.1 0.3 0.1 0.5 0.3 0.3 0.1 0.0 0.1 -0.1 0.1 0.1 0.3 0.6 0.3 0.8 1.4 1.6 2.8 1.9 0.7
0.1 0.0 0.0 -0.0 0.0 0.0 0.0 0.0 0.1 0.0 -0.0 0.0 -0.0 0.0 0.1 0.0 0.1 0.1 0.0 0.0 0.1 0.4 0.3 0.7 0.2 -0.3 -0.2 -0.1 -0.1 0.0 -0.2 -0.0 0.0 0.0 0.1 0.2 0.2 0.0 -0.1 -0.4 0.3 -0.4 0.4 0.2 1.1 1.4 1.7 2.5 2.2
0.0 0.0 0.0 -0.0 0.0 0.0 -0.0 0.0 -0.0 0.0 -0.0 -0.0 -0.0 0.0 0.0 0.0 0.0 0.0 0.0 0.0 0.3 0.3 0.2 0.6 0.6 0.2 -0.3 0.1 0.5 -0.2 -0.3 -0.1 0.5 0.5 0.1 0.1 0.3 0.0 0.1 -0.4 -0.7 -0.4 -0.2 0.1 0.0 1.8 1.5 2.3 2.5
0.0 0.0 0.1 -0.0 0.0 -0.0 -0.1 -0.1 -0.0 0.1 0.0 -0.0 -0.0 -0.0 0.2 0.1 0.1 0.0 0.0 0.1 0.2 0.5 0.6 0.8 0.6 0.4 0.2 0.3 0.2 0.3 0.5 0.5 0.2 0.0 -0.2 0.1 0.1 0.0 -0.1 0.1 0.4 0.8 0.5 0.4 0.2 0.5 1.0 2.1 2.6
0.0 0.0 -0.0 0.0 0.0 -0.0 -0.0 -0.0 -0.0 0.0 0.0 0.0 0.0 0.1 0.1 0.2 0.1 0.0 0.1 0.0 0.4 0.5 0.7 1.4 1.3 0.6 0.4 0.2 0.2 0.3 0.2 0.3 0.4 0.3 0.0 0.2 0.1 -0.1 0.2 0.1 0.2 0.4 0.3 0.1 -0.0 1.2 0.8 1.0 1.1
0.0 -0.0 0.0 0.0 0.1 0.0 0.0 0.0 0.0 0.0 -0.0 -0.0 0.0 0.0 0.1 0.1 0.1 0.0 0.1 0.0 0.6 2.4 1.4 1.7 0.8 0.8 0.4 0.3 0.4 0.4 0.8 0.4 0.3 0.0 0.3 0.0 -0.1 -0.0 -0.1 -0.0 -0.1 0.4 0.4 -0.5 0.6 0.5 0.5 0.8 0.9
0.0 0.0 0.0 0.0 0.0 0.0 -0.0 -0.1 0.1 0.0 -0.0 -0.0 -0.0 0.1 0.0 -0.0 -0.0 0.0 0.0 0.0 0.1 0.0 0.8 0.8 0.5 0.5 0.5 0.3 0.7 0.8 0.7 0.7 0.8 0.6 1.0 0.8 0.1 0.0 0.0 0.0 0.2 0.2 0.3 0.3 0.3 0.6 0.7 0.5 0.2
0.0 0.0 0.0 0.1 0.0 0.0 0.0 0.0 -0.0 0.0 -0.0 -0.0 -0.0 0.1 0.0 -0.0 -0.0 0.0 0.0 0.0 0.0 0.0 0.1 0.0 0.9 0.9 0.3 0.5 0.9 0.9 0.5 0.6 0.7 0.6 0.4 0.7 0.0 0.0 0.0 -0.0 0.1 0.1 0.3 0.2 0.2 0.1 0.5 0.4 0.2
0.0 0.0 0.0 0.0 0.0 0.0 0.1 -0.0 0.1 0.4 0.1 0.0 0.0 0.1 0.3 0.4 0.3 0.0 0.0 0.3 0.0 -0.0 0.7 1.8 2.2 2.2 1.6 1.2 0.9 0.6 0.5 0.4 0.5 0.5 0.4 0.5 0.1 0.0 0.0 0.1 -0.1 0.3 0.2 0.3 -0.1 -0.4 -0.0 0.2 -0.0
0.0 0.0 0.0 0.0 0.0 0.0 0.0 0.1 0.3 0.2 -0.1 -0.1 0.3 0.2 1.4 0.3 0.5 0.0 0.1 -0.0 0.8 0.7 2.6 2.4 1.4 1.6 1.6 1.3 1.7 1.4 0.8 0.4 0.4 0.3 0.1 0.6 0.5 0.3 0.5 0.4 0.2 0.3 0.1 0.1 0.1 -0.0 -0.0 0.3 0.2

GFSSGP_con_3kmehi_105.txt.gz
EHI
0.0 0.0 0.0 0.0 0.3 0.3 -0.0 -0.0 0.0 0.0 0.0 0.0 0.0 0.0 0.1 0.0 0.0 0.0 0.0 0.2 0.2 0.3 0.1 0.1 0.0 -0.1 -0.1 0.1 0.1 0.0 0.1 -0.0 0.0 0.1 0.0 -0.2 -0.1 -0.1 0.0 0.1 0.0 -0.0 -0.0 -0.0 -0.1 0.0 0.1 0.1 0.4
0.0 0.0 0.0 0.1 0.1 0.0 0.0 0.0 0.0 0.0 0.0 0.0 0.0 0.2 0.3 0.2 0.1 0.0 0.0 0.0 0.1 0.2 0.1 0.0 0.0 0.0 -0.0 -0.1 -0.0 -0.0 -0.0 -0.0 -0.0 -0.0 -0.1 -0.2 -0.2 -0.1 -0.0 0.0 0.0 -0.0 -0.1 -0.1 -0.1 -0.0 -0.0 0.1 0.3
0.0 0.0 -0.0 -0.0 0.0 0.0 0.0 0.0 0.0 0.0 0.0 0.0 0.0 -0.0 -0.0 0.0 0.1 0.0 0.1 0.1 0.1 0.1 0.2 0.1 0.1 0.1 0.0 -0.1 -0.1 -0.2 -0.2 -0.1 -0.2 -0.1 -0.1 -0.1 -0.1 -0.2 -0.1 -0.0 -0.0 -0.1 -0.1 -0.1 -0.2 -0.1 0.0 0.1 0.3
0.0 -0.0 -0.0 -0.0 0.0 0.0 0.0 0.0 0.0 0.0 -0.0 0.0 0.0 0.1 0.1 0.2 0.1 0.1 0.1 0.6 0.5 0.4 0.3 0.3 0.2 0.1 0.1 0.0 -0.0 -0.1 -0.2 -0.2 -0.2 -0.1 -0.1 -0.1 -0.1 -0.0 -0.1 -0.1 -0.2 -0.2 -0.2 -0.4 -0.3 -0.1 -0.1 0.1 0.4
0.0 -0.0 -0.0 0.0 0.1 0.0 0.0 0.0 0.1 0.0 -0.0 0.0 0.2 0.2 0.1 0.1 0.0 0.0 0.1 0.4 0.4 0.4 0.2 0.3 0.2 0.2 -0.0 -0.0 0.0 0.0 -0.0 -0.2 -0.1 -0.0 0.1 0.1 0.1 0.1 0.1 -0.1 -0.2 -0.3 -0.3 -0.1 -0.2 -0.1 -0.1 0.1 0.4
0.0 -0.0 0.0 -0.0 0.0 0.0 0.0 -0.0 0.1 0.1 0.0 0.1 0.3 0.1 -0.0 -0.0 0.0 0.1 0.3 0.1 0.3 0.2 0.2 0.2 0.1 0.2 0.1 0.1 0.1 0.1 0.0 -0.0 0.1 0.2 0.3 0.2 0.2 0.2 0.2 0.2 -0.3 -0.3 -0.3 -0.2 -0.1 -0.0 -0.1 0.0 0.2
0.0 -0.0 0.0 0.1 0.0 0.0 0.0 -0.0 0.1 0.0 0.0 0.1 0.2 0.0 -0.0 0.0 0.1 0.2 0.1 0.1 0.4 0.1 0.0 0.0 -0.0 0.1 -0.0 0.0 0.0 -0.0 -0.0 0.1 0.1 0.1 0.2 0.1 0.1 0.2 0.2 0.1 0.0 -0.0 -0.1 -0.0 0.1 0.1 0.0 -0.0 0.0
0.0 -0.1 0.0 0.1 0.0 0.0 -0.0 0.0 0.0 0.0 0.0 0.1 0.0 0.0 -0.0 0.0 0.0 0.0 -0.0 0.0 0.2 0.0 -0.2 -0.1 -0.1 -0.1 -0.1 -0.0 -0.0 -0.1 -0.0 0.0 0.1 0.2 0.3 0.3 0.0 -0.1 -0.3 -0.2 0.1 0.3 0.2 0.1 0.1 0.1 0.0 0.0 0.1
0.1 0.0 0.0 0.0 -0.0 -0.0 0.1 -0.0 0.0 0.0 0.0 0.1 0.0 0.0 -0.0 0.0 -0.0 -0.0 -0.0 0.1 0.1 0.0 0.0 -0.2 -0.2 -0.1 -0.1 -0.1 0.0 -0.1 0.0 0.1 0.1 0.1 0.3 0.2 -0.1 -0.1 0.2 0.4 0.2 0.3 0.5 0.4 0.3 0.1 0.1 0.2 0.2
0.1 0.0 0.0 -0.0 0.1 0.0 -0.0 0.0 0.0 -0.0 -0.0 0.1 0.0 0.0 -0.0 -0.0 0.0 -0.0 0.1 0.1 0.1 0.1 -0.0 -0.1 -0.1 -0.0 -0.0 -0.0 -0.1 -0.1 0.0 0.1 -0.1 -0.0 0.0 0.2 0.1 0.2 -0.0 0.1 0.4 0.5 0.3 0.5 0.7 0.9 0.5 0.2 0.0
0.1 0.0 0.0 0.0 0.0 0.2 0.0 0.1 0.1 0.0 0.0 0.1 0.0 -0.0 -0.0 0.0 -0.0 0.0 0.0 0.2 0.1 -0.1 -0.1 -0.0 -0.1 -0.1 -0.0 -0.2 -0.4 -0.2 0.0 -0.0 0.0 0.0 -0.0 0.3 0.2 0.5 0.2 0.1 0.0 0.0 0.0 0.0 0.0 1.2 0.6 0.0 0.1
0.0 0.1 0.0 0.0 -0.1 0.2 0.0 0.1 -0.0 -0.0 0.0 0.0 0.0 -0.0 -0.0 0.0 0.0 0.0 0.0 0.0 0.1 0.0 0.0 0.0 -0.0 -0.0 0.0 -0.4 -0.3 -0.1 -0.1 -0.0 -0.0 -0.1 0.1 0.1 0.1 0.1 0.1 0.0 0.0 0.0 0.0 0.0 0.0 0.4 1.6 1.9 0.7
0.0 0.0 0.0 0.0 0.0 0.0 0.0 0.0 -0.0 0.1 0.1 0.0 0.0 -0.0 0.0 0.0 0.0 0.0 0.0 0.1 0.1 0.0 0.0 0.1 -0.1 -0.1 -0.0 -0.1 -0.1 0.0 0.1 0.0 -0.0 0.0 0.1 -0.0 0.2 0.0 0.0 0.0 0.0 0.0 0.1 0.1 0.1 0.3 0.3 0.4 0.1
0.0 0.0 0.2 0.0 0.1 -0.0 -0.0 0.1 0.1 0.0 0.0 0.0 0.0 -0.0 -0.0 -0.0 0.0 0.0 0.0 0.1 0.1 0.0 -0.0 0.1 0.2 0.2 0.1 0.1 0.1 0.2 -0.1 -0.1 0.0 0.0 0.1 0.1 0.1 -0.0 0.1 0.0 0.0 0.2 0.2 0.1 0.1 0.0 0.1 0.2 0.1
-0.0 -0.0 0.1 0.1 -0.1 -0.2 0.1 0.1 0.1 0.1 0.0 0.0 0.0 -0.0 -0.0 0.0 0.0 0.0 0.0 0.1 0.2 0.0 -0.0 0.0 -0.0 0.2 0.1 -0.0 0.3 -0.0 -0.1 0.2 0.2 0.1 0.0 0.2 0.1 -0.0 0.0 0.1 0.2 0.5 0.6 0.9 0.1 0.1 0.1 0.1 0.2
0.0 0.1 0.0 0.3 0.0 0.3 0.1 0.1 0.0 0.0 0.0 0.0 -0.0 -0.0 0.0 0.0 0.0 0.0 0.0 0.0 0.3 0.1 -0.0 -0.0 -0.0 0.0 0.1 0.3 0.3 0.3 0.2 0.2 0.1 0.1 -0.0 0.4 0.1 0.0 0.2 0.1 0.4 0.4 0.2 0.6 1.1 1.1 0.6 0.2 0.2
0.1 0.1 0.0 0.2 0.4 0.4 0.2 0.1 0.1 -0.0 0.0 0.0 -0.0 -0.0 0.0 0.0 0.0 0.0 0.0 0.0 0.1 0.0 -0.0 -0.1 -0.0 -0.0 -0.1 0.2 0.6 -0.1 0.2 -0.0 -0.1 -0.1 0.0 0.1 -0.0 0.1 0.5 0.4 0.3 0.6 0.2 0.1 0.6 0.3 0.1 0.5 0.3
0.1 0.0 0.0 0.1 0.0 0.0 0.2 0.2 0.3 0.4 0.0 0.0 0.0 0.0 0.0 0.0 0.0 0.0 0.0 0.0 0.0 0.1 0.0 0.1 -0.0 -0.0 -0.0 0.1 0.2 0.1 0.0 0.3 0.2 0.0 -0.0 0.0 0.1 0.1 0.4 0.1 0.0 0.0 0.6 0.6 0.9 0.6 1.0 0.7 0.1
0.1 0.2 0.0 -0.0 0.0 0.0 0.2 0.2 0.2 0.3 0.2 0.1 0.0 0.0 0.0 0.0 0.0 0.0 0.0 0.0 0.0 0.0 0.0 0.2 -0.0 -0.1 -0.0 -0.0 0.1 0.1 -0.0 0.1 0.1 -0.0 0.1 0.1 0.1 0.0 0.1 0.2 0.0 0.0 0.6 1.1 0.6 0.9 1.1 1.2 0.5
0.0 0.0 0.0 -0.0 -0.0 0.0 0.0 0.1 0.1 0.1 0.1 0.1 0.1 0.1 0.0 0.0 0.0 0.0 0.0 0.0 0.0 0.1 0.1 0.2 0.1 -0.0 -0.2 -0.1 0.2 0.2 0.1 0.2 -0.0 -0.1 0.1 0.1 0.0 0.1 0.0 -0.0 0.1 0.1 0.3 0.6 0.9 1.1 1.9 0.8 0.4
-0.1 -0.0 -0.0 -0.0 -0.0 0.0 0.0 0.0 0.0 0.1 0.1 0.1 0.1 0.0 0.1 0.1 0.0 0.0 0.0 0.0 0.0 0.1 0.5 0.4 0.2 0.0 -0.1 0.2 0.1 0.2 0.2 0.2 0.1 0.3 0.2 0.2 0.1 -0.1 -0.3 -0.1 0.0 0.1 0.1 0.0 0.1 2.0 1.2 1.3 0.9
0.1 0.0 0.0 -0.0 -0.0 -0.0 0.0 0.0 0.1 0.0 -0.0 0.0 0.0 0.0 0.1 0.0 0.0 0.0 0.0 0.1 0.1 0.1 0.2 0.4 0.2 -0.1 -0.1 -0.1 -0.0 -0.1 -0.0 -0.0 0.0 0.0 0.1 0.0 0.2 0.0 -0.2 -0.0 -0.0 0.0 0.0 0.0 0.0 2.0 1.3 0.6 1.0
0.1 0.1 -0.0 -0.0 0.0 -0.0 0.0 0.1 0.0 0.0 -0.0 -0.0 0.0 0.0 0.0 0.1 0.0 0.0 0.0 0.0 0.1 0.4 0.2 0.2 0.3 0.1 -0.1 -0.1 -0.1 -0.1 -0.1 -0.0 -0.0 -0.0 -0.0 -0.0 0.0 0.3 0.1 -0.4 -0.4 -0.1 0.0 0.2 0.5 0.5 1.1 1.0 0.7
0.1 0.1 0.0 -0.0 0.0 -0.0 -0.0 0.0 0.0 -0.0 0.0 -0.0 0.0 0.0 0.0 0.1 0.1 0.0 0.0 0.1 0.2 0.3 0.7 0.3 0.3 0.0 0.0 -0.0 0.0 0.0 -0.0 0.2 0.1 -0.0 0.0 0.1 -0.0 0.1 0.1 0.1 0.1 0.0 -0.0 0.0 0.0 0.6 0.6 0.7 0.5
0.1 0.1 0.0 -0.0 -0.0 -0.0 -0.0 -0.0 0.0 0.0 -0.0 -0.0 0.0 -0.0 0.0 0.1 0.1 0.0 0.0 0.0 0.1 0.2 0.5 1.0 0.5 0.2 0.3 0.2 0.2 0.0 0.2 0.2 0.0 0.0 0.0 0.0 0.1 0.0 0.1 0.1 -0.0 0.1 0.0 0.0 0.2 0.2 0.1 0.4 0.6
0.1 0.0 0.0 -0.0 -0.0 -0.0 0.0 0.0 0.0 0.0 0.1 0.0 0.0 -0.0 0.0 0.0 0.1 0.0 -0.0 0.1 0.2 0.3 0.6 0.6 0.7 0.7 0.5 0.3 0.2 0.1 0.1 0.1 0.1 0.2 0.0 0.0 0.0 0.0 0.1 0.1 0.1 -0.0 0.0 0.1 0.1 0.0 0.4 0.2 0.2
0.0 0.0 0.0 0.0 0.0 -0.0 0.0 0.0 0.0 0.0 0.0 0.0 0.0 0.0 0.0 0.0 0.1 0.1 0.1 0.1 0.5 0.3 1.0 1.4 0.8 0.8 0.7 0.2 0.2 0.1 0.2 0.4 0.4 0.3 0.1 0.1 0.1 -0.0 0.0 0.0 0.0 0.0 -0.1 -0.1 0.1 -0.1 0.3 0.2 0.1
0.0 0.0 0.0 0.0 0.0 -0.0 -0.0 0.0 0.0 -0.0 -0.0 -0.0 -0.0 -0.0 0.0 0.0 0.0 0.1 0.1 0.2 0.4 0.0 0.2 0.8 0.7 0.5 0.6 0.3 0.3 0.4 0.4 0.5 0.3 0.3 0.0 0.0 -0.0 0.0 -0.0 0.0 -0.0 -0.0 -0.0 0.1 0.1 0.3 0.2 0.1 0.0
0.0 0.0 0.0 0.0 0.0 0.0 0.0 -0.0 -0.0 0.0 -0.0 -0.0 -0.0 -0.0 -0.0 -0.0 -0.0 0.0 0.1 0.1 0.1 0.0 0.0 0.2 0.2 0.1 0.2 0.4 0.5 0.4 0.4 0.3 0.3 0.3 0.3 0.0 0.0 0.0 -0.0 -0.0 0.0 -0.0 -0.1 0.1 0.1 0.0 0.0 0.0 0.1
0.0 0.0 0.0 0.0 0.0 0.0 0.0 0.1 0.1 0.2 0.1 0.0 0.0 0.0 -0.0 -0.0 0.0 0.1 0.1 0.1 0.0 0.0 0.0 0.0 0.0 -0.0 0.3 0.8 0.5 0.5 0.2 0.0 0.1 0.1 0.1 0.1 0.0 0.0 0.0 0.1 0.2 0.1 0.2 0.1 0.1 0.0 0.1 -0.0 0.0

GFSSGP_con_3kmehi_108.txt.gz
EHI
0.0 0.0 0.0 -0.1 -0.1 0.1 0.0 0.0 0.0 0.0 0.0 -0.0 0.0 0.0 0.0 0.0 0.0 0.0 -0.0 -0.0 0.1 0.1 0.0 0.1 0.1 0.1 0.1 -0.1 -0.3 -0.2 -0.0 -0.1 0.0 -0.1 0.0 -0.1 -0.2 -0.2 -0.2 -0.1 -0.1 -0.1 -0.1 0.1 0.0 0.1 0.2 0.2 0.2
-0.0 -0.0 -0.0 -0.0 0.0 0.0 0.0 0.1 0.0 0.0 0.0 0.1 0.0 0.1 0.0 0.0 0.1 0.0 0.0 0.0 0.1 0.2 0.1 0.1 0.1 -0.1 -0.1 0.0 -0.0 0.0 -0.1 -0.1 -0.0 -0.0 -0.1 -0.2 -0.2 -0.1 -0.1 -0.1 -0.1 -0.1 -0.0 0.1 0.1 0.2 0.3 0.3 0.2
-0.0 0.0 -0.0 0.0 0.0 0.0 0.0 -0.0 0.0 -0.0 -0.0 0.0 0.1 0.0 -0.0 0.0 0.0 -0.0 0.0 0.1 0.1 0.1 0.0 0.1 0.1 0.1 -0.0 -0.1 -0.1 -0.1 -0.1 -0.1 -0.1 -0.1 -0.1 -0.2 -0.2 -0.2 -0.1 -0.1 -0.2 -0.0 -0.0 0.1 0.1 0.2 0.2 0.3 0.2
-0.0 -0.0 -0.0 0.0 0.0 0.1 0.0 -0.0 0.0 0.0 0.1 0.1 0.1 0.0 -0.1 0.0 -0.0 -0.0 -0.0 0.1 0.1 0.0 -0.0 0.1 0.1 0.0 -0.0 -0.0 -0.1 -0.2 -0.1 -0.0 -0.0 -0.1 -0.1 -0.1 -0.1 -0.1 -0.2 -0.1 -0.1 -0.0 0.1 0.2 0.1 0.2 0.3 0.3 0.3
0.0 -0.0 -0.0 0.0 0.0 0.0 0.0 0.0 -0.0 0.1 0.0 0.1 0.1 0.0 -0.0 0.0 0.1 0.0 0.0 0.2 0.4 0.1 0.1 0.0 0.0 0.0 -0.0 -0.0 -0.1 -0.1 -0.2 -0.2 -0.2 -0.2 -0.2 -0.2 -0.2 -0.3 -0.3 -0.2 0.1 0.2 0.4 0.2 0.2 0.1 0.2 0.4 0.5
0.0 0.0 0.0 0.0 0.0 0.0 0.0 0.0 0.0 0.2 0.1 0.2 0.1 0.0 0.0 0.1 0.2 0.1 0.1 0.4 0.6 0.3 0.2 0.2 0.2 -0.1 -0.0 -0.0 -0.0 -0.1 -0.1 0.0 0.1 0.1 0.2 0.2 0.2 0.4 -0.3 -0.1 0.0 0.3 0.4 0.2 0.2 0.1 0.2 0.3 0.4
0.0 0.0 0.0 0.0 0.0 0.0 0.0 0.0 0.0 0.2 0.2 0.0 0.1 0.0 -0.0 0.1 0.1 0.0 0.1 0.3 0.2 0.2 0.1 0.0 0.0 0.0 0.0 0.0 0.0 -0.1 0.0 0.1 0.1 0.2 0.2 0.2 0.2 0.3 0.5 0.5 0.4 0.3 0.2 0.1 0.1 0.1 0.2 0.2 0.3
-0.0 -0.0 0.0 0.1 0.0 0.0 0.0 0.1 0.1 0.2 0.1 0.0 0.1 0.0 -0.0 0.0 0.0 0.0 0.1 0.1 0.1 0.1 0.0 0.0 -0.1 -0.1 -0.1 0.1 0.0 -0.0 0.1 0.0 0.1 0.1 0.2 0.1 0.2 0.5 0.6 0.7 0.6 0.4 0.3 0.2 0.0 -0.0 0.1 0.1 0.3
0.0 0.0 0.0 0.1 0.0 0.0 0.1 0.1 0.0 0.1 0.1 0.0 0.0 0.0 -0.0 0.0 0.0 0.1 0.1 0.0 -0.0 -0.1 -0.1 -0.1 -0.1 -0.1 -0.1 -0.0 0.0 0.1 0.1 0.2 0.3 0.2 0.2 -0.1 0.1 0.3 0.4 0.6 0.5 0.5 0.4 0.4 0.3 0.1 0.1 0.2 0.5
0.1 0.0 0.0 0.0 0.1 0.1 0.1 0.0 0.0 0.1 0.0 0.0 0.0 0.0 -0.0 0.0 0.0 0.1 0.0 -0.0 -0.0 -0.1 -0.2 -0.1 -0.1 -0.1 -0.2 0.0 -0.1 -0.1 -0.1 -0.1 -0.2 -0.3 -0.2 -0.2 0.0 0.2 0.0 0.1 0.1 0.2 0.2 0.3 0.4 0.5 0.6 0.5 0.3
0.1 0.0 0.0 0.0 0.0 0.0 0.2 -0.0 0.0 0.0 0.1 0.0 0.0 0.0 0.0 0.0 0.0 0.0 0.0 0.0 -0.0 -0.1 -0.2 -0.1 -0.1 -0.1 -0.1 -0.3 -0.2 -0.2 -0.1 -0.1 -0.1 -0.1 -0.0 0.0 0.1 0.2 0.0 0.0 0.0 0.0 0.0 0.0 0.0 0.0 0.7 0.1 0.1
0.1 0.0 0.0 -0.1 0.0 0.1 0.0 -0.1 0.1 0.3 0.0 0.0 0.0 0.0 -0.0 0.0 0.0 0.0 0.0 0.1 0.0 -0.0 -0.1 -0.1 -0.1 -0.1 -0.1 -0.3 -0.2 -0.2 -0.2 -0.1 -0.0 -0.0 0.0 -0.0 0.1 0.2 0.0 0.0 0.0 0.0 0.0 0.0 0.0 0.0 0.3 0.9 1.1
0.1 0.0 0.0 -0.0 -0.0 0.0 0.1 0.1 0.1 0.1 0.1 0.0 0.0 0.0 0.0 0.0 0.0 0.1 0.1 0.0 0.0 -0.0 -0.0 -0.1 -0.0 -0.0 -0.0 -0.1 -0.0 0.0 -0.1 0.0 0.0 0.1 0.1 0.1 0.0 0.1 0.0 0.0 0.0 0.0 0.1 0.1 0.1 0.0 0.3 0.8 0.4
0.3 -0.0 0.1 0.1 0.0 0.1 0.1 0.2 0.1 0.0 0.0 0.0 0.0 -0.0 0.0 0.0 0.0 0.1 0.0 0.0 0.0 0.0 0.0 -0.0 -0.0 -0.0 -0.0 -0.0 -0.0 -0.0 -0.0 0.0 0.0 0.0 0.1 0.2 0.1 0.1 0.0 0.0 0.0 0.0 0.0 0.0 0.0 0.1 0.0 0.0 0.1
0.2 0.1 0.0 0.0 0.2 0.1 0.2 0.1 0.0 0.0 0.0 0.0 0.0 0.0 -0.0 0.0 0.1 0.1 0.0 0.0 0.0 0.0 0.0 0.0 -0.1 -0.1 0.1 0.0 0.0 -0.0 0.0 0.0 0.0 0.0 0.1 0.1 0.1 0.1 0.0 0.0 0.1 0.2 0.3 0.3 0.2 0.2 0.1 0.1 0.1
0.1 0.1 0.0 -0.0 -0.0 0.0 0.1 0.0 0.0 0.0 0.0 0.0 0.0 0.0 0.0 0.0 0.0 0.1 0.1 0.0 -0.0 0.0 0.0 0.0 0.0 0.1 -0.0 -0.1 -0.0 -0.0 0.0 0.0 0.0 0.0 0.0 0.1 0.0 0.0 0.0 0.0 0.1 0.2 0.0 1.1 0.6 0.7 0.7 0.4 0.1
0.2 0.0 0.0 0.1 0.0 0.1 0.1 0.0 0.1 0.0 0.0 0.0 0.0 -0.0 0.0 0.0 0.0 0.0 0.1 0.1 0.0 0.0 0.0 0.0 0.0 0.1 0.2 0.3 0.2 -0.1 0.0 0.0 -0.0 0.1 0.0 0.1 0.1 0.1 0.0 0.0 0.1 0.2 0.5 0.1 0.4 0.3 0.3 0.4 0.2
0.0 0.1 0.0 0.0 0.0 0.0 0.0 0.0 0.2 0.1 0.0 0.0 -0.0 0.0 0.0 0.0 0.0 0.1 0.1 0.1 0.0 0.0 0.0 -0.0 -0.0 0.2 0.1 0.2 0.1 0.1 -0.0 -0.0 -0.1 -0.1 -0.1 0.1 0.1 -0.1 0.0 0.1 0.0 0.0 0.4 0.5 0.8 0.4 0.5 0.4 0.2
0.0 0.0 0.0 0.0 -0.0 0.0 0.0 0.0 0.0 0.1 -0.0 0.0 -0.0 0.0 0.0 0.0 0.0 0.0 0.1 0.1 0.0 0.0 0.0 0.0 -0.0 0.0 -0.0 0.2 0.2 0.0 -0.0 -0.0 -0.1 -0.1 -0.0 -0.1 -0.0 -0.1 0.2 0.0 0.0 0.0 0.3 0.7 0.8 1.0 0.9 0.7 0.1
0.1 0.0 0.0 -0.0 -0.0 -0.0 0.0 0.0 0.0 0.1 0.1 0.0 0.0 0.0 0.0 0.0 0.0 0.0 0.0 0.0 0.0 0.0 0.0 0.0 -0.0 -0.0 -0.0 0.1 0.2 0.1 0.0 0.0 -0.0 -0.0 -0.0 -0.1 -0.0 -0.1 -0.2 -0.0 0.1 0.1 0.2 0.1 0.4 0.7 1.0 0.5 0.1
0.0 -0.0 -0.0 -0.0 -0.0 -0.0 -0.0 0.0 0.0 0.1 0.1 0.1 0.1 0.1 0.1 0.0 0.0 0.0 0.0 0.0 0.0 0.1 0.2 0.1 0.0 -0.0 -0.0 0.1 0.1 0.1 0.2 0.1 0.1 0.1 0.1 0.1 0.1 0.0 -0.2 -0.1 -0.0 0.0 0.0 0.0 0.0 0.8 1.2 0.7 0.5
0.1 -0.0 -0.0 0.0 0.0 -0.0 0.0 0.0 0.0 0.0 0.0 0.0 0.1 0.0 0.1 0.0 0.0 0.0 0.0 0.0 0.1 0.1 0.1 0.1 0.1 0.0 0.0 -0.0 -0.0 -0.0 0.0 0.0 0.0 -0.0 0.0 0.0 0.0 0.1 -0.2 -0.0 -0.1 0.0 0.0 0.0 0.2 0.5 1.2 0.5 0.6
0.1 0.1 0.0 0.0 -0.0 -0.0 0.0 0.0 0.0 0.0 0.0 0.0 0.0 0.0 0.0 0.1 0.0 0.0 0.0 0.0 0.1 0.1 0.1 0.1 0.1 0.1 0.0 -0.0 -0.0 -0.0 -0.0 -0.0 -0.0 -0.0 0.0 0.0 -0.0 0.2 0.1 -0.0 -0.0 0.0 0.0 0.2 0.4 0.5 1.1 0.8 0.5
0.3 0.2 0.0 -0.0 0.0 0.0 -0.0 0.0 0.0 0.0 0.0 -0.0 0.0 0.1 0.1 0.1 0.0 0.0 0.0 0.0 0.0 0.1 0.1 0.2 0.1 0.1 0.1 0.1 -0.1 -0.0 0.0 -0.0 -0.0 -0.0 0.0 -0.0 -0.0 0.0 0.1 0.1 -0.1 -0.0 0.0 0.0 0.0 0.4 0.4 0.6 0.5
0.2 0.1 0.0 0.0 -0.0 -0.0 0.0 0.0 -0.0 0.0 0.0 -0.0 0.0 0.0 0.1 0.2 0.2 0.1 0.0 0.0 0.0 0.0 0.1 0.2 0.1 0.0 0.1 0.1 0.1 0.0 -0.0 0.0 0.0 -0.0 -0.0 0.0 0.0 0.0 0.0 0.1 0.1 0.1 0.0 0.0 0.1 0.2 0.2 0.4 0.5
-0.0 0.0 0.0 -0.0 0.0 -0.0 -0.0 0.0 0.0 0.0 0.0 0.0 0.0 0.0 0.1 0.2 0.2 0.1 0.0 0.0 0.1 0.3 0.1 0.1 0.1 0.1 0.1 0.1 0.1 0.0 0.0 -0.0 -0.0 -0.0 -0.0 -0.0 0.0 0.0 0.0 0.1 0.1 0.1 0.1 0.1 0.3 0.2 0.2 0.3 0.1
0.1 0.0 0.0 0.0 0.0 -0.0 -0.0 0.0 -0.0 -0.0 0.0 0.0 0.0 0.0 0.0 0.2 0.2 0.1 0.0 0.1 0.1 0.2 0.4 0.3 0.2 0.2 0.1 0.2 0.1 0.1 0.0 0.0 0.0 0.0 0.0 -0.0 0.0 -0.0 0.0 0.0 0.0 0.0 0.1 0.1 0.1 0.2 0.2 0.2 0.1
0.1 0.0 0.0 0.0 0.0 -0.0 -0.0 -0.0 -0.0 0.0 0.0 0.0 0.0 0.0 0.1 0.0 0.1 0.1 0.1 0.3 0.3 0.1 0.0 0.5 0.3 0.4 0.2 0.3 0.2 0.1 0.2 0.1 0.1 0.1 0.0 0.0 -0.0 0.0 0.0 0.0 0.0 0.0 0.0 0.1 0.1 0.2 0.1 0.1 0.2
0.0 0.0 0.0 0.0 0.0 0.0 -0.0 -0.0 0.0 0.0 0.0 0.1 0.0 0.0 0.0 0.0 0.0 0.2 0.2 0.5 0.4 0.4 0.4 0.1 0.1 0.4 0.4 0.2 0.2 0.1 0.2 0.2 0.1 0.0 0.0 0.0 0.0 0.0 0.0 0.0 0.0 0.0 0.0 0.0 0.1 0.1 0.1 0.0 0.1
0.0 0.0 0.0 0.0 0.0 0.0 0.0 0.0 -0.0 0.0 0.0 0.0 0.0 0.0 -0.0 0.0 0.1 0.2 0.1 0.1 0.2 0.1 0.1 0.1 0.0 0.1 0.2 0.2 0.4 0.3 0.2 0.2 0.2 0.1 0.0 0.0 0.0 0.0 0.0 0.0 0.0 0.0 0.1 0.1 0.1 0.1 0.1 0.1 0.0

GFSSGP_con_3kmehi_111.txt.gz
EHI
0.0 0.0 0.0 -0.0 -0.0 0.0 0.0 -0.0 -0.0 0.0 0.0 -0.0 0.0 0.0 0.0 -0.0 0.0 0.0 -0.0 -0.0 -0.1 -0.1 -0.0 0.1 0.2 0.2 -0.1 -0.0 -0.2 0.2 0.0 0.0 0.1 0.1 0.1 0.1 0.1 0.2 0.2 0.2 0.3 0.3 0.2 0.2 0.2 0.3 0.1 0.1 0.1
-0.0 0.0 -0.0 0.0 -0.0 0.0 0.0 0.0 0.0 0.0 0.1 0.0 0.1 0.0 0.0 0.1 0.1 0.1 -0.0 -0.1 -0.0 -0.1 -0.1 -0.2 -0.2 -0.1 -0.2 -0.2 -0.2 -0.0 -0.0 0.0 -0.0 -0.0 0.1 0.2 0.1 0.1 0.1 0.1 0.1 0.1 0.2 0.2 0.3 0.3 0.2 0.2 0.1
-0.0 -0.0 -0.0 0.0 0.0 0.0 0.0 0.0 0.0 0.1 0.0 0.1 0.1 0.1 0.0 0.0 0.0 0.0 -0.1 -0.0 0.1 -0.0 -0.1 -0.1 -0.2 -0.1 -0.3 -0.1 0.0 -0.0 -0.0 -0.0 -0.1 -0.1 -0.1 -0.1 -0.0 0.0 0.1 0.2 0.2 0.2 0.3 0.2 0.2 0.3 0.4 0.4 0.2
-0.0 -0.0 -0.0 0.0 0.0 0.0 0.0 0.0 0.0 0.0 0.0 0.0 0.2 0.2 0.0 -0.0 -0.0 -0.0 0.0 0.2 0.1 0.0 0.0 0.1 0.0 -0.0 -0.1 -0.2 0.1 -0.1 -0.1 -0.2 -0.2 -0.2 -0.2 -0.3 -0.2 -0.1 0.1 0.2 0.2 0.3 0.2 0.2 0.2 0.3 0.4 0.3 -0.0
-0.0 -0.0 0.0 0.1 0.0 0.0 0.0 0.0 0.0 0.1 -0.0 0.0 0.0 0.1 0.0 -0.1 -0.0 0.0 0.0 0.1 0.2 0.1 0.1 0.0 0.1 -0.0 -0.0 -0.0 -0.1 -0.1 -0.1 -0.1 -0.2 -0.1 -0.2 -0.3 -0.2 -0.0 0.3 0.4 0.5 0.5 0.2 0.2 0.3 0.3 0.5 0.6 0.3
0.0 -0.0 0.0 0.0 0.0 0.0 0.0 0.0 0.2 0.2 0.1 0.1 0.1 0.1 0.0 -0.0 0.0 -0.0 0.0 0.2 0.2 0.2 0.1 0.1 0.0 0.0 -0.1 -0.0 -0.2 -0.1 -0.0 -0.0 -0.0 -0.0 0.1 0.1 0.3 0.2 0.3 0.5 0.5 0.4 0.3 0.2 0.3 0.4 0.4 0.5 0.3
0.0 -0.0 0.0 0.0 0.0 0.0 0.0 0.1 0.1 0.1 0.0 0.0 0.1 0.0 -0.0 -0.1 -0.0 0.0 0.1 0.2 0.2 0.2 0.1 0.0 -0.0 0.0 0.0 0.1 0.1 0.0 0.1 0.1 0.2 0.2 0.3 0.4 0.4 0.4 0.5 0.3 0.3 0.2 0.1 0.1 0.1 0.2 0.3 0.4 0.5
0.0 0.0 0.0 0.0 0.0 0.0 0.0 0.0 0.1 0.1 0.0 0.1 0.1 0.0 -0.0 -0.1 -0.1 0.1 0.1 0.1 0.1 0.1 0.0 -0.0 -0.1 -0.1 -0.0 0.1 0.0 0.1 0.1 0.2 0.2 0.3 0.3 0.3 0.3 0.4 0.4 0.6 0.4 0.3 0.2 0.2 0.2 0.2 0.3 0.5 0.5
-0.0 0.0 0.0 0.0 0.0 0.0 0.0 0.1 0.0 0.1 0.1 0.0 0.0 0.0 -0.0 -0.0 0.0 0.1 0.1 0.0 0.0 -0.0 0.0 -0.0 -0.1 -0.1 -0.1 -0.1 -0.0 0.0 0.1 0.1 0.2 0.3 0.4 0.3 0.3 0.3 0.3 0.5 0.5 0.6 0.6 0.4 0.3 0.3 0.4 0.7 1.0
0.0 0.0 0.0 0.0 0.1 0.1 0.2 0.1 0.1 0.1 0.0 0.0 0.1 0.1 0.0 0.0 0.1 0.1 0.0 -0.0 -0.0 -0.1 -0.0 -0.0 -0.0 -0.0 -0.1 -0.0 -0.2 -0.1 -0.0 -0.1 -0.1 0.1 0.3 0.2 0.3 0.3 0.4 0.3 0.3 0.3 0.2 0.2 0.6 0.7 0.9 0.2 0.1
0.0 0.0 0.0 0.0 0.0 0.0 0.1 0.1 0.1 0.0 0.0 0.0 0.1 0.2 0.0 0.0 0.0 0.1 -0.0 -0.0 -0.0 -0.1 -0.1 -0.0 -0.1 -0.1 -0.1 -0.1 -0.1 -0.1 -0.0 -0.1 -0.2 -0.1 0.2 0.2 0.2 0.2 0.0 0.0 0.0 0.0 0.0 0.0 0.0 0.0 0.0 0.8 0.3
0.1 0.1 0.1 0.0 0.0 0.0 0.1 0.2 0.0 0.1 0.1 0.0 0.1 0.1 0.1 0.0 0.0 0.0 0.0 -0.0 -0.1 -0.2 -0.1 -0.1 -0.1 -0.1 -0.1 -0.2 -0.2 -0.1 -0.0 -0.0 -0.1 -0.0 0.1 0.2 0.1 0.0 0.0 0.0 0.0 0.0 0.0 0.0 0.0 0.0 0.0 0.1 0.5
0.1 0.1 0.0 0.0 0.0 0.1 0.1 0.1 0.0 0.0 0.0 0.1 0.1 0.1 0.1 0.0 0.0 -0.0 -0.0 -0.0 -0.0 -0.1 -0.1 -0.1 -0.0 -0.0 -0.1 -0.2 -0.1 -0.1 -0.0 -0.0 0.0 -0.0 0.1 0.1 0.1 0.1 0.0 0.0 0.0 0.0 0.0 0.0 0.0 0.0 0.1 0.0 0.0
0.1 0.0 0.0 -0.1 -0.1 0.0 0.1 0.0 0.1 0.0 0.0 0.0 0.1 0.0 0.0 0.0 0.0 0.0 0.0 0.0 -0.0 -0.0 -0.0 -0.1 -0.0 -0.0 -0.1 -0.1 -0.0 -0.0 -0.0 0.0 0.0 0.1 0.1 0.1 0.0 0.1 0.0 0.0 0.0 0.0 0.1 0.1 0.1 0.1 0.1 0.0 0.0
0.3 0.1 0.0 0.0 -0.0 0.1 0.2 0.0 0.0 0.0 0.0 0.0 0.0 0.0 0.0 0.0 0.0 0.1 0.1 0.0 0.0 -0.0 -0.0 -0.1 -0.0 -0.0 -0.0 -0.0 0.0 -0.0 -0.0 0.0 0.1 0.0 0.1 0.1 0.1 0.0 0.0 0.0 0.1 0.2 0.0 0.4 0.4 0.3 0.1 0.1 0.2
0.1 0.1 0.0 0.1 0.1 0.0 0.2 0.1 0.0 0.0 0.0 0.0 0.0 0.0 0.0 0.0 0.1 0.0 0.1 0.0 0.0 -0.0 -0.0 -0.0 -0.0 -0.0 -0.0 -0.0 -0.0 -0.0 0.0 0.0 0.0 0.0 0.1 0.1 0.0 0.0 0.0 0.0 0.1 0.1 0.0 0.3 0.1 0.3 0.4 0.5 0.1
0.1 0.0 0.0 0.1 0.1 0.0 0.2 0.0 0.0 0.0 0.0 0.0 0.0 0.0 0.0 0.0 0.0 0.0 0.0 0.0 0.0 0.0 0.0 0.0 0.0 -0.0 -0.0 -0.1 -0.0 -0.0 0.0 0.1 0.0 0.0 0.1 0.0 -0.0 0.0 0.1 0.2 0.4 0.2 0.4 0.6 0.5 0.6 0.3 0.4 0.2
0.0 0.0 0.0 0.0 0.0 0.0 0.0 0.0 0.1 0.0 0.0 0.0 -0.0 0.0 0.0 0.0 0.0 0.0 0.0 0.0 0.0 0.0 0.0 0.0 0.1 0.0 -0.1 -0.0 -0.0 0.0 0.0 0.0 0.0 0.1 0.1 0.0 0.0 -0.1 -0.2 0.1 0.0 0.1 0.3 0.8 0.6 0.7 0.5 0.2 0.0
0.1 0.0 0.0 0.0 0.0 0.0 0.0 0.0 0.0 0.1 0.0 0.0 0.0 0.0 0.0 0.0 0.0 0.0 0.0 0.0 0.0 0.0 0.0 0.0 0.2 0.0 0.0 0.0 0.0 0.0 -0.0 -0.0 -0.0 0.0 0.1 -0.0 0.0 0.1 -0.0 0.0 0.0 0.0 0.3 0.3 0.7 0.6 0.5 0.2 0.1
0.1 0.1 0.0 0.0 -0.0 -0.0 -0.0 0.0 0.0 0.0 0.0 0.1 0.0 0.0 0.0 0.0 0.0 0.1 0.0 0.0 0.0 -0.0 0.0 0.0 0.1 0.0 0.0 -0.0 0.0 0.0 0.0 -0.0 0.0 -0.0 -0.0 -0.0 0.1 0.0 -0.1 -0.1 -0.0 0.0 0.0 0.0 0.5 0.9 0.6 0.3 0.3
0.1 0.0 -0.0 0.0 -0.0 -0.0 -0.0 -0.0 0.0 0.0 0.1 0.1 0.1 0.0 0.0 0.0 0.0 0.1 0.0 0.0 0.0 0.0 0.0 0.0 0.0 0.0 0.0 0.0 0.1 0.1 0.1 0.1 0.0 0.0 -0.0 0.0 0.0 -0.1 0.0 -0.1 -0.0 0.0 0.0 0.0 0.2 0.5 0.5 0.3 0.4
0.1 0.1 0.0 0.0 -0.0 0.0 0.0 -0.0 0.0 0.0 0.0 0.0 0.1 0.0 0.0 0.0 0.0 0.1 0.0 0.0 0.0 0.0 0.0 0.0 0.0 0.0 0.0 0.0 0.0 0.0 0.0 0.1 0.0 0.0 0.0 0.0 0.0 -0.0 -0.1 0.1 0.0 0.0 0.0 0.1 0.2 0.3 0.4 0.3 0.2
0.1 0.2 0.1 -0.0 -0.0 -0.0 -0.0 -0.0 -0.0 0.0 0.0 0.0 0.0 0.0 0.0 0.0 0.0 0.1 0.0 0.0 0.0 0.0 0.1 0.0 0.0 0.1 0.1 0.0 0.0 0.0 -0.0 0.0 0.0 0.0 -0.0 0.0 0.0 0.0 -0.0 -0.0 -0.1 -0.0 0.0 0.1 0.4 0.5 0.4 0.4 0.1
0.3 0.1 0.1 -0.0 -0.0 0.0 0.0 0.0 0.0 0.0 -0.0 0.0 0.0 0.1 0.0 0.0 0.0 0.0 0.0 0.0 0.0 0.0 0.1 0.0 0.0 0.0 0.0 0.0 0.0 -0.0 -0.0 -0.0 -0.0 -0.0 -0.0 -0.0 0.0 0.0 0.1 -0.1 -0.0 -0.0 0.0 0.0 0.1 0.3 0.4 0.3 0.2
0.2 0.0 0.0 0.0 0.0 0.0 -0.0 0.0 0.0 -0.0 0.0 0.0 0.0 0.1 0.0 0.1 0.0 0.0 0.0 0.0 0.0 0.1 0.1 0.1 0.0 0.0 0.0 0.0 0.0 0.0 0.0 -0.0 -0.0 -0.0 -0.0 -0.0 0.0 0.0 0.0 0.1 -0.1 -0.0 0.0 0.0 0.0 0.2 0.2 0.3 0.4
0.1 0.0 0.0 0.0 -0.0 0.0 -0.0 0.0 -0.0 0.0 0.0 0.0 0.0 0.0 0.1 0.1 0.0 0.0 0.1 0.0 0.0 0.1 0.1 0.1 0.0 0.0 0.0 0.0 -0.0 0.0 0.0 -0.0 -0.0 -0.0 -0.0 -0.0 -0.0 -0.0 0.0 0.0 0.0 0.0 0.0 0.0 0.2 0.2 0.2 0.2 0.1
0.1 0.0 0.0 0.0 0.0 0.0 -0.0 -0.0 0.0 -0.0 0.0 0.0 0.0 0.0 0.0 0.0 0.0 0.1 0.1 0.1 0.0 0.0 0.1 0.1 0.0 0.0 0.1 0.0 0.0 0.0 0.0 0.0 -0.0 -0.0 -0.0 -0.0 -0.0 -0.0 0.0 0.0 0.0 0.0 0.1 0.1 0.2 0.2 0.1 0.1 0.0
0.0 0.0 0.0 0.0 0.0 -0.0 -0.0 -0.0 -0.0 0.0 -0.0 0.0 0.0 0.0 0.0 0.0 0.1 0.1 0.0 0.1 0.1 0.1 0.1 0.1 0.1 0.0 0.1 0.1 0.0 0.0 0.0 0.0 0.0 0.0 -0.0 0.0 0.0 0.0 0.0 0.0 0.0 0.0 0.0 0.1 0.2 0.2 0.1 0.1 0.0
0.0 0.0 0.0 0.0 0.0 -0.0 0.0 -0.0 -0.0 -0.0 0.0 0.1 0.0 0.0 0.0 0.1 0.1 0.1 0.0 0.1 0.2 0.3 0.3 0.3 0.2 0.1 0.2 0.2 0.1 0.1 0.1 0.1 0.0 0.1 0.1 0.0 0.0 0.0 0.0 0.0 0.0 0.0 0.0 0.0 0.1 0.1 0.1 0.1 0.0
0.0 0.0 0.0 0.0 0.0 0.0 0.0 0.0 0.0 0.0 0.0 0.0 0.0 0.0 0.0 0.0 0.1 0.2 0.2 0.3 0.3 0.3 0.3 0.3 0.2 0.5 0.4 0.2 0.2 0.1 0.1 0.1 0.1 0.0 0.0 0.0 0.0 0.0 0.0 0.0 0.0 0.0 0.1 0.0 0.1 0.1 0.1 0.1 0.1

GFSSGP_con_3kmehi_117.txt.gz
EHI
0.0 0.0 0.0 0.1 0.0 0.0 -0.0 0.0 0.0 0.0 0.0 0.0 0.0 0.0 0.0 0.0 0.0 0.0 -0.0 0.0 0.0 -0.0 0.1 0.2 0.3 0.3 0.5 0.1 0.1 -0.0 -0.0 -0.0 0.2 0.3 0.2 0.2 0.2 0.2 0.1 0.2 0.2 0.3 0.2 0.2 0.2 0.2 0.2 0.3 0.2
0.0 -0.0 0.0 -0.0 0.0 0.0 -0.0 0.0 0.0 0.0 0.0 0.0 0.0 0.1 0.0 0.1 0.1 0.0 0.0 0.0 0.0 0.0 0.1 0.1 0.4 0.3 0.2 0.0 0.0 -0.1 0.0 0.1 0.1 0.3 0.2 0.2 0.2 0.1 0.1 0.2 0.1 0.2 0.3 0.2 0.3 0.3 0.2 0.1 0.1
0.0 -0.0 0.0 0.0 0.0 0.0 -0.0 0.0 0.0 0.0 0.0 0.0 0.1 0.0 0.0 0.0 0.0 0.0 -0.0 0.0 0.1 0.2 0.1 0.1 0.2 0.2 0.1 -0.1 -0.1 0.0 0.1 0.1 0.2 0.2 0.1 0.1 0.1 0.0 0.1 0.2 0.2 0.2 0.3 0.2 0.3 0.2 0.1 0.0 0.0
-0.0 -0.0 0.0 0.0 0.0 0.0 -0.0 0.0 0.1 0.1 0.0 0.1 0.0 0.0 0.1 0.0 0.0 -0.0 0.0 0.1 0.1 0.1 0.0 0.0 0.1 -0.0 -0.1 -0.1 -0.1 0.0 0.1 0.2 0.2 0.2 0.2 0.1 0.2 0.2 0.2 0.1 0.2 0.3 0.4 0.5 0.3 0.1 0.0 0.1 0.2
-0.0 0.0 0.1 0.0 0.0 0.0 0.0 0.1 0.1 0.1 0.1 0.1 0.0 0.0 0.0 -0.0 -0.1 0.1 0.0 0.0 0.0 0.0 -0.0 -0.0 0.0 -0.0 -0.0 0.0 0.0 0.2 0.1 0.1 0.0 0.1 0.2 0.2 0.2 0.2 0.1 0.1 0.2 0.3 0.4 0.4 0.4 0.1 0.0 0.1 0.1
-0.0 0.0 0.1 0.0 0.0 0.0 0.0 0.0 0.1 0.1 0.1 0.1 0.0 0.1 0.1 -0.1 -0.0 0.0 -0.0 -0.0 -0.1 -0.0 -0.1 -0.0 0.1 0.1 0.0 0.1 0.2 0.2 0.2 0.1 0.1 0.1 0.2 0.2 0.2 0.3 0.1 0.2 0.2 0.3 0.3 0.3 0.4 0.3 0.1 0.2 0.0
-0.0 0.0 0.1 0.0 0.0 0.0 -0.0 0.0 0.0 0.1 0.1 0.0 0.0 0.0 0.1 -0.0 -0.0 0.0 -0.0 -0.1 -0.1 -0.1 -0.1 -0.0 0.0 0.1 0.1 0.3 0.2 0.2 0.2 0.3 0.2 0.2 0.2 0.1 0.1 0.2 0.2 0.2 0.2 0.2 0.2 0.3 0.4 0.3 0.3 0.4 0.3
-0.0 0.0 0.0 0.0 0.0 0.0 0.0 -0.0 0.0 0.0 0.0 0.0 0.0 0.0 0.0 -0.0 0.0 0.0 -0.0 -0.0 -0.1 -0.1 -0.1 -0.1 -0.0 0.1 0.2 0.3 0.3 0.2 0.3 0.3 0.3 0.2 0.1 0.2 0.3 0.3 0.3 0.3 0.2 0.2 0.1 0.3 0.3 0.3 0.4 0.4 0.6
0.0 0.0 0.0 0.0 0.0 0.0 0.0 0.0 0.0 -0.0 0.0 0.0 -0.0 0.0 0.0 0.0 0.0 0.0 0.0 -0.0 -0.0 -0.0 0.0 -0.0 -0.0 0.2 0.3 0.2 0.3 0.2 0.1 0.2 0.4 0.4 0.4 0.5 0.3 0.2 0.1 0.3 0.3 0.2 0.1 0.2 0.3 0.3 0.5 0.6 0.7
0.0 0.1 0.1 0.1 0.0 0.1 -0.0 0.0 0.0 0.0 0.0 0.0 0.1 0.1 0.1 -0.0 0.0 0.1 0.1 0.1 0.1 0.0 0.0 0.0 -0.0 0.1 0.1 0.1 0.2 0.2 0.3 0.5 0.6 0.6 0.6 0.6 0.5 0.5 0.4 0.3 0.3 0.2 0.1 0.3 0.4 0.4 0.6 0.5 0.6
0.0 0.0 0.0 0.0 0.1 0.1 0.0 -0.0 0.0 0.0 0.0 0.0 0.1 0.2 0.2 0.1 0.0 0.0 0.0 0.0 0.1 0.1 0.1 0.1 0.1 0.1 0.1 0.1 0.1 0.2 0.3 0.4 0.4 0.4 0.5 0.6 0.6 0.4 0.2 0.1 0.1 0.1 0.1 0.2 0.2 0.4 0.5 0.8 0.8
0.0 0.0 0.0 0.0 0.0 0.1 0.1 0.0 -0.1 0.0 0.0 0.0 0.1 0.2 0.2 0.0 -0.0 0.0 0.1 0.0 0.0 0.0 0.1 0.1 0.1 0.1 0.1 0.1 0.1 0.1 0.1 0.2 0.3 0.3 0.5 0.5 0.3 0.2 0.1 0.0 0.0 0.1 0.2 0.4 0.5 0.6 0.6 0.5 0.5
0.0 0.1 0.0 0.0 0.0 0.0 0.1 -0.0 -0.0 0.0 0.0 0.1 0.1 0.1 0.1 0.0 -0.0 0.0 0.0 0.0 0.0 0.0 0.0 0.1 0.1 0.1 0.1 0.1 0.1 0.0 0.1 0.1 0.2 0.4 0.5 0.5 0.2 0.2 0.1 0.2 0.2 0.3 0.5 0.6 0.7 0.6 0.5 0.6 0.4
0.1 0.2 0.2 0.1 0.0 0.0 0.0 -0.0 0.0 -0.0 0.0 0.1 0.1 0.1 0.1 0.0 -0.0 0.0 0.1 0.0 -0.0 0.0 0.0 -0.0 0.0 0.0 0.1 0.1 0.1 0.1 0.1 0.1 0.2 0.3 0.3 0.2 0.2 0.4 0.2 0.2 0.5 0.5 0.6 0.7 0.8 0.7 0.7 0.7 0.2
0.1 0.2 0.2 0.1 0.1 0.0 0.1 -0.0 -0.0 0.0 0.0 0.1 0.1 0.1 0.1 0.0 -0.0 0.0 0.1 0.1 0.0 -0.0 -0.0 0.0 0.0 0.0 0.0 0.1 0.1 0.0 0.2 0.1 0.2 0.3 0.2 0.4 0.3 0.2 0.4 0.3 0.7 0.4 0.3 1.0 0.8 0.7 0.7 0.6 0.2
0.1 0.1 0.0 0.0 0.1 0.1 0.0 -0.0 0.1 0.0 0.1 0.1 0.1 0.1 0.0 -0.0 -0.0 0.0 0.1 0.1 0.0 0.0 -0.0 0.0 0.0 0.0 0.0 0.0 0.0 0.0 0.0 0.1 0.1 0.2 0.3 0.5 0.4 0.3 0.3 0.5 0.5 0.3 0.7 1.0 0.9 0.8 0.5 0.3 0.1
0.1 0.0 0.1 0.0 -0.0 0.0 0.0 0.0 0.1 0.1 -0.0 0.0 0.1 0.1 -0.0 -0.0 -0.0 0.0 0.1 0.1 0.1 0.0 0.0 -0.0 0.0 -0.0 -0.0 0.0 0.1 0.1 0.2 0.1 0.2 0.1 0.2 0.2 0.2 0.2 0.4 0.4 0.6 1.0 1.3 1.3 1.1 0.7 0.5 0.2 0.1
0.0 0.1 0.0 0.0 0.0 0.0 -0.0 0.1 0.0 0.0 -0.0 -0.0 0.0 0.0 0.0 -0.0 -0.0 0.0 0.1 0.1 0.1 0.0 0.0 0.0 -0.0 -0.0 0.0 -0.0 -0.0 0.0 0.1 0.1 0.1 0.1 0.3 0.2 0.2 0.4 0.6 0.4 0.5 0.9 1.2 1.0 0.9 0.7 0.6 0.4 0.2
0.0 0.0 0.0 0.0 0.0 0.0 0.0 0.0 0.0 0.0 0.1 0.0 -0.0 -0.0 0.0 0.0 0.0 0.0 0.1 0.1 0.1 0.0 0.0 0.0 0.0 -0.0 -0.1 -0.1 -0.1 -0.1 0.0 0.0 0.0 0.1 0.2 0.3 0.5 0.5 0.4 0.4 0.4 0.6 1.0 1.1 0.8 0.6 0.9 0.7 0.3
0.0 0.0 0.1 0.0 0.0 0.0 -0.0 -0.0 0.0 0.0 0.0 0.0 0.0 -0.0 -0.0 -0.0 -0.0 -0.0 0.1 0.1 0.1 0.1 0.0 -0.0 -0.0 0.0 -0.0 0.0 -0.0 0.0 0.1 -0.0 0.0 0.1 0.1 0.2 0.1 0.3 0.4 0.4 0.3 0.4 0.4 0.8 0.8 0.7 0.5 0.6 0.6
0.0 0.0 0.1 0.1 0.0 0.0 0.0 0.0 -0.0 0.0 0.0 0.1 0.1 0.0 -0.0 -0.0 -0.0 0.0 0.0 0.1 0.1 0.1 0.1 0.0 -0.0 0.0 -0.0 -0.0 0.0 0.1 0.1 0.0 0.0 0.1 0.0 0.1 0.1 0.1 0.4 0.3 0.4 0.3 0.2 0.4 0.7 0.8 0.6 0.5 0.5
0.0 0.0 0.1 0.1 0.0 0.0 0.0 0.0 -0.0 -0.0 0.0 0.0 0.0 0.0 0.0 -0.0 -0.0 0.0 0.1 0.1 0.1 0.1 0.1 0.1 -0.0 -0.1 -0.0 -0.0 -0.0 0.0 0.2 0.1 0.1 0.1 0.1 -0.0 -0.0 0.1 0.2 0.3 0.2 0.1 0.0 0.2 0.4 0.7 0.7 0.5 0.4
0.0 0.1 0.2 0.1 0.1 0.0 0.0 0.0 0.0 0.0 -0.0 0.0 0.0 0.0 0.0 -0.0 -0.0 0.0 0.1 0.1 0.1 0.1 0.1 0.1 0.0 0.0 0.0 -0.0 0.1 -0.0 -0.0 0.1 0.0 0.2 0.1 0.1 0.1 0.0 -0.1 -0.0 0.0 0.0 0.1 0.2 0.5 0.6 0.7 0.5 0.3
0.2 0.2 0.2 0.1 0.1 0.0 0.0 -0.0 -0.0 0.0 -0.0 -0.0 0.0 0.0 0.0 -0.0 -0.0 0.0 0.1 0.1 0.0 0.0 0.0 0.1 0.1 0.1 0.1 -0.1 -0.0 0.1 0.2 0.1 0.2 0.1 0.1 0.1 0.1 -0.0 -0.0 -0.1 -0.0 -0.0 0.0 0.0 0.2 0.6 0.7 0.7 0.4
0.2 0.2 0.1 0.1 0.1 0.0 0.0 0.0 -0.0 -0.0 -0.0 0.0 0.0 0.0 -0.0 0.0 -0.0 -0.0 -0.1 0.0 0.0 0.0 0.1 0.1 0.1 0.1 0.2 0.1 -0.0 0.0 0.2 0.2 0.2 0.2 0.3 0.1 0.2 0.0 -0.0 -0.2 -0.1 -0.1 -0.0 0.1 0.1 0.4 0.6 0.8 0.7
0.1 0.0 0.0 0.0 0.0 0.0 0.1 0.0 -0.0 -0.0 -0.0 0.0 0.0 0.0 0.0 0.0 -0.0 -0.0 -0.0 0.1 0.1 0.0 0.1 -0.0 0.1 0.1 0.0 0.0 0.0 0.2 0.2 0.1 0.1 0.1 0.2 0.2 0.2 0.1 0.1 0.1 0.2 -0.1 0.3 0.2 0.1 0.1 0.3 0.4 0.6
0.2 0.1 0.1 0.2 0.1 0.0 0.0 0.0 -0.0 0.0 0.0 0.0 0.0 0.0 0.0 0.0 0.0 -0.0 -0.0 0.0 0.1 0.1 0.0 0.0 0.1 0.1 0.0 0.0 0.0 0.2 0.2 0.2 0.1 0.0 0.1 0.1 0.1 0.1 0.1 0.2 0.2 0.4 0.4 0.3 0.3 0.2 0.4 0.4 0.4
0.3 0.2 0.2 0.3 0.0 0.0 0.0 0.1 0.0 0.0 -0.0 0.0 0.0 0.0 0.0 0.0 0.0 -0.0 -0.0 0.0 0.1 0.1 0.0 -0.0 0.0 0.1 0.1 0.1 -0.0 0.2 0.2 0.3 0.3 0.3 0.2 0.2 0.2 0.1 0.2 0.2 0.2 0.4 0.5 0.5 0.4 0.5 0.6 0.6 0.4
0.2 0.2 0.2 0.3 0.2 0.1 0.1 0.0 -0.0 0.0 -0.0 0.1 0.0 0.0 0.0 0.0 0.0 0.0 0.0 0.0 0.1 0.1 0.1 0.0 0.0 0.0 0.1 0.2 0.2 0.2 0.2 0.3 0.3 0.3 0.4 0.3 0.3 0.2 0.1 0.3 0.2 0.2 0.3 0.4 0.5 0.4 0.5 0.5 0.5
0.1 0.1 0.1 0.1 0.0 0.1 0.1 0.0 0.0 0.0 -0.0 -0.0 -0.1 -0.1 0.1 0.1 0.0 0.0 0.0 0.0 0.1 0.1 0.1 0.1 0.0 0.0 -0.0 0.0 0.2 0.2 0.3 0.3 0.3 0.5 0.5 0.4 0.5 0.3 0.3 0.2 0.2 0.1 0.2 0.2 0.3 0.4 0.3 0.3 0.3

GFSSGP_con_3kmehi_120.txt.gz
EHI
0.0 0.1 0.1 0.4 0.3 0.0 0.0 0.0 0.0 0.0 0.0 0.0 0.0 0.0 0.0 0.0 0.0 0.0 0.0 -0.0 -0.0 0.0 -0.0 0.1 0.2 0.2 -0.2 -0.2 -0.1 -0.1 -0.1 0.0 0.1 0.1 0.2 0.2 0.1 0.2 0.2 0.2 0.2 0.2 0.3 0.2 0.3 0.2 0.1 0.1 0.1
0.0 -0.0 0.1 0.1 0.1 0.0 0.0 0.0 0.0 0.0 0.0 0.0 0.0 0.0 0.0 -0.0 -0.0 0.0 0.0 -0.0 0.0 0.0 0.0 0.1 0.2 0.2 0.0 0.0 -0.1 -0.0 0.0 0.2 0.3 0.3 0.3 0.2 0.2 0.2 0.2 0.2 0.2 0.2 0.2 0.2 0.1 0.1 0.1 0.1 0.1
0.0 -0.0 0.0 0.0 0.0 0.0 0.0 0.0 0.0 0.0 0.0 0.1 0.1 0.0 0.0 0.0 0.0 0.0 0.0 -0.0 0.0 -0.0 0.0 -0.1 0.0 0.0 0.0 0.1 0.0 0.1 0.1 0.3 0.3 0.2 0.1 0.1 0.1 0.1 0.3 0.2 0.2 0.2 0.2 0.2 0.0 0.0 0.1 0.1 0.1
0.0 0.1 0.0 0.0 0.0 0.0 0.0 0.0 0.0 0.0 0.0 0.1 0.1 0.0 0.1 -0.0 0.0 0.0 0.0 0.0 0.1 0.1 0.0 -0.1 -0.1 -0.0 0.1 0.2 0.0 0.0 0.0 0.0 -0.0 -0.1 0.0 0.2 0.2 0.2 0.2 0.2 0.3 0.3 0.2 0.2 0.1 0.0 0.1 0.1 -0.1
0.0 0.1 0.0 0.0 0.0 0.0 0.0 0.0 0.1 0.1 0.1 0.1 0.0 0.0 0.1 -0.0 -0.0 0.1 0.1 0.0 0.0 0.0 -0.0 0.1 -0.1 -0.0 0.1 0.2 0.2 0.1 0.1 0.0 0.0 0.2 0.1 0.2 0.2 0.2 0.1 0.2 0.2 0.3 0.2 0.1 -0.1 0.0 0.1 0.1 0.1
0.1 0.0 0.1 0.0 0.0 0.1 0.1 0.0 0.1 0.1 0.2 0.1 0.0 0.0 0.1 -0.0 0.0 0.0 0.0 0.0 -0.0 0.0 -0.0 0.2 -0.0 0.0 0.1 0.1 0.2 0.2 0.1 0.0 0.1 0.2 0.1 0.1 0.2 0.1 0.2 0.1 0.2 0.2 0.2 0.2 -0.0 0.1 0.2 0.2 0.1
0.0 0.1 -0.0 0.0 0.0 0.0 0.0 0.0 0.1 0.1 0.1 0.0 0.0 0.1 0.2 0.1 0.0 0.0 0.0 -0.0 -0.0 -0.0 -0.0 0.0 0.1 -0.0 0.1 0.2 0.1 0.1 0.1 0.2 0.2 0.1 0.1 0.1 0.1 0.1 0.1 0.1 0.0 0.1 0.2 0.2 0.1 0.2 0.1 0.2 0.3
0.0 0.0 0.0 -0.0 0.0 0.0 0.0 0.0 0.0 0.0 0.0 0.1 0.0 0.0 0.2 0.3 0.0 -0.0 -0.0 -0.0 -0.1 -0.0 -0.0 -0.0 -0.0 -0.0 0.1 0.1 0.2 0.2 0.2 0.3 0.2 0.2 0.1 -0.0 0.1 0.1 0.1 0.1 0.1 0.1 0.1 0.1 0.2 0.2 0.3 0.4 0.5
-0.0 0.0 0.0 0.0 0.0 0.0 0.1 0.0 -0.0 0.0 0.0 0.0 0.0 0.0 0.1 0.2 0.1 0.0 0.0 0.0 -0.0 -0.0 -0.0 -0.0 -0.1 0.1 0.4 0.3 0.2 0.1 0.1 0.2 0.2 0.2 0.1 0.1 0.0 0.0 0.0 0.3 0.1 0.1 0.1 0.2 0.2 0.3 0.4 0.7 0.7
-0.0 -0.0 0.1 0.2 0.1 0.1 -0.0 0.0 0.0 0.0 0.0 0.1 0.0 0.1 0.1 0.1 0.1 0.1 0.0 0.0 0.0 -0.0 -0.0 -0.2 -0.1 -0.1 -0.0 0.2 0.2 0.2 0.2 0.2 0.2 0.2 0.2 0.1 0.1 0.4 0.2 0.2 0.2 0.3 0.4 0.4 0.5 0.6 0.6 0.6 0.2
-0.0 -0.0 0.2 0.1 0.1 0.0 -0.1 -0.0 0.0 0.0 0.0 0.1 0.1 0.2 0.1 0.1 0.1 0.1 0.0 0.0 0.0 -0.0 -0.0 -0.0 0.0 -0.0 -0.0 -0.0 0.1 0.3 0.2 0.1 0.1 0.2 0.2 0.2 0.1 0.1 0.2 0.2 0.1 0.2 0.3 0.2 0.3 0.5 0.4 0.3 0.3
0.0 0.0 0.0 0.1 0.1 0.1 0.0 0.1 -0.0 0.0 0.1 0.0 0.0 0.1 0.1 0.1 0.1 0.0 0.0 0.0 0.0 -0.0 -0.0 0.0 0.1 0.1 0.0 0.0 0.2 0.2 0.2 0.1 0.1 0.2 0.2 0.3 0.2 0.2 0.2 0.1 0.2 0.3 0.2 0.4 0.6 0.3 0.5 0.4 0.2
0.0 0.1 0.0 0.1 0.0 0.0 -0.0 -0.0 0.0 0.0 0.0 0.0 0.0 0.1 0.1 0.0 0.0 0.0 -0.0 -0.0 -0.0 0.0 -0.0 -0.0 0.0 0.1 0.1 0.2 0.1 0.2 0.1 0.1 0.1 0.1 0.2 0.2 0.1 0.1 0.1 0.2 0.2 0.5 0.4 0.4 0.6 0.4 0.4 0.3 0.1
0.1 0.1 0.2 0.1 0.2 -0.0 -0.0 -0.0 -0.1 0.0 0.0 0.0 0.1 0.1 0.1 0.0 0.0 -0.0 -0.0 -0.0 -0.0 -0.0 -0.0 -0.1 0.0 0.0 0.1 0.0 0.1 0.1 0.1 0.2 0.1 0.1 0.1 0.0 -0.0 0.2 0.1 0.2 0.2 0.4 0.6 0.5 0.4 0.4 0.4 0.1 -0.0
0.2 0.2 0.1 0.1 0.1 0.0 0.0 -0.0 -0.0 0.0 0.0 0.0 0.1 0.1 0.0 -0.0 -0.0 0.0 -0.0 -0.0 -0.0 -0.0 -0.0 -0.1 0.0 0.0 0.0 -0.0 0.1 0.1 0.1 0.1 0.1 0.1 -0.0 0.1 0.3 0.1 0.4 0.3 0.4 0.4 0.6 1.0 0.6 0.6 0.4 0.1 0.0
0.0 0.0 0.0 0.1 0.1 0.0 -0.0 0.0 0.1 0.0 0.0 0.0 0.0 0.0 0.0 -0.0 -0.0 -0.0 -0.0 -0.0 -0.0 -0.0 -0.0 -0.0 0.0 -0.0 -0.0 -0.1 0.1 0.0 -0.0 0.1 0.1 0.1 0.2 0.3 0.1 0.2 0.5 0.4 0.4 0.5 1.0 0.7 0.4 0.2 0.1 0.1 0.0
0.0 0.0 0.1 0.1 0.0 0.0 -0.0 0.1 0.1 0.1 -0.1 0.1 0.0 0.0 0.0 -0.0 -0.0 -0.0 0.0 -0.0 -0.0 -0.0 -0.0 -0.0 0.0 -0.0 -0.1 -0.1 0.1 0.1 -0.1 0.1 0.1 0.1 0.1 0.1 0.0 0.2 0.5 0.4 0.4 1.1 1.1 1.0 0.6 0.2 0.2 0.1 0.0
0.0 0.0 0.0 0.1 0.1 0.0 0.0 0.1 0.1 0.0 -0.0 -0.0 0.0 0.0 0.0 0.0 0.0 0.0 0.0 -0.0 -0.0 -0.0 -0.1 -0.0 -0.0 -0.1 0.1 -0.0 0.1 0.0 -0.0 0.1 0.1 0.1 0.1 0.1 0.2 0.4 0.7 0.4 0.8 1.5 1.0 0.8 0.7 0.5 0.4 0.3 0.1
0.0 0.0 0.0 0.1 0.1 0.1 0.0 -0.0 0.1 0.0 0.0 -0.1 -0.0 -0.0 -0.0 0.0 0.0 0.0 0.0 0.0 0.0 0.0 -0.0 -0.0 -0.0 -0.1 -0.0 0.1 0.1 0.1 -0.0 0.0 0.1 0.1 0.1 0.3 0.4 0.5 0.4 0.4 0.7 1.1 0.8 1.3 0.8 0.4 0.4 0.1 0.1
0.0 0.0 0.0 0.1 0.1 0.1 0.0 -0.0 0.0 -0.0 0.0 -0.1 -0.1 -0.0 -0.0 -0.0 0.0 0.0 -0.0 0.0 0.0 0.0 -0.0 -0.0 -0.1 -0.0 -0.1 0.0 0.2 0.1 0.0 0.1 0.0 0.1 0.1 0.2 0.4 0.3 0.4 0.5 0.5 0.8 0.5 0.9 0.9 0.8 0.4 0.2 0.2
0.0 0.0 0.0 0.0 0.1 0.0 0.0 0.0 0.0 0.0 0.0 -0.0 -0.1 0.0 -0.0 -0.0 -0.0 0.0 -0.0 0.1 0.1 0.1 0.1 -0.0 -0.0 0.1 0.1 0.1 0.1 0.2 0.1 0.1 0.1 0.0 0.1 0.1 0.1 0.1 0.3 0.4 0.5 0.4 0.6 0.4 1.0 1.0 1.0 0.3 0.4
0.0 0.0 0.0 0.1 0.0 0.0 0.0 0.0 0.0 0.1 0.1 0.0 0.0 0.0 -0.0 -0.0 -0.0 -0.0 0.0 0.0 0.1 0.1 0.1 0.0 -0.0 -0.1 -0.0 -0.1 0.1 0.1 0.1 0.1 0.1 -0.0 0.1 0.1 0.0 0.0 0.2 0.3 0.4 0.5 0.4 0.5 0.4 0.6 1.3 1.1 0.3
0.0 0.0 0.0 0.1 0.0 0.0 0.0 0.0 0.0 0.1 0.1 0.1 0.0 0.0 0.0 0.0 -0.0 -0.0 -0.0 0.0 0.1 0.1 0.1 0.1 -0.1 -0.0 -0.1 -0.3 0.2 0.0 0.1 0.1 0.1 0.1 -0.0 0.0 0.1 0.1 0.1 0.2 0.2 0.2 0.1 0.1 0.5 0.6 1.2 0.7 0.6
0.0 0.0 0.0 0.1 0.1 0.0 0.0 0.0 0.0 0.1 -0.0 0.0 0.0 -0.0 0.0 0.0 0.0 -0.0 -0.1 -0.0 -0.0 0.1 0.1 0.1 0.2 -0.1 -0.0 0.1 -0.1 0.2 0.1 0.1 0.2 0.2 0.2 0.2 0.0 0.0 0.1 0.1 0.2 0.3 0.2 0.2 0.3 0.7 0.7 1.0 1.0
0.0 0.0 0.0 0.0 0.0 0.0 0.1 0.0 -0.0 -0.0 -0.0 -0.0 0.0 -0.0 0.0 0.0 0.0 -0.0 -0.1 -0.0 -0.0 0.1 0.1 0.1 0.1 -0.1 -0.0 0.1 0.2 0.1 0.1 0.1 0.1 0.1 0.1 0.1 0.1 0.1 0.1 0.1 0.1 0.2 0.1 0.2 0.3 0.5 0.8 0.7 0.9
0.0 -0.0 -0.0 0.0 0.0 0.0 0.1 0.0 0.0 0.0 0.0 0.0 0.0 -0.0 0.1 0.1 -0.0 0.0 -0.0 0.0 -0.0 0.1 0.2 0.1 0.2 -0.1 -0.1 -0.1 -0.0 0.0 0.1 0.2 0.1 0.0 0.1 0.1 0.1 0.0 0.0 -0.0 -0.0 -0.0 0.1 0.3 0.3 0.2 0.2 0.3 0.4
0.0 0.0 -0.0 0.0 0.0 0.0 0.0 0.0 0.0 -0.0 -0.0 -0.0 0.0 0.0 0.0 0.0 -0.0 0.0 0.0 0.1 0.0 0.0 0.2 0.1 0.1 0.0 -0.1 -0.1 0.1 0.0 0.2 0.2 0.1 0.2 0.2 -0.2 -0.1 0.0 0.1 0.1 0.0 -0.0 0.2 0.2 0.3 0.2 0.2 0.3 0.3
-0.0 0.1 0.0 0.0 0.0 0.0 0.0 0.0 0.1 0.1 0.0 -0.1 0.0 0.0 0.0 0.0 0.1 0.2 0.1 0.2 0.1 0.1 0.2 0.2 0.1 0.1 0.1 0.0 0.2 0.2 0.3 0.3 0.1 0.1 0.0 0.1 0.1 0.2 0.2 0.2 0.2 0.2 0.2 0.3 0.4 0.3 0.4 0.4 0.3
0.1 0.0 0.1 0.1 0.1 0.1 0.0 0.1 0.1 0.1 0.1 -0.1 -0.1 0.0 0.0 0.0 0.1 0.2 0.2 0.3 0.2 0.2 0.2 0.3 0.2 0.1 0.1 0.1 0.2 0.3 0.3 0.3 0.3 0.2 0.2 0.2 0.3 0.2 0.3 0.4 0.3 0.3 0.2 0.3 0.3 0.3 0.3 0.4 0.4
0.0 0.0 0.0 0.1 0.0 0.1 0.1 -0.0 0.1 -0.0 0.2 -0.1 -0.1 0.0 0.0 0.2 0.1 0.1 0.2 0.4 0.3 0.2 0.3 0.4 0.3 0.2 0.1 0.2 0.2 0.3 0.3 0.3 0.2 0.3 0.3 0.4 0.5 0.5 0.4 0.5 0.5 0.4 0.4 0.4 0.3 0.3 0.1 0.3 0.3

GFSSGP_con_3kmehi_123.txt.gz
EHI
0.0 0.2 0.3 0.3 0.8 0.2 0.0 0.0 0.0 0.0 0.0 0.0 0.0 0.0 0.0 0.1 0.1 0.1 0.0 -0.0 0.0 -0.0 -0.1 -0.3 -0.4 -0.1 -0.1 -0.1 -0.3 -0.3 -0.0 -0.1 0.0 0.1 0.1 0.1 0.1 0.1 0.1 0.2 0.1 0.0 0.1 0.1 0.1 -0.0 -0.1 0.0 0.0
0.0 0.1 0.2 0.3 0.3 0.0 0.0 0.0 0.0 -0.0 0.0 -0.0 0.0 0.1 0.0 0.0 0.0 0.0 0.0 -0.0 -0.0 -0.0 0.0 0.0 -0.1 0.0 -0.0 -0.2 -0.3 -0.1 -0.0 0.1 -0.0 0.0 0.0 0.0 0.1 0.1 0.1 0.1 0.1 0.2 0.1 0.1 0.1 0.1 0.2 0.2 0.2
0.1 0.1 0.6 0.4 0.0 0.0 0.0 0.0 0.0 0.0 0.1 0.1 0.0 0.0 0.0 0.0 0.0 0.0 0.0 -0.0 -0.0 0.1 0.1 0.2 0.3 0.2 -0.0 -0.2 -0.1 -0.1 0.1 -0.0 -0.1 0.0 0.0 0.1 0.2 0.2 0.2 0.1 0.2 0.2 0.1 0.0 0.1 0.2 0.2 0.3 0.2
0.0 0.2 0.2 0.1 -0.0 0.0 0.0 0.0 0.0 0.0 0.0 0.0 0.1 0.0 0.0 -0.0 -0.0 0.0 0.0 0.0 0.0 0.3 0.5 0.5 0.3 0.0 -0.0 0.0 0.0 0.0 0.0 0.0 -0.0 0.0 0.1 0.1 0.2 0.2 0.3 0.2 0.1 0.1 0.1 0.0 0.1 0.2 0.2 0.1 0.0
0.0 0.2 0.2 0.1 -0.0 0.0 0.0 0.0 0.0 0.0 -0.0 0.0 0.0 0.1 0.1 -0.0 0.0 0.0 -0.0 0.0 0.1 0.2 0.2 0.3 0.2 0.0 0.0 0.0 0.1 0.0 0.1 0.1 0.2 0.2 0.2 0.2 0.2 0.2 0.1 0.1 0.2 0.2 -0.1 0.0 0.2 0.1 0.0 -0.0 0.0
0.0 0.0 -0.0 0.0 0.0 0.0 0.0 0.0 0.0 -0.0 -0.0 0.0 0.0 0.1 0.1 0.0 0.0 0.0 0.0 0.0 0.0 0.0 0.4 0.1 0.1 0.1 0.1 0.1 0.0 0.0 0.0 0.0 0.1 0.1 0.2 0.2 0.2 0.2 0.1 0.1 0.2 0.2 -0.0 -0.1 0.0 0.0 0.0 0.0 0.1
0.1 -0.0 0.0 0.0 0.0 0.0 0.0 0.0 0.1 0.0 0.0 0.0 0.0 0.1 0.1 0.1 0.0 0.0 -0.0 -0.0 -0.0 0.0 0.2 0.1 0.1 0.0 0.1 0.0 0.0 0.1 0.0 -0.0 0.0 0.0 0.1 0.2 0.1 0.1 0.0 0.1 0.1 0.1 0.0 -0.0 0.0 0.0 0.2 0.1 0.1
0.1 0.2 0.0 -0.0 0.0 0.1 0.1 0.0 -0.0 -0.0 0.0 0.0 0.0 0.1 0.1 0.1 0.0 -0.0 -0.0 -0.0 0.2 0.1 0.4 0.2 0.0 -0.0 -0.0 -0.0 0.1 0.1 0.1 -0.0 -0.0 -0.0 -0.1 0.0 0.0 0.0 0.0 -0.0 0.1 0.2 0.1 0.1 0.1 0.3 0.4 0.2 0.2
0.0 0.0 -0.0 0.1 0.1 0.1 -0.0 0.0 0.1 0.0 0.0 0.0 -0.0 0.0 0.1 0.1 0.0 0.0 0.0 0.0 0.0 0.1 0.1 0.2 0.1 0.1 0.9 0.0 0.0 0.0 -0.0 0.0 -0.1 -0.1 -0.0 0.0 -0.0 0.0 -0.1 0.3 0.1 0.1 0.1 0.2 0.3 0.6 0.8 0.8 0.4
0.1 0.0 -0.0 0.2 0.2 0.1 -0.0 0.0 0.0 0.0 0.0 0.0 0.0 0.2 0.1 0.0 0.0 0.0 0.0 0.0 0.0 0.0 0.4 -0.0 0.3 -0.0 0.1 0.1 0.0 0.3 0.4 -0.2 -0.0 0.0 0.1 0.1 0.2 0.2 0.1 0.2 0.2 0.2 0.4 0.5 0.7 0.8 0.8 1.5 1.5
-0.1 0.0 0.1 0.1 0.2 0.2 -0.2 -0.0 0.0 0.0 -0.0 0.0 0.1 0.1 0.0 0.0 0.0 0.0 0.0 0.0 0.1 -0.0 0.1 0.2 -0.1 -0.2 -0.1 0.1 0.0 0.1 -0.0 0.0 0.1 0.1 0.1 0.0 0.1 0.1 0.0 0.1 0.3 0.2 0.7 0.5 1.1 1.3 0.8 0.3 0.2
0.1 -0.0 -0.0 0.1 0.1 0.0 -0.0 0.0 -0.0 -0.0 0.1 0.0 0.0 0.0 0.0 0.0 0.0 0.0 0.0 0.0 0.0 -0.0 -0.1 0.0 -0.1 -0.1 -0.1 -0.0 0.2 -0.0 0.0 -0.0 -0.0 0.1 0.0 0.1 0.0 0.1 0.2 0.1 0.1 0.3 0.0 0.3 0.8 -0.0 0.2 0.2 0.3
0.2 0.1 0.0 0.2 0.1 0.0 0.0 0.0 0.1 -0.0 0.0 0.0 0.0 0.0 0.0 0.0 0.0 -0.0 -0.0 -0.0 -0.0 -0.0 -0.0 -0.0 0.1 0.6 1.1 0.3 0.6 0.4 0.2 -0.1 0.1 -0.1 0.1 0.1 0.0 0.2 0.1 0.2 0.2 0.7 0.1 0.0 0.1 0.1 0.2 0.2 0.2
-0.0 0.1 0.1 0.2 0.1 0.0 -0.0 0.1 0.3 0.0 -0.0 0.0 0.0 0.0 0.0 0.0 0.0 -0.0 -0.0 -0.0 -0.0 -0.0 -0.1 -0.0 -0.0 -0.1 -0.1 0.7 1.1 0.3 0.2 0.4 -0.0 0.0 0.0 0.1 0.1 0.3 0.1 0.2 0.0 0.1 0.3 0.1 0.0 0.3 0.5 0.0 0.1
0.1 0.1 0.2 0.1 0.1 -0.0 -0.0 -0.0 -0.1 0.0 0.0 0.0 0.0 0.0 0.0 0.0 0.0 -0.0 -0.0 -0.0 -0.0 -0.0 -0.0 -0.0 -0.1 -0.0 -0.0 0.0 0.0 0.2 0.1 0.0 0.0 0.3 0.0 0.0 0.1 0.3 0.3 0.1 0.3 0.1 0.2 0.4 0.2 0.7 0.5 0.0 0.0
0.0 0.1 0.2 0.2 0.1 0.0 0.1 -0.0 0.3 0.2 -0.0 0.0 0.0 0.0 0.0 0.0 0.0 0.0 -0.0 -0.0 -0.0 -0.0 -0.0 -0.0 0.0 0.0 -0.0 0.0 0.1 0.1 0.2 0.1 0.6 0.2 -0.1 0.0 0.0 0.3 0.9 0.2 0.1 0.2 0.5 0.2 0.1 0.4 0.2 0.0 0.0
0.0 -0.0 0.0 0.3 0.1 0.2 0.1 0.0 0.0 0.4 0.0 0.0 -0.0 0.0 0.0 0.0 0.0 0.0 0.0 -0.0 -0.0 0.0 -0.0 -0.0 -0.1 -0.1 -0.1 -0.1 0.1 0.3 0.2 0.4 -0.4 0.2 0.0 0.1 0.1 0.2 1.1 0.3 0.2 1.3 0.2 0.2 0.1 0.1 0.1 0.1 0.0
0.0 0.0 0.0 0.1 0.3 0.1 0.1 0.1 0.3 0.1 0.1 -0.1 0.0 -0.0 0.0 0.1 0.1 0.0 0.0 0.0 -0.0 0.1 -0.0 -0.1 -0.1 0.0 -0.1 -0.1 0.4 0.3 0.0 0.2 -0.1 0.1 0.8 -0.0 0.1 0.2 1.2 0.3 0.6 1.9 0.2 0.5 1.1 2.0 0.4 0.3 0.2
0.0 0.0 0.0 0.2 0.2 0.1 0.1 0.1 0.4 0.1 0.0 -0.0 -0.1 -0.0 0.0 -0.0 0.1 0.1 0.0 0.0 0.0 0.0 -0.0 -0.0 -0.1 0.1 -0.2 -0.1 0.1 -0.0 0.1 0.2 0.2 0.1 -0.1 0.2 0.1 0.2 0.9 0.2 0.7 1.3 0.6 1.2 0.7 0.3 0.5 0.2 0.2
-0.0 0.0 0.0 0.1 0.2 0.1 0.1 0.0 0.1 0.5 0.1 -0.0 0.0 -0.1 -0.0 -0.0 0.0 0.1 0.0 0.0 0.0 0.0 0.0 0.0 -0.0 -0.1 -0.2 -0.1 0.5 0.5 0.0 0.3 0.0 0.2 -0.0 0.2 0.2 0.2 0.3 1.5 0.6 0.3 0.3 1.0 0.7 0.6 2.0 0.1 0.1
-0.0 -0.0 0.0 0.0 0.1 0.0 0.0 -0.0 0.1 0.2 0.3 0.0 0.0 -0.1 -0.0 0.0 0.0 0.1 0.0 0.1 0.1 0.1 0.0 0.1 0.0 0.0 -0.1 0.6 0.0 0.5 1.0 0.4 0.1 -0.0 0.0 0.1 0.2 0.1 0.5 0.3 1.3 0.8 1.8 0.4 0.6 1.0 0.7 0.5 0.1
-0.0 0.0 0.0 0.0 0.0 0.0 0.1 0.0 0.1 0.3 0.2 0.3 0.1 -0.1 -0.1 -0.0 0.0 0.0 0.1 0.0 0.1 0.2 0.0 0.2 0.1 0.1 -0.2 0.0 -0.2 0.1 0.3 0.1 0.1 -0.0 0.3 0.0 0.1 0.2 0.1 0.3 0.4 0.7 1.2 1.0 0.4 0.2 1.2 1.1 0.7
-0.0 0.0 0.0 0.0 -0.0 0.0 0.0 0.0 -0.0 0.2 0.4 0.2 0.2 -0.0 -0.0 -0.1 -0.1 0.1 0.1 0.0 0.1 0.2 0.1 0.1 0.0 -0.2 0.1 -0.1 0.4 -0.2 0.2 0.1 -0.1 0.3 0.2 0.3 0.1 0.3 0.2 0.2 0.4 0.5 0.4 0.2 0.7 0.7 0.6 1.2 0.7
0.0 0.0 -0.0 0.0 0.0 0.0 -0.0 0.0 -0.0 0.1 0.1 0.0 0.1 0.1 -0.1 0.0 -0.0 -0.0 0.1 0.1 0.1 0.2 0.2 0.1 0.2 -0.1 0.1 0.4 -0.1 -0.1 0.2 0.4 0.6 0.1 -0.1 -0.0 -0.0 -0.1 0.1 0.1 0.3 0.4 0.5 0.3 0.4 0.4 0.6 1.2 1.5
-0.0 -0.0 0.0 0.0 0.0 0.0 0.0 0.0 0.0 0.0 0.1 0.0 0.2 0.3 0.1 0.2 0.0 -0.0 0.0 0.1 0.4 0.1 0.4 0.2 0.3 0.0 0.1 0.3 -0.1 0.1 0.2 0.2 0.2 0.2 0.1 0.2 0.2 -0.2 1.7 0.1 0.2 0.1 0.2 0.5 0.5 0.5 1.2 0.8 1.1
0.0 -0.0 -0.0 0.0 -0.0 0.2 0.0 0.0 0.1 0.1 0.0 0.0 0.0 0.2 0.2 0.2 0.1 -0.0 0.0 0.1 1.0 0.3 0.4 0.2 0.5 0.2 0.1 0.2 0.3 0.5 0.2 0.2 0.1 0.2 0.2 0.1 0.1 0.2 0.3 0.2 0.1 0.0 0.4 0.2 0.4 0.3 0.3 0.1 0.2
-0.0 0.0 -0.0 0.0 0.0 0.0 0.2 0.0 0.1 0.0 0.0 0.0 0.0 0.1 0.1 0.0 -0.1 0.1 0.1 0.0 0.6 0.7 0.4 0.3 0.5 0.3 0.2 0.1 0.2 0.5 0.3 0.3 0.2 0.9 0.3 0.2 0.2 0.1 0.1 0.0 -0.0 -0.1 0.1 0.1 0.3 0.2 0.2 0.4 0.4
-0.0 0.0 0.0 0.0 -0.0 0.0 0.0 0.0 0.2 0.1 0.0 0.0 0.0 0.1 0.1 0.0 0.1 0.2 0.1 0.1 0.3 0.4 0.5 0.2 0.4 0.4 0.3 0.1 0.2 0.3 0.3 0.3 0.3 0.7 0.3 0.3 0.4 0.4 0.3 0.2 0.2 0.2 0.2 0.3 0.4 0.3 0.4 0.4 0.2
0.0 0.0 0.0 0.0 0.0 0.0 -0.0 0.2 0.0 0.0 0.1 0.1 0.1 0.0 0.1 0.0 0.1 0.1 0.2 0.1 0.4 0.6 0.4 0.4 0.4 0.4 0.3 0.2 0.5 0.4 0.2 0.2 0.3 0.2 0.4 0.2 0.4 0.3 0.3 0.3 0.3 0.3 0.3 0.3 0.5 0.2 0.6 0.6 0.4
0.0 0.0 0.0 0.0 0.1 0.0 0.0 0.1 0.1 0.1 0.0 0.4 -0.0 0.0 0.1 0.1 0.1 0.2 0.3 0.1 0.6 0.9 0.3 0.5 0.5 0.4 0.3 0.5 1.0 0.7 0.6 0.4 0.3 0.3 0.2 0.6 0.3 0.5 0.6 0.3 0.3 0.4 0.4 0.6 0.7 0.5 0.2 0.5 0.2